<?xml version="1.0" encoding="UTF-8" standalone="no" ?>
<gpx xmlns="http://www.topografix.com/GPX/1/1" xmlns:xsi="http://www.w3.org/2001/XMLSchema-instance" xsi:schemaLocation="http://www.topografix.com/GPX/1/1 http://www.topografix.com/GPX/1/1/gpx.xsd" version="1.1" creator="VisuGPX - https://www.visugpx.com">
  <metadata>
    <name>Vosges - Pyrénées 82. De Mirepoix à Fort Montbel</name>
    <desc><![CDATA[Trace AlpineQuest 29/05/2026 07:08:51]]></desc>
  </metadata>
  <trk>
    <name><![CDATA[visugpx_Rm06BUNlEB_1]]></name>
    <extensions>
      <line xmlns="http://www.topografix.com/GPX/gpx_style/0/2">
        <color>0000FF</color>
        <width>4</width>
      </line>
    </extensions>
    <trkseg>
      <trkpt lat="43.08884" lon="1.88678">
        <ele>306.4</ele>
        <time>2026-05-29T05:08:51Z</time>
      </trkpt>
      <trkpt lat="43.08885" lon="1.88669">
        <ele>306.6</ele>
        <time>2026-05-29T05:08:56Z</time>
      </trkpt>
      <trkpt lat="43.08884" lon="1.88667">
        <ele>306.6</ele>
        <time>2026-05-29T05:09:01Z</time>
      </trkpt>
      <trkpt lat="43.08884" lon="1.8867">
        <ele>306.5</ele>
        <time>2026-05-29T05:09:06Z</time>
      </trkpt>
      <trkpt lat="43.08884" lon="1.88676">
        <ele>306.4</ele>
        <time>2026-05-29T05:09:11Z</time>
      </trkpt>
      <trkpt lat="43.08884" lon="1.88683">
        <ele>306.3</ele>
        <time>2026-05-29T05:09:16Z</time>
      </trkpt>
      <trkpt lat="43.08882" lon="1.88691">
        <ele>306.1</ele>
        <time>2026-05-29T05:09:22Z</time>
      </trkpt>
      <trkpt lat="43.08879" lon="1.88697">
        <ele>305.9</ele>
        <time>2026-05-29T05:09:27Z</time>
      </trkpt>
      <trkpt lat="43.08877" lon="1.88704">
        <ele>305.8</ele>
        <time>2026-05-29T05:09:32Z</time>
      </trkpt>
      <trkpt lat="43.08874" lon="1.88709">
        <ele>305.7</ele>
        <time>2026-05-29T05:09:37Z</time>
      </trkpt>
      <trkpt lat="43.0887" lon="1.88711">
        <ele>305.7</ele>
        <time>2026-05-29T05:09:42Z</time>
      </trkpt>
      <trkpt lat="43.08867" lon="1.88716">
        <ele>305.7</ele>
        <time>2026-05-29T05:09:47Z</time>
      </trkpt>
      <trkpt lat="43.08862" lon="1.88717">
        <ele>305.7</ele>
        <time>2026-05-29T05:09:52Z</time>
      </trkpt>
      <trkpt lat="43.08861" lon="1.88716">
        <ele>305.7</ele>
        <time>2026-05-29T05:09:57Z</time>
      </trkpt>
      <trkpt lat="43.0886" lon="1.88712">
        <ele>305.8</ele>
        <time>2026-05-29T05:10:02Z</time>
      </trkpt>
      <trkpt lat="43.0886" lon="1.88712">
        <ele>305.8</ele>
        <time>2026-05-29T05:10:07Z</time>
      </trkpt>
      <trkpt lat="43.0886" lon="1.88712">
        <ele>305.8</ele>
        <time>2026-05-29T05:10:12Z</time>
      </trkpt>
      <trkpt lat="43.0886" lon="1.88712">
        <ele>305.8</ele>
        <time>2026-05-29T05:10:17Z</time>
      </trkpt>
      <trkpt lat="43.08859" lon="1.88717">
        <ele>305.7</ele>
        <time>2026-05-29T05:10:22Z</time>
      </trkpt>
      <trkpt lat="43.08855" lon="1.88717">
        <ele>305.8</ele>
        <time>2026-05-29T05:10:27Z</time>
      </trkpt>
      <trkpt lat="43.0885" lon="1.88718">
        <ele>305.8</ele>
        <time>2026-05-29T05:10:32Z</time>
      </trkpt>
      <trkpt lat="43.08846" lon="1.88717">
        <ele>305.9</ele>
        <time>2026-05-29T05:10:37Z</time>
      </trkpt>
      <trkpt lat="43.0884" lon="1.88717">
        <ele>305.9</ele>
        <time>2026-05-29T05:10:42Z</time>
      </trkpt>
      <trkpt lat="43.08835" lon="1.88718">
        <ele>306</ele>
        <time>2026-05-29T05:10:47Z</time>
      </trkpt>
      <trkpt lat="43.08829" lon="1.88718">
        <ele>306.1</ele>
        <time>2026-05-29T05:10:52Z</time>
      </trkpt>
      <trkpt lat="43.08825" lon="1.88718">
        <ele>306.1</ele>
        <time>2026-05-29T05:10:57Z</time>
      </trkpt>
      <trkpt lat="43.08821" lon="1.88717">
        <ele>306.2</ele>
        <time>2026-05-29T05:11:02Z</time>
      </trkpt>
      <trkpt lat="43.08815" lon="1.88718">
        <ele>306.3</ele>
        <time>2026-05-29T05:11:07Z</time>
      </trkpt>
      <trkpt lat="43.0881" lon="1.88718">
        <ele>306.3</ele>
        <time>2026-05-29T05:11:12Z</time>
      </trkpt>
      <trkpt lat="43.08805" lon="1.88718">
        <ele>306.4</ele>
        <time>2026-05-29T05:11:17Z</time>
      </trkpt>
      <trkpt lat="43.08802" lon="1.88718">
        <ele>306.5</ele>
        <time>2026-05-29T05:11:22Z</time>
      </trkpt>
      <trkpt lat="43.08797" lon="1.88719">
        <ele>306.5</ele>
        <time>2026-05-29T05:11:27Z</time>
      </trkpt>
      <trkpt lat="43.08791" lon="1.8872">
        <ele>306.7</ele>
        <time>2026-05-29T05:11:32Z</time>
      </trkpt>
      <trkpt lat="43.08786" lon="1.88721">
        <ele>306.7</ele>
        <time>2026-05-29T05:11:37Z</time>
      </trkpt>
      <trkpt lat="43.0878" lon="1.88721">
        <ele>306.8</ele>
        <time>2026-05-29T05:11:42Z</time>
      </trkpt>
      <trkpt lat="43.08776" lon="1.88721">
        <ele>306.9</ele>
        <time>2026-05-29T05:11:47Z</time>
      </trkpt>
      <trkpt lat="43.08771" lon="1.88721">
        <ele>307</ele>
        <time>2026-05-29T05:11:52Z</time>
      </trkpt>
      <trkpt lat="43.08766" lon="1.88721">
        <ele>307.1</ele>
        <time>2026-05-29T05:11:57Z</time>
      </trkpt>
      <trkpt lat="43.08761" lon="1.88721">
        <ele>307.1</ele>
        <time>2026-05-29T05:12:02Z</time>
      </trkpt>
      <trkpt lat="43.08756" lon="1.88722">
        <ele>307.2</ele>
        <time>2026-05-29T05:12:07Z</time>
      </trkpt>
      <trkpt lat="43.08751" lon="1.88723">
        <ele>307.3</ele>
        <time>2026-05-29T05:12:12Z</time>
      </trkpt>
      <trkpt lat="43.08745" lon="1.88726">
        <ele>307.4</ele>
        <time>2026-05-29T05:12:17Z</time>
      </trkpt>
      <trkpt lat="43.08741" lon="1.88725">
        <ele>307.4</ele>
        <time>2026-05-29T05:12:22Z</time>
      </trkpt>
      <trkpt lat="43.08738" lon="1.88727">
        <ele>307.4</ele>
        <time>2026-05-29T05:12:27Z</time>
      </trkpt>
      <trkpt lat="43.08736" lon="1.88726">
        <ele>307.4</ele>
        <time>2026-05-29T05:12:32Z</time>
      </trkpt>
      <trkpt lat="43.08731" lon="1.88726">
        <ele>307.3</ele>
        <time>2026-05-29T05:12:37Z</time>
      </trkpt>
      <trkpt lat="43.08727" lon="1.88727">
        <ele>307.3</ele>
        <time>2026-05-29T05:12:42Z</time>
      </trkpt>
      <trkpt lat="43.08721" lon="1.88727">
        <ele>307.3</ele>
        <time>2026-05-29T05:12:47Z</time>
      </trkpt>
      <trkpt lat="43.08715" lon="1.88726">
        <ele>307.2</ele>
        <time>2026-05-29T05:12:52Z</time>
      </trkpt>
      <trkpt lat="43.0871" lon="1.88726">
        <ele>307.2</ele>
        <time>2026-05-29T05:12:57Z</time>
      </trkpt>
      <trkpt lat="43.08705" lon="1.88727">
        <ele>307.2</ele>
        <time>2026-05-29T05:13:02Z</time>
      </trkpt>
      <trkpt lat="43.087" lon="1.88727">
        <ele>307.2</ele>
        <time>2026-05-29T05:13:07Z</time>
      </trkpt>
      <trkpt lat="43.08694" lon="1.88729">
        <ele>307.2</ele>
        <time>2026-05-29T05:13:12Z</time>
      </trkpt>
      <trkpt lat="43.0869" lon="1.8873">
        <ele>307.1</ele>
        <time>2026-05-29T05:13:17Z</time>
      </trkpt>
      <trkpt lat="43.08686" lon="1.88733">
        <ele>307.1</ele>
        <time>2026-05-29T05:13:22Z</time>
      </trkpt>
      <trkpt lat="43.08679" lon="1.88733">
        <ele>307.1</ele>
        <time>2026-05-29T05:13:27Z</time>
      </trkpt>
      <trkpt lat="43.08672" lon="1.88731">
        <ele>307</ele>
        <time>2026-05-29T05:13:32Z</time>
      </trkpt>
      <trkpt lat="43.08667" lon="1.88731">
        <ele>307</ele>
        <time>2026-05-29T05:13:37Z</time>
      </trkpt>
      <trkpt lat="43.08662" lon="1.8873">
        <ele>307.1</ele>
        <time>2026-05-29T05:13:42Z</time>
      </trkpt>
      <trkpt lat="43.08657" lon="1.88731">
        <ele>307.2</ele>
        <time>2026-05-29T05:13:47Z</time>
      </trkpt>
      <trkpt lat="43.08653" lon="1.88731">
        <ele>307.3</ele>
        <time>2026-05-29T05:13:52Z</time>
      </trkpt>
      <trkpt lat="43.08647" lon="1.88729">
        <ele>307.4</ele>
        <time>2026-05-29T05:13:57Z</time>
      </trkpt>
      <trkpt lat="43.08644" lon="1.88724">
        <ele>307.5</ele>
        <time>2026-05-29T05:14:02Z</time>
      </trkpt>
      <trkpt lat="43.0864" lon="1.88718">
        <ele>307.5</ele>
        <time>2026-05-29T05:14:07Z</time>
      </trkpt>
      <trkpt lat="43.08641" lon="1.88712">
        <ele>307.5</ele>
        <time>2026-05-29T05:14:12Z</time>
      </trkpt>
      <trkpt lat="43.08642" lon="1.88706">
        <ele>307.4</ele>
        <time>2026-05-29T05:14:17Z</time>
      </trkpt>
      <trkpt lat="43.08643" lon="1.887">
        <ele>307.4</ele>
        <time>2026-05-29T05:14:22Z</time>
      </trkpt>
      <trkpt lat="43.08644" lon="1.88694">
        <ele>307.4</ele>
        <time>2026-05-29T05:14:27Z</time>
      </trkpt>
      <trkpt lat="43.08644" lon="1.88689">
        <ele>307.3</ele>
        <time>2026-05-29T05:14:32Z</time>
      </trkpt>
      <trkpt lat="43.08646" lon="1.88682">
        <ele>307.3</ele>
        <time>2026-05-29T05:14:37Z</time>
      </trkpt>
      <trkpt lat="43.08648" lon="1.88674">
        <ele>307.2</ele>
        <time>2026-05-29T05:14:42Z</time>
      </trkpt>
      <trkpt lat="43.08651" lon="1.88666">
        <ele>307.2</ele>
        <time>2026-05-29T05:14:47Z</time>
      </trkpt>
      <trkpt lat="43.08652" lon="1.88659">
        <ele>307.1</ele>
        <time>2026-05-29T05:14:52Z</time>
      </trkpt>
      <trkpt lat="43.08654" lon="1.88652">
        <ele>307.1</ele>
        <time>2026-05-29T05:14:57Z</time>
      </trkpt>
      <trkpt lat="43.08655" lon="1.88646">
        <ele>307</ele>
        <time>2026-05-29T05:15:02Z</time>
      </trkpt>
      <trkpt lat="43.08656" lon="1.88639">
        <ele>306.9</ele>
        <time>2026-05-29T05:15:07Z</time>
      </trkpt>
      <trkpt lat="43.08658" lon="1.88632">
        <ele>306.8</ele>
        <time>2026-05-29T05:15:12Z</time>
      </trkpt>
      <trkpt lat="43.08658" lon="1.88624">
        <ele>306.8</ele>
        <time>2026-05-29T05:15:17Z</time>
      </trkpt>
      <trkpt lat="43.0866" lon="1.88617">
        <ele>306.6</ele>
        <time>2026-05-29T05:15:22Z</time>
      </trkpt>
      <trkpt lat="43.08661" lon="1.88609">
        <ele>306.5</ele>
        <time>2026-05-29T05:15:27Z</time>
      </trkpt>
      <trkpt lat="43.08662" lon="1.88602">
        <ele>306.4</ele>
        <time>2026-05-29T05:15:32Z</time>
      </trkpt>
      <trkpt lat="43.08664" lon="1.88595">
        <ele>306.3</ele>
        <time>2026-05-29T05:15:37Z</time>
      </trkpt>
      <trkpt lat="43.08665" lon="1.88588">
        <ele>306.1</ele>
        <time>2026-05-29T05:15:42Z</time>
      </trkpt>
      <trkpt lat="43.08667" lon="1.88581">
        <ele>306</ele>
        <time>2026-05-29T05:15:47Z</time>
      </trkpt>
      <trkpt lat="43.08668" lon="1.88574">
        <ele>306.1</ele>
        <time>2026-05-29T05:15:52Z</time>
      </trkpt>
      <trkpt lat="43.0867" lon="1.88566">
        <ele>306.3</ele>
        <time>2026-05-29T05:15:57Z</time>
      </trkpt>
      <trkpt lat="43.0867" lon="1.88559">
        <ele>306.4</ele>
        <time>2026-05-29T05:16:02Z</time>
      </trkpt>
      <trkpt lat="43.08672" lon="1.88552">
        <ele>306.5</ele>
        <time>2026-05-29T05:16:07Z</time>
      </trkpt>
      <trkpt lat="43.08673" lon="1.88545">
        <ele>306.6</ele>
        <time>2026-05-29T05:16:12Z</time>
      </trkpt>
      <trkpt lat="43.08673" lon="1.8854">
        <ele>306.6</ele>
        <time>2026-05-29T05:16:17Z</time>
      </trkpt>
      <trkpt lat="43.08675" lon="1.88533">
        <ele>306.7</ele>
        <time>2026-05-29T05:16:22Z</time>
      </trkpt>
      <trkpt lat="43.08678" lon="1.88526">
        <ele>306.9</ele>
        <time>2026-05-29T05:16:27Z</time>
      </trkpt>
      <trkpt lat="43.0868" lon="1.88519">
        <ele>307</ele>
        <time>2026-05-29T05:16:32Z</time>
      </trkpt>
      <trkpt lat="43.08682" lon="1.88512">
        <ele>307.1</ele>
        <time>2026-05-29T05:16:37Z</time>
      </trkpt>
      <trkpt lat="43.08683" lon="1.88505">
        <ele>307.1</ele>
        <time>2026-05-29T05:16:42Z</time>
      </trkpt>
      <trkpt lat="43.08685" lon="1.88498">
        <ele>307.2</ele>
        <time>2026-05-29T05:16:47Z</time>
      </trkpt>
      <trkpt lat="43.08684" lon="1.88489">
        <ele>307.4</ele>
        <time>2026-05-29T05:16:52Z</time>
      </trkpt>
      <trkpt lat="43.08684" lon="1.88482">
        <ele>307.5</ele>
        <time>2026-05-29T05:16:57Z</time>
      </trkpt>
      <trkpt lat="43.08687" lon="1.88474">
        <ele>307.6</ele>
        <time>2026-05-29T05:17:02Z</time>
      </trkpt>
      <trkpt lat="43.08688" lon="1.88467">
        <ele>307.6</ele>
        <time>2026-05-29T05:17:07Z</time>
      </trkpt>
      <trkpt lat="43.0869" lon="1.8846">
        <ele>307.7</ele>
        <time>2026-05-29T05:17:12Z</time>
      </trkpt>
      <trkpt lat="43.08691" lon="1.88452">
        <ele>307.8</ele>
        <time>2026-05-29T05:17:17Z</time>
      </trkpt>
      <trkpt lat="43.08692" lon="1.88445">
        <ele>307.8</ele>
        <time>2026-05-29T05:17:22Z</time>
      </trkpt>
      <trkpt lat="43.08693" lon="1.88438">
        <ele>307.9</ele>
        <time>2026-05-29T05:17:27Z</time>
      </trkpt>
      <trkpt lat="43.08694" lon="1.8843">
        <ele>307.9</ele>
        <time>2026-05-29T05:17:32Z</time>
      </trkpt>
      <trkpt lat="43.08696" lon="1.88423">
        <ele>307.9</ele>
        <time>2026-05-29T05:17:37Z</time>
      </trkpt>
      <trkpt lat="43.08697" lon="1.88418">
        <ele>307.9</ele>
        <time>2026-05-29T05:17:42Z</time>
      </trkpt>
      <trkpt lat="43.08697" lon="1.88417">
        <ele>307.9</ele>
        <time>2026-05-29T05:17:47Z</time>
      </trkpt>
      <trkpt lat="43.08698" lon="1.88412">
        <ele>307.9</ele>
        <time>2026-05-29T05:17:52Z</time>
      </trkpt>
      <trkpt lat="43.08699" lon="1.88406">
        <ele>307.9</ele>
        <time>2026-05-29T05:17:57Z</time>
      </trkpt>
      <trkpt lat="43.087" lon="1.88398">
        <ele>308</ele>
        <time>2026-05-29T05:18:02Z</time>
      </trkpt>
      <trkpt lat="43.08701" lon="1.88391">
        <ele>308</ele>
        <time>2026-05-29T05:18:07Z</time>
      </trkpt>
      <trkpt lat="43.08703" lon="1.88385">
        <ele>308</ele>
        <time>2026-05-29T05:18:12Z</time>
      </trkpt>
      <trkpt lat="43.08705" lon="1.88378">
        <ele>308</ele>
        <time>2026-05-29T05:18:17Z</time>
      </trkpt>
      <trkpt lat="43.08706" lon="1.88372">
        <ele>308.1</ele>
        <time>2026-05-29T05:18:22Z</time>
      </trkpt>
      <trkpt lat="43.08707" lon="1.88366">
        <ele>308.1</ele>
        <time>2026-05-29T05:18:27Z</time>
      </trkpt>
      <trkpt lat="43.08708" lon="1.8836">
        <ele>308.2</ele>
        <time>2026-05-29T05:18:32Z</time>
      </trkpt>
      <trkpt lat="43.08708" lon="1.88355">
        <ele>308.2</ele>
        <time>2026-05-29T05:18:37Z</time>
      </trkpt>
      <trkpt lat="43.08708" lon="1.88355">
        <ele>308.2</ele>
        <time>2026-05-29T05:18:42Z</time>
      </trkpt>
      <trkpt lat="43.08708" lon="1.88355">
        <ele>308.2</ele>
        <time>2026-05-29T05:18:47Z</time>
      </trkpt>
      <trkpt lat="43.08708" lon="1.88355">
        <ele>308.2</ele>
        <time>2026-05-29T05:18:52Z</time>
      </trkpt>
      <trkpt lat="43.08708" lon="1.88355">
        <ele>308.2</ele>
        <time>2026-05-29T05:18:57Z</time>
      </trkpt>
      <trkpt lat="43.08708" lon="1.88355">
        <ele>308.2</ele>
        <time>2026-05-29T05:19:02Z</time>
      </trkpt>
      <trkpt lat="43.08708" lon="1.88355">
        <ele>308.2</ele>
        <time>2026-05-29T05:19:07Z</time>
      </trkpt>
      <trkpt lat="43.08708" lon="1.88355">
        <ele>308.2</ele>
        <time>2026-05-29T05:19:12Z</time>
      </trkpt>
      <trkpt lat="43.08708" lon="1.88355">
        <ele>308.2</ele>
        <time>2026-05-29T05:19:17Z</time>
      </trkpt>
      <trkpt lat="43.08709" lon="1.88351">
        <ele>308.3</ele>
        <time>2026-05-29T05:19:22Z</time>
      </trkpt>
      <trkpt lat="43.0871" lon="1.88345">
        <ele>308.3</ele>
        <time>2026-05-29T05:19:27Z</time>
      </trkpt>
      <trkpt lat="43.08711" lon="1.88339">
        <ele>308.4</ele>
        <time>2026-05-29T05:19:32Z</time>
      </trkpt>
      <trkpt lat="43.08713" lon="1.88332">
        <ele>308.4</ele>
        <time>2026-05-29T05:19:37Z</time>
      </trkpt>
      <trkpt lat="43.08715" lon="1.88326">
        <ele>308.4</ele>
        <time>2026-05-29T05:19:42Z</time>
      </trkpt>
      <trkpt lat="43.08715" lon="1.88319">
        <ele>308.3</ele>
        <time>2026-05-29T05:19:47Z</time>
      </trkpt>
      <trkpt lat="43.08717" lon="1.88312">
        <ele>308.3</ele>
        <time>2026-05-29T05:19:52Z</time>
      </trkpt>
      <trkpt lat="43.08718" lon="1.88306">
        <ele>308.3</ele>
        <time>2026-05-29T05:19:57Z</time>
      </trkpt>
      <trkpt lat="43.08719" lon="1.88299">
        <ele>308.2</ele>
        <time>2026-05-29T05:20:02Z</time>
      </trkpt>
      <trkpt lat="43.08719" lon="1.88294">
        <ele>308.2</ele>
        <time>2026-05-29T05:20:06Z</time>
      </trkpt>
      <trkpt lat="43.08722" lon="1.88285">
        <ele>308.1</ele>
        <time>2026-05-29T05:20:12Z</time>
      </trkpt>
      <trkpt lat="43.08724" lon="1.88277">
        <ele>308.1</ele>
        <time>2026-05-29T05:20:17Z</time>
      </trkpt>
      <trkpt lat="43.08726" lon="1.88269">
        <ele>308.1</ele>
        <time>2026-05-29T05:20:22Z</time>
      </trkpt>
      <trkpt lat="43.08727" lon="1.88263">
        <ele>308</ele>
        <time>2026-05-29T05:20:27Z</time>
      </trkpt>
      <trkpt lat="43.08728" lon="1.88255">
        <ele>308</ele>
        <time>2026-05-29T05:20:32Z</time>
      </trkpt>
      <trkpt lat="43.08732" lon="1.88246">
        <ele>307.9</ele>
        <time>2026-05-29T05:20:37Z</time>
      </trkpt>
      <trkpt lat="43.08733" lon="1.88239">
        <ele>307.7</ele>
        <time>2026-05-29T05:20:42Z</time>
      </trkpt>
      <trkpt lat="43.08733" lon="1.88231">
        <ele>307.5</ele>
        <time>2026-05-29T05:20:47Z</time>
      </trkpt>
      <trkpt lat="43.08729" lon="1.88224">
        <ele>307.4</ele>
        <time>2026-05-29T05:20:52Z</time>
      </trkpt>
      <trkpt lat="43.08723" lon="1.88218">
        <ele>307.2</ele>
        <time>2026-05-29T05:20:57Z</time>
      </trkpt>
      <trkpt lat="43.08717" lon="1.88215">
        <ele>307.2</ele>
        <time>2026-05-29T05:21:02Z</time>
      </trkpt>
      <trkpt lat="43.0871" lon="1.88216">
        <ele>307.2</ele>
        <time>2026-05-29T05:21:07Z</time>
      </trkpt>
      <trkpt lat="43.08705" lon="1.88214">
        <ele>307.1</ele>
        <time>2026-05-29T05:21:12Z</time>
      </trkpt>
      <trkpt lat="43.08699" lon="1.88213">
        <ele>307.1</ele>
        <time>2026-05-29T05:21:17Z</time>
      </trkpt>
      <trkpt lat="43.08692" lon="1.88214">
        <ele>307.1</ele>
        <time>2026-05-29T05:21:22Z</time>
      </trkpt>
      <trkpt lat="43.08686" lon="1.88212">
        <ele>307.1</ele>
        <time>2026-05-29T05:21:27Z</time>
      </trkpt>
      <trkpt lat="43.0868" lon="1.88211">
        <ele>307.1</ele>
        <time>2026-05-29T05:21:32Z</time>
      </trkpt>
      <trkpt lat="43.08674" lon="1.88209">
        <ele>307</ele>
        <time>2026-05-29T05:21:37Z</time>
      </trkpt>
      <trkpt lat="43.08672" lon="1.88208">
        <ele>307</ele>
        <time>2026-05-29T05:21:42Z</time>
      </trkpt>
      <trkpt lat="43.08672" lon="1.88212">
        <ele>307.1</ele>
        <time>2026-05-29T05:21:47Z</time>
      </trkpt>
      <trkpt lat="43.08666" lon="1.88212">
        <ele>307.1</ele>
        <time>2026-05-29T05:21:52Z</time>
      </trkpt>
      <trkpt lat="43.08657" lon="1.88211">
        <ele>307.2</ele>
        <time>2026-05-29T05:21:57Z</time>
      </trkpt>
      <trkpt lat="43.08649" lon="1.88208">
        <ele>307.2</ele>
        <time>2026-05-29T05:22:02Z</time>
      </trkpt>
      <trkpt lat="43.08645" lon="1.88205">
        <ele>307.2</ele>
        <time>2026-05-29T05:22:07Z</time>
      </trkpt>
      <trkpt lat="43.0864" lon="1.882">
        <ele>307.1</ele>
        <time>2026-05-29T05:22:12Z</time>
      </trkpt>
      <trkpt lat="43.08637" lon="1.88199">
        <ele>307.1</ele>
        <time>2026-05-29T05:22:17Z</time>
      </trkpt>
      <trkpt lat="43.08634" lon="1.88199">
        <ele>307.2</ele>
        <time>2026-05-29T05:22:22Z</time>
      </trkpt>
      <trkpt lat="43.0863" lon="1.88199">
        <ele>307.2</ele>
        <time>2026-05-29T05:22:27Z</time>
      </trkpt>
      <trkpt lat="43.08624" lon="1.88199">
        <ele>307.3</ele>
        <time>2026-05-29T05:22:32Z</time>
      </trkpt>
      <trkpt lat="43.08619" lon="1.882">
        <ele>307.4</ele>
        <time>2026-05-29T05:22:37Z</time>
      </trkpt>
      <trkpt lat="43.08615" lon="1.88201">
        <ele>307.4</ele>
        <time>2026-05-29T05:22:42Z</time>
      </trkpt>
      <trkpt lat="43.0861" lon="1.88201">
        <ele>307.5</ele>
        <time>2026-05-29T05:22:47Z</time>
      </trkpt>
      <trkpt lat="43.08604" lon="1.88201">
        <ele>307.6</ele>
        <time>2026-05-29T05:22:52Z</time>
      </trkpt>
      <trkpt lat="43.08598" lon="1.88199">
        <ele>307.6</ele>
        <time>2026-05-29T05:22:57Z</time>
      </trkpt>
      <trkpt lat="43.08593" lon="1.88202">
        <ele>307.7</ele>
        <time>2026-05-29T05:23:02Z</time>
      </trkpt>
      <trkpt lat="43.08588" lon="1.88201">
        <ele>307.8</ele>
        <time>2026-05-29T05:23:07Z</time>
      </trkpt>
      <trkpt lat="43.08581" lon="1.882">
        <ele>307.9</ele>
        <time>2026-05-29T05:23:12Z</time>
      </trkpt>
      <trkpt lat="43.08575" lon="1.88199">
        <ele>308</ele>
        <time>2026-05-29T05:23:17Z</time>
      </trkpt>
      <trkpt lat="43.08569" lon="1.88198">
        <ele>308.1</ele>
        <time>2026-05-29T05:23:22Z</time>
      </trkpt>
      <trkpt lat="43.08563" lon="1.88196">
        <ele>308.2</ele>
        <time>2026-05-29T05:23:27Z</time>
      </trkpt>
      <trkpt lat="43.08558" lon="1.88193">
        <ele>308.2</ele>
        <time>2026-05-29T05:23:32Z</time>
      </trkpt>
      <trkpt lat="43.08552" lon="1.88193">
        <ele>308.4</ele>
        <time>2026-05-29T05:23:37Z</time>
      </trkpt>
      <trkpt lat="43.08549" lon="1.88195">
        <ele>308.5</ele>
        <time>2026-05-29T05:23:42Z</time>
      </trkpt>
      <trkpt lat="43.08546" lon="1.88197">
        <ele>308.6</ele>
        <time>2026-05-29T05:23:47Z</time>
      </trkpt>
      <trkpt lat="43.08541" lon="1.88195">
        <ele>308.7</ele>
        <time>2026-05-29T05:23:52Z</time>
      </trkpt>
      <trkpt lat="43.08536" lon="1.88195">
        <ele>308.8</ele>
        <time>2026-05-29T05:23:57Z</time>
      </trkpt>
      <trkpt lat="43.08533" lon="1.88193">
        <ele>308.8</ele>
        <time>2026-05-29T05:24:02Z</time>
      </trkpt>
      <trkpt lat="43.08531" lon="1.88193">
        <ele>308.9</ele>
        <time>2026-05-29T05:24:07Z</time>
      </trkpt>
      <trkpt lat="43.08529" lon="1.88193">
        <ele>308.9</ele>
        <time>2026-05-29T05:24:12Z</time>
      </trkpt>
      <trkpt lat="43.08529" lon="1.88193">
        <ele>308.9</ele>
        <time>2026-05-29T05:24:17Z</time>
      </trkpt>
      <trkpt lat="43.08529" lon="1.88193">
        <ele>308.9</ele>
        <time>2026-05-29T05:24:22Z</time>
      </trkpt>
      <trkpt lat="43.08527" lon="1.88189">
        <ele>308.9</ele>
        <time>2026-05-29T05:24:27Z</time>
      </trkpt>
      <trkpt lat="43.08523" lon="1.88186">
        <ele>308.9</ele>
        <time>2026-05-29T05:24:32Z</time>
      </trkpt>
      <trkpt lat="43.08518" lon="1.88186">
        <ele>309</ele>
        <time>2026-05-29T05:24:37Z</time>
      </trkpt>
      <trkpt lat="43.08512" lon="1.88185">
        <ele>309.2</ele>
        <time>2026-05-29T05:24:42Z</time>
      </trkpt>
      <trkpt lat="43.08507" lon="1.88185">
        <ele>309.3</ele>
        <time>2026-05-29T05:24:47Z</time>
      </trkpt>
      <trkpt lat="43.08502" lon="1.88184">
        <ele>309.4</ele>
        <time>2026-05-29T05:24:52Z</time>
      </trkpt>
      <trkpt lat="43.08497" lon="1.88183">
        <ele>309.4</ele>
        <time>2026-05-29T05:24:57Z</time>
      </trkpt>
      <trkpt lat="43.08492" lon="1.88182">
        <ele>309.4</ele>
        <time>2026-05-29T05:25:02Z</time>
      </trkpt>
      <trkpt lat="43.08486" lon="1.88182">
        <ele>309.4</ele>
        <time>2026-05-29T05:25:07Z</time>
      </trkpt>
      <trkpt lat="43.08482" lon="1.8818">
        <ele>309.4</ele>
        <time>2026-05-29T05:25:12Z</time>
      </trkpt>
      <trkpt lat="43.08476" lon="1.88178">
        <ele>309.4</ele>
        <time>2026-05-29T05:25:17Z</time>
      </trkpt>
      <trkpt lat="43.0847" lon="1.88175">
        <ele>309.5</ele>
        <time>2026-05-29T05:25:22Z</time>
      </trkpt>
      <trkpt lat="43.08465" lon="1.88177">
        <ele>309.5</ele>
        <time>2026-05-29T05:25:27Z</time>
      </trkpt>
      <trkpt lat="43.0846" lon="1.88176">
        <ele>309.5</ele>
        <time>2026-05-29T05:25:32Z</time>
      </trkpt>
      <trkpt lat="43.08456" lon="1.88175">
        <ele>309.6</ele>
        <time>2026-05-29T05:25:37Z</time>
      </trkpt>
      <trkpt lat="43.08451" lon="1.88173">
        <ele>309.6</ele>
        <time>2026-05-29T05:25:42Z</time>
      </trkpt>
      <trkpt lat="43.08445" lon="1.88171">
        <ele>309.7</ele>
        <time>2026-05-29T05:25:47Z</time>
      </trkpt>
      <trkpt lat="43.08439" lon="1.8817">
        <ele>309.7</ele>
        <time>2026-05-29T05:25:52Z</time>
      </trkpt>
      <trkpt lat="43.08433" lon="1.8817">
        <ele>309.8</ele>
        <time>2026-05-29T05:25:57Z</time>
      </trkpt>
      <trkpt lat="43.08427" lon="1.88171">
        <ele>309.8</ele>
        <time>2026-05-29T05:26:02Z</time>
      </trkpt>
      <trkpt lat="43.08421" lon="1.8817">
        <ele>309.9</ele>
        <time>2026-05-29T05:26:07Z</time>
      </trkpt>
      <trkpt lat="43.08415" lon="1.88172">
        <ele>309.9</ele>
        <time>2026-05-29T05:26:12Z</time>
      </trkpt>
      <trkpt lat="43.0841" lon="1.88175">
        <ele>309.9</ele>
        <time>2026-05-29T05:26:17Z</time>
      </trkpt>
      <trkpt lat="43.08405" lon="1.88177">
        <ele>309.9</ele>
        <time>2026-05-29T05:26:22Z</time>
      </trkpt>
      <trkpt lat="43.08402" lon="1.88178">
        <ele>309.9</ele>
        <time>2026-05-29T05:26:27Z</time>
      </trkpt>
      <trkpt lat="43.08398" lon="1.8818">
        <ele>309.9</ele>
        <time>2026-05-29T05:26:32Z</time>
      </trkpt>
      <trkpt lat="43.08394" lon="1.88184">
        <ele>309.8</ele>
        <time>2026-05-29T05:26:37Z</time>
      </trkpt>
      <trkpt lat="43.08391" lon="1.88186">
        <ele>309.8</ele>
        <time>2026-05-29T05:26:42Z</time>
      </trkpt>
      <trkpt lat="43.08386" lon="1.88186">
        <ele>309.9</ele>
        <time>2026-05-29T05:26:47Z</time>
      </trkpt>
      <trkpt lat="43.08383" lon="1.88186">
        <ele>309.9</ele>
        <time>2026-05-29T05:26:52Z</time>
      </trkpt>
      <trkpt lat="43.08382" lon="1.88189">
        <ele>309.8</ele>
        <time>2026-05-29T05:26:57Z</time>
      </trkpt>
      <trkpt lat="43.08382" lon="1.8819">
        <ele>309.8</ele>
        <time>2026-05-29T05:27:02Z</time>
      </trkpt>
      <trkpt lat="43.08382" lon="1.88194">
        <ele>309.8</ele>
        <time>2026-05-29T05:27:07Z</time>
      </trkpt>
      <trkpt lat="43.08382" lon="1.88196">
        <ele>309.8</ele>
        <time>2026-05-29T05:27:12Z</time>
      </trkpt>
      <trkpt lat="43.08382" lon="1.882">
        <ele>309.8</ele>
        <time>2026-05-29T05:27:17Z</time>
      </trkpt>
      <trkpt lat="43.08382" lon="1.88206">
        <ele>309.7</ele>
        <time>2026-05-29T05:27:22Z</time>
      </trkpt>
      <trkpt lat="43.08382" lon="1.88213">
        <ele>309.7</ele>
        <time>2026-05-29T05:27:27Z</time>
      </trkpt>
      <trkpt lat="43.08382" lon="1.88219">
        <ele>309.6</ele>
        <time>2026-05-29T05:27:32Z</time>
      </trkpt>
      <trkpt lat="43.08381" lon="1.88225">
        <ele>309.6</ele>
        <time>2026-05-29T05:27:37Z</time>
      </trkpt>
      <trkpt lat="43.0838" lon="1.88234">
        <ele>309.5</ele>
        <time>2026-05-29T05:27:42Z</time>
      </trkpt>
      <trkpt lat="43.08379" lon="1.88241">
        <ele>309.5</ele>
        <time>2026-05-29T05:27:47Z</time>
      </trkpt>
      <trkpt lat="43.08378" lon="1.8825">
        <ele>309.5</ele>
        <time>2026-05-29T05:27:52Z</time>
      </trkpt>
      <trkpt lat="43.08379" lon="1.88256">
        <ele>309.6</ele>
        <time>2026-05-29T05:27:57Z</time>
      </trkpt>
      <trkpt lat="43.08378" lon="1.88263">
        <ele>309.7</ele>
        <time>2026-05-29T05:28:02Z</time>
      </trkpt>
      <trkpt lat="43.08377" lon="1.8827">
        <ele>309.8</ele>
        <time>2026-05-29T05:28:07Z</time>
      </trkpt>
      <trkpt lat="43.08377" lon="1.88276">
        <ele>310</ele>
        <time>2026-05-29T05:28:12Z</time>
      </trkpt>
      <trkpt lat="43.08377" lon="1.88283">
        <ele>310.1</ele>
        <time>2026-05-29T05:28:17Z</time>
      </trkpt>
      <trkpt lat="43.08377" lon="1.88289">
        <ele>310.2</ele>
        <time>2026-05-29T05:28:22Z</time>
      </trkpt>
      <trkpt lat="43.08377" lon="1.88298">
        <ele>310.4</ele>
        <time>2026-05-29T05:28:27Z</time>
      </trkpt>
      <trkpt lat="43.08376" lon="1.88305">
        <ele>310.5</ele>
        <time>2026-05-29T05:28:32Z</time>
      </trkpt>
      <trkpt lat="43.08375" lon="1.88312">
        <ele>310.6</ele>
        <time>2026-05-29T05:28:37Z</time>
      </trkpt>
      <trkpt lat="43.08374" lon="1.88318">
        <ele>310.7</ele>
        <time>2026-05-29T05:28:42Z</time>
      </trkpt>
      <trkpt lat="43.08374" lon="1.88324">
        <ele>310.8</ele>
        <time>2026-05-29T05:28:47Z</time>
      </trkpt>
      <trkpt lat="43.08373" lon="1.88331">
        <ele>311</ele>
        <time>2026-05-29T05:28:52Z</time>
      </trkpt>
      <trkpt lat="43.08373" lon="1.88338">
        <ele>311</ele>
        <time>2026-05-29T05:28:57Z</time>
      </trkpt>
      <trkpt lat="43.08373" lon="1.88344">
        <ele>311.1</ele>
        <time>2026-05-29T05:29:02Z</time>
      </trkpt>
      <trkpt lat="43.08373" lon="1.88353">
        <ele>311.1</ele>
        <time>2026-05-29T05:29:07Z</time>
      </trkpt>
      <trkpt lat="43.08373" lon="1.8836">
        <ele>311.2</ele>
        <time>2026-05-29T05:29:12Z</time>
      </trkpt>
      <trkpt lat="43.08372" lon="1.88366">
        <ele>311.2</ele>
        <time>2026-05-29T05:29:17Z</time>
      </trkpt>
      <trkpt lat="43.08371" lon="1.88374">
        <ele>311.2</ele>
        <time>2026-05-29T05:29:22Z</time>
      </trkpt>
      <trkpt lat="43.0837" lon="1.88381">
        <ele>311.3</ele>
        <time>2026-05-29T05:29:27Z</time>
      </trkpt>
      <trkpt lat="43.0837" lon="1.88389">
        <ele>311.3</ele>
        <time>2026-05-29T05:29:32Z</time>
      </trkpt>
      <trkpt lat="43.0837" lon="1.88395">
        <ele>311.3</ele>
        <time>2026-05-29T05:29:37Z</time>
      </trkpt>
      <trkpt lat="43.08369" lon="1.88402">
        <ele>311.4</ele>
        <time>2026-05-29T05:29:42Z</time>
      </trkpt>
      <trkpt lat="43.08368" lon="1.8841">
        <ele>311.4</ele>
        <time>2026-05-29T05:29:47Z</time>
      </trkpt>
      <trkpt lat="43.08368" lon="1.88417">
        <ele>311.4</ele>
        <time>2026-05-29T05:29:52Z</time>
      </trkpt>
      <trkpt lat="43.08368" lon="1.88424">
        <ele>311.3</ele>
        <time>2026-05-29T05:29:57Z</time>
      </trkpt>
      <trkpt lat="43.08367" lon="1.88432">
        <ele>311.3</ele>
        <time>2026-05-29T05:30:02Z</time>
      </trkpt>
      <trkpt lat="43.08366" lon="1.88439">
        <ele>311.2</ele>
        <time>2026-05-29T05:30:07Z</time>
      </trkpt>
      <trkpt lat="43.08366" lon="1.88446">
        <ele>311.1</ele>
        <time>2026-05-29T05:30:12Z</time>
      </trkpt>
      <trkpt lat="43.08366" lon="1.88453">
        <ele>311.1</ele>
        <time>2026-05-29T05:30:17Z</time>
      </trkpt>
      <trkpt lat="43.08366" lon="1.88459">
        <ele>311</ele>
        <time>2026-05-29T05:30:22Z</time>
      </trkpt>
      <trkpt lat="43.08365" lon="1.88467">
        <ele>310.9</ele>
        <time>2026-05-29T05:30:27Z</time>
      </trkpt>
      <trkpt lat="43.08365" lon="1.88475">
        <ele>310.8</ele>
        <time>2026-05-29T05:30:32Z</time>
      </trkpt>
      <trkpt lat="43.08364" lon="1.88484">
        <ele>310.8</ele>
        <time>2026-05-29T05:30:37Z</time>
      </trkpt>
      <trkpt lat="43.08363" lon="1.88492">
        <ele>310.7</ele>
        <time>2026-05-29T05:30:42Z</time>
      </trkpt>
      <trkpt lat="43.08363" lon="1.88499">
        <ele>310.7</ele>
        <time>2026-05-29T05:30:47Z</time>
      </trkpt>
      <trkpt lat="43.08362" lon="1.88506">
        <ele>310.6</ele>
        <time>2026-05-29T05:30:52Z</time>
      </trkpt>
      <trkpt lat="43.08363" lon="1.88512">
        <ele>310.5</ele>
        <time>2026-05-29T05:30:57Z</time>
      </trkpt>
      <trkpt lat="43.08362" lon="1.88518">
        <ele>310.4</ele>
        <time>2026-05-29T05:31:02Z</time>
      </trkpt>
      <trkpt lat="43.08361" lon="1.88526">
        <ele>310.4</ele>
        <time>2026-05-29T05:31:07Z</time>
      </trkpt>
      <trkpt lat="43.08362" lon="1.88533">
        <ele>310.3</ele>
        <time>2026-05-29T05:31:12Z</time>
      </trkpt>
      <trkpt lat="43.08361" lon="1.88541">
        <ele>310.2</ele>
        <time>2026-05-29T05:31:17Z</time>
      </trkpt>
      <trkpt lat="43.08361" lon="1.88548">
        <ele>310.1</ele>
        <time>2026-05-29T05:31:22Z</time>
      </trkpt>
      <trkpt lat="43.08361" lon="1.88554">
        <ele>310</ele>
        <time>2026-05-29T05:31:27Z</time>
      </trkpt>
      <trkpt lat="43.0836" lon="1.8856">
        <ele>310</ele>
        <time>2026-05-29T05:31:32Z</time>
      </trkpt>
      <trkpt lat="43.08359" lon="1.88564">
        <ele>309.9</ele>
        <time>2026-05-29T05:31:37Z</time>
      </trkpt>
      <trkpt lat="43.08359" lon="1.88566">
        <ele>309.9</ele>
        <time>2026-05-29T05:31:42Z</time>
      </trkpt>
      <trkpt lat="43.08359" lon="1.88566">
        <ele>309.9</ele>
        <time>2026-05-29T05:31:47Z</time>
      </trkpt>
      <trkpt lat="43.08359" lon="1.88566">
        <ele>309.9</ele>
        <time>2026-05-29T05:31:52Z</time>
      </trkpt>
      <trkpt lat="43.08359" lon="1.88566">
        <ele>309.9</ele>
        <time>2026-05-29T05:31:57Z</time>
      </trkpt>
      <trkpt lat="43.08359" lon="1.88566">
        <ele>309.9</ele>
        <time>2026-05-29T05:32:02Z</time>
      </trkpt>
      <trkpt lat="43.08359" lon="1.88566">
        <ele>309.9</ele>
        <time>2026-05-29T05:32:07Z</time>
      </trkpt>
      <trkpt lat="43.08359" lon="1.88566">
        <ele>309.9</ele>
        <time>2026-05-29T05:32:12Z</time>
      </trkpt>
      <trkpt lat="43.08359" lon="1.88566">
        <ele>309.9</ele>
        <time>2026-05-29T05:32:17Z</time>
      </trkpt>
      <trkpt lat="43.08356" lon="1.8857">
        <ele>309.9</ele>
        <time>2026-05-29T05:32:22Z</time>
      </trkpt>
      <trkpt lat="43.08358" lon="1.88578">
        <ele>309.8</ele>
        <time>2026-05-29T05:32:27Z</time>
      </trkpt>
      <trkpt lat="43.08358" lon="1.88586">
        <ele>309.7</ele>
        <time>2026-05-29T05:32:32Z</time>
      </trkpt>
      <trkpt lat="43.08358" lon="1.88593">
        <ele>309.9</ele>
        <time>2026-05-29T05:32:37Z</time>
      </trkpt>
      <trkpt lat="43.08357" lon="1.88598">
        <ele>309.9</ele>
        <time>2026-05-29T05:32:42Z</time>
      </trkpt>
      <trkpt lat="43.08357" lon="1.88606">
        <ele>310.1</ele>
        <time>2026-05-29T05:32:47Z</time>
      </trkpt>
      <trkpt lat="43.08358" lon="1.88612">
        <ele>310.1</ele>
        <time>2026-05-29T05:32:52Z</time>
      </trkpt>
      <trkpt lat="43.08358" lon="1.88618">
        <ele>310.2</ele>
        <time>2026-05-29T05:32:57Z</time>
      </trkpt>
      <trkpt lat="43.08358" lon="1.88626">
        <ele>310.4</ele>
        <time>2026-05-29T05:33:02Z</time>
      </trkpt>
      <trkpt lat="43.08358" lon="1.88629">
        <ele>310.4</ele>
        <time>2026-05-29T05:33:07Z</time>
      </trkpt>
      <trkpt lat="43.08357" lon="1.88631">
        <ele>310.5</ele>
        <time>2026-05-29T05:33:12Z</time>
      </trkpt>
      <trkpt lat="43.08358" lon="1.88638">
        <ele>310.6</ele>
        <time>2026-05-29T05:33:17Z</time>
      </trkpt>
      <trkpt lat="43.08356" lon="1.88647">
        <ele>310.7</ele>
        <time>2026-05-29T05:33:22Z</time>
      </trkpt>
      <trkpt lat="43.08355" lon="1.88654">
        <ele>310.8</ele>
        <time>2026-05-29T05:33:27Z</time>
      </trkpt>
      <trkpt lat="43.08354" lon="1.88661">
        <ele>310.9</ele>
        <time>2026-05-29T05:33:32Z</time>
      </trkpt>
      <trkpt lat="43.08353" lon="1.88669">
        <ele>311</ele>
        <time>2026-05-29T05:33:37Z</time>
      </trkpt>
      <trkpt lat="43.08351" lon="1.88677">
        <ele>311.1</ele>
        <time>2026-05-29T05:33:42Z</time>
      </trkpt>
      <trkpt lat="43.08351" lon="1.88683">
        <ele>311.1</ele>
        <time>2026-05-29T05:33:47Z</time>
      </trkpt>
      <trkpt lat="43.08351" lon="1.88689">
        <ele>311.2</ele>
        <time>2026-05-29T05:33:52Z</time>
      </trkpt>
      <trkpt lat="43.08351" lon="1.88696">
        <ele>311.2</ele>
        <time>2026-05-29T05:33:57Z</time>
      </trkpt>
      <trkpt lat="43.0835" lon="1.88704">
        <ele>311.3</ele>
        <time>2026-05-29T05:34:02Z</time>
      </trkpt>
      <trkpt lat="43.0835" lon="1.88712">
        <ele>311.3</ele>
        <time>2026-05-29T05:34:07Z</time>
      </trkpt>
      <trkpt lat="43.0835" lon="1.88719">
        <ele>311.4</ele>
        <time>2026-05-29T05:34:12Z</time>
      </trkpt>
      <trkpt lat="43.08349" lon="1.88726">
        <ele>311.4</ele>
        <time>2026-05-29T05:34:17Z</time>
      </trkpt>
      <trkpt lat="43.08349" lon="1.88733">
        <ele>311.5</ele>
        <time>2026-05-29T05:34:22Z</time>
      </trkpt>
      <trkpt lat="43.08349" lon="1.88741">
        <ele>311.6</ele>
        <time>2026-05-29T05:34:27Z</time>
      </trkpt>
      <trkpt lat="43.08348" lon="1.88747">
        <ele>311.6</ele>
        <time>2026-05-29T05:34:32Z</time>
      </trkpt>
      <trkpt lat="43.08348" lon="1.88754">
        <ele>311.8</ele>
        <time>2026-05-29T05:34:37Z</time>
      </trkpt>
      <trkpt lat="43.08347" lon="1.88761">
        <ele>312</ele>
        <time>2026-05-29T05:34:42Z</time>
      </trkpt>
      <trkpt lat="43.08347" lon="1.88768">
        <ele>312.2</ele>
        <time>2026-05-29T05:34:47Z</time>
      </trkpt>
      <trkpt lat="43.08347" lon="1.88774">
        <ele>312.4</ele>
        <time>2026-05-29T05:34:52Z</time>
      </trkpt>
      <trkpt lat="43.08347" lon="1.88782">
        <ele>312.7</ele>
        <time>2026-05-29T05:34:57Z</time>
      </trkpt>
      <trkpt lat="43.08346" lon="1.88788">
        <ele>312.9</ele>
        <time>2026-05-29T05:35:02Z</time>
      </trkpt>
      <trkpt lat="43.08345" lon="1.88794">
        <ele>313.2</ele>
        <time>2026-05-29T05:35:07Z</time>
      </trkpt>
      <trkpt lat="43.08345" lon="1.888">
        <ele>313.4</ele>
        <time>2026-05-29T05:35:12Z</time>
      </trkpt>
      <trkpt lat="43.08345" lon="1.88808">
        <ele>313.6</ele>
        <time>2026-05-29T05:35:17Z</time>
      </trkpt>
      <trkpt lat="43.08344" lon="1.88816">
        <ele>313.9</ele>
        <time>2026-05-29T05:35:22Z</time>
      </trkpt>
      <trkpt lat="43.08344" lon="1.8882">
        <ele>314</ele>
        <time>2026-05-29T05:35:27Z</time>
      </trkpt>
      <trkpt lat="43.08344" lon="1.88821">
        <ele>314.1</ele>
        <time>2026-05-29T05:35:32Z</time>
      </trkpt>
      <trkpt lat="43.08344" lon="1.88821">
        <ele>314.1</ele>
        <time>2026-05-29T05:35:37Z</time>
      </trkpt>
      <trkpt lat="43.08343" lon="1.88824">
        <ele>314.2</ele>
        <time>2026-05-29T05:35:42Z</time>
      </trkpt>
      <trkpt lat="43.08343" lon="1.8883">
        <ele>314.4</ele>
        <time>2026-05-29T05:35:47Z</time>
      </trkpt>
      <trkpt lat="43.08343" lon="1.88838">
        <ele>314.5</ele>
        <time>2026-05-29T05:35:52Z</time>
      </trkpt>
      <trkpt lat="43.08342" lon="1.88845">
        <ele>314.6</ele>
        <time>2026-05-29T05:35:57Z</time>
      </trkpt>
      <trkpt lat="43.08342" lon="1.88851">
        <ele>314.6</ele>
        <time>2026-05-29T05:36:02Z</time>
      </trkpt>
      <trkpt lat="43.08342" lon="1.88857">
        <ele>314.6</ele>
        <time>2026-05-29T05:36:07Z</time>
      </trkpt>
      <trkpt lat="43.08341" lon="1.88864">
        <ele>314.7</ele>
        <time>2026-05-29T05:36:12Z</time>
      </trkpt>
      <trkpt lat="43.0834" lon="1.88872">
        <ele>314.8</ele>
        <time>2026-05-29T05:36:17Z</time>
      </trkpt>
      <trkpt lat="43.0834" lon="1.8888">
        <ele>314.8</ele>
        <time>2026-05-29T05:36:22Z</time>
      </trkpt>
      <trkpt lat="43.0834" lon="1.88887">
        <ele>314.8</ele>
        <time>2026-05-29T05:36:27Z</time>
      </trkpt>
      <trkpt lat="43.08339" lon="1.88894">
        <ele>314.8</ele>
        <time>2026-05-29T05:36:32Z</time>
      </trkpt>
      <trkpt lat="43.08339" lon="1.889">
        <ele>314.8</ele>
        <time>2026-05-29T05:36:37Z</time>
      </trkpt>
      <trkpt lat="43.08339" lon="1.88906">
        <ele>314.8</ele>
        <time>2026-05-29T05:36:42Z</time>
      </trkpt>
      <trkpt lat="43.08338" lon="1.88911">
        <ele>314.9</ele>
        <time>2026-05-29T05:36:47Z</time>
      </trkpt>
      <trkpt lat="43.08338" lon="1.88918">
        <ele>314.9</ele>
        <time>2026-05-29T05:36:52Z</time>
      </trkpt>
      <trkpt lat="43.08337" lon="1.88926">
        <ele>314.8</ele>
        <time>2026-05-29T05:36:57Z</time>
      </trkpt>
      <trkpt lat="43.08336" lon="1.88936">
        <ele>314.7</ele>
        <time>2026-05-29T05:37:02Z</time>
      </trkpt>
      <trkpt lat="43.08336" lon="1.88943">
        <ele>314.6</ele>
        <time>2026-05-29T05:37:07Z</time>
      </trkpt>
      <trkpt lat="43.08336" lon="1.88948">
        <ele>314.6</ele>
        <time>2026-05-29T05:37:12Z</time>
      </trkpt>
      <trkpt lat="43.08335" lon="1.88955">
        <ele>314.5</ele>
        <time>2026-05-29T05:37:17Z</time>
      </trkpt>
      <trkpt lat="43.08335" lon="1.88964">
        <ele>314.4</ele>
        <time>2026-05-29T05:37:22Z</time>
      </trkpt>
      <trkpt lat="43.08333" lon="1.88972">
        <ele>314.3</ele>
        <time>2026-05-29T05:37:27Z</time>
      </trkpt>
      <trkpt lat="43.08332" lon="1.8898">
        <ele>314.3</ele>
        <time>2026-05-29T05:37:32Z</time>
      </trkpt>
      <trkpt lat="43.08332" lon="1.88987">
        <ele>314.2</ele>
        <time>2026-05-29T05:37:37Z</time>
      </trkpt>
      <trkpt lat="43.0833" lon="1.88993">
        <ele>314.2</ele>
        <time>2026-05-29T05:37:42Z</time>
      </trkpt>
      <trkpt lat="43.0833" lon="1.88999">
        <ele>314.1</ele>
        <time>2026-05-29T05:37:47Z</time>
      </trkpt>
      <trkpt lat="43.0833" lon="1.89006">
        <ele>314.1</ele>
        <time>2026-05-29T05:37:52Z</time>
      </trkpt>
      <trkpt lat="43.08329" lon="1.89013">
        <ele>314.2</ele>
        <time>2026-05-29T05:37:57Z</time>
      </trkpt>
      <trkpt lat="43.08329" lon="1.89021">
        <ele>314.2</ele>
        <time>2026-05-29T05:38:02Z</time>
      </trkpt>
      <trkpt lat="43.08329" lon="1.89027">
        <ele>314.2</ele>
        <time>2026-05-29T05:38:07Z</time>
      </trkpt>
      <trkpt lat="43.08329" lon="1.89033">
        <ele>314.2</ele>
        <time>2026-05-29T05:38:12Z</time>
      </trkpt>
      <trkpt lat="43.08329" lon="1.8904">
        <ele>314.2</ele>
        <time>2026-05-29T05:38:17Z</time>
      </trkpt>
      <trkpt lat="43.08329" lon="1.89047">
        <ele>314.2</ele>
        <time>2026-05-29T05:38:22Z</time>
      </trkpt>
      <trkpt lat="43.08328" lon="1.89054">
        <ele>314.2</ele>
        <time>2026-05-29T05:38:27Z</time>
      </trkpt>
      <trkpt lat="43.08327" lon="1.89062">
        <ele>314.3</ele>
        <time>2026-05-29T05:38:32Z</time>
      </trkpt>
      <trkpt lat="43.08326" lon="1.89069">
        <ele>314.3</ele>
        <time>2026-05-29T05:38:37Z</time>
      </trkpt>
      <trkpt lat="43.08326" lon="1.89078">
        <ele>314.3</ele>
        <time>2026-05-29T05:38:42Z</time>
      </trkpt>
      <trkpt lat="43.08325" lon="1.89085">
        <ele>314.4</ele>
        <time>2026-05-29T05:38:47Z</time>
      </trkpt>
      <trkpt lat="43.08325" lon="1.89091">
        <ele>314.4</ele>
        <time>2026-05-29T05:38:52Z</time>
      </trkpt>
      <trkpt lat="43.08324" lon="1.89097">
        <ele>314.5</ele>
        <time>2026-05-29T05:38:57Z</time>
      </trkpt>
      <trkpt lat="43.08324" lon="1.89104">
        <ele>314.5</ele>
        <time>2026-05-29T05:39:02Z</time>
      </trkpt>
      <trkpt lat="43.08324" lon="1.89111">
        <ele>314.5</ele>
        <time>2026-05-29T05:39:07Z</time>
      </trkpt>
      <trkpt lat="43.08323" lon="1.89119">
        <ele>314.6</ele>
        <time>2026-05-29T05:39:12Z</time>
      </trkpt>
      <trkpt lat="43.08323" lon="1.89125">
        <ele>314.6</ele>
        <time>2026-05-29T05:39:17Z</time>
      </trkpt>
      <trkpt lat="43.08323" lon="1.89133">
        <ele>314.6</ele>
        <time>2026-05-29T05:39:22Z</time>
      </trkpt>
      <trkpt lat="43.08323" lon="1.89141">
        <ele>314.7</ele>
        <time>2026-05-29T05:39:27Z</time>
      </trkpt>
      <trkpt lat="43.08322" lon="1.89148">
        <ele>314.8</ele>
        <time>2026-05-29T05:39:32Z</time>
      </trkpt>
      <trkpt lat="43.08321" lon="1.89154">
        <ele>314.8</ele>
        <time>2026-05-29T05:39:37Z</time>
      </trkpt>
      <trkpt lat="43.0832" lon="1.89161">
        <ele>314.9</ele>
        <time>2026-05-29T05:39:42Z</time>
      </trkpt>
      <trkpt lat="43.0832" lon="1.89165">
        <ele>315</ele>
        <time>2026-05-29T05:39:47Z</time>
      </trkpt>
      <trkpt lat="43.0832" lon="1.89167">
        <ele>315</ele>
        <time>2026-05-29T05:39:52Z</time>
      </trkpt>
      <trkpt lat="43.0832" lon="1.89168">
        <ele>315</ele>
        <time>2026-05-29T05:39:57Z</time>
      </trkpt>
      <trkpt lat="43.0832" lon="1.89168">
        <ele>315</ele>
        <time>2026-05-29T05:40:02Z</time>
      </trkpt>
      <trkpt lat="43.0832" lon="1.89173">
        <ele>315.1</ele>
        <time>2026-05-29T05:40:07Z</time>
      </trkpt>
      <trkpt lat="43.0832" lon="1.8918">
        <ele>315.3</ele>
        <time>2026-05-29T05:40:12Z</time>
      </trkpt>
      <trkpt lat="43.08319" lon="1.89186">
        <ele>315.5</ele>
        <time>2026-05-29T05:40:17Z</time>
      </trkpt>
      <trkpt lat="43.08318" lon="1.89193">
        <ele>315.8</ele>
        <time>2026-05-29T05:40:22Z</time>
      </trkpt>
      <trkpt lat="43.08318" lon="1.89199">
        <ele>316</ele>
        <time>2026-05-29T05:40:27Z</time>
      </trkpt>
      <trkpt lat="43.08318" lon="1.89206">
        <ele>316.1</ele>
        <time>2026-05-29T05:40:32Z</time>
      </trkpt>
      <trkpt lat="43.08318" lon="1.89213">
        <ele>316.3</ele>
        <time>2026-05-29T05:40:37Z</time>
      </trkpt>
      <trkpt lat="43.08317" lon="1.8922">
        <ele>316.6</ele>
        <time>2026-05-29T05:40:42Z</time>
      </trkpt>
      <trkpt lat="43.08316" lon="1.89227">
        <ele>316.8</ele>
        <time>2026-05-29T05:40:47Z</time>
      </trkpt>
      <trkpt lat="43.08316" lon="1.89234">
        <ele>317</ele>
        <time>2026-05-29T05:40:52Z</time>
      </trkpt>
      <trkpt lat="43.08315" lon="1.89241">
        <ele>317.3</ele>
        <time>2026-05-29T05:40:57Z</time>
      </trkpt>
      <trkpt lat="43.08315" lon="1.89249">
        <ele>317.5</ele>
        <time>2026-05-29T05:41:02Z</time>
      </trkpt>
      <trkpt lat="43.08315" lon="1.8925">
        <ele>317.5</ele>
        <time>2026-05-29T05:41:07Z</time>
      </trkpt>
      <trkpt lat="43.08315" lon="1.89252">
        <ele>317.6</ele>
        <time>2026-05-29T05:41:12Z</time>
      </trkpt>
      <trkpt lat="43.08314" lon="1.89261">
        <ele>317.7</ele>
        <time>2026-05-29T05:41:17Z</time>
      </trkpt>
      <trkpt lat="43.08314" lon="1.89268">
        <ele>317.8</ele>
        <time>2026-05-29T05:41:22Z</time>
      </trkpt>
      <trkpt lat="43.08314" lon="1.89276">
        <ele>317.9</ele>
        <time>2026-05-29T05:41:27Z</time>
      </trkpt>
      <trkpt lat="43.08313" lon="1.89283">
        <ele>318</ele>
        <time>2026-05-29T05:41:32Z</time>
      </trkpt>
      <trkpt lat="43.08313" lon="1.8929">
        <ele>318.1</ele>
        <time>2026-05-29T05:41:37Z</time>
      </trkpt>
      <trkpt lat="43.08312" lon="1.89297">
        <ele>318.2</ele>
        <time>2026-05-29T05:41:42Z</time>
      </trkpt>
      <trkpt lat="43.08311" lon="1.89304">
        <ele>318.4</ele>
        <time>2026-05-29T05:41:47Z</time>
      </trkpt>
      <trkpt lat="43.08311" lon="1.89312">
        <ele>318.4</ele>
        <time>2026-05-29T05:41:52Z</time>
      </trkpt>
      <trkpt lat="43.0831" lon="1.89318">
        <ele>318.5</ele>
        <time>2026-05-29T05:41:57Z</time>
      </trkpt>
      <trkpt lat="43.0831" lon="1.89326">
        <ele>318.6</ele>
        <time>2026-05-29T05:42:02Z</time>
      </trkpt>
      <trkpt lat="43.08309" lon="1.89333">
        <ele>318.7</ele>
        <time>2026-05-29T05:42:07Z</time>
      </trkpt>
      <trkpt lat="43.08309" lon="1.89339">
        <ele>318.9</ele>
        <time>2026-05-29T05:42:12Z</time>
      </trkpt>
      <trkpt lat="43.08309" lon="1.89346">
        <ele>319.1</ele>
        <time>2026-05-29T05:42:17Z</time>
      </trkpt>
      <trkpt lat="43.08308" lon="1.89354">
        <ele>319.4</ele>
        <time>2026-05-29T05:42:22Z</time>
      </trkpt>
      <trkpt lat="43.08307" lon="1.89361">
        <ele>319.7</ele>
        <time>2026-05-29T05:42:27Z</time>
      </trkpt>
      <trkpt lat="43.08307" lon="1.89368">
        <ele>319.9</ele>
        <time>2026-05-29T05:42:32Z</time>
      </trkpt>
      <trkpt lat="43.08307" lon="1.89374">
        <ele>320.1</ele>
        <time>2026-05-29T05:42:37Z</time>
      </trkpt>
      <trkpt lat="43.08307" lon="1.89379">
        <ele>320.2</ele>
        <time>2026-05-29T05:42:42Z</time>
      </trkpt>
      <trkpt lat="43.08306" lon="1.89386">
        <ele>320.4</ele>
        <time>2026-05-29T05:42:47Z</time>
      </trkpt>
      <trkpt lat="43.08306" lon="1.89393">
        <ele>320.6</ele>
        <time>2026-05-29T05:42:52Z</time>
      </trkpt>
      <trkpt lat="43.08305" lon="1.89401">
        <ele>320.9</ele>
        <time>2026-05-29T05:42:57Z</time>
      </trkpt>
      <trkpt lat="43.08305" lon="1.89407">
        <ele>321.1</ele>
        <time>2026-05-29T05:43:02Z</time>
      </trkpt>
      <trkpt lat="43.08306" lon="1.89414">
        <ele>321.2</ele>
        <time>2026-05-29T05:43:07Z</time>
      </trkpt>
      <trkpt lat="43.08305" lon="1.89421">
        <ele>321.4</ele>
        <time>2026-05-29T05:43:12Z</time>
      </trkpt>
      <trkpt lat="43.08304" lon="1.89429">
        <ele>321.5</ele>
        <time>2026-05-29T05:43:17Z</time>
      </trkpt>
      <trkpt lat="43.08304" lon="1.89435">
        <ele>321.5</ele>
        <time>2026-05-29T05:43:22Z</time>
      </trkpt>
      <trkpt lat="43.08303" lon="1.89444">
        <ele>321.6</ele>
        <time>2026-05-29T05:43:27Z</time>
      </trkpt>
      <trkpt lat="43.08303" lon="1.89452">
        <ele>321.6</ele>
        <time>2026-05-29T05:43:32Z</time>
      </trkpt>
      <trkpt lat="43.08302" lon="1.8946">
        <ele>321.7</ele>
        <time>2026-05-29T05:43:37Z</time>
      </trkpt>
      <trkpt lat="43.08301" lon="1.89466">
        <ele>321.8</ele>
        <time>2026-05-29T05:43:42Z</time>
      </trkpt>
      <trkpt lat="43.08301" lon="1.89474">
        <ele>321.8</ele>
        <time>2026-05-29T05:43:47Z</time>
      </trkpt>
      <trkpt lat="43.08301" lon="1.89481">
        <ele>321.9</ele>
        <time>2026-05-29T05:43:52Z</time>
      </trkpt>
      <trkpt lat="43.083" lon="1.89489">
        <ele>321.9</ele>
        <time>2026-05-29T05:43:57Z</time>
      </trkpt>
      <trkpt lat="43.083" lon="1.89496">
        <ele>322</ele>
        <time>2026-05-29T05:44:02Z</time>
      </trkpt>
      <trkpt lat="43.083" lon="1.89504">
        <ele>322.1</ele>
        <time>2026-05-29T05:44:07Z</time>
      </trkpt>
      <trkpt lat="43.083" lon="1.89511">
        <ele>322.2</ele>
        <time>2026-05-29T05:44:12Z</time>
      </trkpt>
      <trkpt lat="43.08299" lon="1.89519">
        <ele>322.5</ele>
        <time>2026-05-29T05:44:17Z</time>
      </trkpt>
      <trkpt lat="43.08298" lon="1.89526">
        <ele>322.7</ele>
        <time>2026-05-29T05:44:22Z</time>
      </trkpt>
      <trkpt lat="43.08297" lon="1.89533">
        <ele>322.9</ele>
        <time>2026-05-29T05:44:27Z</time>
      </trkpt>
      <trkpt lat="43.08297" lon="1.89541">
        <ele>323.1</ele>
        <time>2026-05-29T05:44:32Z</time>
      </trkpt>
      <trkpt lat="43.08296" lon="1.89549">
        <ele>323.4</ele>
        <time>2026-05-29T05:44:37Z</time>
      </trkpt>
      <trkpt lat="43.08296" lon="1.89557">
        <ele>323.5</ele>
        <time>2026-05-29T05:44:42Z</time>
      </trkpt>
      <trkpt lat="43.08295" lon="1.89561">
        <ele>323.7</ele>
        <time>2026-05-29T05:44:47Z</time>
      </trkpt>
      <trkpt lat="43.08295" lon="1.89568">
        <ele>323.9</ele>
        <time>2026-05-29T05:44:52Z</time>
      </trkpt>
      <trkpt lat="43.08294" lon="1.89575">
        <ele>324.1</ele>
        <time>2026-05-29T05:44:57Z</time>
      </trkpt>
      <trkpt lat="43.08294" lon="1.89583">
        <ele>324.3</ele>
        <time>2026-05-29T05:45:02Z</time>
      </trkpt>
      <trkpt lat="43.08294" lon="1.89592">
        <ele>324.2</ele>
        <time>2026-05-29T05:45:07Z</time>
      </trkpt>
      <trkpt lat="43.08293" lon="1.896">
        <ele>324.2</ele>
        <time>2026-05-29T05:45:12Z</time>
      </trkpt>
      <trkpt lat="43.08293" lon="1.89609">
        <ele>324.1</ele>
        <time>2026-05-29T05:45:17Z</time>
      </trkpt>
      <trkpt lat="43.08291" lon="1.89616">
        <ele>324.2</ele>
        <time>2026-05-29T05:45:22Z</time>
      </trkpt>
      <trkpt lat="43.08291" lon="1.89622">
        <ele>324.1</ele>
        <time>2026-05-29T05:45:27Z</time>
      </trkpt>
      <trkpt lat="43.0829" lon="1.8963">
        <ele>324.1</ele>
        <time>2026-05-29T05:45:32Z</time>
      </trkpt>
      <trkpt lat="43.08289" lon="1.89637">
        <ele>324.1</ele>
        <time>2026-05-29T05:45:37Z</time>
      </trkpt>
      <trkpt lat="43.0829" lon="1.89646">
        <ele>323.9</ele>
        <time>2026-05-29T05:45:42Z</time>
      </trkpt>
      <trkpt lat="43.08289" lon="1.89653">
        <ele>323.9</ele>
        <time>2026-05-29T05:45:47Z</time>
      </trkpt>
      <trkpt lat="43.08288" lon="1.8966">
        <ele>323.9</ele>
        <time>2026-05-29T05:45:52Z</time>
      </trkpt>
      <trkpt lat="43.08288" lon="1.89668">
        <ele>323.8</ele>
        <time>2026-05-29T05:45:57Z</time>
      </trkpt>
      <trkpt lat="43.08287" lon="1.89676">
        <ele>323.8</ele>
        <time>2026-05-29T05:46:02Z</time>
      </trkpt>
      <trkpt lat="43.08287" lon="1.89684">
        <ele>323.7</ele>
        <time>2026-05-29T05:46:07Z</time>
      </trkpt>
      <trkpt lat="43.08286" lon="1.89691">
        <ele>323.7</ele>
        <time>2026-05-29T05:46:12Z</time>
      </trkpt>
      <trkpt lat="43.08286" lon="1.89698">
        <ele>323.7</ele>
        <time>2026-05-29T05:46:17Z</time>
      </trkpt>
      <trkpt lat="43.08286" lon="1.89706">
        <ele>323.6</ele>
        <time>2026-05-29T05:46:22Z</time>
      </trkpt>
      <trkpt lat="43.08286" lon="1.89714">
        <ele>323.5</ele>
        <time>2026-05-29T05:46:27Z</time>
      </trkpt>
      <trkpt lat="43.08285" lon="1.89722">
        <ele>323.5</ele>
        <time>2026-05-29T05:46:32Z</time>
      </trkpt>
      <trkpt lat="43.08284" lon="1.89729">
        <ele>323.5</ele>
        <time>2026-05-29T05:46:37Z</time>
      </trkpt>
      <trkpt lat="43.08283" lon="1.89738">
        <ele>323.6</ele>
        <time>2026-05-29T05:46:42Z</time>
      </trkpt>
      <trkpt lat="43.08282" lon="1.89745">
        <ele>323.6</ele>
        <time>2026-05-29T05:46:47Z</time>
      </trkpt>
      <trkpt lat="43.08283" lon="1.89753">
        <ele>323.4</ele>
        <time>2026-05-29T05:46:52Z</time>
      </trkpt>
      <trkpt lat="43.08282" lon="1.89762">
        <ele>323.3</ele>
        <time>2026-05-29T05:46:57Z</time>
      </trkpt>
      <trkpt lat="43.08281" lon="1.89769">
        <ele>323.3</ele>
        <time>2026-05-29T05:47:02Z</time>
      </trkpt>
      <trkpt lat="43.08281" lon="1.89776">
        <ele>323.1</ele>
        <time>2026-05-29T05:47:07Z</time>
      </trkpt>
      <trkpt lat="43.0828" lon="1.89784">
        <ele>323.1</ele>
        <time>2026-05-29T05:47:12Z</time>
      </trkpt>
      <trkpt lat="43.0828" lon="1.89792">
        <ele>322.9</ele>
        <time>2026-05-29T05:47:17Z</time>
      </trkpt>
      <trkpt lat="43.08279" lon="1.89802">
        <ele>322.8</ele>
        <time>2026-05-29T05:47:22Z</time>
      </trkpt>
      <trkpt lat="43.08279" lon="1.8981">
        <ele>322.7</ele>
        <time>2026-05-29T05:47:27Z</time>
      </trkpt>
      <trkpt lat="43.0828" lon="1.89817">
        <ele>322.4</ele>
        <time>2026-05-29T05:47:32Z</time>
      </trkpt>
      <trkpt lat="43.08279" lon="1.89825">
        <ele>322.4</ele>
        <time>2026-05-29T05:47:37Z</time>
      </trkpt>
      <trkpt lat="43.08278" lon="1.89832">
        <ele>322.3</ele>
        <time>2026-05-29T05:47:42Z</time>
      </trkpt>
      <trkpt lat="43.08278" lon="1.89839">
        <ele>322.1</ele>
        <time>2026-05-29T05:47:47Z</time>
      </trkpt>
      <trkpt lat="43.08276" lon="1.89846">
        <ele>322.1</ele>
        <time>2026-05-29T05:47:52Z</time>
      </trkpt>
      <trkpt lat="43.08276" lon="1.89854">
        <ele>321.8</ele>
        <time>2026-05-29T05:47:57Z</time>
      </trkpt>
      <trkpt lat="43.08276" lon="1.8986">
        <ele>321.6</ele>
        <time>2026-05-29T05:48:02Z</time>
      </trkpt>
      <trkpt lat="43.08276" lon="1.89866">
        <ele>321.4</ele>
        <time>2026-05-29T05:48:07Z</time>
      </trkpt>
      <trkpt lat="43.08275" lon="1.89874">
        <ele>321.2</ele>
        <time>2026-05-29T05:48:12Z</time>
      </trkpt>
      <trkpt lat="43.08275" lon="1.89882">
        <ele>321</ele>
        <time>2026-05-29T05:48:17Z</time>
      </trkpt>
      <trkpt lat="43.08274" lon="1.8989">
        <ele>320.8</ele>
        <time>2026-05-29T05:48:22Z</time>
      </trkpt>
      <trkpt lat="43.08273" lon="1.89899">
        <ele>320.5</ele>
        <time>2026-05-29T05:48:27Z</time>
      </trkpt>
      <trkpt lat="43.08273" lon="1.89905">
        <ele>320.3</ele>
        <time>2026-05-29T05:48:32Z</time>
      </trkpt>
      <trkpt lat="43.08273" lon="1.89913">
        <ele>320</ele>
        <time>2026-05-29T05:48:37Z</time>
      </trkpt>
      <trkpt lat="43.08272" lon="1.89921">
        <ele>319.9</ele>
        <time>2026-05-29T05:48:42Z</time>
      </trkpt>
      <trkpt lat="43.08272" lon="1.89929">
        <ele>319.8</ele>
        <time>2026-05-29T05:48:47Z</time>
      </trkpt>
      <trkpt lat="43.08272" lon="1.89937">
        <ele>319.6</ele>
        <time>2026-05-29T05:48:52Z</time>
      </trkpt>
      <trkpt lat="43.08271" lon="1.89944">
        <ele>319.6</ele>
        <time>2026-05-29T05:48:57Z</time>
      </trkpt>
      <trkpt lat="43.08271" lon="1.89951">
        <ele>319.5</ele>
        <time>2026-05-29T05:49:02Z</time>
      </trkpt>
      <trkpt lat="43.0827" lon="1.89959">
        <ele>319.4</ele>
        <time>2026-05-29T05:49:07Z</time>
      </trkpt>
      <trkpt lat="43.08269" lon="1.89966">
        <ele>319.4</ele>
        <time>2026-05-29T05:49:12Z</time>
      </trkpt>
      <trkpt lat="43.08268" lon="1.89972">
        <ele>319.3</ele>
        <time>2026-05-29T05:49:17Z</time>
      </trkpt>
      <trkpt lat="43.08267" lon="1.89979">
        <ele>319.3</ele>
        <time>2026-05-29T05:49:22Z</time>
      </trkpt>
      <trkpt lat="43.08268" lon="1.89988">
        <ele>319.1</ele>
        <time>2026-05-29T05:49:27Z</time>
      </trkpt>
      <trkpt lat="43.08267" lon="1.89996">
        <ele>319</ele>
        <time>2026-05-29T05:49:32Z</time>
      </trkpt>
      <trkpt lat="43.08262" lon="1.90001">
        <ele>319.2</ele>
        <time>2026-05-29T05:49:37Z</time>
      </trkpt>
      <trkpt lat="43.08258" lon="1.90004">
        <ele>319.4</ele>
        <time>2026-05-29T05:49:42Z</time>
      </trkpt>
      <trkpt lat="43.08251" lon="1.90007">
        <ele>319.7</ele>
        <time>2026-05-29T05:49:47Z</time>
      </trkpt>
      <trkpt lat="43.08246" lon="1.9001">
        <ele>319.8</ele>
        <time>2026-05-29T05:49:52Z</time>
      </trkpt>
      <trkpt lat="43.08242" lon="1.90012">
        <ele>319.9</ele>
        <time>2026-05-29T05:49:57Z</time>
      </trkpt>
      <trkpt lat="43.08239" lon="1.90015">
        <ele>319.9</ele>
        <time>2026-05-29T05:50:02Z</time>
      </trkpt>
      <trkpt lat="43.08234" lon="1.90018">
        <ele>319.9</ele>
        <time>2026-05-29T05:50:07Z</time>
      </trkpt>
      <trkpt lat="43.08229" lon="1.90021">
        <ele>320</ele>
        <time>2026-05-29T05:50:12Z</time>
      </trkpt>
      <trkpt lat="43.08224" lon="1.90025">
        <ele>320</ele>
        <time>2026-05-29T05:50:17Z</time>
      </trkpt>
      <trkpt lat="43.08219" lon="1.90028">
        <ele>320.1</ele>
        <time>2026-05-29T05:50:22Z</time>
      </trkpt>
      <trkpt lat="43.08215" lon="1.90031">
        <ele>320.1</ele>
        <time>2026-05-29T05:50:27Z</time>
      </trkpt>
      <trkpt lat="43.08209" lon="1.90036">
        <ele>320.2</ele>
        <time>2026-05-29T05:50:32Z</time>
      </trkpt>
      <trkpt lat="43.08203" lon="1.90038">
        <ele>320.3</ele>
        <time>2026-05-29T05:50:37Z</time>
      </trkpt>
      <trkpt lat="43.08198" lon="1.90042">
        <ele>320.4</ele>
        <time>2026-05-29T05:50:42Z</time>
      </trkpt>
      <trkpt lat="43.08193" lon="1.90045">
        <ele>320.4</ele>
        <time>2026-05-29T05:50:47Z</time>
      </trkpt>
      <trkpt lat="43.0819" lon="1.90047">
        <ele>320.5</ele>
        <time>2026-05-29T05:50:52Z</time>
      </trkpt>
      <trkpt lat="43.08185" lon="1.9005">
        <ele>320.5</ele>
        <time>2026-05-29T05:50:57Z</time>
      </trkpt>
      <trkpt lat="43.08179" lon="1.90053">
        <ele>320.6</ele>
        <time>2026-05-29T05:51:02Z</time>
      </trkpt>
      <trkpt lat="43.08175" lon="1.90056">
        <ele>320.7</ele>
        <time>2026-05-29T05:51:07Z</time>
      </trkpt>
      <trkpt lat="43.0817" lon="1.90059">
        <ele>320.8</ele>
        <time>2026-05-29T05:51:12Z</time>
      </trkpt>
      <trkpt lat="43.08165" lon="1.90063">
        <ele>320.8</ele>
        <time>2026-05-29T05:51:17Z</time>
      </trkpt>
      <trkpt lat="43.0816" lon="1.90066">
        <ele>321</ele>
        <time>2026-05-29T05:51:22Z</time>
      </trkpt>
      <trkpt lat="43.08155" lon="1.90068">
        <ele>321.2</ele>
        <time>2026-05-29T05:51:27Z</time>
      </trkpt>
      <trkpt lat="43.0815" lon="1.90071">
        <ele>321.3</ele>
        <time>2026-05-29T05:51:32Z</time>
      </trkpt>
      <trkpt lat="43.08146" lon="1.90076">
        <ele>321.3</ele>
        <time>2026-05-29T05:51:37Z</time>
      </trkpt>
      <trkpt lat="43.0814" lon="1.90079">
        <ele>321.5</ele>
        <time>2026-05-29T05:51:42Z</time>
      </trkpt>
      <trkpt lat="43.08134" lon="1.90083">
        <ele>321.6</ele>
        <time>2026-05-29T05:51:47Z</time>
      </trkpt>
      <trkpt lat="43.0813" lon="1.90086">
        <ele>321.7</ele>
        <time>2026-05-29T05:51:52Z</time>
      </trkpt>
      <trkpt lat="43.08124" lon="1.90089">
        <ele>321.9</ele>
        <time>2026-05-29T05:51:57Z</time>
      </trkpt>
      <trkpt lat="43.08119" lon="1.90092">
        <ele>322</ele>
        <time>2026-05-29T05:52:02Z</time>
      </trkpt>
      <trkpt lat="43.08113" lon="1.90095">
        <ele>322.2</ele>
        <time>2026-05-29T05:52:07Z</time>
      </trkpt>
      <trkpt lat="43.08108" lon="1.90097">
        <ele>322.4</ele>
        <time>2026-05-29T05:52:12Z</time>
      </trkpt>
      <trkpt lat="43.08103" lon="1.901">
        <ele>322.6</ele>
        <time>2026-05-29T05:52:17Z</time>
      </trkpt>
      <trkpt lat="43.08097" lon="1.90102">
        <ele>322.9</ele>
        <time>2026-05-29T05:52:22Z</time>
      </trkpt>
      <trkpt lat="43.08091" lon="1.90104">
        <ele>323.1</ele>
        <time>2026-05-29T05:52:27Z</time>
      </trkpt>
      <trkpt lat="43.08086" lon="1.90105">
        <ele>323.3</ele>
        <time>2026-05-29T05:52:32Z</time>
      </trkpt>
      <trkpt lat="43.08081" lon="1.90106">
        <ele>323.8</ele>
        <time>2026-05-29T05:52:37Z</time>
      </trkpt>
      <trkpt lat="43.08076" lon="1.90109">
        <ele>324.3</ele>
        <time>2026-05-29T05:52:42Z</time>
      </trkpt>
      <trkpt lat="43.08072" lon="1.9011">
        <ele>324.8</ele>
        <time>2026-05-29T05:52:47Z</time>
      </trkpt>
      <trkpt lat="43.08069" lon="1.90112">
        <ele>325.1</ele>
        <time>2026-05-29T05:52:52Z</time>
      </trkpt>
      <trkpt lat="43.08068" lon="1.90111">
        <ele>325.3</ele>
        <time>2026-05-29T05:52:57Z</time>
      </trkpt>
      <trkpt lat="43.08068" lon="1.9011">
        <ele>325.3</ele>
        <time>2026-05-29T05:53:02Z</time>
      </trkpt>
      <trkpt lat="43.08068" lon="1.9011">
        <ele>325.3</ele>
        <time>2026-05-29T05:53:07Z</time>
      </trkpt>
      <trkpt lat="43.08068" lon="1.9011">
        <ele>325.3</ele>
        <time>2026-05-29T05:53:12Z</time>
      </trkpt>
      <trkpt lat="43.08068" lon="1.9011">
        <ele>325.3</ele>
        <time>2026-05-29T05:53:17Z</time>
      </trkpt>
      <trkpt lat="43.08068" lon="1.9011">
        <ele>325.3</ele>
        <time>2026-05-29T05:53:22Z</time>
      </trkpt>
      <trkpt lat="43.08068" lon="1.9011">
        <ele>325.3</ele>
        <time>2026-05-29T05:53:27Z</time>
      </trkpt>
      <trkpt lat="43.08068" lon="1.9011">
        <ele>325.3</ele>
        <time>2026-05-29T05:53:32Z</time>
      </trkpt>
      <trkpt lat="43.08068" lon="1.9011">
        <ele>325.3</ele>
        <time>2026-05-29T05:53:37Z</time>
      </trkpt>
      <trkpt lat="43.08068" lon="1.9011">
        <ele>325.3</ele>
        <time>2026-05-29T05:53:42Z</time>
      </trkpt>
      <trkpt lat="43.08068" lon="1.9011">
        <ele>325.3</ele>
        <time>2026-05-29T05:53:47Z</time>
      </trkpt>
      <trkpt lat="43.08068" lon="1.9011">
        <ele>325.3</ele>
        <time>2026-05-29T05:53:52Z</time>
      </trkpt>
      <trkpt lat="43.08068" lon="1.9011">
        <ele>325.3</ele>
        <time>2026-05-29T05:53:57Z</time>
      </trkpt>
      <trkpt lat="43.08068" lon="1.9011">
        <ele>325.3</ele>
        <time>2026-05-29T05:54:02Z</time>
      </trkpt>
      <trkpt lat="43.08068" lon="1.9011">
        <ele>325.3</ele>
        <time>2026-05-29T05:54:07Z</time>
      </trkpt>
      <trkpt lat="43.08068" lon="1.9011">
        <ele>325.3</ele>
        <time>2026-05-29T05:54:12Z</time>
      </trkpt>
      <trkpt lat="43.08068" lon="1.9011">
        <ele>325.3</ele>
        <time>2026-05-29T05:54:17Z</time>
      </trkpt>
      <trkpt lat="43.08057" lon="1.90111">
        <ele>326.7</ele>
        <time>2026-05-29T05:54:22Z</time>
      </trkpt>
      <trkpt lat="43.08053" lon="1.90114">
        <ele>327.1</ele>
        <time>2026-05-29T05:54:27Z</time>
      </trkpt>
      <trkpt lat="43.08049" lon="1.90115">
        <ele>327.6</ele>
        <time>2026-05-29T05:54:32Z</time>
      </trkpt>
      <trkpt lat="43.08046" lon="1.90117">
        <ele>327.9</ele>
        <time>2026-05-29T05:54:37Z</time>
      </trkpt>
      <trkpt lat="43.08041" lon="1.90119">
        <ele>328.5</ele>
        <time>2026-05-29T05:54:42Z</time>
      </trkpt>
      <trkpt lat="43.08037" lon="1.9012">
        <ele>329</ele>
        <time>2026-05-29T05:54:47Z</time>
      </trkpt>
      <trkpt lat="43.08032" lon="1.90121">
        <ele>329.6</ele>
        <time>2026-05-29T05:54:52Z</time>
      </trkpt>
      <trkpt lat="43.08027" lon="1.90122">
        <ele>330.2</ele>
        <time>2026-05-29T05:54:57Z</time>
      </trkpt>
      <trkpt lat="43.08023" lon="1.90124">
        <ele>330.6</ele>
        <time>2026-05-29T05:55:02Z</time>
      </trkpt>
      <trkpt lat="43.08018" lon="1.90125">
        <ele>331.2</ele>
        <time>2026-05-29T05:55:07Z</time>
      </trkpt>
      <trkpt lat="43.08014" lon="1.90127">
        <ele>331.7</ele>
        <time>2026-05-29T05:55:12Z</time>
      </trkpt>
      <trkpt lat="43.0801" lon="1.90127">
        <ele>332.2</ele>
        <time>2026-05-29T05:55:17Z</time>
      </trkpt>
      <trkpt lat="43.08007" lon="1.90127">
        <ele>332.5</ele>
        <time>2026-05-29T05:55:22Z</time>
      </trkpt>
      <trkpt lat="43.08004" lon="1.90129">
        <ele>332.9</ele>
        <time>2026-05-29T05:55:27Z</time>
      </trkpt>
      <trkpt lat="43.08" lon="1.9013">
        <ele>333.3</ele>
        <time>2026-05-29T05:55:32Z</time>
      </trkpt>
      <trkpt lat="43.07997" lon="1.90132">
        <ele>333.7</ele>
        <time>2026-05-29T05:55:37Z</time>
      </trkpt>
      <trkpt lat="43.07996" lon="1.90136">
        <ele>333.6</ele>
        <time>2026-05-29T05:55:42Z</time>
      </trkpt>
      <trkpt lat="43.07993" lon="1.9014">
        <ele>333.9</ele>
        <time>2026-05-29T05:55:47Z</time>
      </trkpt>
      <trkpt lat="43.0799" lon="1.90143">
        <ele>334.2</ele>
        <time>2026-05-29T05:55:52Z</time>
      </trkpt>
      <trkpt lat="43.07989" lon="1.90144">
        <ele>334.3</ele>
        <time>2026-05-29T05:55:57Z</time>
      </trkpt>
      <trkpt lat="43.07989" lon="1.90144">
        <ele>334.3</ele>
        <time>2026-05-29T05:56:02Z</time>
      </trkpt>
      <trkpt lat="43.07989" lon="1.90144">
        <ele>334.3</ele>
        <time>2026-05-29T05:56:07Z</time>
      </trkpt>
      <trkpt lat="43.0799" lon="1.90146">
        <ele>334.1</ele>
        <time>2026-05-29T05:56:12Z</time>
      </trkpt>
      <trkpt lat="43.07988" lon="1.90149">
        <ele>334.3</ele>
        <time>2026-05-29T05:56:17Z</time>
      </trkpt>
      <trkpt lat="43.07987" lon="1.90152">
        <ele>334.3</ele>
        <time>2026-05-29T05:56:22Z</time>
      </trkpt>
      <trkpt lat="43.07985" lon="1.90157">
        <ele>334.3</ele>
        <time>2026-05-29T05:56:27Z</time>
      </trkpt>
      <trkpt lat="43.07982" lon="1.90161">
        <ele>334.6</ele>
        <time>2026-05-29T05:56:32Z</time>
      </trkpt>
      <trkpt lat="43.07981" lon="1.90167">
        <ele>334.5</ele>
        <time>2026-05-29T05:56:37Z</time>
      </trkpt>
      <trkpt lat="43.0798" lon="1.90171">
        <ele>334.1</ele>
        <time>2026-05-29T05:56:42Z</time>
      </trkpt>
      <trkpt lat="43.07979" lon="1.90175">
        <ele>333.8</ele>
        <time>2026-05-29T05:56:47Z</time>
      </trkpt>
      <trkpt lat="43.07977" lon="1.9018">
        <ele>333.4</ele>
        <time>2026-05-29T05:56:52Z</time>
      </trkpt>
      <trkpt lat="43.07977" lon="1.90185">
        <ele>332.8</ele>
        <time>2026-05-29T05:56:57Z</time>
      </trkpt>
      <trkpt lat="43.07975" lon="1.90189">
        <ele>332.6</ele>
        <time>2026-05-29T05:57:02Z</time>
      </trkpt>
      <trkpt lat="43.07974" lon="1.90193">
        <ele>332.3</ele>
        <time>2026-05-29T05:57:07Z</time>
      </trkpt>
      <trkpt lat="43.07973" lon="1.90199">
        <ele>331.7</ele>
        <time>2026-05-29T05:57:12Z</time>
      </trkpt>
      <trkpt lat="43.07972" lon="1.90203">
        <ele>331.3</ele>
        <time>2026-05-29T05:57:17Z</time>
      </trkpt>
      <trkpt lat="43.07973" lon="1.90204">
        <ele>331.1</ele>
        <time>2026-05-29T05:57:22Z</time>
      </trkpt>
      <trkpt lat="43.07972" lon="1.90204">
        <ele>331.2</ele>
        <time>2026-05-29T05:57:27Z</time>
      </trkpt>
      <trkpt lat="43.07972" lon="1.90204">
        <ele>331.2</ele>
        <time>2026-05-29T05:57:32Z</time>
      </trkpt>
      <trkpt lat="43.07972" lon="1.90204">
        <ele>331.2</ele>
        <time>2026-05-29T05:57:37Z</time>
      </trkpt>
      <trkpt lat="43.07972" lon="1.90204">
        <ele>331.2</ele>
        <time>2026-05-29T05:57:42Z</time>
      </trkpt>
      <trkpt lat="43.07972" lon="1.90204">
        <ele>331.2</ele>
        <time>2026-05-29T05:57:47Z</time>
      </trkpt>
      <trkpt lat="43.07972" lon="1.90204">
        <ele>331.2</ele>
        <time>2026-05-29T05:57:52Z</time>
      </trkpt>
      <trkpt lat="43.07972" lon="1.90204">
        <ele>331.2</ele>
        <time>2026-05-29T05:57:57Z</time>
      </trkpt>
      <trkpt lat="43.07972" lon="1.90204">
        <ele>331.2</ele>
        <time>2026-05-29T05:58:02Z</time>
      </trkpt>
      <trkpt lat="43.07972" lon="1.90204">
        <ele>331.2</ele>
        <time>2026-05-29T05:58:07Z</time>
      </trkpt>
      <trkpt lat="43.07972" lon="1.90204">
        <ele>331.2</ele>
        <time>2026-05-29T05:58:12Z</time>
      </trkpt>
      <trkpt lat="43.07972" lon="1.90204">
        <ele>331.2</ele>
        <time>2026-05-29T05:58:17Z</time>
      </trkpt>
      <trkpt lat="43.07972" lon="1.90204">
        <ele>331.2</ele>
        <time>2026-05-29T05:58:22Z</time>
      </trkpt>
      <trkpt lat="43.07972" lon="1.90204">
        <ele>331.2</ele>
        <time>2026-05-29T05:58:27Z</time>
      </trkpt>
      <trkpt lat="43.07972" lon="1.90204">
        <ele>331.2</ele>
        <time>2026-05-29T05:58:32Z</time>
      </trkpt>
      <trkpt lat="43.07972" lon="1.90204">
        <ele>331.2</ele>
        <time>2026-05-29T05:58:37Z</time>
      </trkpt>
      <trkpt lat="43.07972" lon="1.90204">
        <ele>331.2</ele>
        <time>2026-05-29T05:58:42Z</time>
      </trkpt>
      <trkpt lat="43.07972" lon="1.90204">
        <ele>331.2</ele>
        <time>2026-05-29T05:58:47Z</time>
      </trkpt>
      <trkpt lat="43.07972" lon="1.90204">
        <ele>331.2</ele>
        <time>2026-05-29T05:58:52Z</time>
      </trkpt>
      <trkpt lat="43.07972" lon="1.90204">
        <ele>331.2</ele>
        <time>2026-05-29T05:58:57Z</time>
      </trkpt>
      <trkpt lat="43.07972" lon="1.90204">
        <ele>331.2</ele>
        <time>2026-05-29T05:59:02Z</time>
      </trkpt>
      <trkpt lat="43.07972" lon="1.90204">
        <ele>331.2</ele>
        <time>2026-05-29T05:59:07Z</time>
      </trkpt>
      <trkpt lat="43.07972" lon="1.90204">
        <ele>331.2</ele>
        <time>2026-05-29T05:59:12Z</time>
      </trkpt>
      <trkpt lat="43.07972" lon="1.90204">
        <ele>331.2</ele>
        <time>2026-05-29T05:59:17Z</time>
      </trkpt>
      <trkpt lat="43.07972" lon="1.90204">
        <ele>331.2</ele>
        <time>2026-05-29T05:59:22Z</time>
      </trkpt>
      <trkpt lat="43.07972" lon="1.90204">
        <ele>331.2</ele>
        <time>2026-05-29T05:59:27Z</time>
      </trkpt>
      <trkpt lat="43.07972" lon="1.90204">
        <ele>331.2</ele>
        <time>2026-05-29T05:59:32Z</time>
      </trkpt>
      <trkpt lat="43.07972" lon="1.90204">
        <ele>331.2</ele>
        <time>2026-05-29T05:59:37Z</time>
      </trkpt>
      <trkpt lat="43.07972" lon="1.90204">
        <ele>331.2</ele>
        <time>2026-05-29T05:59:42Z</time>
      </trkpt>
      <trkpt lat="43.07972" lon="1.90204">
        <ele>331.2</ele>
        <time>2026-05-29T05:59:47Z</time>
      </trkpt>
      <trkpt lat="43.07972" lon="1.90204">
        <ele>331.2</ele>
        <time>2026-05-29T05:59:52Z</time>
      </trkpt>
      <trkpt lat="43.07972" lon="1.90204">
        <ele>331.2</ele>
        <time>2026-05-29T05:59:57Z</time>
      </trkpt>
      <trkpt lat="43.07972" lon="1.90204">
        <ele>331.2</ele>
        <time>2026-05-29T06:00:02Z</time>
      </trkpt>
      <trkpt lat="43.07972" lon="1.90204">
        <ele>331.2</ele>
        <time>2026-05-29T06:00:07Z</time>
      </trkpt>
      <trkpt lat="43.07972" lon="1.90204">
        <ele>331.2</ele>
        <time>2026-05-29T06:00:12Z</time>
      </trkpt>
      <trkpt lat="43.07972" lon="1.90204">
        <ele>331.2</ele>
        <time>2026-05-29T06:00:17Z</time>
      </trkpt>
      <trkpt lat="43.07972" lon="1.90204">
        <ele>331.2</ele>
        <time>2026-05-29T06:00:22Z</time>
      </trkpt>
      <trkpt lat="43.07972" lon="1.90204">
        <ele>331.2</ele>
        <time>2026-05-29T06:00:27Z</time>
      </trkpt>
      <trkpt lat="43.07972" lon="1.90204">
        <ele>331.2</ele>
        <time>2026-05-29T06:00:32Z</time>
      </trkpt>
      <trkpt lat="43.07972" lon="1.90204">
        <ele>331.2</ele>
        <time>2026-05-29T06:00:37Z</time>
      </trkpt>
      <trkpt lat="43.07972" lon="1.90204">
        <ele>331.2</ele>
        <time>2026-05-29T06:00:42Z</time>
      </trkpt>
      <trkpt lat="43.07972" lon="1.90204">
        <ele>331.2</ele>
        <time>2026-05-29T06:00:47Z</time>
      </trkpt>
      <trkpt lat="43.07972" lon="1.90204">
        <ele>331.2</ele>
        <time>2026-05-29T06:00:52Z</time>
      </trkpt>
      <trkpt lat="43.07972" lon="1.90204">
        <ele>331.2</ele>
        <time>2026-05-29T06:00:57Z</time>
      </trkpt>
      <trkpt lat="43.07972" lon="1.90204">
        <ele>331.2</ele>
        <time>2026-05-29T06:01:02Z</time>
      </trkpt>
      <trkpt lat="43.07972" lon="1.90204">
        <ele>331.2</ele>
        <time>2026-05-29T06:01:07Z</time>
      </trkpt>
      <trkpt lat="43.07972" lon="1.90204">
        <ele>331.2</ele>
        <time>2026-05-29T06:01:12Z</time>
      </trkpt>
      <trkpt lat="43.07972" lon="1.90204">
        <ele>331.2</ele>
        <time>2026-05-29T06:01:17Z</time>
      </trkpt>
      <trkpt lat="43.07972" lon="1.90204">
        <ele>331.2</ele>
        <time>2026-05-29T06:01:22Z</time>
      </trkpt>
      <trkpt lat="43.07972" lon="1.90204">
        <ele>331.2</ele>
        <time>2026-05-29T06:01:27Z</time>
      </trkpt>
      <trkpt lat="43.07972" lon="1.90204">
        <ele>331.2</ele>
        <time>2026-05-29T06:01:32Z</time>
      </trkpt>
      <trkpt lat="43.07972" lon="1.90204">
        <ele>331.2</ele>
        <time>2026-05-29T06:01:37Z</time>
      </trkpt>
      <trkpt lat="43.07972" lon="1.90204">
        <ele>331.2</ele>
        <time>2026-05-29T06:01:42Z</time>
      </trkpt>
      <trkpt lat="43.07972" lon="1.90204">
        <ele>331.2</ele>
        <time>2026-05-29T06:01:47Z</time>
      </trkpt>
      <trkpt lat="43.07972" lon="1.90204">
        <ele>331.2</ele>
        <time>2026-05-29T06:01:52Z</time>
      </trkpt>
      <trkpt lat="43.07972" lon="1.90204">
        <ele>331.2</ele>
        <time>2026-05-29T06:01:57Z</time>
      </trkpt>
      <trkpt lat="43.07972" lon="1.90204">
        <ele>331.2</ele>
        <time>2026-05-29T06:02:02Z</time>
      </trkpt>
      <trkpt lat="43.07972" lon="1.90204">
        <ele>331.2</ele>
        <time>2026-05-29T06:02:07Z</time>
      </trkpt>
      <trkpt lat="43.07972" lon="1.90204">
        <ele>331.2</ele>
        <time>2026-05-29T06:02:12Z</time>
      </trkpt>
      <trkpt lat="43.07972" lon="1.90204">
        <ele>331.2</ele>
        <time>2026-05-29T06:02:17Z</time>
      </trkpt>
      <trkpt lat="43.07972" lon="1.90204">
        <ele>331.2</ele>
        <time>2026-05-29T06:02:22Z</time>
      </trkpt>
      <trkpt lat="43.07972" lon="1.90204">
        <ele>331.2</ele>
        <time>2026-05-29T06:02:27Z</time>
      </trkpt>
      <trkpt lat="43.07972" lon="1.90204">
        <ele>331.2</ele>
        <time>2026-05-29T06:02:32Z</time>
      </trkpt>
      <trkpt lat="43.07972" lon="1.90204">
        <ele>331.2</ele>
        <time>2026-05-29T06:02:37Z</time>
      </trkpt>
      <trkpt lat="43.07972" lon="1.90204">
        <ele>331.2</ele>
        <time>2026-05-29T06:02:42Z</time>
      </trkpt>
      <trkpt lat="43.07972" lon="1.90204">
        <ele>331.2</ele>
        <time>2026-05-29T06:02:47Z</time>
      </trkpt>
      <trkpt lat="43.07972" lon="1.90204">
        <ele>331.2</ele>
        <time>2026-05-29T06:02:52Z</time>
      </trkpt>
      <trkpt lat="43.07972" lon="1.90204">
        <ele>331.2</ele>
        <time>2026-05-29T06:02:57Z</time>
      </trkpt>
      <trkpt lat="43.07972" lon="1.90204">
        <ele>331.2</ele>
        <time>2026-05-29T06:03:02Z</time>
      </trkpt>
      <trkpt lat="43.07972" lon="1.90204">
        <ele>331.2</ele>
        <time>2026-05-29T06:03:07Z</time>
      </trkpt>
      <trkpt lat="43.07972" lon="1.90204">
        <ele>331.2</ele>
        <time>2026-05-29T06:03:12Z</time>
      </trkpt>
      <trkpt lat="43.07972" lon="1.90204">
        <ele>331.2</ele>
        <time>2026-05-29T06:03:17Z</time>
      </trkpt>
      <trkpt lat="43.07972" lon="1.90204">
        <ele>331.2</ele>
        <time>2026-05-29T06:03:22Z</time>
      </trkpt>
      <trkpt lat="43.07972" lon="1.90204">
        <ele>331.2</ele>
        <time>2026-05-29T06:03:27Z</time>
      </trkpt>
      <trkpt lat="43.07972" lon="1.90204">
        <ele>331.2</ele>
        <time>2026-05-29T06:03:32Z</time>
      </trkpt>
      <trkpt lat="43.07972" lon="1.90204">
        <ele>331.2</ele>
        <time>2026-05-29T06:03:37Z</time>
      </trkpt>
      <trkpt lat="43.07972" lon="1.90204">
        <ele>331.2</ele>
        <time>2026-05-29T06:03:42Z</time>
      </trkpt>
      <trkpt lat="43.07972" lon="1.90204">
        <ele>331.2</ele>
        <time>2026-05-29T06:03:47Z</time>
      </trkpt>
      <trkpt lat="43.07972" lon="1.90204">
        <ele>331.2</ele>
        <time>2026-05-29T06:03:52Z</time>
      </trkpt>
      <trkpt lat="43.07972" lon="1.90204">
        <ele>331.2</ele>
        <time>2026-05-29T06:03:57Z</time>
      </trkpt>
      <trkpt lat="43.07972" lon="1.90204">
        <ele>331.2</ele>
        <time>2026-05-29T06:04:02Z</time>
      </trkpt>
      <trkpt lat="43.07972" lon="1.90204">
        <ele>331.2</ele>
        <time>2026-05-29T06:04:07Z</time>
      </trkpt>
      <trkpt lat="43.07972" lon="1.90204">
        <ele>331.2</ele>
        <time>2026-05-29T06:04:12Z</time>
      </trkpt>
      <trkpt lat="43.07972" lon="1.90204">
        <ele>331.2</ele>
        <time>2026-05-29T06:04:17Z</time>
      </trkpt>
      <trkpt lat="43.07972" lon="1.90204">
        <ele>331.2</ele>
        <time>2026-05-29T06:04:22Z</time>
      </trkpt>
      <trkpt lat="43.07972" lon="1.90204">
        <ele>331.2</ele>
        <time>2026-05-29T06:04:27Z</time>
      </trkpt>
      <trkpt lat="43.07972" lon="1.90204">
        <ele>331.2</ele>
        <time>2026-05-29T06:04:32Z</time>
      </trkpt>
      <trkpt lat="43.07972" lon="1.90204">
        <ele>331.2</ele>
        <time>2026-05-29T06:04:37Z</time>
      </trkpt>
      <trkpt lat="43.07972" lon="1.90204">
        <ele>331.2</ele>
        <time>2026-05-29T06:04:42Z</time>
      </trkpt>
      <trkpt lat="43.07972" lon="1.90204">
        <ele>331.2</ele>
        <time>2026-05-29T06:04:47Z</time>
      </trkpt>
      <trkpt lat="43.07972" lon="1.90204">
        <ele>331.2</ele>
        <time>2026-05-29T06:04:52Z</time>
      </trkpt>
      <trkpt lat="43.07972" lon="1.90204">
        <ele>331.2</ele>
        <time>2026-05-29T06:04:57Z</time>
      </trkpt>
      <trkpt lat="43.07972" lon="1.90204">
        <ele>331.2</ele>
        <time>2026-05-29T06:05:02Z</time>
      </trkpt>
      <trkpt lat="43.07972" lon="1.90204">
        <ele>331.2</ele>
        <time>2026-05-29T06:05:07Z</time>
      </trkpt>
      <trkpt lat="43.07972" lon="1.90204">
        <ele>331.2</ele>
        <time>2026-05-29T06:05:12Z</time>
      </trkpt>
      <trkpt lat="43.07972" lon="1.90204">
        <ele>331.2</ele>
        <time>2026-05-29T06:05:17Z</time>
      </trkpt>
      <trkpt lat="43.07972" lon="1.90204">
        <ele>331.2</ele>
        <time>2026-05-29T06:05:22Z</time>
      </trkpt>
      <trkpt lat="43.07972" lon="1.90204">
        <ele>331.2</ele>
        <time>2026-05-29T06:05:27Z</time>
      </trkpt>
      <trkpt lat="43.07972" lon="1.90204">
        <ele>331.2</ele>
        <time>2026-05-29T06:05:32Z</time>
      </trkpt>
      <trkpt lat="43.07972" lon="1.90204">
        <ele>331.2</ele>
        <time>2026-05-29T06:05:37Z</time>
      </trkpt>
      <trkpt lat="43.07972" lon="1.90204">
        <ele>331.2</ele>
        <time>2026-05-29T06:05:42Z</time>
      </trkpt>
      <trkpt lat="43.07972" lon="1.90204">
        <ele>331.2</ele>
        <time>2026-05-29T06:05:47Z</time>
      </trkpt>
      <trkpt lat="43.07972" lon="1.90204">
        <ele>331.2</ele>
        <time>2026-05-29T06:05:52Z</time>
      </trkpt>
      <trkpt lat="43.07972" lon="1.90204">
        <ele>331.2</ele>
        <time>2026-05-29T06:05:57Z</time>
      </trkpt>
      <trkpt lat="43.07972" lon="1.90204">
        <ele>331.2</ele>
        <time>2026-05-29T06:06:02Z</time>
      </trkpt>
      <trkpt lat="43.07972" lon="1.90204">
        <ele>331.2</ele>
        <time>2026-05-29T06:06:07Z</time>
      </trkpt>
      <trkpt lat="43.07972" lon="1.90204">
        <ele>331.2</ele>
        <time>2026-05-29T06:06:12Z</time>
      </trkpt>
      <trkpt lat="43.07972" lon="1.90204">
        <ele>331.2</ele>
        <time>2026-05-29T06:06:17Z</time>
      </trkpt>
      <trkpt lat="43.07972" lon="1.90204">
        <ele>331.2</ele>
        <time>2026-05-29T06:06:22Z</time>
      </trkpt>
      <trkpt lat="43.07972" lon="1.90204">
        <ele>331.2</ele>
        <time>2026-05-29T06:06:27Z</time>
      </trkpt>
      <trkpt lat="43.07972" lon="1.90204">
        <ele>331.2</ele>
        <time>2026-05-29T06:06:32Z</time>
      </trkpt>
      <trkpt lat="43.07972" lon="1.90204">
        <ele>331.2</ele>
        <time>2026-05-29T06:06:37Z</time>
      </trkpt>
      <trkpt lat="43.07968" lon="1.90215">
        <ele>330.4</ele>
        <time>2026-05-29T06:06:42Z</time>
      </trkpt>
      <trkpt lat="43.07968" lon="1.90215">
        <ele>330.4</ele>
        <time>2026-05-29T06:06:47Z</time>
      </trkpt>
      <trkpt lat="43.07968" lon="1.90215">
        <ele>330.4</ele>
        <time>2026-05-29T06:06:52Z</time>
      </trkpt>
      <trkpt lat="43.07968" lon="1.90215">
        <ele>330.4</ele>
        <time>2026-05-29T06:06:57Z</time>
      </trkpt>
      <trkpt lat="43.07968" lon="1.90215">
        <ele>330.4</ele>
        <time>2026-05-29T06:07:02Z</time>
      </trkpt>
      <trkpt lat="43.07968" lon="1.90215">
        <ele>330.4</ele>
        <time>2026-05-29T06:07:07Z</time>
      </trkpt>
      <trkpt lat="43.07968" lon="1.90215">
        <ele>330.4</ele>
        <time>2026-05-29T06:07:12Z</time>
      </trkpt>
      <trkpt lat="43.07968" lon="1.90215">
        <ele>330.4</ele>
        <time>2026-05-29T06:07:17Z</time>
      </trkpt>
      <trkpt lat="43.07968" lon="1.90215">
        <ele>330.4</ele>
        <time>2026-05-29T06:07:22Z</time>
      </trkpt>
      <trkpt lat="43.07968" lon="1.90215">
        <ele>330.4</ele>
        <time>2026-05-29T06:07:27Z</time>
      </trkpt>
      <trkpt lat="43.07968" lon="1.90215">
        <ele>330.4</ele>
        <time>2026-05-29T06:07:32Z</time>
      </trkpt>
      <trkpt lat="43.07968" lon="1.90215">
        <ele>330.4</ele>
        <time>2026-05-29T06:07:37Z</time>
      </trkpt>
      <trkpt lat="43.07968" lon="1.90215">
        <ele>330.4</ele>
        <time>2026-05-29T06:07:42Z</time>
      </trkpt>
      <trkpt lat="43.07968" lon="1.90215">
        <ele>330.4</ele>
        <time>2026-05-29T06:07:47Z</time>
      </trkpt>
      <trkpt lat="43.07968" lon="1.90215">
        <ele>330.4</ele>
        <time>2026-05-29T06:07:52Z</time>
      </trkpt>
      <trkpt lat="43.07968" lon="1.90215">
        <ele>330.4</ele>
        <time>2026-05-29T06:07:57Z</time>
      </trkpt>
      <trkpt lat="43.07968" lon="1.90215">
        <ele>330.4</ele>
        <time>2026-05-29T06:08:02Z</time>
      </trkpt>
      <trkpt lat="43.07964" lon="1.90225">
        <ele>329.8</ele>
        <time>2026-05-29T06:08:07Z</time>
      </trkpt>
      <trkpt lat="43.07963" lon="1.9023">
        <ele>329.3</ele>
        <time>2026-05-29T06:08:12Z</time>
      </trkpt>
      <trkpt lat="43.07963" lon="1.9023">
        <ele>329.3</ele>
        <time>2026-05-29T06:08:12Z</time>
      </trkpt>
      <trkpt lat="43.07963" lon="1.90233">
        <ele>328.9</ele>
        <time>2026-05-29T06:08:20Z</time>
      </trkpt>
      <trkpt lat="43.07961" lon="1.90235">
        <ele>328.9</ele>
        <time>2026-05-29T06:08:26Z</time>
      </trkpt>
      <trkpt lat="43.0796" lon="1.90237">
        <ele>328.8</ele>
        <time>2026-05-29T06:08:31Z</time>
      </trkpt>
      <trkpt lat="43.07957" lon="1.90239">
        <ele>329</ele>
        <time>2026-05-29T06:08:36Z</time>
      </trkpt>
      <trkpt lat="43.07953" lon="1.90242">
        <ele>329.2</ele>
        <time>2026-05-29T06:08:41Z</time>
      </trkpt>
      <trkpt lat="43.07947" lon="1.90246">
        <ele>329.5</ele>
        <time>2026-05-29T06:08:46Z</time>
      </trkpt>
      <trkpt lat="43.07943" lon="1.9025">
        <ele>329.5</ele>
        <time>2026-05-29T06:08:51Z</time>
      </trkpt>
      <trkpt lat="43.0794" lon="1.90253">
        <ele>329.7</ele>
        <time>2026-05-29T06:08:56Z</time>
      </trkpt>
      <trkpt lat="43.07936" lon="1.90257">
        <ele>329.8</ele>
        <time>2026-05-29T06:09:01Z</time>
      </trkpt>
      <trkpt lat="43.07933" lon="1.90259">
        <ele>330</ele>
        <time>2026-05-29T06:09:06Z</time>
      </trkpt>
      <trkpt lat="43.0793" lon="1.90261">
        <ele>330.1</ele>
        <time>2026-05-29T06:09:11Z</time>
      </trkpt>
      <trkpt lat="43.07926" lon="1.90265">
        <ele>330.1</ele>
        <time>2026-05-29T06:09:16Z</time>
      </trkpt>
      <trkpt lat="43.07922" lon="1.90267">
        <ele>330.4</ele>
        <time>2026-05-29T06:09:21Z</time>
      </trkpt>
      <trkpt lat="43.07917" lon="1.90271">
        <ele>330.4</ele>
        <time>2026-05-29T06:09:26Z</time>
      </trkpt>
      <trkpt lat="43.07913" lon="1.90276">
        <ele>330.3</ele>
        <time>2026-05-29T06:09:31Z</time>
      </trkpt>
      <trkpt lat="43.07909" lon="1.9028">
        <ele>330.2</ele>
        <time>2026-05-29T06:09:36Z</time>
      </trkpt>
      <trkpt lat="43.07904" lon="1.90284">
        <ele>330.2</ele>
        <time>2026-05-29T06:09:41Z</time>
      </trkpt>
      <trkpt lat="43.07899" lon="1.90288">
        <ele>330.3</ele>
        <time>2026-05-29T06:09:46Z</time>
      </trkpt>
      <trkpt lat="43.07896" lon="1.90292">
        <ele>330.1</ele>
        <time>2026-05-29T06:09:51Z</time>
      </trkpt>
      <trkpt lat="43.07893" lon="1.90297">
        <ele>329.8</ele>
        <time>2026-05-29T06:09:56Z</time>
      </trkpt>
      <trkpt lat="43.0789" lon="1.90302">
        <ele>329.4</ele>
        <time>2026-05-29T06:10:01Z</time>
      </trkpt>
      <trkpt lat="43.07887" lon="1.90307">
        <ele>329.1</ele>
        <time>2026-05-29T06:10:06Z</time>
      </trkpt>
      <trkpt lat="43.07884" lon="1.90313">
        <ele>328.7</ele>
        <time>2026-05-29T06:10:11Z</time>
      </trkpt>
      <trkpt lat="43.07881" lon="1.90319">
        <ele>328.2</ele>
        <time>2026-05-29T06:10:16Z</time>
      </trkpt>
      <trkpt lat="43.07878" lon="1.90325">
        <ele>327.8</ele>
        <time>2026-05-29T06:10:21Z</time>
      </trkpt>
      <trkpt lat="43.07875" lon="1.90331">
        <ele>327.3</ele>
        <time>2026-05-29T06:10:26Z</time>
      </trkpt>
      <trkpt lat="43.07873" lon="1.90337">
        <ele>327</ele>
        <time>2026-05-29T06:10:31Z</time>
      </trkpt>
      <trkpt lat="43.0787" lon="1.90343">
        <ele>327.1</ele>
        <time>2026-05-29T06:10:36Z</time>
      </trkpt>
      <trkpt lat="43.07869" lon="1.90347">
        <ele>327</ele>
        <time>2026-05-29T06:10:41Z</time>
      </trkpt>
      <trkpt lat="43.07868" lon="1.90348">
        <ele>327</ele>
        <time>2026-05-29T06:10:46Z</time>
      </trkpt>
      <trkpt lat="43.07865" lon="1.90353">
        <ele>327</ele>
        <time>2026-05-29T06:10:51Z</time>
      </trkpt>
      <trkpt lat="43.07861" lon="1.90359">
        <ele>326.9</ele>
        <time>2026-05-29T06:10:56Z</time>
      </trkpt>
      <trkpt lat="43.07858" lon="1.90365">
        <ele>326.7</ele>
        <time>2026-05-29T06:11:01Z</time>
      </trkpt>
      <trkpt lat="43.07855" lon="1.9037">
        <ele>326.5</ele>
        <time>2026-05-29T06:11:06Z</time>
      </trkpt>
      <trkpt lat="43.07852" lon="1.90375">
        <ele>326.3</ele>
        <time>2026-05-29T06:11:11Z</time>
      </trkpt>
      <trkpt lat="43.07849" lon="1.9038">
        <ele>326.1</ele>
        <time>2026-05-29T06:11:16Z</time>
      </trkpt>
      <trkpt lat="43.07846" lon="1.90385">
        <ele>325.8</ele>
        <time>2026-05-29T06:11:21Z</time>
      </trkpt>
      <trkpt lat="43.07843" lon="1.90391">
        <ele>325.3</ele>
        <time>2026-05-29T06:11:26Z</time>
      </trkpt>
      <trkpt lat="43.07841" lon="1.90397">
        <ele>324.9</ele>
        <time>2026-05-29T06:11:31Z</time>
      </trkpt>
      <trkpt lat="43.0784" lon="1.90403">
        <ele>324.3</ele>
        <time>2026-05-29T06:11:36Z</time>
      </trkpt>
      <trkpt lat="43.07837" lon="1.90408">
        <ele>323.9</ele>
        <time>2026-05-29T06:11:41Z</time>
      </trkpt>
      <trkpt lat="43.07834" lon="1.90414">
        <ele>323.3</ele>
        <time>2026-05-29T06:11:46Z</time>
      </trkpt>
      <trkpt lat="43.07831" lon="1.9042">
        <ele>323.3</ele>
        <time>2026-05-29T06:11:51Z</time>
      </trkpt>
      <trkpt lat="43.07828" lon="1.90426">
        <ele>323.8</ele>
        <time>2026-05-29T06:11:56Z</time>
      </trkpt>
      <trkpt lat="43.07824" lon="1.90431">
        <ele>324.2</ele>
        <time>2026-05-29T06:12:01Z</time>
      </trkpt>
      <trkpt lat="43.07823" lon="1.90433">
        <ele>324.4</ele>
        <time>2026-05-29T06:12:06Z</time>
      </trkpt>
      <trkpt lat="43.07821" lon="1.90438">
        <ele>324.7</ele>
        <time>2026-05-29T06:12:11Z</time>
      </trkpt>
      <trkpt lat="43.07818" lon="1.90443">
        <ele>325.1</ele>
        <time>2026-05-29T06:12:16Z</time>
      </trkpt>
      <trkpt lat="43.07816" lon="1.90448">
        <ele>325.3</ele>
        <time>2026-05-29T06:12:21Z</time>
      </trkpt>
      <trkpt lat="43.07812" lon="1.90455">
        <ele>325.8</ele>
        <time>2026-05-29T06:12:26Z</time>
      </trkpt>
      <trkpt lat="43.07809" lon="1.9046">
        <ele>326.1</ele>
        <time>2026-05-29T06:12:31Z</time>
      </trkpt>
      <trkpt lat="43.07807" lon="1.90467">
        <ele>326.5</ele>
        <time>2026-05-29T06:12:36Z</time>
      </trkpt>
      <trkpt lat="43.07805" lon="1.90472">
        <ele>326.7</ele>
        <time>2026-05-29T06:12:41Z</time>
      </trkpt>
      <trkpt lat="43.07802" lon="1.90479">
        <ele>327</ele>
        <time>2026-05-29T06:12:46Z</time>
      </trkpt>
      <trkpt lat="43.07799" lon="1.90484">
        <ele>327.3</ele>
        <time>2026-05-29T06:12:51Z</time>
      </trkpt>
      <trkpt lat="43.07797" lon="1.9049">
        <ele>327.5</ele>
        <time>2026-05-29T06:12:56Z</time>
      </trkpt>
      <trkpt lat="43.07794" lon="1.90496">
        <ele>327.8</ele>
        <time>2026-05-29T06:13:01Z</time>
      </trkpt>
      <trkpt lat="43.0779" lon="1.90501">
        <ele>328.1</ele>
        <time>2026-05-29T06:13:06Z</time>
      </trkpt>
      <trkpt lat="43.07787" lon="1.90507">
        <ele>328.5</ele>
        <time>2026-05-29T06:13:11Z</time>
      </trkpt>
      <trkpt lat="43.07784" lon="1.90513">
        <ele>328.8</ele>
        <time>2026-05-29T06:13:16Z</time>
      </trkpt>
      <trkpt lat="43.0778" lon="1.90519">
        <ele>329.2</ele>
        <time>2026-05-29T06:13:21Z</time>
      </trkpt>
      <trkpt lat="43.07776" lon="1.90525">
        <ele>329.5</ele>
        <time>2026-05-29T06:13:26Z</time>
      </trkpt>
      <trkpt lat="43.07773" lon="1.90531">
        <ele>329.8</ele>
        <time>2026-05-29T06:13:31Z</time>
      </trkpt>
      <trkpt lat="43.07769" lon="1.90536">
        <ele>330</ele>
        <time>2026-05-29T06:13:36Z</time>
      </trkpt>
      <trkpt lat="43.07766" lon="1.90542">
        <ele>330.2</ele>
        <time>2026-05-29T06:13:41Z</time>
      </trkpt>
      <trkpt lat="43.07762" lon="1.90547">
        <ele>330.4</ele>
        <time>2026-05-29T06:13:46Z</time>
      </trkpt>
      <trkpt lat="43.07758" lon="1.90551">
        <ele>330.5</ele>
        <time>2026-05-29T06:13:51Z</time>
      </trkpt>
      <trkpt lat="43.07753" lon="1.90555">
        <ele>330.6</ele>
        <time>2026-05-29T06:13:56Z</time>
      </trkpt>
      <trkpt lat="43.07748" lon="1.9056">
        <ele>330.9</ele>
        <time>2026-05-29T06:14:01Z</time>
      </trkpt>
      <trkpt lat="43.07744" lon="1.90564">
        <ele>331.3</ele>
        <time>2026-05-29T06:14:06Z</time>
      </trkpt>
      <trkpt lat="43.07739" lon="1.90568">
        <ele>331.8</ele>
        <time>2026-05-29T06:14:11Z</time>
      </trkpt>
      <trkpt lat="43.07735" lon="1.90572">
        <ele>332.1</ele>
        <time>2026-05-29T06:14:16Z</time>
      </trkpt>
      <trkpt lat="43.0773" lon="1.90576">
        <ele>332.5</ele>
        <time>2026-05-29T06:14:21Z</time>
      </trkpt>
      <trkpt lat="43.07725" lon="1.90581">
        <ele>332.8</ele>
        <time>2026-05-29T06:14:26Z</time>
      </trkpt>
      <trkpt lat="43.0772" lon="1.90584">
        <ele>333.2</ele>
        <time>2026-05-29T06:14:31Z</time>
      </trkpt>
      <trkpt lat="43.07715" lon="1.90587">
        <ele>333.6</ele>
        <time>2026-05-29T06:14:36Z</time>
      </trkpt>
      <trkpt lat="43.07711" lon="1.90592">
        <ele>333.9</ele>
        <time>2026-05-29T06:14:41Z</time>
      </trkpt>
      <trkpt lat="43.07707" lon="1.90596">
        <ele>334.2</ele>
        <time>2026-05-29T06:14:46Z</time>
      </trkpt>
      <trkpt lat="43.07703" lon="1.906">
        <ele>334.4</ele>
        <time>2026-05-29T06:14:51Z</time>
      </trkpt>
      <trkpt lat="43.07698" lon="1.90604">
        <ele>334.7</ele>
        <time>2026-05-29T06:14:56Z</time>
      </trkpt>
      <trkpt lat="43.07694" lon="1.90608">
        <ele>334.8</ele>
        <time>2026-05-29T06:15:01Z</time>
      </trkpt>
      <trkpt lat="43.07689" lon="1.90611">
        <ele>335</ele>
        <time>2026-05-29T06:15:06Z</time>
      </trkpt>
      <trkpt lat="43.07686" lon="1.90615">
        <ele>335.1</ele>
        <time>2026-05-29T06:15:11Z</time>
      </trkpt>
      <trkpt lat="43.07681" lon="1.90619">
        <ele>335.2</ele>
        <time>2026-05-29T06:15:16Z</time>
      </trkpt>
      <trkpt lat="43.07676" lon="1.90622">
        <ele>335.3</ele>
        <time>2026-05-29T06:15:21Z</time>
      </trkpt>
      <trkpt lat="43.07672" lon="1.90625">
        <ele>335.3</ele>
        <time>2026-05-29T06:15:26Z</time>
      </trkpt>
      <trkpt lat="43.07667" lon="1.90629">
        <ele>335.3</ele>
        <time>2026-05-29T06:15:31Z</time>
      </trkpt>
      <trkpt lat="43.07663" lon="1.90633">
        <ele>335.6</ele>
        <time>2026-05-29T06:15:36Z</time>
      </trkpt>
      <trkpt lat="43.07658" lon="1.90638">
        <ele>335.8</ele>
        <time>2026-05-29T06:15:41Z</time>
      </trkpt>
      <trkpt lat="43.07652" lon="1.90642">
        <ele>336.2</ele>
        <time>2026-05-29T06:15:46Z</time>
      </trkpt>
      <trkpt lat="43.07648" lon="1.90647">
        <ele>336.3</ele>
        <time>2026-05-29T06:15:51Z</time>
      </trkpt>
      <trkpt lat="43.07643" lon="1.9065">
        <ele>336.6</ele>
        <time>2026-05-29T06:15:56Z</time>
      </trkpt>
      <trkpt lat="43.0764" lon="1.90655">
        <ele>336.6</ele>
        <time>2026-05-29T06:16:01Z</time>
      </trkpt>
      <trkpt lat="43.07635" lon="1.90659">
        <ele>336.7</ele>
        <time>2026-05-29T06:16:06Z</time>
      </trkpt>
      <trkpt lat="43.07631" lon="1.90663">
        <ele>336.8</ele>
        <time>2026-05-29T06:16:11Z</time>
      </trkpt>
      <trkpt lat="43.07625" lon="1.90667">
        <ele>337</ele>
        <time>2026-05-29T06:16:16Z</time>
      </trkpt>
      <trkpt lat="43.07621" lon="1.90672">
        <ele>337.4</ele>
        <time>2026-05-29T06:16:21Z</time>
      </trkpt>
      <trkpt lat="43.07617" lon="1.90674">
        <ele>337.7</ele>
        <time>2026-05-29T06:16:26Z</time>
      </trkpt>
      <trkpt lat="43.07611" lon="1.90678">
        <ele>338.1</ele>
        <time>2026-05-29T06:16:31Z</time>
      </trkpt>
      <trkpt lat="43.07606" lon="1.90684">
        <ele>338.5</ele>
        <time>2026-05-29T06:16:36Z</time>
      </trkpt>
      <trkpt lat="43.07601" lon="1.90688">
        <ele>338.8</ele>
        <time>2026-05-29T06:16:41Z</time>
      </trkpt>
      <trkpt lat="43.07596" lon="1.90693">
        <ele>339.1</ele>
        <time>2026-05-29T06:16:46Z</time>
      </trkpt>
      <trkpt lat="43.0759" lon="1.90697">
        <ele>339.3</ele>
        <time>2026-05-29T06:16:51Z</time>
      </trkpt>
      <trkpt lat="43.07586" lon="1.90701">
        <ele>339.5</ele>
        <time>2026-05-29T06:16:56Z</time>
      </trkpt>
      <trkpt lat="43.07581" lon="1.90706">
        <ele>339.8</ele>
        <time>2026-05-29T06:17:01Z</time>
      </trkpt>
      <trkpt lat="43.07577" lon="1.9071">
        <ele>340.1</ele>
        <time>2026-05-29T06:17:06Z</time>
      </trkpt>
      <trkpt lat="43.07572" lon="1.90713">
        <ele>340.5</ele>
        <time>2026-05-29T06:17:11Z</time>
      </trkpt>
      <trkpt lat="43.07567" lon="1.90717">
        <ele>340.8</ele>
        <time>2026-05-29T06:17:16Z</time>
      </trkpt>
      <trkpt lat="43.07561" lon="1.90722">
        <ele>341.1</ele>
        <time>2026-05-29T06:17:21Z</time>
      </trkpt>
      <trkpt lat="43.07556" lon="1.90725">
        <ele>341.4</ele>
        <time>2026-05-29T06:17:26Z</time>
      </trkpt>
      <trkpt lat="43.07552" lon="1.90729">
        <ele>341.5</ele>
        <time>2026-05-29T06:17:31Z</time>
      </trkpt>
      <trkpt lat="43.07547" lon="1.90732">
        <ele>341.7</ele>
        <time>2026-05-29T06:17:36Z</time>
      </trkpt>
      <trkpt lat="43.07543" lon="1.90737">
        <ele>341.7</ele>
        <time>2026-05-29T06:17:41Z</time>
      </trkpt>
      <trkpt lat="43.07537" lon="1.90742">
        <ele>341.7</ele>
        <time>2026-05-29T06:17:46Z</time>
      </trkpt>
      <trkpt lat="43.07532" lon="1.90746">
        <ele>341.7</ele>
        <time>2026-05-29T06:17:51Z</time>
      </trkpt>
      <trkpt lat="43.07526" lon="1.90749">
        <ele>341.8</ele>
        <time>2026-05-29T06:17:56Z</time>
      </trkpt>
      <trkpt lat="43.07522" lon="1.90753">
        <ele>342.2</ele>
        <time>2026-05-29T06:18:01Z</time>
      </trkpt>
      <trkpt lat="43.07519" lon="1.90757">
        <ele>342.7</ele>
        <time>2026-05-29T06:18:06Z</time>
      </trkpt>
      <trkpt lat="43.07517" lon="1.90758">
        <ele>342.8</ele>
        <time>2026-05-29T06:18:11Z</time>
      </trkpt>
      <trkpt lat="43.07518" lon="1.90759">
        <ele>342.9</ele>
        <time>2026-05-29T06:18:16Z</time>
      </trkpt>
      <trkpt lat="43.07515" lon="1.90761">
        <ele>343.1</ele>
        <time>2026-05-29T06:18:21Z</time>
      </trkpt>
      <trkpt lat="43.07512" lon="1.9076">
        <ele>343.2</ele>
        <time>2026-05-29T06:18:26Z</time>
      </trkpt>
      <trkpt lat="43.07506" lon="1.90762">
        <ele>343.5</ele>
        <time>2026-05-29T06:18:31Z</time>
      </trkpt>
      <trkpt lat="43.07502" lon="1.90764">
        <ele>343.8</ele>
        <time>2026-05-29T06:18:36Z</time>
      </trkpt>
      <trkpt lat="43.07497" lon="1.90767">
        <ele>344.2</ele>
        <time>2026-05-29T06:18:41Z</time>
      </trkpt>
      <trkpt lat="43.07493" lon="1.90769">
        <ele>344.5</ele>
        <time>2026-05-29T06:18:46Z</time>
      </trkpt>
      <trkpt lat="43.07489" lon="1.90772">
        <ele>344.8</ele>
        <time>2026-05-29T06:18:51Z</time>
      </trkpt>
      <trkpt lat="43.07486" lon="1.90773">
        <ele>344.9</ele>
        <time>2026-05-29T06:18:56Z</time>
      </trkpt>
      <trkpt lat="43.07482" lon="1.90775">
        <ele>345.1</ele>
        <time>2026-05-29T06:19:01Z</time>
      </trkpt>
      <trkpt lat="43.07477" lon="1.90776">
        <ele>345.3</ele>
        <time>2026-05-29T06:19:06Z</time>
      </trkpt>
      <trkpt lat="43.07472" lon="1.90779">
        <ele>345.5</ele>
        <time>2026-05-29T06:19:11Z</time>
      </trkpt>
      <trkpt lat="43.07468" lon="1.90781">
        <ele>345.5</ele>
        <time>2026-05-29T06:19:16Z</time>
      </trkpt>
      <trkpt lat="43.07465" lon="1.90784">
        <ele>345.6</ele>
        <time>2026-05-29T06:19:21Z</time>
      </trkpt>
      <trkpt lat="43.07462" lon="1.90787">
        <ele>345.6</ele>
        <time>2026-05-29T06:19:26Z</time>
      </trkpt>
      <trkpt lat="43.07458" lon="1.90791">
        <ele>345.5</ele>
        <time>2026-05-29T06:19:31Z</time>
      </trkpt>
      <trkpt lat="43.07455" lon="1.90793">
        <ele>345.5</ele>
        <time>2026-05-29T06:19:36Z</time>
      </trkpt>
      <trkpt lat="43.0745" lon="1.90794">
        <ele>345.4</ele>
        <time>2026-05-29T06:19:41Z</time>
      </trkpt>
      <trkpt lat="43.07446" lon="1.90796">
        <ele>345.3</ele>
        <time>2026-05-29T06:19:46Z</time>
      </trkpt>
      <trkpt lat="43.07441" lon="1.90797">
        <ele>345.2</ele>
        <time>2026-05-29T06:19:51Z</time>
      </trkpt>
      <trkpt lat="43.07438" lon="1.908">
        <ele>345</ele>
        <time>2026-05-29T06:19:56Z</time>
      </trkpt>
      <trkpt lat="43.07434" lon="1.90803">
        <ele>344.7</ele>
        <time>2026-05-29T06:20:01Z</time>
      </trkpt>
      <trkpt lat="43.07428" lon="1.90807">
        <ele>344.2</ele>
        <time>2026-05-29T06:20:06Z</time>
      </trkpt>
      <trkpt lat="43.07424" lon="1.9081">
        <ele>343.8</ele>
        <time>2026-05-29T06:20:11Z</time>
      </trkpt>
      <trkpt lat="43.0742" lon="1.90812">
        <ele>343.4</ele>
        <time>2026-05-29T06:20:16Z</time>
      </trkpt>
      <trkpt lat="43.07416" lon="1.90813">
        <ele>343.2</ele>
        <time>2026-05-29T06:20:21Z</time>
      </trkpt>
      <trkpt lat="43.0741" lon="1.90817">
        <ele>343.3</ele>
        <time>2026-05-29T06:20:26Z</time>
      </trkpt>
      <trkpt lat="43.07405" lon="1.9082">
        <ele>343.4</ele>
        <time>2026-05-29T06:20:31Z</time>
      </trkpt>
      <trkpt lat="43.074" lon="1.9082">
        <ele>343.8</ele>
        <time>2026-05-29T06:20:36Z</time>
      </trkpt>
      <trkpt lat="43.07395" lon="1.90823">
        <ele>343.9</ele>
        <time>2026-05-29T06:20:41Z</time>
      </trkpt>
      <trkpt lat="43.07388" lon="1.90824">
        <ele>344.5</ele>
        <time>2026-05-29T06:20:46Z</time>
      </trkpt>
      <trkpt lat="43.07381" lon="1.90823">
        <ele>345.1</ele>
        <time>2026-05-29T06:20:51Z</time>
      </trkpt>
      <trkpt lat="43.07376" lon="1.90823">
        <ele>345.5</ele>
        <time>2026-05-29T06:20:56Z</time>
      </trkpt>
      <trkpt lat="43.07371" lon="1.90825">
        <ele>345.8</ele>
        <time>2026-05-29T06:21:01Z</time>
      </trkpt>
      <trkpt lat="43.07367" lon="1.90827">
        <ele>346.1</ele>
        <time>2026-05-29T06:21:06Z</time>
      </trkpt>
      <trkpt lat="43.07361" lon="1.90827">
        <ele>346.6</ele>
        <time>2026-05-29T06:21:11Z</time>
      </trkpt>
      <trkpt lat="43.07357" lon="1.90825">
        <ele>347.1</ele>
        <time>2026-05-29T06:21:16Z</time>
      </trkpt>
      <trkpt lat="43.07353" lon="1.90827">
        <ele>347.3</ele>
        <time>2026-05-29T06:21:21Z</time>
      </trkpt>
      <trkpt lat="43.07348" lon="1.90826">
        <ele>347.8</ele>
        <time>2026-05-29T06:21:26Z</time>
      </trkpt>
      <trkpt lat="43.07343" lon="1.90827">
        <ele>348.2</ele>
        <time>2026-05-29T06:21:31Z</time>
      </trkpt>
      <trkpt lat="43.07337" lon="1.9083">
        <ele>348.7</ele>
        <time>2026-05-29T06:21:36Z</time>
      </trkpt>
      <trkpt lat="43.07332" lon="1.90831">
        <ele>349.2</ele>
        <time>2026-05-29T06:21:41Z</time>
      </trkpt>
      <trkpt lat="43.07326" lon="1.90833">
        <ele>350.1</ele>
        <time>2026-05-29T06:21:46Z</time>
      </trkpt>
      <trkpt lat="43.07321" lon="1.90834">
        <ele>351</ele>
        <time>2026-05-29T06:21:51Z</time>
      </trkpt>
      <trkpt lat="43.07317" lon="1.90835">
        <ele>351.8</ele>
        <time>2026-05-29T06:21:56Z</time>
      </trkpt>
      <trkpt lat="43.07317" lon="1.90835">
        <ele>351.8</ele>
        <time>2026-05-29T06:22:01Z</time>
      </trkpt>
      <trkpt lat="43.07317" lon="1.90835">
        <ele>351.8</ele>
        <time>2026-05-29T06:22:06Z</time>
      </trkpt>
      <trkpt lat="43.07309" lon="1.90836">
        <ele>353.2</ele>
        <time>2026-05-29T06:22:11Z</time>
      </trkpt>
      <trkpt lat="43.07304" lon="1.90837">
        <ele>354.2</ele>
        <time>2026-05-29T06:22:16Z</time>
      </trkpt>
      <trkpt lat="43.07299" lon="1.90836">
        <ele>354.8</ele>
        <time>2026-05-29T06:22:21Z</time>
      </trkpt>
      <trkpt lat="43.07294" lon="1.90836">
        <ele>355.6</ele>
        <time>2026-05-29T06:22:26Z</time>
      </trkpt>
      <trkpt lat="43.0729" lon="1.90835">
        <ele>356.1</ele>
        <time>2026-05-29T06:22:31Z</time>
      </trkpt>
      <trkpt lat="43.07285" lon="1.90831">
        <ele>356.5</ele>
        <time>2026-05-29T06:22:36Z</time>
      </trkpt>
      <trkpt lat="43.07281" lon="1.90827">
        <ele>357</ele>
        <time>2026-05-29T06:22:41Z</time>
      </trkpt>
      <trkpt lat="43.07277" lon="1.90826">
        <ele>357.6</ele>
        <time>2026-05-29T06:22:46Z</time>
      </trkpt>
      <trkpt lat="43.07273" lon="1.90824">
        <ele>358.1</ele>
        <time>2026-05-29T06:22:51Z</time>
      </trkpt>
      <trkpt lat="43.07269" lon="1.90823">
        <ele>358.7</ele>
        <time>2026-05-29T06:22:56Z</time>
      </trkpt>
      <trkpt lat="43.07266" lon="1.90823">
        <ele>359.1</ele>
        <time>2026-05-29T06:23:01Z</time>
      </trkpt>
      <trkpt lat="43.07266" lon="1.90823">
        <ele>359.1</ele>
        <time>2026-05-29T06:23:06Z</time>
      </trkpt>
      <trkpt lat="43.07266" lon="1.90823">
        <ele>359.1</ele>
        <time>2026-05-29T06:23:11Z</time>
      </trkpt>
      <trkpt lat="43.07255" lon="1.9082">
        <ele>360.6</ele>
        <time>2026-05-29T06:23:16Z</time>
      </trkpt>
      <trkpt lat="43.07252" lon="1.9082">
        <ele>361.1</ele>
        <time>2026-05-29T06:23:21Z</time>
      </trkpt>
      <trkpt lat="43.07248" lon="1.90819">
        <ele>361.3</ele>
        <time>2026-05-29T06:23:26Z</time>
      </trkpt>
      <trkpt lat="43.07243" lon="1.90819">
        <ele>361.3</ele>
        <time>2026-05-29T06:23:31Z</time>
      </trkpt>
      <trkpt lat="43.0724" lon="1.90816">
        <ele>361.2</ele>
        <time>2026-05-29T06:23:36Z</time>
      </trkpt>
      <trkpt lat="43.07236" lon="1.90813">
        <ele>361.2</ele>
        <time>2026-05-29T06:23:41Z</time>
      </trkpt>
      <trkpt lat="43.07232" lon="1.90811">
        <ele>361.2</ele>
        <time>2026-05-29T06:23:46Z</time>
      </trkpt>
      <trkpt lat="43.07229" lon="1.90808">
        <ele>361.1</ele>
        <time>2026-05-29T06:23:51Z</time>
      </trkpt>
      <trkpt lat="43.07225" lon="1.90806">
        <ele>361.2</ele>
        <time>2026-05-29T06:23:56Z</time>
      </trkpt>
      <trkpt lat="43.07222" lon="1.90803">
        <ele>361.2</ele>
        <time>2026-05-29T06:24:01Z</time>
      </trkpt>
      <trkpt lat="43.07218" lon="1.908">
        <ele>361.2</ele>
        <time>2026-05-29T06:24:06Z</time>
      </trkpt>
      <trkpt lat="43.07216" lon="1.90795">
        <ele>361.3</ele>
        <time>2026-05-29T06:24:11Z</time>
      </trkpt>
      <trkpt lat="43.07213" lon="1.90794">
        <ele>361.3</ele>
        <time>2026-05-29T06:24:16Z</time>
      </trkpt>
      <trkpt lat="43.07209" lon="1.90792">
        <ele>361.5</ele>
        <time>2026-05-29T06:24:21Z</time>
      </trkpt>
      <trkpt lat="43.07205" lon="1.90791">
        <ele>361.6</ele>
        <time>2026-05-29T06:24:26Z</time>
      </trkpt>
      <trkpt lat="43.072" lon="1.90792">
        <ele>361.8</ele>
        <time>2026-05-29T06:24:31Z</time>
      </trkpt>
      <trkpt lat="43.07196" lon="1.90791">
        <ele>362</ele>
        <time>2026-05-29T06:24:36Z</time>
      </trkpt>
      <trkpt lat="43.07192" lon="1.9079">
        <ele>362.1</ele>
        <time>2026-05-29T06:24:41Z</time>
      </trkpt>
      <trkpt lat="43.07187" lon="1.90788">
        <ele>362.4</ele>
        <time>2026-05-29T06:24:46Z</time>
      </trkpt>
      <trkpt lat="43.07181" lon="1.90789">
        <ele>362.6</ele>
        <time>2026-05-29T06:24:51Z</time>
      </trkpt>
      <trkpt lat="43.07176" lon="1.90792">
        <ele>362.7</ele>
        <time>2026-05-29T06:24:56Z</time>
      </trkpt>
      <trkpt lat="43.07172" lon="1.90795">
        <ele>362.7</ele>
        <time>2026-05-29T06:25:01Z</time>
      </trkpt>
      <trkpt lat="43.07169" lon="1.90796">
        <ele>362.7</ele>
        <time>2026-05-29T06:25:06Z</time>
      </trkpt>
      <trkpt lat="43.07166" lon="1.908">
        <ele>362.6</ele>
        <time>2026-05-29T06:25:11Z</time>
      </trkpt>
      <trkpt lat="43.07162" lon="1.90804">
        <ele>362.6</ele>
        <time>2026-05-29T06:25:16Z</time>
      </trkpt>
      <trkpt lat="43.07159" lon="1.90805">
        <ele>362.6</ele>
        <time>2026-05-29T06:25:21Z</time>
      </trkpt>
      <trkpt lat="43.07157" lon="1.90808">
        <ele>362.5</ele>
        <time>2026-05-29T06:25:26Z</time>
      </trkpt>
      <trkpt lat="43.07151" lon="1.9081">
        <ele>362.6</ele>
        <time>2026-05-29T06:25:31Z</time>
      </trkpt>
      <trkpt lat="43.07148" lon="1.90814">
        <ele>362.5</ele>
        <time>2026-05-29T06:25:36Z</time>
      </trkpt>
      <trkpt lat="43.07144" lon="1.90815">
        <ele>362.5</ele>
        <time>2026-05-29T06:25:41Z</time>
      </trkpt>
      <trkpt lat="43.07141" lon="1.90818">
        <ele>362.4</ele>
        <time>2026-05-29T06:25:46Z</time>
      </trkpt>
      <trkpt lat="43.07138" lon="1.90822">
        <ele>362.2</ele>
        <time>2026-05-29T06:25:51Z</time>
      </trkpt>
      <trkpt lat="43.07135" lon="1.90825">
        <ele>362</ele>
        <time>2026-05-29T06:25:56Z</time>
      </trkpt>
      <trkpt lat="43.07132" lon="1.90827">
        <ele>361.9</ele>
        <time>2026-05-29T06:26:01Z</time>
      </trkpt>
      <trkpt lat="43.07128" lon="1.9083">
        <ele>361.7</ele>
        <time>2026-05-29T06:26:06Z</time>
      </trkpt>
      <trkpt lat="43.07125" lon="1.90833">
        <ele>361.5</ele>
        <time>2026-05-29T06:26:11Z</time>
      </trkpt>
      <trkpt lat="43.07121" lon="1.90835">
        <ele>361.7</ele>
        <time>2026-05-29T06:26:16Z</time>
      </trkpt>
      <trkpt lat="43.07116" lon="1.90838">
        <ele>362.1</ele>
        <time>2026-05-29T06:26:21Z</time>
      </trkpt>
      <trkpt lat="43.07111" lon="1.90841">
        <ele>362.4</ele>
        <time>2026-05-29T06:26:26Z</time>
      </trkpt>
      <trkpt lat="43.07106" lon="1.90844">
        <ele>362.6</ele>
        <time>2026-05-29T06:26:31Z</time>
      </trkpt>
      <trkpt lat="43.07102" lon="1.90847">
        <ele>362.8</ele>
        <time>2026-05-29T06:26:36Z</time>
      </trkpt>
      <trkpt lat="43.07098" lon="1.9085">
        <ele>363</ele>
        <time>2026-05-29T06:26:41Z</time>
      </trkpt>
      <trkpt lat="43.07095" lon="1.90851">
        <ele>363</ele>
        <time>2026-05-29T06:26:46Z</time>
      </trkpt>
      <trkpt lat="43.07094" lon="1.9085">
        <ele>363</ele>
        <time>2026-05-29T06:26:51Z</time>
      </trkpt>
      <trkpt lat="43.07094" lon="1.9085">
        <ele>363</ele>
        <time>2026-05-29T06:26:56Z</time>
      </trkpt>
      <trkpt lat="43.07087" lon="1.90852">
        <ele>363</ele>
        <time>2026-05-29T06:27:01Z</time>
      </trkpt>
      <trkpt lat="43.0708" lon="1.90853">
        <ele>363.2</ele>
        <time>2026-05-29T06:27:06Z</time>
      </trkpt>
      <trkpt lat="43.07075" lon="1.90853">
        <ele>363.6</ele>
        <time>2026-05-29T06:27:11Z</time>
      </trkpt>
      <trkpt lat="43.07071" lon="1.90854">
        <ele>364</ele>
        <time>2026-05-29T06:27:16Z</time>
      </trkpt>
      <trkpt lat="43.07065" lon="1.90856">
        <ele>364.5</ele>
        <time>2026-05-29T06:27:21Z</time>
      </trkpt>
      <trkpt lat="43.0706" lon="1.90857">
        <ele>364.8</ele>
        <time>2026-05-29T06:27:26Z</time>
      </trkpt>
      <trkpt lat="43.07056" lon="1.90859">
        <ele>365.1</ele>
        <time>2026-05-29T06:27:31Z</time>
      </trkpt>
      <trkpt lat="43.07051" lon="1.90864">
        <ele>365.4</ele>
        <time>2026-05-29T06:27:36Z</time>
      </trkpt>
      <trkpt lat="43.07048" lon="1.9087">
        <ele>365.4</ele>
        <time>2026-05-29T06:27:41Z</time>
      </trkpt>
      <trkpt lat="43.07044" lon="1.90875">
        <ele>365.4</ele>
        <time>2026-05-29T06:27:46Z</time>
      </trkpt>
      <trkpt lat="43.07041" lon="1.9088">
        <ele>365.3</ele>
        <time>2026-05-29T06:27:51Z</time>
      </trkpt>
      <trkpt lat="43.07038" lon="1.90886">
        <ele>365.2</ele>
        <time>2026-05-29T06:27:56Z</time>
      </trkpt>
      <trkpt lat="43.07035" lon="1.9089">
        <ele>365</ele>
        <time>2026-05-29T06:28:01Z</time>
      </trkpt>
      <trkpt lat="43.07032" lon="1.90894">
        <ele>364.8</ele>
        <time>2026-05-29T06:28:06Z</time>
      </trkpt>
      <trkpt lat="43.07029" lon="1.90899">
        <ele>364.5</ele>
        <time>2026-05-29T06:28:11Z</time>
      </trkpt>
      <trkpt lat="43.07025" lon="1.90904">
        <ele>364.1</ele>
        <time>2026-05-29T06:28:16Z</time>
      </trkpt>
      <trkpt lat="43.07021" lon="1.90909">
        <ele>363.6</ele>
        <time>2026-05-29T06:28:21Z</time>
      </trkpt>
      <trkpt lat="43.07017" lon="1.90914">
        <ele>363</ele>
        <time>2026-05-29T06:28:26Z</time>
      </trkpt>
      <trkpt lat="43.07013" lon="1.90918">
        <ele>362.8</ele>
        <time>2026-05-29T06:28:31Z</time>
      </trkpt>
      <trkpt lat="43.07009" lon="1.90923">
        <ele>363.2</ele>
        <time>2026-05-29T06:28:36Z</time>
      </trkpt>
      <trkpt lat="43.07005" lon="1.90928">
        <ele>363.6</ele>
        <time>2026-05-29T06:28:41Z</time>
      </trkpt>
      <trkpt lat="43.07" lon="1.90931">
        <ele>363.7</ele>
        <time>2026-05-29T06:28:46Z</time>
      </trkpt>
      <trkpt lat="43.06998" lon="1.90932">
        <ele>363.9</ele>
        <time>2026-05-29T06:28:51Z</time>
      </trkpt>
      <trkpt lat="43.06996" lon="1.90935">
        <ele>364.3</ele>
        <time>2026-05-29T06:28:56Z</time>
      </trkpt>
      <trkpt lat="43.06993" lon="1.90937">
        <ele>364.6</ele>
        <time>2026-05-29T06:29:01Z</time>
      </trkpt>
      <trkpt lat="43.06989" lon="1.90942">
        <ele>365.2</ele>
        <time>2026-05-29T06:29:06Z</time>
      </trkpt>
      <trkpt lat="43.06986" lon="1.90946">
        <ele>365.7</ele>
        <time>2026-05-29T06:29:11Z</time>
      </trkpt>
      <trkpt lat="43.06983" lon="1.90952">
        <ele>366.4</ele>
        <time>2026-05-29T06:29:16Z</time>
      </trkpt>
      <trkpt lat="43.06979" lon="1.90959">
        <ele>367.1</ele>
        <time>2026-05-29T06:29:21Z</time>
      </trkpt>
      <trkpt lat="43.06976" lon="1.90962">
        <ele>367.3</ele>
        <time>2026-05-29T06:29:26Z</time>
      </trkpt>
      <trkpt lat="43.06972" lon="1.90965">
        <ele>367.6</ele>
        <time>2026-05-29T06:29:31Z</time>
      </trkpt>
      <trkpt lat="43.06968" lon="1.90971">
        <ele>368.1</ele>
        <time>2026-05-29T06:29:36Z</time>
      </trkpt>
      <trkpt lat="43.06964" lon="1.90974">
        <ele>368.2</ele>
        <time>2026-05-29T06:29:41Z</time>
      </trkpt>
      <trkpt lat="43.06959" lon="1.90977">
        <ele>368.4</ele>
        <time>2026-05-29T06:29:46Z</time>
      </trkpt>
      <trkpt lat="43.06953" lon="1.90979">
        <ele>368.4</ele>
        <time>2026-05-29T06:29:51Z</time>
      </trkpt>
      <trkpt lat="43.06949" lon="1.90981">
        <ele>368.4</ele>
        <time>2026-05-29T06:29:56Z</time>
      </trkpt>
      <trkpt lat="43.06943" lon="1.90985">
        <ele>368.4</ele>
        <time>2026-05-29T06:30:01Z</time>
      </trkpt>
      <trkpt lat="43.06938" lon="1.90988">
        <ele>368.4</ele>
        <time>2026-05-29T06:30:06Z</time>
      </trkpt>
      <trkpt lat="43.06934" lon="1.90991">
        <ele>368.4</ele>
        <time>2026-05-29T06:30:11Z</time>
      </trkpt>
      <trkpt lat="43.06929" lon="1.90994">
        <ele>368.4</ele>
        <time>2026-05-29T06:30:16Z</time>
      </trkpt>
      <trkpt lat="43.06924" lon="1.90997">
        <ele>368.3</ele>
        <time>2026-05-29T06:30:21Z</time>
      </trkpt>
      <trkpt lat="43.06919" lon="1.91001">
        <ele>368.2</ele>
        <time>2026-05-29T06:30:26Z</time>
      </trkpt>
      <trkpt lat="43.06914" lon="1.91005">
        <ele>368.4</ele>
        <time>2026-05-29T06:30:31Z</time>
      </trkpt>
      <trkpt lat="43.06908" lon="1.91009">
        <ele>369</ele>
        <time>2026-05-29T06:30:36Z</time>
      </trkpt>
      <trkpt lat="43.06904" lon="1.91013">
        <ele>369.5</ele>
        <time>2026-05-29T06:30:41Z</time>
      </trkpt>
      <trkpt lat="43.069" lon="1.91017">
        <ele>370</ele>
        <time>2026-05-29T06:30:46Z</time>
      </trkpt>
      <trkpt lat="43.06896" lon="1.91019">
        <ele>370.4</ele>
        <time>2026-05-29T06:30:51Z</time>
      </trkpt>
      <trkpt lat="43.06891" lon="1.91022">
        <ele>370.9</ele>
        <time>2026-05-29T06:30:56Z</time>
      </trkpt>
      <trkpt lat="43.06886" lon="1.91025">
        <ele>371.4</ele>
        <time>2026-05-29T06:31:01Z</time>
      </trkpt>
      <trkpt lat="43.06881" lon="1.91028">
        <ele>372</ele>
        <time>2026-05-29T06:31:06Z</time>
      </trkpt>
      <trkpt lat="43.06877" lon="1.91032">
        <ele>372.6</ele>
        <time>2026-05-29T06:31:11Z</time>
      </trkpt>
      <trkpt lat="43.06873" lon="1.91035">
        <ele>373.1</ele>
        <time>2026-05-29T06:31:16Z</time>
      </trkpt>
      <trkpt lat="43.06868" lon="1.91039">
        <ele>373.8</ele>
        <time>2026-05-29T06:31:21Z</time>
      </trkpt>
      <trkpt lat="43.06864" lon="1.91042">
        <ele>374.3</ele>
        <time>2026-05-29T06:31:26Z</time>
      </trkpt>
      <trkpt lat="43.06859" lon="1.91043">
        <ele>374.8</ele>
        <time>2026-05-29T06:31:31Z</time>
      </trkpt>
      <trkpt lat="43.06858" lon="1.91043">
        <ele>374.8</ele>
        <time>2026-05-29T06:31:36Z</time>
      </trkpt>
      <trkpt lat="43.06854" lon="1.91048">
        <ele>375.6</ele>
        <time>2026-05-29T06:31:41Z</time>
      </trkpt>
      <trkpt lat="43.06851" lon="1.9105">
        <ele>376</ele>
        <time>2026-05-29T06:31:46Z</time>
      </trkpt>
      <trkpt lat="43.06848" lon="1.91052">
        <ele>376.5</ele>
        <time>2026-05-29T06:31:51Z</time>
      </trkpt>
      <trkpt lat="43.06844" lon="1.91053">
        <ele>376.9</ele>
        <time>2026-05-29T06:31:56Z</time>
      </trkpt>
      <trkpt lat="43.06841" lon="1.91054">
        <ele>377.2</ele>
        <time>2026-05-29T06:32:01Z</time>
      </trkpt>
      <trkpt lat="43.06836" lon="1.91055">
        <ele>377.7</ele>
        <time>2026-05-29T06:32:06Z</time>
      </trkpt>
      <trkpt lat="43.06831" lon="1.91053">
        <ele>377.8</ele>
        <time>2026-05-29T06:32:11Z</time>
      </trkpt>
      <trkpt lat="43.06825" lon="1.91053">
        <ele>378</ele>
        <time>2026-05-29T06:32:16Z</time>
      </trkpt>
      <trkpt lat="43.0682" lon="1.91051">
        <ele>378</ele>
        <time>2026-05-29T06:32:21Z</time>
      </trkpt>
      <trkpt lat="43.06814" lon="1.9105">
        <ele>378.1</ele>
        <time>2026-05-29T06:32:26Z</time>
      </trkpt>
      <trkpt lat="43.06808" lon="1.91048">
        <ele>378.2</ele>
        <time>2026-05-29T06:32:31Z</time>
      </trkpt>
      <trkpt lat="43.06803" lon="1.91047">
        <ele>378.3</ele>
        <time>2026-05-29T06:32:36Z</time>
      </trkpt>
      <trkpt lat="43.06797" lon="1.91046">
        <ele>378.5</ele>
        <time>2026-05-29T06:32:41Z</time>
      </trkpt>
      <trkpt lat="43.06791" lon="1.91045">
        <ele>378.7</ele>
        <time>2026-05-29T06:32:46Z</time>
      </trkpt>
      <trkpt lat="43.06787" lon="1.91042">
        <ele>378.7</ele>
        <time>2026-05-29T06:32:51Z</time>
      </trkpt>
      <trkpt lat="43.06784" lon="1.9104">
        <ele>378.8</ele>
        <time>2026-05-29T06:32:56Z</time>
      </trkpt>
      <trkpt lat="43.0678" lon="1.91038">
        <ele>378.9</ele>
        <time>2026-05-29T06:33:01Z</time>
      </trkpt>
      <trkpt lat="43.06776" lon="1.91034">
        <ele>379.1</ele>
        <time>2026-05-29T06:33:06Z</time>
      </trkpt>
      <trkpt lat="43.06771" lon="1.9103">
        <ele>379.3</ele>
        <time>2026-05-29T06:33:11Z</time>
      </trkpt>
      <trkpt lat="43.06768" lon="1.91027">
        <ele>379.4</ele>
        <time>2026-05-29T06:33:16Z</time>
      </trkpt>
      <trkpt lat="43.06765" lon="1.91021">
        <ele>379.6</ele>
        <time>2026-05-29T06:33:21Z</time>
      </trkpt>
      <trkpt lat="43.06762" lon="1.91018">
        <ele>379.8</ele>
        <time>2026-05-29T06:33:26Z</time>
      </trkpt>
      <trkpt lat="43.06758" lon="1.91017">
        <ele>380.1</ele>
        <time>2026-05-29T06:33:31Z</time>
      </trkpt>
      <trkpt lat="43.06753" lon="1.91019">
        <ele>380.5</ele>
        <time>2026-05-29T06:33:36Z</time>
      </trkpt>
      <trkpt lat="43.06749" lon="1.91023">
        <ele>380.8</ele>
        <time>2026-05-29T06:33:41Z</time>
      </trkpt>
      <trkpt lat="43.06746" lon="1.91026">
        <ele>381.2</ele>
        <time>2026-05-29T06:33:46Z</time>
      </trkpt>
      <trkpt lat="43.06746" lon="1.91026">
        <ele>381.2</ele>
        <time>2026-05-29T06:33:51Z</time>
      </trkpt>
      <trkpt lat="43.06746" lon="1.91026">
        <ele>381.2</ele>
        <time>2026-05-29T06:33:56Z</time>
      </trkpt>
      <trkpt lat="43.06745" lon="1.91033">
        <ele>381.2</ele>
        <time>2026-05-29T06:34:01Z</time>
      </trkpt>
      <trkpt lat="43.06742" lon="1.91036">
        <ele>381.5</ele>
        <time>2026-05-29T06:34:06Z</time>
      </trkpt>
      <trkpt lat="43.06739" lon="1.9104">
        <ele>381.7</ele>
        <time>2026-05-29T06:34:11Z</time>
      </trkpt>
      <trkpt lat="43.06734" lon="1.91044">
        <ele>382.2</ele>
        <time>2026-05-29T06:34:16Z</time>
      </trkpt>
      <trkpt lat="43.06729" lon="1.91051">
        <ele>382.5</ele>
        <time>2026-05-29T06:34:21Z</time>
      </trkpt>
      <trkpt lat="43.06725" lon="1.91056">
        <ele>382.8</ele>
        <time>2026-05-29T06:34:26Z</time>
      </trkpt>
      <trkpt lat="43.06723" lon="1.91061">
        <ele>382.9</ele>
        <time>2026-05-29T06:34:31Z</time>
      </trkpt>
      <trkpt lat="43.0672" lon="1.91066">
        <ele>383</ele>
        <time>2026-05-29T06:34:36Z</time>
      </trkpt>
      <trkpt lat="43.06716" lon="1.9107">
        <ele>383.3</ele>
        <time>2026-05-29T06:34:41Z</time>
      </trkpt>
      <trkpt lat="43.06713" lon="1.91075">
        <ele>383.4</ele>
        <time>2026-05-29T06:34:46Z</time>
      </trkpt>
      <trkpt lat="43.06709" lon="1.91081">
        <ele>383.5</ele>
        <time>2026-05-29T06:34:51Z</time>
      </trkpt>
      <trkpt lat="43.06704" lon="1.91087">
        <ele>383.8</ele>
        <time>2026-05-29T06:34:56Z</time>
      </trkpt>
      <trkpt lat="43.06699" lon="1.91093">
        <ele>384.1</ele>
        <time>2026-05-29T06:35:01Z</time>
      </trkpt>
      <trkpt lat="43.06694" lon="1.91098">
        <ele>384.3</ele>
        <time>2026-05-29T06:35:06Z</time>
      </trkpt>
      <trkpt lat="43.06689" lon="1.91101">
        <ele>384.5</ele>
        <time>2026-05-29T06:35:11Z</time>
      </trkpt>
      <trkpt lat="43.06684" lon="1.91104">
        <ele>384.7</ele>
        <time>2026-05-29T06:35:16Z</time>
      </trkpt>
      <trkpt lat="43.06679" lon="1.91111">
        <ele>384.7</ele>
        <time>2026-05-29T06:35:21Z</time>
      </trkpt>
      <trkpt lat="43.06677" lon="1.91117">
        <ele>384.5</ele>
        <time>2026-05-29T06:35:26Z</time>
      </trkpt>
      <trkpt lat="43.06671" lon="1.9112">
        <ele>384.6</ele>
        <time>2026-05-29T06:35:31Z</time>
      </trkpt>
      <trkpt lat="43.06666" lon="1.91121">
        <ele>384.8</ele>
        <time>2026-05-29T06:35:36Z</time>
      </trkpt>
      <trkpt lat="43.0666" lon="1.91122">
        <ele>385.3</ele>
        <time>2026-05-29T06:35:41Z</time>
      </trkpt>
      <trkpt lat="43.06654" lon="1.91123">
        <ele>385.8</ele>
        <time>2026-05-29T06:35:46Z</time>
      </trkpt>
      <trkpt lat="43.06648" lon="1.91123">
        <ele>386.3</ele>
        <time>2026-05-29T06:35:51Z</time>
      </trkpt>
      <trkpt lat="43.06644" lon="1.91126">
        <ele>386.5</ele>
        <time>2026-05-29T06:35:56Z</time>
      </trkpt>
      <trkpt lat="43.0664" lon="1.9113">
        <ele>386.5</ele>
        <time>2026-05-29T06:36:01Z</time>
      </trkpt>
      <trkpt lat="43.06635" lon="1.91135">
        <ele>386.6</ele>
        <time>2026-05-29T06:36:06Z</time>
      </trkpt>
      <trkpt lat="43.0663" lon="1.91137">
        <ele>386.9</ele>
        <time>2026-05-29T06:36:11Z</time>
      </trkpt>
      <trkpt lat="43.06625" lon="1.9114">
        <ele>387.1</ele>
        <time>2026-05-29T06:36:16Z</time>
      </trkpt>
      <trkpt lat="43.0662" lon="1.91143">
        <ele>387.3</ele>
        <time>2026-05-29T06:36:21Z</time>
      </trkpt>
      <trkpt lat="43.06616" lon="1.91146">
        <ele>387.3</ele>
        <time>2026-05-29T06:36:26Z</time>
      </trkpt>
      <trkpt lat="43.06611" lon="1.91148">
        <ele>387.6</ele>
        <time>2026-05-29T06:36:31Z</time>
      </trkpt>
      <trkpt lat="43.06607" lon="1.91153">
        <ele>387.5</ele>
        <time>2026-05-29T06:36:36Z</time>
      </trkpt>
      <trkpt lat="43.06602" lon="1.91155">
        <ele>387.7</ele>
        <time>2026-05-29T06:36:41Z</time>
      </trkpt>
      <trkpt lat="43.06598" lon="1.91157">
        <ele>387.8</ele>
        <time>2026-05-29T06:36:46Z</time>
      </trkpt>
      <trkpt lat="43.06594" lon="1.91159">
        <ele>387.9</ele>
        <time>2026-05-29T06:36:51Z</time>
      </trkpt>
      <trkpt lat="43.0659" lon="1.91161">
        <ele>388</ele>
        <time>2026-05-29T06:36:56Z</time>
      </trkpt>
      <trkpt lat="43.06589" lon="1.9116">
        <ele>388.2</ele>
        <time>2026-05-29T06:37:01Z</time>
      </trkpt>
      <trkpt lat="43.06587" lon="1.91162">
        <ele>388.2</ele>
        <time>2026-05-29T06:37:06Z</time>
      </trkpt>
      <trkpt lat="43.06583" lon="1.91163">
        <ele>388.4</ele>
        <time>2026-05-29T06:37:11Z</time>
      </trkpt>
      <trkpt lat="43.06578" lon="1.91166">
        <ele>388.3</ele>
        <time>2026-05-29T06:37:16Z</time>
      </trkpt>
      <trkpt lat="43.06573" lon="1.91168">
        <ele>388.3</ele>
        <time>2026-05-29T06:37:21Z</time>
      </trkpt>
      <trkpt lat="43.06566" lon="1.9117">
        <ele>388.6</ele>
        <time>2026-05-29T06:37:26Z</time>
      </trkpt>
      <trkpt lat="43.06561" lon="1.91171">
        <ele>388.7</ele>
        <time>2026-05-29T06:37:31Z</time>
      </trkpt>
      <trkpt lat="43.06556" lon="1.91173">
        <ele>388.8</ele>
        <time>2026-05-29T06:37:36Z</time>
      </trkpt>
      <trkpt lat="43.06551" lon="1.91174">
        <ele>388.9</ele>
        <time>2026-05-29T06:37:41Z</time>
      </trkpt>
      <trkpt lat="43.06546" lon="1.91174">
        <ele>389.1</ele>
        <time>2026-05-29T06:37:46Z</time>
      </trkpt>
      <trkpt lat="43.06541" lon="1.91176">
        <ele>389.2</ele>
        <time>2026-05-29T06:37:51Z</time>
      </trkpt>
      <trkpt lat="43.06537" lon="1.91177">
        <ele>389.3</ele>
        <time>2026-05-29T06:37:56Z</time>
      </trkpt>
      <trkpt lat="43.06532" lon="1.91177">
        <ele>389.4</ele>
        <time>2026-05-29T06:38:01Z</time>
      </trkpt>
      <trkpt lat="43.06528" lon="1.91177">
        <ele>389.5</ele>
        <time>2026-05-29T06:38:06Z</time>
      </trkpt>
      <trkpt lat="43.06526" lon="1.91176">
        <ele>389.6</ele>
        <time>2026-05-29T06:38:11Z</time>
      </trkpt>
      <trkpt lat="43.06522" lon="1.91177">
        <ele>389.7</ele>
        <time>2026-05-29T06:38:16Z</time>
      </trkpt>
      <trkpt lat="43.06517" lon="1.91177">
        <ele>389.9</ele>
        <time>2026-05-29T06:38:21Z</time>
      </trkpt>
      <trkpt lat="43.06512" lon="1.91178">
        <ele>390</ele>
        <time>2026-05-29T06:38:26Z</time>
      </trkpt>
      <trkpt lat="43.06506" lon="1.91179">
        <ele>390.1</ele>
        <time>2026-05-29T06:38:31Z</time>
      </trkpt>
      <trkpt lat="43.06503" lon="1.91179">
        <ele>390.2</ele>
        <time>2026-05-29T06:38:36Z</time>
      </trkpt>
      <trkpt lat="43.06497" lon="1.9118">
        <ele>390</ele>
        <time>2026-05-29T06:38:41Z</time>
      </trkpt>
      <trkpt lat="43.06492" lon="1.91181">
        <ele>389.5</ele>
        <time>2026-05-29T06:38:46Z</time>
      </trkpt>
      <trkpt lat="43.06488" lon="1.91179">
        <ele>389.3</ele>
        <time>2026-05-29T06:38:51Z</time>
      </trkpt>
      <trkpt lat="43.06484" lon="1.91177">
        <ele>389.1</ele>
        <time>2026-05-29T06:38:56Z</time>
      </trkpt>
      <trkpt lat="43.0648" lon="1.91178">
        <ele>388.7</ele>
        <time>2026-05-29T06:39:01Z</time>
      </trkpt>
      <trkpt lat="43.06475" lon="1.91177">
        <ele>388.4</ele>
        <time>2026-05-29T06:39:06Z</time>
      </trkpt>
      <trkpt lat="43.06471" lon="1.91174">
        <ele>388.3</ele>
        <time>2026-05-29T06:39:11Z</time>
      </trkpt>
      <trkpt lat="43.06467" lon="1.91173">
        <ele>388.1</ele>
        <time>2026-05-29T06:39:16Z</time>
      </trkpt>
      <trkpt lat="43.06464" lon="1.91168">
        <ele>388.3</ele>
        <time>2026-05-29T06:39:21Z</time>
      </trkpt>
      <trkpt lat="43.06462" lon="1.91168">
        <ele>388.1</ele>
        <time>2026-05-29T06:39:26Z</time>
      </trkpt>
      <trkpt lat="43.06462" lon="1.91169">
        <ele>388.1</ele>
        <time>2026-05-29T06:39:31Z</time>
      </trkpt>
      <trkpt lat="43.06458" lon="1.91172">
        <ele>387.5</ele>
        <time>2026-05-29T06:39:36Z</time>
      </trkpt>
      <trkpt lat="43.06458" lon="1.91176">
        <ele>387.1</ele>
        <time>2026-05-29T06:39:41Z</time>
      </trkpt>
      <trkpt lat="43.0646" lon="1.91182">
        <ele>386.8</ele>
        <time>2026-05-29T06:39:46Z</time>
      </trkpt>
      <trkpt lat="43.0646" lon="1.91189">
        <ele>386.1</ele>
        <time>2026-05-29T06:39:51Z</time>
      </trkpt>
      <trkpt lat="43.06461" lon="1.91195">
        <ele>385.7</ele>
        <time>2026-05-29T06:39:56Z</time>
      </trkpt>
      <trkpt lat="43.06462" lon="1.91196">
        <ele>385.7</ele>
        <time>2026-05-29T06:40:01Z</time>
      </trkpt>
      <trkpt lat="43.06462" lon="1.91196">
        <ele>385.7</ele>
        <time>2026-05-29T06:40:06Z</time>
      </trkpt>
      <trkpt lat="43.06462" lon="1.91196">
        <ele>385.7</ele>
        <time>2026-05-29T06:40:11Z</time>
      </trkpt>
      <trkpt lat="43.06462" lon="1.91196">
        <ele>385.7</ele>
        <time>2026-05-29T06:40:16Z</time>
      </trkpt>
      <trkpt lat="43.06462" lon="1.91196">
        <ele>385.7</ele>
        <time>2026-05-29T06:40:21Z</time>
      </trkpt>
      <trkpt lat="43.06462" lon="1.91196">
        <ele>385.7</ele>
        <time>2026-05-29T06:40:26Z</time>
      </trkpt>
      <trkpt lat="43.06462" lon="1.91196">
        <ele>385.7</ele>
        <time>2026-05-29T06:40:31Z</time>
      </trkpt>
      <trkpt lat="43.06462" lon="1.91196">
        <ele>385.7</ele>
        <time>2026-05-29T06:40:36Z</time>
      </trkpt>
      <trkpt lat="43.06462" lon="1.91196">
        <ele>385.7</ele>
        <time>2026-05-29T06:40:41Z</time>
      </trkpt>
      <trkpt lat="43.06462" lon="1.91196">
        <ele>385.7</ele>
        <time>2026-05-29T06:40:46Z</time>
      </trkpt>
      <trkpt lat="43.06462" lon="1.91196">
        <ele>385.7</ele>
        <time>2026-05-29T06:40:51Z</time>
      </trkpt>
      <trkpt lat="43.06462" lon="1.91196">
        <ele>385.7</ele>
        <time>2026-05-29T06:40:56Z</time>
      </trkpt>
      <trkpt lat="43.06462" lon="1.91196">
        <ele>385.7</ele>
        <time>2026-05-29T06:41:01Z</time>
      </trkpt>
      <trkpt lat="43.06462" lon="1.91196">
        <ele>385.7</ele>
        <time>2026-05-29T06:41:06Z</time>
      </trkpt>
      <trkpt lat="43.06462" lon="1.91196">
        <ele>385.7</ele>
        <time>2026-05-29T06:41:11Z</time>
      </trkpt>
      <trkpt lat="43.06462" lon="1.91196">
        <ele>385.7</ele>
        <time>2026-05-29T06:41:16Z</time>
      </trkpt>
      <trkpt lat="43.06462" lon="1.91196">
        <ele>385.7</ele>
        <time>2026-05-29T06:41:21Z</time>
      </trkpt>
      <trkpt lat="43.06462" lon="1.91196">
        <ele>385.7</ele>
        <time>2026-05-29T06:41:26Z</time>
      </trkpt>
      <trkpt lat="43.06462" lon="1.91196">
        <ele>385.7</ele>
        <time>2026-05-29T06:41:31Z</time>
      </trkpt>
      <trkpt lat="43.06462" lon="1.91196">
        <ele>385.7</ele>
        <time>2026-05-29T06:41:36Z</time>
      </trkpt>
      <trkpt lat="43.06462" lon="1.91196">
        <ele>385.7</ele>
        <time>2026-05-29T06:41:41Z</time>
      </trkpt>
      <trkpt lat="43.06462" lon="1.91196">
        <ele>385.7</ele>
        <time>2026-05-29T06:41:46Z</time>
      </trkpt>
      <trkpt lat="43.06462" lon="1.91196">
        <ele>385.7</ele>
        <time>2026-05-29T06:41:51Z</time>
      </trkpt>
      <trkpt lat="43.06462" lon="1.91196">
        <ele>385.7</ele>
        <time>2026-05-29T06:41:56Z</time>
      </trkpt>
      <trkpt lat="43.06462" lon="1.91196">
        <ele>385.7</ele>
        <time>2026-05-29T06:42:01Z</time>
      </trkpt>
      <trkpt lat="43.06462" lon="1.91196">
        <ele>385.7</ele>
        <time>2026-05-29T06:42:06Z</time>
      </trkpt>
      <trkpt lat="43.06462" lon="1.91196">
        <ele>385.7</ele>
        <time>2026-05-29T06:42:11Z</time>
      </trkpt>
      <trkpt lat="43.06462" lon="1.91196">
        <ele>385.7</ele>
        <time>2026-05-29T06:42:16Z</time>
      </trkpt>
      <trkpt lat="43.06462" lon="1.91196">
        <ele>385.7</ele>
        <time>2026-05-29T06:42:21Z</time>
      </trkpt>
      <trkpt lat="43.06462" lon="1.91196">
        <ele>385.7</ele>
        <time>2026-05-29T06:42:26Z</time>
      </trkpt>
      <trkpt lat="43.06462" lon="1.91196">
        <ele>385.7</ele>
        <time>2026-05-29T06:42:31Z</time>
      </trkpt>
      <trkpt lat="43.06462" lon="1.91196">
        <ele>385.7</ele>
        <time>2026-05-29T06:42:36Z</time>
      </trkpt>
      <trkpt lat="43.06462" lon="1.91196">
        <ele>385.7</ele>
        <time>2026-05-29T06:42:41Z</time>
      </trkpt>
      <trkpt lat="43.06462" lon="1.91196">
        <ele>385.7</ele>
        <time>2026-05-29T06:42:46Z</time>
      </trkpt>
      <trkpt lat="43.06459" lon="1.9121">
        <ele>384.2</ele>
        <time>2026-05-29T06:42:51Z</time>
      </trkpt>
      <trkpt lat="43.06458" lon="1.91216">
        <ele>383.5</ele>
        <time>2026-05-29T06:42:56Z</time>
      </trkpt>
      <trkpt lat="43.06458" lon="1.91223">
        <ele>382.9</ele>
        <time>2026-05-29T06:43:01Z</time>
      </trkpt>
      <trkpt lat="43.06456" lon="1.91232">
        <ele>381.8</ele>
        <time>2026-05-29T06:43:06Z</time>
      </trkpt>
      <trkpt lat="43.06455" lon="1.91239">
        <ele>381.1</ele>
        <time>2026-05-29T06:43:11Z</time>
      </trkpt>
      <trkpt lat="43.06454" lon="1.91246">
        <ele>380.3</ele>
        <time>2026-05-29T06:43:16Z</time>
      </trkpt>
      <trkpt lat="43.06454" lon="1.91255">
        <ele>379.6</ele>
        <time>2026-05-29T06:43:21Z</time>
      </trkpt>
      <trkpt lat="43.06453" lon="1.91262">
        <ele>379.1</ele>
        <time>2026-05-29T06:43:26Z</time>
      </trkpt>
      <trkpt lat="43.06451" lon="1.9127">
        <ele>378.4</ele>
        <time>2026-05-29T06:43:31Z</time>
      </trkpt>
      <trkpt lat="43.0645" lon="1.91277">
        <ele>377.8</ele>
        <time>2026-05-29T06:43:36Z</time>
      </trkpt>
      <trkpt lat="43.06449" lon="1.91287">
        <ele>377.1</ele>
        <time>2026-05-29T06:43:41Z</time>
      </trkpt>
      <trkpt lat="43.06449" lon="1.91295">
        <ele>376.7</ele>
        <time>2026-05-29T06:43:46Z</time>
      </trkpt>
      <trkpt lat="43.06447" lon="1.91304">
        <ele>375.8</ele>
        <time>2026-05-29T06:43:51Z</time>
      </trkpt>
      <trkpt lat="43.06446" lon="1.91313">
        <ele>375.1</ele>
        <time>2026-05-29T06:43:56Z</time>
      </trkpt>
      <trkpt lat="43.06447" lon="1.9132">
        <ele>374.9</ele>
        <time>2026-05-29T06:44:01Z</time>
      </trkpt>
      <trkpt lat="43.06446" lon="1.9133">
        <ele>374.1</ele>
        <time>2026-05-29T06:44:06Z</time>
      </trkpt>
      <trkpt lat="43.06446" lon="1.91339">
        <ele>374</ele>
        <time>2026-05-29T06:44:11Z</time>
      </trkpt>
      <trkpt lat="43.06446" lon="1.91348">
        <ele>374.1</ele>
        <time>2026-05-29T06:44:16Z</time>
      </trkpt>
      <trkpt lat="43.06445" lon="1.91356">
        <ele>374</ele>
        <time>2026-05-29T06:44:21Z</time>
      </trkpt>
      <trkpt lat="43.06444" lon="1.91365">
        <ele>373.8</ele>
        <time>2026-05-29T06:44:26Z</time>
      </trkpt>
      <trkpt lat="43.06444" lon="1.91374">
        <ele>373.9</ele>
        <time>2026-05-29T06:44:31Z</time>
      </trkpt>
      <trkpt lat="43.06444" lon="1.91381">
        <ele>374</ele>
        <time>2026-05-29T06:44:36Z</time>
      </trkpt>
      <trkpt lat="43.06445" lon="1.91385">
        <ele>374.2</ele>
        <time>2026-05-29T06:44:41Z</time>
      </trkpt>
      <trkpt lat="43.06445" lon="1.91386">
        <ele>374.2</ele>
        <time>2026-05-29T06:44:46Z</time>
      </trkpt>
      <trkpt lat="43.06445" lon="1.91386">
        <ele>374.2</ele>
        <time>2026-05-29T06:44:51Z</time>
      </trkpt>
      <trkpt lat="43.06444" lon="1.91396">
        <ele>374.1</ele>
        <time>2026-05-29T06:44:56Z</time>
      </trkpt>
      <trkpt lat="43.06444" lon="1.91402">
        <ele>374.1</ele>
        <time>2026-05-29T06:45:01Z</time>
      </trkpt>
      <trkpt lat="43.06443" lon="1.91408">
        <ele>373.9</ele>
        <time>2026-05-29T06:45:06Z</time>
      </trkpt>
      <trkpt lat="43.06442" lon="1.91415">
        <ele>373.8</ele>
        <time>2026-05-29T06:45:11Z</time>
      </trkpt>
      <trkpt lat="43.06443" lon="1.9142">
        <ele>374.1</ele>
        <time>2026-05-29T06:45:16Z</time>
      </trkpt>
      <trkpt lat="43.06443" lon="1.91425">
        <ele>374.2</ele>
        <time>2026-05-29T06:45:21Z</time>
      </trkpt>
      <trkpt lat="43.06443" lon="1.91431">
        <ele>374.4</ele>
        <time>2026-05-29T06:45:26Z</time>
      </trkpt>
      <trkpt lat="43.06444" lon="1.91438">
        <ele>374.8</ele>
        <time>2026-05-29T06:45:31Z</time>
      </trkpt>
      <trkpt lat="43.06446" lon="1.91446">
        <ele>375.5</ele>
        <time>2026-05-29T06:45:36Z</time>
      </trkpt>
      <trkpt lat="43.06447" lon="1.91452">
        <ele>375.9</ele>
        <time>2026-05-29T06:45:41Z</time>
      </trkpt>
      <trkpt lat="43.06448" lon="1.91458">
        <ele>376.3</ele>
        <time>2026-05-29T06:45:46Z</time>
      </trkpt>
      <trkpt lat="43.06451" lon="1.91464">
        <ele>377.2</ele>
        <time>2026-05-29T06:45:51Z</time>
      </trkpt>
      <trkpt lat="43.06452" lon="1.9147">
        <ele>377.6</ele>
        <time>2026-05-29T06:45:56Z</time>
      </trkpt>
      <trkpt lat="43.06453" lon="1.91477">
        <ele>378</ele>
        <time>2026-05-29T06:46:01Z</time>
      </trkpt>
      <trkpt lat="43.06454" lon="1.91485">
        <ele>378.5</ele>
        <time>2026-05-29T06:46:06Z</time>
      </trkpt>
      <trkpt lat="43.06456" lon="1.91492">
        <ele>379.2</ele>
        <time>2026-05-29T06:46:11Z</time>
      </trkpt>
      <trkpt lat="43.06457" lon="1.91499">
        <ele>379.7</ele>
        <time>2026-05-29T06:46:16Z</time>
      </trkpt>
      <trkpt lat="43.06458" lon="1.91507">
        <ele>380</ele>
        <time>2026-05-29T06:46:21Z</time>
      </trkpt>
      <trkpt lat="43.0646" lon="1.91515">
        <ele>380.7</ele>
        <time>2026-05-29T06:46:26Z</time>
      </trkpt>
      <trkpt lat="43.06461" lon="1.91521">
        <ele>381</ele>
        <time>2026-05-29T06:46:31Z</time>
      </trkpt>
      <trkpt lat="43.06462" lon="1.91528">
        <ele>381.4</ele>
        <time>2026-05-29T06:46:36Z</time>
      </trkpt>
      <trkpt lat="43.06463" lon="1.91536">
        <ele>381.7</ele>
        <time>2026-05-29T06:46:41Z</time>
      </trkpt>
      <trkpt lat="43.06463" lon="1.91543">
        <ele>381.9</ele>
        <time>2026-05-29T06:46:46Z</time>
      </trkpt>
      <trkpt lat="43.06466" lon="1.91551">
        <ele>382.7</ele>
        <time>2026-05-29T06:46:51Z</time>
      </trkpt>
      <trkpt lat="43.06467" lon="1.91557">
        <ele>383</ele>
        <time>2026-05-29T06:46:56Z</time>
      </trkpt>
      <trkpt lat="43.06468" lon="1.91563">
        <ele>383.4</ele>
        <time>2026-05-29T06:47:01Z</time>
      </trkpt>
      <trkpt lat="43.06468" lon="1.91569">
        <ele>383.5</ele>
        <time>2026-05-29T06:47:06Z</time>
      </trkpt>
      <trkpt lat="43.06469" lon="1.91575">
        <ele>383.8</ele>
        <time>2026-05-29T06:47:11Z</time>
      </trkpt>
      <trkpt lat="43.0647" lon="1.9158">
        <ele>384.1</ele>
        <time>2026-05-29T06:47:16Z</time>
      </trkpt>
      <trkpt lat="43.06471" lon="1.91588">
        <ele>384.2</ele>
        <time>2026-05-29T06:47:21Z</time>
      </trkpt>
      <trkpt lat="43.06471" lon="1.91595">
        <ele>384</ele>
        <time>2026-05-29T06:47:26Z</time>
      </trkpt>
      <trkpt lat="43.06473" lon="1.91603">
        <ele>384.1</ele>
        <time>2026-05-29T06:47:31Z</time>
      </trkpt>
      <trkpt lat="43.06475" lon="1.91608">
        <ele>384.4</ele>
        <time>2026-05-29T06:47:36Z</time>
      </trkpt>
      <trkpt lat="43.06476" lon="1.91613">
        <ele>384.4</ele>
        <time>2026-05-29T06:47:41Z</time>
      </trkpt>
      <trkpt lat="43.06477" lon="1.91622">
        <ele>384.3</ele>
        <time>2026-05-29T06:47:46Z</time>
      </trkpt>
      <trkpt lat="43.0648" lon="1.91629">
        <ele>384.6</ele>
        <time>2026-05-29T06:47:51Z</time>
      </trkpt>
      <trkpt lat="43.06482" lon="1.91635">
        <ele>384.8</ele>
        <time>2026-05-29T06:47:56Z</time>
      </trkpt>
      <trkpt lat="43.06485" lon="1.91642">
        <ele>385.1</ele>
        <time>2026-05-29T06:48:01Z</time>
      </trkpt>
      <trkpt lat="43.06489" lon="1.91648">
        <ele>385.7</ele>
        <time>2026-05-29T06:48:06Z</time>
      </trkpt>
      <trkpt lat="43.06492" lon="1.91654">
        <ele>386</ele>
        <time>2026-05-29T06:48:11Z</time>
      </trkpt>
      <trkpt lat="43.06497" lon="1.91661">
        <ele>386.7</ele>
        <time>2026-05-29T06:48:16Z</time>
      </trkpt>
      <trkpt lat="43.06501" lon="1.91667">
        <ele>387.2</ele>
        <time>2026-05-29T06:48:21Z</time>
      </trkpt>
      <trkpt lat="43.06505" lon="1.91673">
        <ele>388</ele>
        <time>2026-05-29T06:48:26Z</time>
      </trkpt>
      <trkpt lat="43.06508" lon="1.91681">
        <ele>388.3</ele>
        <time>2026-05-29T06:48:31Z</time>
      </trkpt>
      <trkpt lat="43.06512" lon="1.91685">
        <ele>389.1</ele>
        <time>2026-05-29T06:48:36Z</time>
      </trkpt>
      <trkpt lat="43.06515" lon="1.91692">
        <ele>389.5</ele>
        <time>2026-05-29T06:48:41Z</time>
      </trkpt>
      <trkpt lat="43.06518" lon="1.91698">
        <ele>390</ele>
        <time>2026-05-29T06:48:46Z</time>
      </trkpt>
      <trkpt lat="43.06523" lon="1.91702">
        <ele>391</ele>
        <time>2026-05-29T06:48:51Z</time>
      </trkpt>
      <trkpt lat="43.06526" lon="1.91709">
        <ele>391.4</ele>
        <time>2026-05-29T06:48:56Z</time>
      </trkpt>
      <trkpt lat="43.06529" lon="1.91716">
        <ele>391.7</ele>
        <time>2026-05-29T06:49:01Z</time>
      </trkpt>
      <trkpt lat="43.06532" lon="1.91722">
        <ele>392.2</ele>
        <time>2026-05-29T06:49:06Z</time>
      </trkpt>
      <trkpt lat="43.06535" lon="1.9173">
        <ele>392.5</ele>
        <time>2026-05-29T06:49:11Z</time>
      </trkpt>
      <trkpt lat="43.06538" lon="1.91737">
        <ele>392.8</ele>
        <time>2026-05-29T06:49:16Z</time>
      </trkpt>
      <trkpt lat="43.06541" lon="1.91743">
        <ele>393.2</ele>
        <time>2026-05-29T06:49:21Z</time>
      </trkpt>
      <trkpt lat="43.06544" lon="1.9175">
        <ele>393.6</ele>
        <time>2026-05-29T06:49:26Z</time>
      </trkpt>
      <trkpt lat="43.06547" lon="1.91757">
        <ele>394.2</ele>
        <time>2026-05-29T06:49:31Z</time>
      </trkpt>
      <trkpt lat="43.06547" lon="1.91762">
        <ele>394.1</ele>
        <time>2026-05-29T06:49:36Z</time>
      </trkpt>
      <trkpt lat="43.06547" lon="1.91763">
        <ele>394.1</ele>
        <time>2026-05-29T06:49:41Z</time>
      </trkpt>
      <trkpt lat="43.06547" lon="1.91763">
        <ele>394.1</ele>
        <time>2026-05-29T06:49:46Z</time>
      </trkpt>
      <trkpt lat="43.06547" lon="1.91763">
        <ele>394.1</ele>
        <time>2026-05-29T06:49:51Z</time>
      </trkpt>
      <trkpt lat="43.06547" lon="1.91763">
        <ele>394.1</ele>
        <time>2026-05-29T06:49:56Z</time>
      </trkpt>
      <trkpt lat="43.06547" lon="1.91763">
        <ele>394.1</ele>
        <time>2026-05-29T06:50:01Z</time>
      </trkpt>
      <trkpt lat="43.06547" lon="1.91763">
        <ele>394.1</ele>
        <time>2026-05-29T06:50:06Z</time>
      </trkpt>
      <trkpt lat="43.06547" lon="1.91763">
        <ele>394.1</ele>
        <time>2026-05-29T06:50:11Z</time>
      </trkpt>
      <trkpt lat="43.06547" lon="1.91763">
        <ele>394.1</ele>
        <time>2026-05-29T06:50:16Z</time>
      </trkpt>
      <trkpt lat="43.06547" lon="1.91763">
        <ele>394.1</ele>
        <time>2026-05-29T06:50:21Z</time>
      </trkpt>
      <trkpt lat="43.06547" lon="1.91763">
        <ele>394.1</ele>
        <time>2026-05-29T06:50:26Z</time>
      </trkpt>
      <trkpt lat="43.06547" lon="1.91763">
        <ele>394.1</ele>
        <time>2026-05-29T06:50:31Z</time>
      </trkpt>
      <trkpt lat="43.06547" lon="1.91763">
        <ele>394.1</ele>
        <time>2026-05-29T06:50:36Z</time>
      </trkpt>
      <trkpt lat="43.06547" lon="1.91769">
        <ele>394</ele>
        <time>2026-05-29T06:50:41Z</time>
      </trkpt>
      <trkpt lat="43.06547" lon="1.91769">
        <ele>394</ele>
        <time>2026-05-29T06:50:46Z</time>
      </trkpt>
      <trkpt lat="43.06547" lon="1.91769">
        <ele>394</ele>
        <time>2026-05-29T06:50:51Z</time>
      </trkpt>
      <trkpt lat="43.06543" lon="1.91775">
        <ele>392.9</ele>
        <time>2026-05-29T06:50:56Z</time>
      </trkpt>
      <trkpt lat="43.06541" lon="1.91779">
        <ele>392.3</ele>
        <time>2026-05-29T06:51:01Z</time>
      </trkpt>
      <trkpt lat="43.06539" lon="1.91785">
        <ele>391.7</ele>
        <time>2026-05-29T06:51:06Z</time>
      </trkpt>
      <trkpt lat="43.06537" lon="1.91789">
        <ele>391.2</ele>
        <time>2026-05-29T06:51:11Z</time>
      </trkpt>
      <trkpt lat="43.06536" lon="1.91795">
        <ele>390.8</ele>
        <time>2026-05-29T06:51:16Z</time>
      </trkpt>
      <trkpt lat="43.06533" lon="1.91802">
        <ele>389.9</ele>
        <time>2026-05-29T06:51:21Z</time>
      </trkpt>
      <trkpt lat="43.06532" lon="1.91804">
        <ele>389.6</ele>
        <time>2026-05-29T06:51:26Z</time>
      </trkpt>
      <trkpt lat="43.06532" lon="1.91804">
        <ele>389.6</ele>
        <time>2026-05-29T06:51:31Z</time>
      </trkpt>
      <trkpt lat="43.06532" lon="1.91804">
        <ele>389.6</ele>
        <time>2026-05-29T06:51:36Z</time>
      </trkpt>
      <trkpt lat="43.06532" lon="1.91804">
        <ele>389.6</ele>
        <time>2026-05-29T06:51:41Z</time>
      </trkpt>
      <trkpt lat="43.06532" lon="1.91804">
        <ele>389.6</ele>
        <time>2026-05-29T06:51:46Z</time>
      </trkpt>
      <trkpt lat="43.06532" lon="1.91804">
        <ele>389.6</ele>
        <time>2026-05-29T06:51:51Z</time>
      </trkpt>
      <trkpt lat="43.06532" lon="1.91804">
        <ele>389.6</ele>
        <time>2026-05-29T06:51:56Z</time>
      </trkpt>
      <trkpt lat="43.06532" lon="1.91804">
        <ele>389.6</ele>
        <time>2026-05-29T06:52:01Z</time>
      </trkpt>
      <trkpt lat="43.06532" lon="1.91804">
        <ele>389.6</ele>
        <time>2026-05-29T06:52:06Z</time>
      </trkpt>
      <trkpt lat="43.06532" lon="1.91804">
        <ele>389.6</ele>
        <time>2026-05-29T06:52:11Z</time>
      </trkpt>
      <trkpt lat="43.06532" lon="1.91804">
        <ele>389.6</ele>
        <time>2026-05-29T06:52:16Z</time>
      </trkpt>
      <trkpt lat="43.06532" lon="1.91804">
        <ele>389.6</ele>
        <time>2026-05-29T06:52:21Z</time>
      </trkpt>
      <trkpt lat="43.06532" lon="1.91804">
        <ele>389.6</ele>
        <time>2026-05-29T06:52:26Z</time>
      </trkpt>
      <trkpt lat="43.06532" lon="1.91804">
        <ele>389.6</ele>
        <time>2026-05-29T06:52:31Z</time>
      </trkpt>
      <trkpt lat="43.06532" lon="1.91804">
        <ele>389.6</ele>
        <time>2026-05-29T06:52:36Z</time>
      </trkpt>
      <trkpt lat="43.06532" lon="1.91804">
        <ele>389.6</ele>
        <time>2026-05-29T06:52:41Z</time>
      </trkpt>
      <trkpt lat="43.06532" lon="1.91804">
        <ele>389.6</ele>
        <time>2026-05-29T06:52:46Z</time>
      </trkpt>
      <trkpt lat="43.06532" lon="1.91804">
        <ele>389.6</ele>
        <time>2026-05-29T06:52:51Z</time>
      </trkpt>
      <trkpt lat="43.06532" lon="1.91804">
        <ele>389.6</ele>
        <time>2026-05-29T06:52:56Z</time>
      </trkpt>
      <trkpt lat="43.06532" lon="1.91804">
        <ele>389.6</ele>
        <time>2026-05-29T06:53:01Z</time>
      </trkpt>
      <trkpt lat="43.06532" lon="1.91804">
        <ele>389.6</ele>
        <time>2026-05-29T06:53:06Z</time>
      </trkpt>
      <trkpt lat="43.06532" lon="1.91804">
        <ele>389.6</ele>
        <time>2026-05-29T06:53:11Z</time>
      </trkpt>
      <trkpt lat="43.06532" lon="1.91804">
        <ele>389.6</ele>
        <time>2026-05-29T06:53:16Z</time>
      </trkpt>
      <trkpt lat="43.06532" lon="1.91804">
        <ele>389.6</ele>
        <time>2026-05-29T06:53:21Z</time>
      </trkpt>
      <trkpt lat="43.06532" lon="1.91804">
        <ele>389.6</ele>
        <time>2026-05-29T06:53:26Z</time>
      </trkpt>
      <trkpt lat="43.06532" lon="1.91804">
        <ele>389.6</ele>
        <time>2026-05-29T06:53:31Z</time>
      </trkpt>
      <trkpt lat="43.06532" lon="1.91804">
        <ele>389.6</ele>
        <time>2026-05-29T06:53:36Z</time>
      </trkpt>
      <trkpt lat="43.06532" lon="1.91804">
        <ele>389.6</ele>
        <time>2026-05-29T06:53:41Z</time>
      </trkpt>
      <trkpt lat="43.06532" lon="1.91804">
        <ele>389.6</ele>
        <time>2026-05-29T06:53:46Z</time>
      </trkpt>
      <trkpt lat="43.06532" lon="1.91804">
        <ele>389.6</ele>
        <time>2026-05-29T06:53:51Z</time>
      </trkpt>
      <trkpt lat="43.06532" lon="1.91804">
        <ele>389.6</ele>
        <time>2026-05-29T06:53:56Z</time>
      </trkpt>
      <trkpt lat="43.06532" lon="1.91804">
        <ele>389.6</ele>
        <time>2026-05-29T06:54:01Z</time>
      </trkpt>
      <trkpt lat="43.06532" lon="1.91804">
        <ele>389.6</ele>
        <time>2026-05-29T06:54:06Z</time>
      </trkpt>
      <trkpt lat="43.06532" lon="1.91804">
        <ele>389.6</ele>
        <time>2026-05-29T06:54:11Z</time>
      </trkpt>
      <trkpt lat="43.06532" lon="1.91804">
        <ele>389.6</ele>
        <time>2026-05-29T06:54:16Z</time>
      </trkpt>
      <trkpt lat="43.06532" lon="1.91804">
        <ele>389.6</ele>
        <time>2026-05-29T06:54:21Z</time>
      </trkpt>
      <trkpt lat="43.06532" lon="1.91804">
        <ele>389.6</ele>
        <time>2026-05-29T06:54:26Z</time>
      </trkpt>
      <trkpt lat="43.06532" lon="1.91804">
        <ele>389.6</ele>
        <time>2026-05-29T06:54:31Z</time>
      </trkpt>
      <trkpt lat="43.06532" lon="1.91804">
        <ele>389.6</ele>
        <time>2026-05-29T06:54:36Z</time>
      </trkpt>
      <trkpt lat="43.06532" lon="1.91804">
        <ele>389.6</ele>
        <time>2026-05-29T06:54:41Z</time>
      </trkpt>
      <trkpt lat="43.06532" lon="1.91804">
        <ele>389.6</ele>
        <time>2026-05-29T06:54:46Z</time>
      </trkpt>
      <trkpt lat="43.06532" lon="1.91804">
        <ele>389.6</ele>
        <time>2026-05-29T06:54:51Z</time>
      </trkpt>
      <trkpt lat="43.06529" lon="1.91819">
        <ele>388.6</ele>
        <time>2026-05-29T06:54:56Z</time>
      </trkpt>
      <trkpt lat="43.06529" lon="1.91824">
        <ele>388.5</ele>
        <time>2026-05-29T06:55:01Z</time>
      </trkpt>
      <trkpt lat="43.06529" lon="1.9183">
        <ele>388.4</ele>
        <time>2026-05-29T06:55:06Z</time>
      </trkpt>
      <trkpt lat="43.06529" lon="1.91837">
        <ele>388.5</ele>
        <time>2026-05-29T06:55:11Z</time>
      </trkpt>
      <trkpt lat="43.06528" lon="1.91844">
        <ele>388.6</ele>
        <time>2026-05-29T06:55:16Z</time>
      </trkpt>
      <trkpt lat="43.06526" lon="1.9185">
        <ele>388.4</ele>
        <time>2026-05-29T06:55:21Z</time>
      </trkpt>
      <trkpt lat="43.06522" lon="1.91857">
        <ele>387.8</ele>
        <time>2026-05-29T06:55:26Z</time>
      </trkpt>
      <trkpt lat="43.06517" lon="1.91865">
        <ele>387</ele>
        <time>2026-05-29T06:55:31Z</time>
      </trkpt>
      <trkpt lat="43.06513" lon="1.91871">
        <ele>386.4</ele>
        <time>2026-05-29T06:55:36Z</time>
      </trkpt>
      <trkpt lat="43.06511" lon="1.91877">
        <ele>386.3</ele>
        <time>2026-05-29T06:55:41Z</time>
      </trkpt>
      <trkpt lat="43.06509" lon="1.91883">
        <ele>386.1</ele>
        <time>2026-05-29T06:55:46Z</time>
      </trkpt>
      <trkpt lat="43.06506" lon="1.91889">
        <ele>385.8</ele>
        <time>2026-05-29T06:55:51Z</time>
      </trkpt>
      <trkpt lat="43.06504" lon="1.91896">
        <ele>385.7</ele>
        <time>2026-05-29T06:55:56Z</time>
      </trkpt>
      <trkpt lat="43.06502" lon="1.91904">
        <ele>385.7</ele>
        <time>2026-05-29T06:56:01Z</time>
      </trkpt>
      <trkpt lat="43.065" lon="1.91911">
        <ele>385.7</ele>
        <time>2026-05-29T06:56:06Z</time>
      </trkpt>
      <trkpt lat="43.06499" lon="1.91918">
        <ele>385.8</ele>
        <time>2026-05-29T06:56:11Z</time>
      </trkpt>
      <trkpt lat="43.06498" lon="1.91925">
        <ele>385.8</ele>
        <time>2026-05-29T06:56:16Z</time>
      </trkpt>
      <trkpt lat="43.06497" lon="1.91932">
        <ele>385.8</ele>
        <time>2026-05-29T06:56:21Z</time>
      </trkpt>
      <trkpt lat="43.06496" lon="1.91938">
        <ele>385.7</ele>
        <time>2026-05-29T06:56:26Z</time>
      </trkpt>
      <trkpt lat="43.06494" lon="1.91947">
        <ele>385.6</ele>
        <time>2026-05-29T06:56:31Z</time>
      </trkpt>
      <trkpt lat="43.06492" lon="1.91955">
        <ele>385.4</ele>
        <time>2026-05-29T06:56:36Z</time>
      </trkpt>
      <trkpt lat="43.0649" lon="1.91963">
        <ele>385.2</ele>
        <time>2026-05-29T06:56:41Z</time>
      </trkpt>
      <trkpt lat="43.0649" lon="1.91971">
        <ele>385.4</ele>
        <time>2026-05-29T06:56:46Z</time>
      </trkpt>
      <trkpt lat="43.0649" lon="1.91979">
        <ele>385.6</ele>
        <time>2026-05-29T06:56:51Z</time>
      </trkpt>
      <trkpt lat="43.06488" lon="1.91988">
        <ele>385.5</ele>
        <time>2026-05-29T06:56:56Z</time>
      </trkpt>
      <trkpt lat="43.06485" lon="1.91994">
        <ele>385.1</ele>
        <time>2026-05-29T06:57:01Z</time>
      </trkpt>
      <trkpt lat="43.06484" lon="1.92002">
        <ele>385.2</ele>
        <time>2026-05-29T06:57:06Z</time>
      </trkpt>
      <trkpt lat="43.06482" lon="1.9201">
        <ele>385</ele>
        <time>2026-05-29T06:57:11Z</time>
      </trkpt>
      <trkpt lat="43.06481" lon="1.92018">
        <ele>385</ele>
        <time>2026-05-29T06:57:16Z</time>
      </trkpt>
      <trkpt lat="43.06479" lon="1.92025">
        <ele>384.8</ele>
        <time>2026-05-29T06:57:21Z</time>
      </trkpt>
      <trkpt lat="43.06475" lon="1.9203">
        <ele>384.2</ele>
        <time>2026-05-29T06:57:26Z</time>
      </trkpt>
      <trkpt lat="43.06472" lon="1.92037">
        <ele>383.8</ele>
        <time>2026-05-29T06:57:31Z</time>
      </trkpt>
      <trkpt lat="43.06469" lon="1.92045">
        <ele>383.5</ele>
        <time>2026-05-29T06:57:36Z</time>
      </trkpt>
      <trkpt lat="43.06466" lon="1.92054">
        <ele>383.2</ele>
        <time>2026-05-29T06:57:41Z</time>
      </trkpt>
      <trkpt lat="43.06462" lon="1.92061">
        <ele>382.6</ele>
        <time>2026-05-29T06:57:46Z</time>
      </trkpt>
      <trkpt lat="43.0646" lon="1.92068">
        <ele>382.4</ele>
        <time>2026-05-29T06:57:51Z</time>
      </trkpt>
      <trkpt lat="43.06457" lon="1.92075">
        <ele>382.1</ele>
        <time>2026-05-29T06:57:56Z</time>
      </trkpt>
      <trkpt lat="43.06453" lon="1.92081">
        <ele>381.5</ele>
        <time>2026-05-29T06:58:01Z</time>
      </trkpt>
      <trkpt lat="43.06451" lon="1.92088">
        <ele>381.2</ele>
        <time>2026-05-29T06:58:06Z</time>
      </trkpt>
      <trkpt lat="43.0645" lon="1.92095">
        <ele>381.1</ele>
        <time>2026-05-29T06:58:11Z</time>
      </trkpt>
      <trkpt lat="43.06447" lon="1.92102">
        <ele>380.7</ele>
        <time>2026-05-29T06:58:16Z</time>
      </trkpt>
      <trkpt lat="43.06444" lon="1.92109">
        <ele>380.2</ele>
        <time>2026-05-29T06:58:21Z</time>
      </trkpt>
      <trkpt lat="43.06442" lon="1.92118">
        <ele>380</ele>
        <time>2026-05-29T06:58:26Z</time>
      </trkpt>
      <trkpt lat="43.06442" lon="1.92124">
        <ele>380</ele>
        <time>2026-05-29T06:58:31Z</time>
      </trkpt>
      <trkpt lat="43.06441" lon="1.92131">
        <ele>380</ele>
        <time>2026-05-29T06:58:36Z</time>
      </trkpt>
      <trkpt lat="43.0644" lon="1.92138">
        <ele>379.9</ele>
        <time>2026-05-29T06:58:41Z</time>
      </trkpt>
      <trkpt lat="43.06438" lon="1.92146">
        <ele>379.6</ele>
        <time>2026-05-29T06:58:46Z</time>
      </trkpt>
      <trkpt lat="43.06437" lon="1.92154">
        <ele>379.5</ele>
        <time>2026-05-29T06:58:51Z</time>
      </trkpt>
      <trkpt lat="43.06437" lon="1.92161">
        <ele>379.6</ele>
        <time>2026-05-29T06:58:56Z</time>
      </trkpt>
      <trkpt lat="43.06438" lon="1.92169">
        <ele>379.9</ele>
        <time>2026-05-29T06:59:01Z</time>
      </trkpt>
      <trkpt lat="43.06437" lon="1.92175">
        <ele>379.9</ele>
        <time>2026-05-29T06:59:06Z</time>
      </trkpt>
      <trkpt lat="43.06435" lon="1.92184">
        <ele>379.9</ele>
        <time>2026-05-29T06:59:11Z</time>
      </trkpt>
      <trkpt lat="43.06433" lon="1.92189">
        <ele>379.7</ele>
        <time>2026-05-29T06:59:16Z</time>
      </trkpt>
      <trkpt lat="43.06431" lon="1.92198">
        <ele>379.6</ele>
        <time>2026-05-29T06:59:21Z</time>
      </trkpt>
      <trkpt lat="43.06429" lon="1.92205">
        <ele>379.5</ele>
        <time>2026-05-29T06:59:26Z</time>
      </trkpt>
      <trkpt lat="43.06426" lon="1.92212">
        <ele>379.3</ele>
        <time>2026-05-29T06:59:31Z</time>
      </trkpt>
      <trkpt lat="43.06424" lon="1.92219">
        <ele>379.1</ele>
        <time>2026-05-29T06:59:36Z</time>
      </trkpt>
      <trkpt lat="43.06421" lon="1.92226">
        <ele>378.9</ele>
        <time>2026-05-29T06:59:41Z</time>
      </trkpt>
      <trkpt lat="43.06417" lon="1.92234">
        <ele>378.5</ele>
        <time>2026-05-29T06:59:46Z</time>
      </trkpt>
      <trkpt lat="43.06414" lon="1.92242">
        <ele>378.1</ele>
        <time>2026-05-29T06:59:51Z</time>
      </trkpt>
      <trkpt lat="43.06412" lon="1.92251">
        <ele>377.9</ele>
        <time>2026-05-29T06:59:56Z</time>
      </trkpt>
      <trkpt lat="43.06409" lon="1.92255">
        <ele>377.1</ele>
        <time>2026-05-29T07:00:01Z</time>
      </trkpt>
      <trkpt lat="43.06407" lon="1.92253">
        <ele>376.8</ele>
        <time>2026-05-29T07:00:06Z</time>
      </trkpt>
      <trkpt lat="43.06406" lon="1.92249">
        <ele>376.7</ele>
        <time>2026-05-29T07:00:11Z</time>
      </trkpt>
      <trkpt lat="43.06405" lon="1.92247">
        <ele>376.4</ele>
        <time>2026-05-29T07:00:16Z</time>
      </trkpt>
      <trkpt lat="43.06405" lon="1.92247">
        <ele>376.4</ele>
        <time>2026-05-29T07:00:21Z</time>
      </trkpt>
      <trkpt lat="43.06405" lon="1.92247">
        <ele>376.4</ele>
        <time>2026-05-29T07:00:26Z</time>
      </trkpt>
      <trkpt lat="43.06405" lon="1.92247">
        <ele>376.4</ele>
        <time>2026-05-29T07:00:31Z</time>
      </trkpt>
      <trkpt lat="43.06405" lon="1.92247">
        <ele>376.4</ele>
        <time>2026-05-29T07:00:36Z</time>
      </trkpt>
      <trkpt lat="43.06405" lon="1.92247">
        <ele>376.4</ele>
        <time>2026-05-29T07:00:41Z</time>
      </trkpt>
      <trkpt lat="43.06405" lon="1.92247">
        <ele>376.4</ele>
        <time>2026-05-29T07:00:46Z</time>
      </trkpt>
      <trkpt lat="43.06405" lon="1.92247">
        <ele>376.4</ele>
        <time>2026-05-29T07:00:51Z</time>
      </trkpt>
      <trkpt lat="43.06405" lon="1.92247">
        <ele>376.4</ele>
        <time>2026-05-29T07:00:56Z</time>
      </trkpt>
      <trkpt lat="43.06405" lon="1.92247">
        <ele>376.4</ele>
        <time>2026-05-29T07:01:01Z</time>
      </trkpt>
      <trkpt lat="43.06405" lon="1.92247">
        <ele>376.4</ele>
        <time>2026-05-29T07:01:06Z</time>
      </trkpt>
      <trkpt lat="43.06408" lon="1.92253">
        <ele>377</ele>
        <time>2026-05-29T07:01:11Z</time>
      </trkpt>
      <trkpt lat="43.06409" lon="1.92261">
        <ele>376.9</ele>
        <time>2026-05-29T07:01:16Z</time>
      </trkpt>
      <trkpt lat="43.06405" lon="1.92268">
        <ele>375.7</ele>
        <time>2026-05-29T07:01:21Z</time>
      </trkpt>
      <trkpt lat="43.06404" lon="1.92275">
        <ele>375.2</ele>
        <time>2026-05-29T07:01:26Z</time>
      </trkpt>
      <trkpt lat="43.06405" lon="1.92282">
        <ele>375.2</ele>
        <time>2026-05-29T07:01:31Z</time>
      </trkpt>
      <trkpt lat="43.06406" lon="1.9229">
        <ele>375</ele>
        <time>2026-05-29T07:01:36Z</time>
      </trkpt>
      <trkpt lat="43.06408" lon="1.92297">
        <ele>375.1</ele>
        <time>2026-05-29T07:01:41Z</time>
      </trkpt>
      <trkpt lat="43.0641" lon="1.92304">
        <ele>375.2</ele>
        <time>2026-05-29T07:01:46Z</time>
      </trkpt>
      <trkpt lat="43.06411" lon="1.92311">
        <ele>375</ele>
        <time>2026-05-29T07:01:51Z</time>
      </trkpt>
      <trkpt lat="43.06412" lon="1.92317">
        <ele>375</ele>
        <time>2026-05-29T07:01:56Z</time>
      </trkpt>
      <trkpt lat="43.06414" lon="1.92324">
        <ele>375</ele>
        <time>2026-05-29T07:02:01Z</time>
      </trkpt>
      <trkpt lat="43.06414" lon="1.9233">
        <ele>374.7</ele>
        <time>2026-05-29T07:02:06Z</time>
      </trkpt>
      <trkpt lat="43.06415" lon="1.92337">
        <ele>374.4</ele>
        <time>2026-05-29T07:02:11Z</time>
      </trkpt>
      <trkpt lat="43.06416" lon="1.92343">
        <ele>374</ele>
        <time>2026-05-29T07:02:16Z</time>
      </trkpt>
      <trkpt lat="43.06418" lon="1.9235">
        <ele>373.6</ele>
        <time>2026-05-29T07:02:21Z</time>
      </trkpt>
      <trkpt lat="43.0642" lon="1.92357">
        <ele>373.1</ele>
        <time>2026-05-29T07:02:26Z</time>
      </trkpt>
      <trkpt lat="43.0642" lon="1.92361">
        <ele>372.7</ele>
        <time>2026-05-29T07:02:31Z</time>
      </trkpt>
      <trkpt lat="43.0642" lon="1.92361">
        <ele>372.7</ele>
        <time>2026-05-29T07:02:36Z</time>
      </trkpt>
      <trkpt lat="43.0642" lon="1.92367">
        <ele>372.2</ele>
        <time>2026-05-29T07:02:41Z</time>
      </trkpt>
      <trkpt lat="43.06421" lon="1.92368">
        <ele>372.2</ele>
        <time>2026-05-29T07:02:46Z</time>
      </trkpt>
      <trkpt lat="43.06421" lon="1.92368">
        <ele>372.2</ele>
        <time>2026-05-29T07:02:51Z</time>
      </trkpt>
      <trkpt lat="43.06421" lon="1.92368">
        <ele>372.2</ele>
        <time>2026-05-29T07:02:56Z</time>
      </trkpt>
      <trkpt lat="43.06421" lon="1.92368">
        <ele>372.2</ele>
        <time>2026-05-29T07:03:01Z</time>
      </trkpt>
      <trkpt lat="43.06421" lon="1.92368">
        <ele>372.2</ele>
        <time>2026-05-29T07:03:06Z</time>
      </trkpt>
      <trkpt lat="43.06421" lon="1.92368">
        <ele>372.2</ele>
        <time>2026-05-29T07:03:11Z</time>
      </trkpt>
      <trkpt lat="43.06421" lon="1.92368">
        <ele>372.2</ele>
        <time>2026-05-29T07:03:16Z</time>
      </trkpt>
      <trkpt lat="43.06421" lon="1.92368">
        <ele>372.2</ele>
        <time>2026-05-29T07:03:21Z</time>
      </trkpt>
      <trkpt lat="43.06423" lon="1.92372">
        <ele>372</ele>
        <time>2026-05-29T07:03:26Z</time>
      </trkpt>
      <trkpt lat="43.06425" lon="1.92378">
        <ele>371.7</ele>
        <time>2026-05-29T07:03:31Z</time>
      </trkpt>
      <trkpt lat="43.06425" lon="1.92382">
        <ele>371.3</ele>
        <time>2026-05-29T07:03:36Z</time>
      </trkpt>
      <trkpt lat="43.06426" lon="1.92382">
        <ele>371.4</ele>
        <time>2026-05-29T07:03:41Z</time>
      </trkpt>
      <trkpt lat="43.06426" lon="1.92382">
        <ele>371.4</ele>
        <time>2026-05-29T07:03:46Z</time>
      </trkpt>
      <trkpt lat="43.06426" lon="1.92382">
        <ele>371.4</ele>
        <time>2026-05-29T07:03:51Z</time>
      </trkpt>
      <trkpt lat="43.06426" lon="1.92382">
        <ele>371.4</ele>
        <time>2026-05-29T07:03:56Z</time>
      </trkpt>
      <trkpt lat="43.06426" lon="1.92382">
        <ele>371.4</ele>
        <time>2026-05-29T07:04:01Z</time>
      </trkpt>
      <trkpt lat="43.06426" lon="1.92382">
        <ele>371.4</ele>
        <time>2026-05-29T07:04:06Z</time>
      </trkpt>
      <trkpt lat="43.06426" lon="1.92382">
        <ele>371.4</ele>
        <time>2026-05-29T07:04:11Z</time>
      </trkpt>
      <trkpt lat="43.06426" lon="1.92382">
        <ele>371.4</ele>
        <time>2026-05-29T07:04:16Z</time>
      </trkpt>
      <trkpt lat="43.06426" lon="1.92382">
        <ele>371.4</ele>
        <time>2026-05-29T07:04:21Z</time>
      </trkpt>
      <trkpt lat="43.06426" lon="1.92382">
        <ele>371.4</ele>
        <time>2026-05-29T07:04:26Z</time>
      </trkpt>
      <trkpt lat="43.06426" lon="1.92382">
        <ele>371.4</ele>
        <time>2026-05-29T07:04:31Z</time>
      </trkpt>
      <trkpt lat="43.06426" lon="1.92382">
        <ele>371.4</ele>
        <time>2026-05-29T07:04:36Z</time>
      </trkpt>
      <trkpt lat="43.06426" lon="1.92382">
        <ele>371.4</ele>
        <time>2026-05-29T07:04:41Z</time>
      </trkpt>
      <trkpt lat="43.06426" lon="1.92382">
        <ele>371.4</ele>
        <time>2026-05-29T07:04:46Z</time>
      </trkpt>
      <trkpt lat="43.06426" lon="1.92382">
        <ele>371.4</ele>
        <time>2026-05-29T07:04:51Z</time>
      </trkpt>
      <trkpt lat="43.06426" lon="1.92382">
        <ele>371.4</ele>
        <time>2026-05-29T07:04:56Z</time>
      </trkpt>
      <trkpt lat="43.06426" lon="1.92382">
        <ele>371.4</ele>
        <time>2026-05-29T07:05:01Z</time>
      </trkpt>
      <trkpt lat="43.06426" lon="1.92382">
        <ele>371.4</ele>
        <time>2026-05-29T07:05:06Z</time>
      </trkpt>
      <trkpt lat="43.06426" lon="1.92382">
        <ele>371.4</ele>
        <time>2026-05-29T07:05:11Z</time>
      </trkpt>
      <trkpt lat="43.06426" lon="1.92382">
        <ele>371.4</ele>
        <time>2026-05-29T07:05:16Z</time>
      </trkpt>
      <trkpt lat="43.06426" lon="1.92382">
        <ele>371.4</ele>
        <time>2026-05-29T07:05:21Z</time>
      </trkpt>
      <trkpt lat="43.06426" lon="1.92382">
        <ele>371.4</ele>
        <time>2026-05-29T07:05:26Z</time>
      </trkpt>
      <trkpt lat="43.06426" lon="1.92382">
        <ele>371.4</ele>
        <time>2026-05-29T07:05:31Z</time>
      </trkpt>
      <trkpt lat="43.06426" lon="1.92382">
        <ele>371.4</ele>
        <time>2026-05-29T07:05:36Z</time>
      </trkpt>
      <trkpt lat="43.06426" lon="1.92382">
        <ele>371.4</ele>
        <time>2026-05-29T07:05:41Z</time>
      </trkpt>
      <trkpt lat="43.06426" lon="1.92382">
        <ele>371.4</ele>
        <time>2026-05-29T07:05:46Z</time>
      </trkpt>
      <trkpt lat="43.06426" lon="1.92382">
        <ele>371.4</ele>
        <time>2026-05-29T07:05:51Z</time>
      </trkpt>
      <trkpt lat="43.06426" lon="1.92382">
        <ele>371.4</ele>
        <time>2026-05-29T07:05:56Z</time>
      </trkpt>
      <trkpt lat="43.06426" lon="1.92382">
        <ele>371.4</ele>
        <time>2026-05-29T07:06:01Z</time>
      </trkpt>
      <trkpt lat="43.06426" lon="1.92382">
        <ele>371.4</ele>
        <time>2026-05-29T07:06:06Z</time>
      </trkpt>
      <trkpt lat="43.06426" lon="1.92382">
        <ele>371.4</ele>
        <time>2026-05-29T07:06:11Z</time>
      </trkpt>
      <trkpt lat="43.06426" lon="1.92382">
        <ele>371.4</ele>
        <time>2026-05-29T07:06:16Z</time>
      </trkpt>
      <trkpt lat="43.06426" lon="1.92382">
        <ele>371.4</ele>
        <time>2026-05-29T07:06:21Z</time>
      </trkpt>
      <trkpt lat="43.06426" lon="1.92382">
        <ele>371.4</ele>
        <time>2026-05-29T07:06:26Z</time>
      </trkpt>
      <trkpt lat="43.06426" lon="1.92382">
        <ele>371.4</ele>
        <time>2026-05-29T07:06:31Z</time>
      </trkpt>
      <trkpt lat="43.06426" lon="1.92382">
        <ele>371.4</ele>
        <time>2026-05-29T07:06:36Z</time>
      </trkpt>
      <trkpt lat="43.06426" lon="1.92382">
        <ele>371.4</ele>
        <time>2026-05-29T07:06:41Z</time>
      </trkpt>
      <trkpt lat="43.06426" lon="1.92382">
        <ele>371.4</ele>
        <time>2026-05-29T07:06:46Z</time>
      </trkpt>
      <trkpt lat="43.06426" lon="1.92382">
        <ele>371.4</ele>
        <time>2026-05-29T07:06:51Z</time>
      </trkpt>
      <trkpt lat="43.06426" lon="1.92382">
        <ele>371.4</ele>
        <time>2026-05-29T07:06:56Z</time>
      </trkpt>
      <trkpt lat="43.06426" lon="1.92382">
        <ele>371.4</ele>
        <time>2026-05-29T07:07:01Z</time>
      </trkpt>
      <trkpt lat="43.06426" lon="1.92382">
        <ele>371.4</ele>
        <time>2026-05-29T07:07:06Z</time>
      </trkpt>
      <trkpt lat="43.06426" lon="1.92382">
        <ele>371.4</ele>
        <time>2026-05-29T07:07:11Z</time>
      </trkpt>
      <trkpt lat="43.06426" lon="1.92382">
        <ele>371.4</ele>
        <time>2026-05-29T07:07:16Z</time>
      </trkpt>
      <trkpt lat="43.06426" lon="1.92382">
        <ele>371.4</ele>
        <time>2026-05-29T07:07:21Z</time>
      </trkpt>
      <trkpt lat="43.06426" lon="1.92382">
        <ele>371.4</ele>
        <time>2026-05-29T07:07:26Z</time>
      </trkpt>
      <trkpt lat="43.06426" lon="1.92382">
        <ele>371.4</ele>
        <time>2026-05-29T07:07:31Z</time>
      </trkpt>
      <trkpt lat="43.06428" lon="1.9239">
        <ele>370.8</ele>
        <time>2026-05-29T07:07:36Z</time>
      </trkpt>
      <trkpt lat="43.06429" lon="1.92396">
        <ele>370.4</ele>
        <time>2026-05-29T07:07:41Z</time>
      </trkpt>
      <trkpt lat="43.06429" lon="1.92402">
        <ele>369.8</ele>
        <time>2026-05-29T07:07:46Z</time>
      </trkpt>
      <trkpt lat="43.0643" lon="1.92407">
        <ele>369.4</ele>
        <time>2026-05-29T07:07:51Z</time>
      </trkpt>
      <trkpt lat="43.06431" lon="1.92412">
        <ele>369</ele>
        <time>2026-05-29T07:07:56Z</time>
      </trkpt>
      <trkpt lat="43.06432" lon="1.92419">
        <ele>368.6</ele>
        <time>2026-05-29T07:08:01Z</time>
      </trkpt>
      <trkpt lat="43.06434" lon="1.92424">
        <ele>368.6</ele>
        <time>2026-05-29T07:08:06Z</time>
      </trkpt>
      <trkpt lat="43.06436" lon="1.92432">
        <ele>368.4</ele>
        <time>2026-05-29T07:08:11Z</time>
      </trkpt>
      <trkpt lat="43.06438" lon="1.92439">
        <ele>368.3</ele>
        <time>2026-05-29T07:08:16Z</time>
      </trkpt>
      <trkpt lat="43.06439" lon="1.92447">
        <ele>368</ele>
        <time>2026-05-29T07:08:21Z</time>
      </trkpt>
      <trkpt lat="43.06439" lon="1.92453">
        <ele>367.8</ele>
        <time>2026-05-29T07:08:26Z</time>
      </trkpt>
      <trkpt lat="43.06438" lon="1.92463">
        <ele>367.2</ele>
        <time>2026-05-29T07:08:31Z</time>
      </trkpt>
      <trkpt lat="43.06436" lon="1.9247">
        <ele>366.7</ele>
        <time>2026-05-29T07:08:36Z</time>
      </trkpt>
      <trkpt lat="43.06433" lon="1.92475">
        <ele>366.3</ele>
        <time>2026-05-29T07:08:41Z</time>
      </trkpt>
      <trkpt lat="43.06429" lon="1.92481">
        <ele>365.7</ele>
        <time>2026-05-29T07:08:46Z</time>
      </trkpt>
      <trkpt lat="43.06425" lon="1.92488">
        <ele>365.1</ele>
        <time>2026-05-29T07:08:51Z</time>
      </trkpt>
      <trkpt lat="43.06422" lon="1.92494">
        <ele>364.6</ele>
        <time>2026-05-29T07:08:56Z</time>
      </trkpt>
      <trkpt lat="43.06418" lon="1.92498">
        <ele>364.2</ele>
        <time>2026-05-29T07:09:01Z</time>
      </trkpt>
      <trkpt lat="43.06414" lon="1.92504">
        <ele>363.9</ele>
        <time>2026-05-29T07:09:06Z</time>
      </trkpt>
      <trkpt lat="43.0641" lon="1.92508">
        <ele>363.7</ele>
        <time>2026-05-29T07:09:11Z</time>
      </trkpt>
      <trkpt lat="43.06406" lon="1.92515">
        <ele>363.6</ele>
        <time>2026-05-29T07:09:16Z</time>
      </trkpt>
      <trkpt lat="43.06402" lon="1.92521">
        <ele>363.5</ele>
        <time>2026-05-29T07:09:21Z</time>
      </trkpt>
      <trkpt lat="43.06399" lon="1.92527">
        <ele>363.5</ele>
        <time>2026-05-29T07:09:26Z</time>
      </trkpt>
      <trkpt lat="43.06395" lon="1.92532">
        <ele>363.5</ele>
        <time>2026-05-29T07:09:31Z</time>
      </trkpt>
      <trkpt lat="43.06392" lon="1.92534">
        <ele>363.4</ele>
        <time>2026-05-29T07:09:36Z</time>
      </trkpt>
      <trkpt lat="43.0639" lon="1.92538">
        <ele>363.4</ele>
        <time>2026-05-29T07:09:41Z</time>
      </trkpt>
      <trkpt lat="43.0639" lon="1.92541">
        <ele>363.5</ele>
        <time>2026-05-29T07:09:46Z</time>
      </trkpt>
      <trkpt lat="43.06386" lon="1.92541">
        <ele>363.4</ele>
        <time>2026-05-29T07:09:51Z</time>
      </trkpt>
      <trkpt lat="43.06382" lon="1.92543">
        <ele>363.3</ele>
        <time>2026-05-29T07:09:56Z</time>
      </trkpt>
      <trkpt lat="43.06379" lon="1.92549">
        <ele>363.4</ele>
        <time>2026-05-29T07:10:01Z</time>
      </trkpt>
      <trkpt lat="43.06376" lon="1.92555">
        <ele>363.5</ele>
        <time>2026-05-29T07:10:06Z</time>
      </trkpt>
      <trkpt lat="43.06373" lon="1.92562">
        <ele>363.7</ele>
        <time>2026-05-29T07:10:11Z</time>
      </trkpt>
      <trkpt lat="43.06371" lon="1.92568">
        <ele>363.9</ele>
        <time>2026-05-29T07:10:16Z</time>
      </trkpt>
      <trkpt lat="43.06369" lon="1.92575">
        <ele>364.1</ele>
        <time>2026-05-29T07:10:21Z</time>
      </trkpt>
      <trkpt lat="43.06367" lon="1.92581">
        <ele>364.3</ele>
        <time>2026-05-29T07:10:26Z</time>
      </trkpt>
      <trkpt lat="43.06365" lon="1.92589">
        <ele>364.2</ele>
        <time>2026-05-29T07:10:31Z</time>
      </trkpt>
      <trkpt lat="43.06363" lon="1.92595">
        <ele>364.1</ele>
        <time>2026-05-29T07:10:36Z</time>
      </trkpt>
      <trkpt lat="43.0636" lon="1.92602">
        <ele>363.9</ele>
        <time>2026-05-29T07:10:41Z</time>
      </trkpt>
      <trkpt lat="43.06359" lon="1.92609">
        <ele>363.7</ele>
        <time>2026-05-29T07:10:46Z</time>
      </trkpt>
      <trkpt lat="43.06356" lon="1.92617">
        <ele>363.5</ele>
        <time>2026-05-29T07:10:51Z</time>
      </trkpt>
      <trkpt lat="43.06354" lon="1.92625">
        <ele>363.4</ele>
        <time>2026-05-29T07:10:56Z</time>
      </trkpt>
      <trkpt lat="43.06353" lon="1.92632">
        <ele>363.2</ele>
        <time>2026-05-29T07:11:01Z</time>
      </trkpt>
      <trkpt lat="43.0635" lon="1.9264">
        <ele>363.1</ele>
        <time>2026-05-29T07:11:06Z</time>
      </trkpt>
      <trkpt lat="43.06347" lon="1.92647">
        <ele>363</ele>
        <time>2026-05-29T07:11:11Z</time>
      </trkpt>
      <trkpt lat="43.06345" lon="1.92655">
        <ele>362.9</ele>
        <time>2026-05-29T07:11:16Z</time>
      </trkpt>
      <trkpt lat="43.06343" lon="1.92662">
        <ele>362.8</ele>
        <time>2026-05-29T07:11:21Z</time>
      </trkpt>
      <trkpt lat="43.06341" lon="1.9267">
        <ele>362.7</ele>
        <time>2026-05-29T07:11:26Z</time>
      </trkpt>
      <trkpt lat="43.06339" lon="1.92678">
        <ele>362.6</ele>
        <time>2026-05-29T07:11:31Z</time>
      </trkpt>
      <trkpt lat="43.06337" lon="1.92685">
        <ele>362.4</ele>
        <time>2026-05-29T07:11:36Z</time>
      </trkpt>
      <trkpt lat="43.06336" lon="1.92692">
        <ele>362.3</ele>
        <time>2026-05-29T07:11:41Z</time>
      </trkpt>
      <trkpt lat="43.06333" lon="1.92699">
        <ele>362.2</ele>
        <time>2026-05-29T07:11:46Z</time>
      </trkpt>
      <trkpt lat="43.06331" lon="1.92706">
        <ele>361.9</ele>
        <time>2026-05-29T07:11:51Z</time>
      </trkpt>
      <trkpt lat="43.06329" lon="1.92714">
        <ele>361.5</ele>
        <time>2026-05-29T07:11:56Z</time>
      </trkpt>
      <trkpt lat="43.06326" lon="1.92721">
        <ele>361.1</ele>
        <time>2026-05-29T07:12:01Z</time>
      </trkpt>
      <trkpt lat="43.06322" lon="1.92727">
        <ele>360.7</ele>
        <time>2026-05-29T07:12:06Z</time>
      </trkpt>
      <trkpt lat="43.0632" lon="1.92732">
        <ele>360.5</ele>
        <time>2026-05-29T07:12:11Z</time>
      </trkpt>
      <trkpt lat="43.06319" lon="1.92738">
        <ele>360.3</ele>
        <time>2026-05-29T07:12:16Z</time>
      </trkpt>
      <trkpt lat="43.06317" lon="1.92746">
        <ele>360.1</ele>
        <time>2026-05-29T07:12:21Z</time>
      </trkpt>
      <trkpt lat="43.06314" lon="1.92753">
        <ele>359.8</ele>
        <time>2026-05-29T07:12:26Z</time>
      </trkpt>
      <trkpt lat="43.06312" lon="1.92762">
        <ele>359.7</ele>
        <time>2026-05-29T07:12:31Z</time>
      </trkpt>
      <trkpt lat="43.0631" lon="1.92769">
        <ele>359.6</ele>
        <time>2026-05-29T07:12:36Z</time>
      </trkpt>
      <trkpt lat="43.06308" lon="1.92776">
        <ele>359.5</ele>
        <time>2026-05-29T07:12:41Z</time>
      </trkpt>
      <trkpt lat="43.06305" lon="1.92783">
        <ele>359.3</ele>
        <time>2026-05-29T07:12:46Z</time>
      </trkpt>
      <trkpt lat="43.06301" lon="1.92793">
        <ele>359.1</ele>
        <time>2026-05-29T07:12:51Z</time>
      </trkpt>
      <trkpt lat="43.06299" lon="1.92799">
        <ele>358.9</ele>
        <time>2026-05-29T07:12:56Z</time>
      </trkpt>
      <trkpt lat="43.06298" lon="1.92807">
        <ele>358.9</ele>
        <time>2026-05-29T07:13:01Z</time>
      </trkpt>
      <trkpt lat="43.06295" lon="1.92816">
        <ele>358.7</ele>
        <time>2026-05-29T07:13:06Z</time>
      </trkpt>
      <trkpt lat="43.06293" lon="1.92824">
        <ele>358.6</ele>
        <time>2026-05-29T07:13:11Z</time>
      </trkpt>
      <trkpt lat="43.06292" lon="1.92832">
        <ele>358.5</ele>
        <time>2026-05-29T07:13:16Z</time>
      </trkpt>
      <trkpt lat="43.06291" lon="1.92839">
        <ele>358.1</ele>
        <time>2026-05-29T07:13:21Z</time>
      </trkpt>
      <trkpt lat="43.06288" lon="1.92847">
        <ele>357.5</ele>
        <time>2026-05-29T07:13:26Z</time>
      </trkpt>
      <trkpt lat="43.06286" lon="1.92856">
        <ele>356.8</ele>
        <time>2026-05-29T07:13:31Z</time>
      </trkpt>
      <trkpt lat="43.06283" lon="1.92865">
        <ele>356.2</ele>
        <time>2026-05-29T07:13:36Z</time>
      </trkpt>
      <trkpt lat="43.06281" lon="1.92872">
        <ele>355.7</ele>
        <time>2026-05-29T07:13:41Z</time>
      </trkpt>
      <trkpt lat="43.06279" lon="1.92882">
        <ele>355</ele>
        <time>2026-05-29T07:13:46Z</time>
      </trkpt>
      <trkpt lat="43.06277" lon="1.9289">
        <ele>354.5</ele>
        <time>2026-05-29T07:13:51Z</time>
      </trkpt>
      <trkpt lat="43.06274" lon="1.92898">
        <ele>353.9</ele>
        <time>2026-05-29T07:13:56Z</time>
      </trkpt>
      <trkpt lat="43.06272" lon="1.92904">
        <ele>353.5</ele>
        <time>2026-05-29T07:14:01Z</time>
      </trkpt>
      <trkpt lat="43.06269" lon="1.92912">
        <ele>352.9</ele>
        <time>2026-05-29T07:14:06Z</time>
      </trkpt>
      <trkpt lat="43.06267" lon="1.92922">
        <ele>352.3</ele>
        <time>2026-05-29T07:14:11Z</time>
      </trkpt>
      <trkpt lat="43.06265" lon="1.9293">
        <ele>351.8</ele>
        <time>2026-05-29T07:14:16Z</time>
      </trkpt>
      <trkpt lat="43.06262" lon="1.92939">
        <ele>351.1</ele>
        <time>2026-05-29T07:14:21Z</time>
      </trkpt>
      <trkpt lat="43.06261" lon="1.92946">
        <ele>350.7</ele>
        <time>2026-05-29T07:14:26Z</time>
      </trkpt>
      <trkpt lat="43.06259" lon="1.92956">
        <ele>350</ele>
        <time>2026-05-29T07:14:31Z</time>
      </trkpt>
      <trkpt lat="43.06255" lon="1.92965">
        <ele>349.3</ele>
        <time>2026-05-29T07:14:36Z</time>
      </trkpt>
      <trkpt lat="43.06253" lon="1.92975">
        <ele>348.6</ele>
        <time>2026-05-29T07:14:41Z</time>
      </trkpt>
      <trkpt lat="43.0625" lon="1.92984">
        <ele>348</ele>
        <time>2026-05-29T07:14:46Z</time>
      </trkpt>
      <trkpt lat="43.06249" lon="1.92991">
        <ele>347.5</ele>
        <time>2026-05-29T07:14:51Z</time>
      </trkpt>
      <trkpt lat="43.06248" lon="1.92998">
        <ele>347</ele>
        <time>2026-05-29T07:14:56Z</time>
      </trkpt>
      <trkpt lat="43.06247" lon="1.93006">
        <ele>346</ele>
        <time>2026-05-29T07:15:01Z</time>
      </trkpt>
      <trkpt lat="43.06246" lon="1.93013">
        <ele>345</ele>
        <time>2026-05-29T07:15:06Z</time>
      </trkpt>
      <trkpt lat="43.06244" lon="1.9302">
        <ele>343.9</ele>
        <time>2026-05-29T07:15:11Z</time>
      </trkpt>
      <trkpt lat="43.06242" lon="1.93027">
        <ele>342.9</ele>
        <time>2026-05-29T07:15:16Z</time>
      </trkpt>
      <trkpt lat="43.0624" lon="1.93035">
        <ele>341.7</ele>
        <time>2026-05-29T07:15:21Z</time>
      </trkpt>
      <trkpt lat="43.0624" lon="1.93042">
        <ele>340.8</ele>
        <time>2026-05-29T07:15:26Z</time>
      </trkpt>
      <trkpt lat="43.06239" lon="1.9305">
        <ele>339.7</ele>
        <time>2026-05-29T07:15:31Z</time>
      </trkpt>
      <trkpt lat="43.06237" lon="1.93059">
        <ele>338.4</ele>
        <time>2026-05-29T07:15:36Z</time>
      </trkpt>
      <trkpt lat="43.06236" lon="1.93067">
        <ele>337.3</ele>
        <time>2026-05-29T07:15:41Z</time>
      </trkpt>
      <trkpt lat="43.06235" lon="1.93075">
        <ele>336.2</ele>
        <time>2026-05-29T07:15:46Z</time>
      </trkpt>
      <trkpt lat="43.06234" lon="1.93083">
        <ele>335.1</ele>
        <time>2026-05-29T07:15:51Z</time>
      </trkpt>
      <trkpt lat="43.06233" lon="1.93089">
        <ele>334.4</ele>
        <time>2026-05-29T07:15:56Z</time>
      </trkpt>
      <trkpt lat="43.06231" lon="1.93095">
        <ele>333.8</ele>
        <time>2026-05-29T07:16:01Z</time>
      </trkpt>
      <trkpt lat="43.06229" lon="1.93104">
        <ele>332.8</ele>
        <time>2026-05-29T07:16:06Z</time>
      </trkpt>
      <trkpt lat="43.06228" lon="1.9311">
        <ele>332.2</ele>
        <time>2026-05-29T07:16:11Z</time>
      </trkpt>
      <trkpt lat="43.06226" lon="1.93117">
        <ele>331.5</ele>
        <time>2026-05-29T07:16:16Z</time>
      </trkpt>
      <trkpt lat="43.06225" lon="1.93124">
        <ele>330.8</ele>
        <time>2026-05-29T07:16:21Z</time>
      </trkpt>
      <trkpt lat="43.06222" lon="1.93131">
        <ele>330.1</ele>
        <time>2026-05-29T07:16:26Z</time>
      </trkpt>
      <trkpt lat="43.06219" lon="1.93138">
        <ele>329.5</ele>
        <time>2026-05-29T07:16:31Z</time>
      </trkpt>
      <trkpt lat="43.06218" lon="1.9314">
        <ele>329.3</ele>
        <time>2026-05-29T07:16:36Z</time>
      </trkpt>
      <trkpt lat="43.06218" lon="1.9314">
        <ele>329.3</ele>
        <time>2026-05-29T07:16:41Z</time>
      </trkpt>
      <trkpt lat="43.06218" lon="1.93143">
        <ele>329</ele>
        <time>2026-05-29T07:16:46Z</time>
      </trkpt>
      <trkpt lat="43.06216" lon="1.93148">
        <ele>328.6</ele>
        <time>2026-05-29T07:16:51Z</time>
      </trkpt>
      <trkpt lat="43.06212" lon="1.93156">
        <ele>327.9</ele>
        <time>2026-05-29T07:16:56Z</time>
      </trkpt>
      <trkpt lat="43.0621" lon="1.93163">
        <ele>327.3</ele>
        <time>2026-05-29T07:17:01Z</time>
      </trkpt>
      <trkpt lat="43.06207" lon="1.93168">
        <ele>327</ele>
        <time>2026-05-29T07:17:06Z</time>
      </trkpt>
      <trkpt lat="43.06206" lon="1.9317">
        <ele>326.9</ele>
        <time>2026-05-29T07:17:11Z</time>
      </trkpt>
      <trkpt lat="43.06205" lon="1.93171">
        <ele>326.9</ele>
        <time>2026-05-29T07:17:16Z</time>
      </trkpt>
      <trkpt lat="43.06205" lon="1.93171">
        <ele>326.9</ele>
        <time>2026-05-29T07:17:21Z</time>
      </trkpt>
      <trkpt lat="43.06205" lon="1.93171">
        <ele>326.9</ele>
        <time>2026-05-29T07:17:26Z</time>
      </trkpt>
      <trkpt lat="43.06205" lon="1.93171">
        <ele>326.9</ele>
        <time>2026-05-29T07:17:31Z</time>
      </trkpt>
      <trkpt lat="43.06205" lon="1.93171">
        <ele>326.9</ele>
        <time>2026-05-29T07:17:36Z</time>
      </trkpt>
      <trkpt lat="43.06205" lon="1.93171">
        <ele>326.9</ele>
        <time>2026-05-29T07:17:41Z</time>
      </trkpt>
      <trkpt lat="43.06205" lon="1.93171">
        <ele>326.9</ele>
        <time>2026-05-29T07:17:46Z</time>
      </trkpt>
      <trkpt lat="43.06205" lon="1.93171">
        <ele>326.9</ele>
        <time>2026-05-29T07:17:51Z</time>
      </trkpt>
      <trkpt lat="43.06205" lon="1.93171">
        <ele>326.9</ele>
        <time>2026-05-29T07:17:56Z</time>
      </trkpt>
      <trkpt lat="43.06205" lon="1.93171">
        <ele>326.9</ele>
        <time>2026-05-29T07:18:01Z</time>
      </trkpt>
      <trkpt lat="43.06205" lon="1.93171">
        <ele>326.9</ele>
        <time>2026-05-29T07:18:06Z</time>
      </trkpt>
      <trkpt lat="43.06205" lon="1.93171">
        <ele>326.9</ele>
        <time>2026-05-29T07:18:11Z</time>
      </trkpt>
      <trkpt lat="43.06205" lon="1.93171">
        <ele>326.9</ele>
        <time>2026-05-29T07:18:16Z</time>
      </trkpt>
      <trkpt lat="43.06205" lon="1.93171">
        <ele>326.9</ele>
        <time>2026-05-29T07:18:21Z</time>
      </trkpt>
      <trkpt lat="43.06205" lon="1.93171">
        <ele>326.9</ele>
        <time>2026-05-29T07:18:26Z</time>
      </trkpt>
      <trkpt lat="43.06205" lon="1.93171">
        <ele>326.9</ele>
        <time>2026-05-29T07:18:31Z</time>
      </trkpt>
      <trkpt lat="43.06205" lon="1.93171">
        <ele>326.9</ele>
        <time>2026-05-29T07:18:36Z</time>
      </trkpt>
      <trkpt lat="43.06205" lon="1.93171">
        <ele>326.9</ele>
        <time>2026-05-29T07:18:41Z</time>
      </trkpt>
      <trkpt lat="43.06205" lon="1.93171">
        <ele>326.9</ele>
        <time>2026-05-29T07:18:46Z</time>
      </trkpt>
      <trkpt lat="43.06205" lon="1.93171">
        <ele>326.9</ele>
        <time>2026-05-29T07:18:51Z</time>
      </trkpt>
      <trkpt lat="43.06205" lon="1.93171">
        <ele>326.9</ele>
        <time>2026-05-29T07:18:56Z</time>
      </trkpt>
      <trkpt lat="43.06205" lon="1.93171">
        <ele>326.9</ele>
        <time>2026-05-29T07:19:01Z</time>
      </trkpt>
      <trkpt lat="43.06205" lon="1.93171">
        <ele>326.9</ele>
        <time>2026-05-29T07:19:06Z</time>
      </trkpt>
      <trkpt lat="43.062" lon="1.93187">
        <ele>326.6</ele>
        <time>2026-05-29T07:19:11Z</time>
      </trkpt>
      <trkpt lat="43.062" lon="1.93187">
        <ele>326.6</ele>
        <time>2026-05-29T07:19:16Z</time>
      </trkpt>
      <trkpt lat="43.062" lon="1.93187">
        <ele>326.6</ele>
        <time>2026-05-29T07:19:21Z</time>
      </trkpt>
      <trkpt lat="43.062" lon="1.93187">
        <ele>326.6</ele>
        <time>2026-05-29T07:19:26Z</time>
      </trkpt>
      <trkpt lat="43.062" lon="1.93187">
        <ele>326.6</ele>
        <time>2026-05-29T07:19:31Z</time>
      </trkpt>
      <trkpt lat="43.062" lon="1.93187">
        <ele>326.6</ele>
        <time>2026-05-29T07:19:36Z</time>
      </trkpt>
      <trkpt lat="43.062" lon="1.93187">
        <ele>326.6</ele>
        <time>2026-05-29T07:19:41Z</time>
      </trkpt>
      <trkpt lat="43.062" lon="1.93187">
        <ele>326.6</ele>
        <time>2026-05-29T07:19:46Z</time>
      </trkpt>
      <trkpt lat="43.062" lon="1.93187">
        <ele>326.6</ele>
        <time>2026-05-29T07:19:51Z</time>
      </trkpt>
      <trkpt lat="43.062" lon="1.93187">
        <ele>326.6</ele>
        <time>2026-05-29T07:19:56Z</time>
      </trkpt>
      <trkpt lat="43.062" lon="1.93187">
        <ele>326.6</ele>
        <time>2026-05-29T07:20:01Z</time>
      </trkpt>
      <trkpt lat="43.062" lon="1.93187">
        <ele>326.6</ele>
        <time>2026-05-29T07:20:06Z</time>
      </trkpt>
      <trkpt lat="43.062" lon="1.93187">
        <ele>326.6</ele>
        <time>2026-05-29T07:20:11Z</time>
      </trkpt>
      <trkpt lat="43.062" lon="1.93187">
        <ele>326.6</ele>
        <time>2026-05-29T07:20:16Z</time>
      </trkpt>
      <trkpt lat="43.062" lon="1.93187">
        <ele>326.6</ele>
        <time>2026-05-29T07:20:21Z</time>
      </trkpt>
      <trkpt lat="43.062" lon="1.93187">
        <ele>326.6</ele>
        <time>2026-05-29T07:20:26Z</time>
      </trkpt>
      <trkpt lat="43.062" lon="1.93187">
        <ele>326.6</ele>
        <time>2026-05-29T07:20:31Z</time>
      </trkpt>
      <trkpt lat="43.062" lon="1.93187">
        <ele>326.6</ele>
        <time>2026-05-29T07:20:36Z</time>
      </trkpt>
      <trkpt lat="43.062" lon="1.93187">
        <ele>326.6</ele>
        <time>2026-05-29T07:20:41Z</time>
      </trkpt>
      <trkpt lat="43.062" lon="1.93187">
        <ele>326.6</ele>
        <time>2026-05-29T07:20:46Z</time>
      </trkpt>
      <trkpt lat="43.062" lon="1.93187">
        <ele>326.6</ele>
        <time>2026-05-29T07:20:51Z</time>
      </trkpt>
      <trkpt lat="43.062" lon="1.93187">
        <ele>326.6</ele>
        <time>2026-05-29T07:20:56Z</time>
      </trkpt>
      <trkpt lat="43.062" lon="1.93187">
        <ele>326.6</ele>
        <time>2026-05-29T07:21:01Z</time>
      </trkpt>
      <trkpt lat="43.062" lon="1.93187">
        <ele>326.6</ele>
        <time>2026-05-29T07:21:06Z</time>
      </trkpt>
      <trkpt lat="43.062" lon="1.93187">
        <ele>326.6</ele>
        <time>2026-05-29T07:21:11Z</time>
      </trkpt>
      <trkpt lat="43.062" lon="1.93187">
        <ele>326.6</ele>
        <time>2026-05-29T07:21:16Z</time>
      </trkpt>
      <trkpt lat="43.062" lon="1.93187">
        <ele>326.6</ele>
        <time>2026-05-29T07:21:21Z</time>
      </trkpt>
      <trkpt lat="43.062" lon="1.93187">
        <ele>326.6</ele>
        <time>2026-05-29T07:21:26Z</time>
      </trkpt>
      <trkpt lat="43.062" lon="1.93187">
        <ele>326.6</ele>
        <time>2026-05-29T07:21:31Z</time>
      </trkpt>
      <trkpt lat="43.062" lon="1.93187">
        <ele>326.6</ele>
        <time>2026-05-29T07:21:36Z</time>
      </trkpt>
      <trkpt lat="43.062" lon="1.93187">
        <ele>326.6</ele>
        <time>2026-05-29T07:21:41Z</time>
      </trkpt>
      <trkpt lat="43.062" lon="1.93187">
        <ele>326.6</ele>
        <time>2026-05-29T07:21:46Z</time>
      </trkpt>
      <trkpt lat="43.062" lon="1.93187">
        <ele>326.6</ele>
        <time>2026-05-29T07:21:51Z</time>
      </trkpt>
      <trkpt lat="43.062" lon="1.93187">
        <ele>326.6</ele>
        <time>2026-05-29T07:21:56Z</time>
      </trkpt>
      <trkpt lat="43.06198" lon="1.93195">
        <ele>326.5</ele>
        <time>2026-05-29T07:22:01Z</time>
      </trkpt>
      <trkpt lat="43.06195" lon="1.93204">
        <ele>326.4</ele>
        <time>2026-05-29T07:22:06Z</time>
      </trkpt>
      <trkpt lat="43.06193" lon="1.93211">
        <ele>326.3</ele>
        <time>2026-05-29T07:22:11Z</time>
      </trkpt>
      <trkpt lat="43.0619" lon="1.93217">
        <ele>326.3</ele>
        <time>2026-05-29T07:22:16Z</time>
      </trkpt>
      <trkpt lat="43.06188" lon="1.93221">
        <ele>326.3</ele>
        <time>2026-05-29T07:22:21Z</time>
      </trkpt>
      <trkpt lat="43.06186" lon="1.93226">
        <ele>326.3</ele>
        <time>2026-05-29T07:22:26Z</time>
      </trkpt>
      <trkpt lat="43.06184" lon="1.93235">
        <ele>326.3</ele>
        <time>2026-05-29T07:22:31Z</time>
      </trkpt>
      <trkpt lat="43.06182" lon="1.93245">
        <ele>326.3</ele>
        <time>2026-05-29T07:22:36Z</time>
      </trkpt>
      <trkpt lat="43.06179" lon="1.93252">
        <ele>326.4</ele>
        <time>2026-05-29T07:22:41Z</time>
      </trkpt>
      <trkpt lat="43.06176" lon="1.93259">
        <ele>326.3</ele>
        <time>2026-05-29T07:22:46Z</time>
      </trkpt>
      <trkpt lat="43.06173" lon="1.93263">
        <ele>326.4</ele>
        <time>2026-05-29T07:22:51Z</time>
      </trkpt>
      <trkpt lat="43.06173" lon="1.93268">
        <ele>326.2</ele>
        <time>2026-05-29T07:22:56Z</time>
      </trkpt>
      <trkpt lat="43.06173" lon="1.93268">
        <ele>326.2</ele>
        <time>2026-05-29T07:23:01Z</time>
      </trkpt>
      <trkpt lat="43.06173" lon="1.93268">
        <ele>326.2</ele>
        <time>2026-05-29T07:23:06Z</time>
      </trkpt>
      <trkpt lat="43.06173" lon="1.93268">
        <ele>326.2</ele>
        <time>2026-05-29T07:23:11Z</time>
      </trkpt>
      <trkpt lat="43.06173" lon="1.93268">
        <ele>326.2</ele>
        <time>2026-05-29T07:23:16Z</time>
      </trkpt>
      <trkpt lat="43.06173" lon="1.93268">
        <ele>326.2</ele>
        <time>2026-05-29T07:23:21Z</time>
      </trkpt>
      <trkpt lat="43.06173" lon="1.93268">
        <ele>326.2</ele>
        <time>2026-05-29T07:23:26Z</time>
      </trkpt>
      <trkpt lat="43.06173" lon="1.93268">
        <ele>326.2</ele>
        <time>2026-05-29T07:23:31Z</time>
      </trkpt>
      <trkpt lat="43.06173" lon="1.93268">
        <ele>326.2</ele>
        <time>2026-05-29T07:23:36Z</time>
      </trkpt>
      <trkpt lat="43.06173" lon="1.93268">
        <ele>326.2</ele>
        <time>2026-05-29T07:23:41Z</time>
      </trkpt>
      <trkpt lat="43.06174" lon="1.9327">
        <ele>326.1</ele>
        <time>2026-05-29T07:23:46Z</time>
      </trkpt>
      <trkpt lat="43.06175" lon="1.93273">
        <ele>326</ele>
        <time>2026-05-29T07:23:51Z</time>
      </trkpt>
      <trkpt lat="43.06175" lon="1.93274">
        <ele>326</ele>
        <time>2026-05-29T07:23:56Z</time>
      </trkpt>
      <trkpt lat="43.06175" lon="1.93274">
        <ele>326</ele>
        <time>2026-05-29T07:24:01Z</time>
      </trkpt>
      <trkpt lat="43.06173" lon="1.93278">
        <ele>326</ele>
        <time>2026-05-29T07:24:06Z</time>
      </trkpt>
      <trkpt lat="43.0617" lon="1.93281">
        <ele>326.1</ele>
        <time>2026-05-29T07:24:11Z</time>
      </trkpt>
      <trkpt lat="43.06167" lon="1.93285">
        <ele>326.1</ele>
        <time>2026-05-29T07:24:16Z</time>
      </trkpt>
      <trkpt lat="43.06163" lon="1.93285">
        <ele>326.4</ele>
        <time>2026-05-29T07:24:21Z</time>
      </trkpt>
      <trkpt lat="43.06158" lon="1.93284">
        <ele>326.7</ele>
        <time>2026-05-29T07:24:26Z</time>
      </trkpt>
      <trkpt lat="43.06153" lon="1.93283">
        <ele>327.1</ele>
        <time>2026-05-29T07:24:31Z</time>
      </trkpt>
      <trkpt lat="43.06147" lon="1.93281">
        <ele>327.5</ele>
        <time>2026-05-29T07:24:36Z</time>
      </trkpt>
      <trkpt lat="43.06142" lon="1.93278">
        <ele>327.9</ele>
        <time>2026-05-29T07:24:41Z</time>
      </trkpt>
      <trkpt lat="43.06136" lon="1.93277">
        <ele>328.3</ele>
        <time>2026-05-29T07:24:46Z</time>
      </trkpt>
      <trkpt lat="43.06129" lon="1.93274">
        <ele>328.9</ele>
        <time>2026-05-29T07:24:51Z</time>
      </trkpt>
      <trkpt lat="43.06124" lon="1.93273">
        <ele>329.2</ele>
        <time>2026-05-29T07:24:56Z</time>
      </trkpt>
      <trkpt lat="43.06117" lon="1.9327">
        <ele>329.8</ele>
        <time>2026-05-29T07:25:01Z</time>
      </trkpt>
      <trkpt lat="43.06112" lon="1.93266">
        <ele>330.3</ele>
        <time>2026-05-29T07:25:06Z</time>
      </trkpt>
      <trkpt lat="43.06107" lon="1.9326">
        <ele>330.9</ele>
        <time>2026-05-29T07:25:11Z</time>
      </trkpt>
      <trkpt lat="43.06104" lon="1.93256">
        <ele>331.3</ele>
        <time>2026-05-29T07:25:16Z</time>
      </trkpt>
      <trkpt lat="43.06101" lon="1.93254">
        <ele>331.6</ele>
        <time>2026-05-29T07:25:21Z</time>
      </trkpt>
      <trkpt lat="43.06098" lon="1.93254">
        <ele>331.8</ele>
        <time>2026-05-29T07:25:26Z</time>
      </trkpt>
      <trkpt lat="43.06096" lon="1.93254">
        <ele>331.9</ele>
        <time>2026-05-29T07:25:31Z</time>
      </trkpt>
      <trkpt lat="43.06092" lon="1.93259">
        <ele>332</ele>
        <time>2026-05-29T07:25:36Z</time>
      </trkpt>
      <trkpt lat="43.0609" lon="1.93265">
        <ele>331.8</ele>
        <time>2026-05-29T07:25:41Z</time>
      </trkpt>
      <trkpt lat="43.06088" lon="1.93271">
        <ele>331.7</ele>
        <time>2026-05-29T07:25:46Z</time>
      </trkpt>
      <trkpt lat="43.06085" lon="1.93273">
        <ele>331.8</ele>
        <time>2026-05-29T07:25:51Z</time>
      </trkpt>
      <trkpt lat="43.06083" lon="1.93276">
        <ele>331.8</ele>
        <time>2026-05-29T07:25:56Z</time>
      </trkpt>
      <trkpt lat="43.0608" lon="1.93281">
        <ele>331.9</ele>
        <time>2026-05-29T07:26:01Z</time>
      </trkpt>
      <trkpt lat="43.06078" lon="1.93284">
        <ele>332</ele>
        <time>2026-05-29T07:26:06Z</time>
      </trkpt>
      <trkpt lat="43.06075" lon="1.93289">
        <ele>332.1</ele>
        <time>2026-05-29T07:26:11Z</time>
      </trkpt>
      <trkpt lat="43.06073" lon="1.93295">
        <ele>332.1</ele>
        <time>2026-05-29T07:26:16Z</time>
      </trkpt>
      <trkpt lat="43.0607" lon="1.93299">
        <ele>332.2</ele>
        <time>2026-05-29T07:26:21Z</time>
      </trkpt>
      <trkpt lat="43.06065" lon="1.93304">
        <ele>332.6</ele>
        <time>2026-05-29T07:26:26Z</time>
      </trkpt>
      <trkpt lat="43.06062" lon="1.93308">
        <ele>332.8</ele>
        <time>2026-05-29T07:26:31Z</time>
      </trkpt>
      <trkpt lat="43.06059" lon="1.93313">
        <ele>332.9</ele>
        <time>2026-05-29T07:26:36Z</time>
      </trkpt>
      <trkpt lat="43.06055" lon="1.93318">
        <ele>333.1</ele>
        <time>2026-05-29T07:26:41Z</time>
      </trkpt>
      <trkpt lat="43.06051" lon="1.93323">
        <ele>333.4</ele>
        <time>2026-05-29T07:26:46Z</time>
      </trkpt>
      <trkpt lat="43.06049" lon="1.93326">
        <ele>333.5</ele>
        <time>2026-05-29T07:26:51Z</time>
      </trkpt>
      <trkpt lat="43.06048" lon="1.93327">
        <ele>333.5</ele>
        <time>2026-05-29T07:26:56Z</time>
      </trkpt>
      <trkpt lat="43.06048" lon="1.93327">
        <ele>333.5</ele>
        <time>2026-05-29T07:27:01Z</time>
      </trkpt>
      <trkpt lat="43.06046" lon="1.9333">
        <ele>333.6</ele>
        <time>2026-05-29T07:27:06Z</time>
      </trkpt>
      <trkpt lat="43.06044" lon="1.93334">
        <ele>333.7</ele>
        <time>2026-05-29T07:27:11Z</time>
      </trkpt>
      <trkpt lat="43.0604" lon="1.93341">
        <ele>333.9</ele>
        <time>2026-05-29T07:27:16Z</time>
      </trkpt>
      <trkpt lat="43.06036" lon="1.93348">
        <ele>334.1</ele>
        <time>2026-05-29T07:27:21Z</time>
      </trkpt>
      <trkpt lat="43.06034" lon="1.93351">
        <ele>334.2</ele>
        <time>2026-05-29T07:27:26Z</time>
      </trkpt>
      <trkpt lat="43.06031" lon="1.93354">
        <ele>334.4</ele>
        <time>2026-05-29T07:27:31Z</time>
      </trkpt>
      <trkpt lat="43.06026" lon="1.93355">
        <ele>334.9</ele>
        <time>2026-05-29T07:27:36Z</time>
      </trkpt>
      <trkpt lat="43.0602" lon="1.93354">
        <ele>335.6</ele>
        <time>2026-05-29T07:27:41Z</time>
      </trkpt>
      <trkpt lat="43.06015" lon="1.93352">
        <ele>336.2</ele>
        <time>2026-05-29T07:27:46Z</time>
      </trkpt>
      <trkpt lat="43.06008" lon="1.93351">
        <ele>337.1</ele>
        <time>2026-05-29T07:27:51Z</time>
      </trkpt>
      <trkpt lat="43.06003" lon="1.93349">
        <ele>337.7</ele>
        <time>2026-05-29T07:27:56Z</time>
      </trkpt>
      <trkpt lat="43.05998" lon="1.93348">
        <ele>338.2</ele>
        <time>2026-05-29T07:28:01Z</time>
      </trkpt>
      <trkpt lat="43.05993" lon="1.93346">
        <ele>338.7</ele>
        <time>2026-05-29T07:28:06Z</time>
      </trkpt>
      <trkpt lat="43.05989" lon="1.93343">
        <ele>339.1</ele>
        <time>2026-05-29T07:28:11Z</time>
      </trkpt>
      <trkpt lat="43.05984" lon="1.93342">
        <ele>339.5</ele>
        <time>2026-05-29T07:28:16Z</time>
      </trkpt>
      <trkpt lat="43.05979" lon="1.9334">
        <ele>339.9</ele>
        <time>2026-05-29T07:28:21Z</time>
      </trkpt>
      <trkpt lat="43.05975" lon="1.93338">
        <ele>340.2</ele>
        <time>2026-05-29T07:28:26Z</time>
      </trkpt>
      <trkpt lat="43.0597" lon="1.93337">
        <ele>340.6</ele>
        <time>2026-05-29T07:28:31Z</time>
      </trkpt>
      <trkpt lat="43.05966" lon="1.93336">
        <ele>340.9</ele>
        <time>2026-05-29T07:28:36Z</time>
      </trkpt>
      <trkpt lat="43.05961" lon="1.93333">
        <ele>341.4</ele>
        <time>2026-05-29T07:28:41Z</time>
      </trkpt>
      <trkpt lat="43.05958" lon="1.9333">
        <ele>341.7</ele>
        <time>2026-05-29T07:28:46Z</time>
      </trkpt>
      <trkpt lat="43.05955" lon="1.93329">
        <ele>341.9</ele>
        <time>2026-05-29T07:28:51Z</time>
      </trkpt>
      <trkpt lat="43.0595" lon="1.93328">
        <ele>342.3</ele>
        <time>2026-05-29T07:28:56Z</time>
      </trkpt>
      <trkpt lat="43.05944" lon="1.93328">
        <ele>342.7</ele>
        <time>2026-05-29T07:29:01Z</time>
      </trkpt>
      <trkpt lat="43.0594" lon="1.93327">
        <ele>343</ele>
        <time>2026-05-29T07:29:06Z</time>
      </trkpt>
      <trkpt lat="43.05936" lon="1.93326">
        <ele>343.3</ele>
        <time>2026-05-29T07:29:11Z</time>
      </trkpt>
      <trkpt lat="43.05932" lon="1.93326">
        <ele>343.5</ele>
        <time>2026-05-29T07:29:16Z</time>
      </trkpt>
      <trkpt lat="43.05929" lon="1.93324">
        <ele>343.8</ele>
        <time>2026-05-29T07:29:21Z</time>
      </trkpt>
      <trkpt lat="43.05927" lon="1.93324">
        <ele>343.9</ele>
        <time>2026-05-29T07:29:26Z</time>
      </trkpt>
      <trkpt lat="43.05926" lon="1.93323">
        <ele>344</ele>
        <time>2026-05-29T07:29:31Z</time>
      </trkpt>
      <trkpt lat="43.05926" lon="1.93323">
        <ele>344</ele>
        <time>2026-05-29T07:29:36Z</time>
      </trkpt>
      <trkpt lat="43.05926" lon="1.93323">
        <ele>344</ele>
        <time>2026-05-29T07:29:41Z</time>
      </trkpt>
      <trkpt lat="43.05926" lon="1.93323">
        <ele>344</ele>
        <time>2026-05-29T07:29:46Z</time>
      </trkpt>
      <trkpt lat="43.05922" lon="1.93326">
        <ele>344.1</ele>
        <time>2026-05-29T07:29:51Z</time>
      </trkpt>
      <trkpt lat="43.05917" lon="1.93324">
        <ele>344.5</ele>
        <time>2026-05-29T07:29:56Z</time>
      </trkpt>
      <trkpt lat="43.05913" lon="1.93324">
        <ele>345.2</ele>
        <time>2026-05-29T07:30:01Z</time>
      </trkpt>
      <trkpt lat="43.05908" lon="1.93324">
        <ele>346</ele>
        <time>2026-05-29T07:30:06Z</time>
      </trkpt>
      <trkpt lat="43.05903" lon="1.93324">
        <ele>346.9</ele>
        <time>2026-05-29T07:30:11Z</time>
      </trkpt>
      <trkpt lat="43.05899" lon="1.93324">
        <ele>347.6</ele>
        <time>2026-05-29T07:30:16Z</time>
      </trkpt>
      <trkpt lat="43.05896" lon="1.93323">
        <ele>348.1</ele>
        <time>2026-05-29T07:30:21Z</time>
      </trkpt>
      <trkpt lat="43.05893" lon="1.93324">
        <ele>348.6</ele>
        <time>2026-05-29T07:30:26Z</time>
      </trkpt>
      <trkpt lat="43.05889" lon="1.93324">
        <ele>349.3</ele>
        <time>2026-05-29T07:30:31Z</time>
      </trkpt>
      <trkpt lat="43.05883" lon="1.93324">
        <ele>350.3</ele>
        <time>2026-05-29T07:30:36Z</time>
      </trkpt>
      <trkpt lat="43.05878" lon="1.93324">
        <ele>351.2</ele>
        <time>2026-05-29T07:30:41Z</time>
      </trkpt>
      <trkpt lat="43.05874" lon="1.93324">
        <ele>351.8</ele>
        <time>2026-05-29T07:30:46Z</time>
      </trkpt>
      <trkpt lat="43.05869" lon="1.93325">
        <ele>352.7</ele>
        <time>2026-05-29T07:30:51Z</time>
      </trkpt>
      <trkpt lat="43.05865" lon="1.93325">
        <ele>353.4</ele>
        <time>2026-05-29T07:30:56Z</time>
      </trkpt>
      <trkpt lat="43.0586" lon="1.93325">
        <ele>354.2</ele>
        <time>2026-05-29T07:31:01Z</time>
      </trkpt>
      <trkpt lat="43.05856" lon="1.93325">
        <ele>354.9</ele>
        <time>2026-05-29T07:31:06Z</time>
      </trkpt>
      <trkpt lat="43.05851" lon="1.93324">
        <ele>355.8</ele>
        <time>2026-05-29T07:31:11Z</time>
      </trkpt>
      <trkpt lat="43.05848" lon="1.93324">
        <ele>356.3</ele>
        <time>2026-05-29T07:31:16Z</time>
      </trkpt>
      <trkpt lat="43.05843" lon="1.93326">
        <ele>357.2</ele>
        <time>2026-05-29T07:31:21Z</time>
      </trkpt>
      <trkpt lat="43.05838" lon="1.93326">
        <ele>358</ele>
        <time>2026-05-29T07:31:26Z</time>
      </trkpt>
      <trkpt lat="43.05834" lon="1.93325">
        <ele>358.7</ele>
        <time>2026-05-29T07:31:31Z</time>
      </trkpt>
      <trkpt lat="43.0583" lon="1.93325">
        <ele>358.8</ele>
        <time>2026-05-29T07:31:36Z</time>
      </trkpt>
      <trkpt lat="43.05825" lon="1.93326">
        <ele>358.9</ele>
        <time>2026-05-29T07:31:41Z</time>
      </trkpt>
      <trkpt lat="43.0582" lon="1.93328">
        <ele>359</ele>
        <time>2026-05-29T07:31:46Z</time>
      </trkpt>
      <trkpt lat="43.05815" lon="1.93328">
        <ele>359</ele>
        <time>2026-05-29T07:31:51Z</time>
      </trkpt>
      <trkpt lat="43.05812" lon="1.93329">
        <ele>359.1</ele>
        <time>2026-05-29T07:31:56Z</time>
      </trkpt>
      <trkpt lat="43.05808" lon="1.93331">
        <ele>359.2</ele>
        <time>2026-05-29T07:32:01Z</time>
      </trkpt>
      <trkpt lat="43.05805" lon="1.9333">
        <ele>359.2</ele>
        <time>2026-05-29T07:32:06Z</time>
      </trkpt>
      <trkpt lat="43.05802" lon="1.9333">
        <ele>359.3</ele>
        <time>2026-05-29T07:32:11Z</time>
      </trkpt>
      <trkpt lat="43.05802" lon="1.9333">
        <ele>359.3</ele>
        <time>2026-05-29T07:32:16Z</time>
      </trkpt>
      <trkpt lat="43.05797" lon="1.93331">
        <ele>359.3</ele>
        <time>2026-05-29T07:32:21Z</time>
      </trkpt>
      <trkpt lat="43.05791" lon="1.93334">
        <ele>359.5</ele>
        <time>2026-05-29T07:32:26Z</time>
      </trkpt>
      <trkpt lat="43.05786" lon="1.93337">
        <ele>359.4</ele>
        <time>2026-05-29T07:32:31Z</time>
      </trkpt>
      <trkpt lat="43.05783" lon="1.9334">
        <ele>359.4</ele>
        <time>2026-05-29T07:32:36Z</time>
      </trkpt>
      <trkpt lat="43.0578" lon="1.93343">
        <ele>359.3</ele>
        <time>2026-05-29T07:32:41Z</time>
      </trkpt>
      <trkpt lat="43.05777" lon="1.93346">
        <ele>359.3</ele>
        <time>2026-05-29T07:32:46Z</time>
      </trkpt>
      <trkpt lat="43.05773" lon="1.9335">
        <ele>359.3</ele>
        <time>2026-05-29T07:32:51Z</time>
      </trkpt>
      <trkpt lat="43.05769" lon="1.93353">
        <ele>359.3</ele>
        <time>2026-05-29T07:32:56Z</time>
      </trkpt>
      <trkpt lat="43.05763" lon="1.93358">
        <ele>359.5</ele>
        <time>2026-05-29T07:33:01Z</time>
      </trkpt>
      <trkpt lat="43.0576" lon="1.93362">
        <ele>359.5</ele>
        <time>2026-05-29T07:33:06Z</time>
      </trkpt>
      <trkpt lat="43.05757" lon="1.93365">
        <ele>359.7</ele>
        <time>2026-05-29T07:33:11Z</time>
      </trkpt>
      <trkpt lat="43.05753" lon="1.93368">
        <ele>359.8</ele>
        <time>2026-05-29T07:33:16Z</time>
      </trkpt>
      <trkpt lat="43.05749" lon="1.93373">
        <ele>360</ele>
        <time>2026-05-29T07:33:21Z</time>
      </trkpt>
      <trkpt lat="43.05743" lon="1.93376">
        <ele>359.9</ele>
        <time>2026-05-29T07:33:26Z</time>
      </trkpt>
      <trkpt lat="43.05739" lon="1.93381">
        <ele>359.8</ele>
        <time>2026-05-29T07:33:31Z</time>
      </trkpt>
      <trkpt lat="43.05735" lon="1.93386">
        <ele>359.8</ele>
        <time>2026-05-29T07:33:36Z</time>
      </trkpt>
      <trkpt lat="43.05731" lon="1.9339">
        <ele>359.8</ele>
        <time>2026-05-29T07:33:41Z</time>
      </trkpt>
      <trkpt lat="43.05725" lon="1.93396">
        <ele>359.8</ele>
        <time>2026-05-29T07:33:46Z</time>
      </trkpt>
      <trkpt lat="43.0572" lon="1.934">
        <ele>359.8</ele>
        <time>2026-05-29T07:33:51Z</time>
      </trkpt>
      <trkpt lat="43.05716" lon="1.93404">
        <ele>359.8</ele>
        <time>2026-05-29T07:33:56Z</time>
      </trkpt>
      <trkpt lat="43.05711" lon="1.93406">
        <ele>359.8</ele>
        <time>2026-05-29T07:34:01Z</time>
      </trkpt>
      <trkpt lat="43.05706" lon="1.93409">
        <ele>359.9</ele>
        <time>2026-05-29T07:34:06Z</time>
      </trkpt>
      <trkpt lat="43.05701" lon="1.93413">
        <ele>359.9</ele>
        <time>2026-05-29T07:34:11Z</time>
      </trkpt>
      <trkpt lat="43.05696" lon="1.93417">
        <ele>360</ele>
        <time>2026-05-29T07:34:16Z</time>
      </trkpt>
      <trkpt lat="43.05691" lon="1.93422">
        <ele>359.6</ele>
        <time>2026-05-29T07:34:21Z</time>
      </trkpt>
      <trkpt lat="43.05686" lon="1.93426">
        <ele>359.3</ele>
        <time>2026-05-29T07:34:26Z</time>
      </trkpt>
      <trkpt lat="43.05681" lon="1.93427">
        <ele>359.3</ele>
        <time>2026-05-29T07:34:31Z</time>
      </trkpt>
      <trkpt lat="43.05677" lon="1.9343">
        <ele>359.1</ele>
        <time>2026-05-29T07:34:36Z</time>
      </trkpt>
      <trkpt lat="43.05672" lon="1.93435">
        <ele>358.8</ele>
        <time>2026-05-29T07:34:41Z</time>
      </trkpt>
      <trkpt lat="43.05668" lon="1.93437">
        <ele>358.8</ele>
        <time>2026-05-29T07:34:46Z</time>
      </trkpt>
      <trkpt lat="43.05666" lon="1.93438">
        <ele>358.7</ele>
        <time>2026-05-29T07:34:51Z</time>
      </trkpt>
      <trkpt lat="43.05666" lon="1.93437">
        <ele>358.8</ele>
        <time>2026-05-29T07:34:56Z</time>
      </trkpt>
      <trkpt lat="43.05666" lon="1.93437">
        <ele>358.8</ele>
        <time>2026-05-29T07:35:01Z</time>
      </trkpt>
      <trkpt lat="43.05666" lon="1.93437">
        <ele>358.8</ele>
        <time>2026-05-29T07:35:06Z</time>
      </trkpt>
      <trkpt lat="43.05666" lon="1.93437">
        <ele>358.8</ele>
        <time>2026-05-29T07:35:11Z</time>
      </trkpt>
      <trkpt lat="43.05666" lon="1.93437">
        <ele>358.8</ele>
        <time>2026-05-29T07:35:16Z</time>
      </trkpt>
      <trkpt lat="43.05658" lon="1.93445">
        <ele>358.5</ele>
        <time>2026-05-29T07:35:21Z</time>
      </trkpt>
      <trkpt lat="43.05658" lon="1.93445">
        <ele>358.5</ele>
        <time>2026-05-29T07:35:26Z</time>
      </trkpt>
      <trkpt lat="43.05652" lon="1.93446">
        <ele>358.5</ele>
        <time>2026-05-29T07:35:31Z</time>
      </trkpt>
      <trkpt lat="43.05648" lon="1.93448">
        <ele>358.5</ele>
        <time>2026-05-29T07:35:36Z</time>
      </trkpt>
      <trkpt lat="43.05643" lon="1.93448">
        <ele>358.7</ele>
        <time>2026-05-29T07:35:41Z</time>
      </trkpt>
      <trkpt lat="43.05639" lon="1.9345">
        <ele>358.7</ele>
        <time>2026-05-29T07:35:46Z</time>
      </trkpt>
      <trkpt lat="43.05634" lon="1.93452">
        <ele>358.7</ele>
        <time>2026-05-29T07:35:51Z</time>
      </trkpt>
      <trkpt lat="43.05628" lon="1.93454">
        <ele>358.8</ele>
        <time>2026-05-29T07:35:56Z</time>
      </trkpt>
      <trkpt lat="43.05621" lon="1.93456">
        <ele>358.9</ele>
        <time>2026-05-29T07:36:01Z</time>
      </trkpt>
      <trkpt lat="43.05617" lon="1.93458">
        <ele>359</ele>
        <time>2026-05-29T07:36:06Z</time>
      </trkpt>
      <trkpt lat="43.05612" lon="1.93458">
        <ele>359.1</ele>
        <time>2026-05-29T07:36:11Z</time>
      </trkpt>
      <trkpt lat="43.05608" lon="1.93459">
        <ele>359.2</ele>
        <time>2026-05-29T07:36:16Z</time>
      </trkpt>
      <trkpt lat="43.05603" lon="1.9346">
        <ele>359.4</ele>
        <time>2026-05-29T07:36:21Z</time>
      </trkpt>
      <trkpt lat="43.05598" lon="1.93462">
        <ele>359.5</ele>
        <time>2026-05-29T07:36:26Z</time>
      </trkpt>
      <trkpt lat="43.05593" lon="1.93464">
        <ele>359.7</ele>
        <time>2026-05-29T07:36:31Z</time>
      </trkpt>
      <trkpt lat="43.05587" lon="1.93465">
        <ele>359.9</ele>
        <time>2026-05-29T07:36:36Z</time>
      </trkpt>
      <trkpt lat="43.05581" lon="1.93465">
        <ele>360.1</ele>
        <time>2026-05-29T07:36:41Z</time>
      </trkpt>
      <trkpt lat="43.05574" lon="1.93462">
        <ele>360.5</ele>
        <time>2026-05-29T07:36:46Z</time>
      </trkpt>
      <trkpt lat="43.05567" lon="1.93463">
        <ele>360.8</ele>
        <time>2026-05-29T07:36:51Z</time>
      </trkpt>
      <trkpt lat="43.05559" lon="1.9346">
        <ele>361.2</ele>
        <time>2026-05-29T07:36:56Z</time>
      </trkpt>
      <trkpt lat="43.05554" lon="1.9346">
        <ele>361.4</ele>
        <time>2026-05-29T07:37:01Z</time>
      </trkpt>
      <trkpt lat="43.05548" lon="1.9346">
        <ele>361.7</ele>
        <time>2026-05-29T07:37:06Z</time>
      </trkpt>
      <trkpt lat="43.05542" lon="1.9346">
        <ele>362</ele>
        <time>2026-05-29T07:37:11Z</time>
      </trkpt>
      <trkpt lat="43.05536" lon="1.9346">
        <ele>362.3</ele>
        <time>2026-05-29T07:37:16Z</time>
      </trkpt>
      <trkpt lat="43.05529" lon="1.93458">
        <ele>362.6</ele>
        <time>2026-05-29T07:37:21Z</time>
      </trkpt>
      <trkpt lat="43.05523" lon="1.9346">
        <ele>362.9</ele>
        <time>2026-05-29T07:37:26Z</time>
      </trkpt>
      <trkpt lat="43.05517" lon="1.93459">
        <ele>363.2</ele>
        <time>2026-05-29T07:37:31Z</time>
      </trkpt>
      <trkpt lat="43.05511" lon="1.9346">
        <ele>363.5</ele>
        <time>2026-05-29T07:37:36Z</time>
      </trkpt>
      <trkpt lat="43.05505" lon="1.93461">
        <ele>363.8</ele>
        <time>2026-05-29T07:37:41Z</time>
      </trkpt>
      <trkpt lat="43.055" lon="1.93459">
        <ele>364</ele>
        <time>2026-05-29T07:37:46Z</time>
      </trkpt>
      <trkpt lat="43.05493" lon="1.93459">
        <ele>365.3</ele>
        <time>2026-05-29T07:37:51Z</time>
      </trkpt>
      <trkpt lat="43.05488" lon="1.93456">
        <ele>366.2</ele>
        <time>2026-05-29T07:37:56Z</time>
      </trkpt>
      <trkpt lat="43.0548" lon="1.93455">
        <ele>367.7</ele>
        <time>2026-05-29T07:38:01Z</time>
      </trkpt>
      <trkpt lat="43.05473" lon="1.93454">
        <ele>369</ele>
        <time>2026-05-29T07:38:06Z</time>
      </trkpt>
      <trkpt lat="43.05467" lon="1.93452">
        <ele>370.1</ele>
        <time>2026-05-29T07:38:11Z</time>
      </trkpt>
      <trkpt lat="43.05462" lon="1.93454">
        <ele>371</ele>
        <time>2026-05-29T07:38:16Z</time>
      </trkpt>
      <trkpt lat="43.05455" lon="1.93453">
        <ele>372.3</ele>
        <time>2026-05-29T07:38:21Z</time>
      </trkpt>
      <trkpt lat="43.05449" lon="1.93453">
        <ele>373.5</ele>
        <time>2026-05-29T07:38:26Z</time>
      </trkpt>
      <trkpt lat="43.05443" lon="1.93453">
        <ele>374.6</ele>
        <time>2026-05-29T07:38:31Z</time>
      </trkpt>
      <trkpt lat="43.05438" lon="1.93448">
        <ele>375.6</ele>
        <time>2026-05-29T07:38:36Z</time>
      </trkpt>
      <trkpt lat="43.05431" lon="1.93446">
        <ele>376.9</ele>
        <time>2026-05-29T07:38:41Z</time>
      </trkpt>
      <trkpt lat="43.05425" lon="1.93447">
        <ele>378</ele>
        <time>2026-05-29T07:38:46Z</time>
      </trkpt>
      <trkpt lat="43.05421" lon="1.93448">
        <ele>378.8</ele>
        <time>2026-05-29T07:38:51Z</time>
      </trkpt>
      <trkpt lat="43.05417" lon="1.93451">
        <ele>379.5</ele>
        <time>2026-05-29T07:38:56Z</time>
      </trkpt>
      <trkpt lat="43.05416" lon="1.93452">
        <ele>379.7</ele>
        <time>2026-05-29T07:39:01Z</time>
      </trkpt>
      <trkpt lat="43.05412" lon="1.93452">
        <ele>380.1</ele>
        <time>2026-05-29T07:39:06Z</time>
      </trkpt>
      <trkpt lat="43.05408" lon="1.93451">
        <ele>380.6</ele>
        <time>2026-05-29T07:39:11Z</time>
      </trkpt>
      <trkpt lat="43.05403" lon="1.93449">
        <ele>381.2</ele>
        <time>2026-05-29T07:39:16Z</time>
      </trkpt>
      <trkpt lat="43.05395" lon="1.93451">
        <ele>382.1</ele>
        <time>2026-05-29T07:39:21Z</time>
      </trkpt>
      <trkpt lat="43.05391" lon="1.9345">
        <ele>382.6</ele>
        <time>2026-05-29T07:39:26Z</time>
      </trkpt>
      <trkpt lat="43.05387" lon="1.93447">
        <ele>383.1</ele>
        <time>2026-05-29T07:39:31Z</time>
      </trkpt>
      <trkpt lat="43.05383" lon="1.93447">
        <ele>383.6</ele>
        <time>2026-05-29T07:39:36Z</time>
      </trkpt>
      <trkpt lat="43.05379" lon="1.93447">
        <ele>384.1</ele>
        <time>2026-05-29T07:39:41Z</time>
      </trkpt>
      <trkpt lat="43.05376" lon="1.93448">
        <ele>384.4</ele>
        <time>2026-05-29T07:39:46Z</time>
      </trkpt>
      <trkpt lat="43.05371" lon="1.93447">
        <ele>385</ele>
        <time>2026-05-29T07:39:51Z</time>
      </trkpt>
      <trkpt lat="43.05368" lon="1.93447">
        <ele>385.4</ele>
        <time>2026-05-29T07:39:56Z</time>
      </trkpt>
      <trkpt lat="43.05362" lon="1.93447">
        <ele>386.1</ele>
        <time>2026-05-29T07:40:01Z</time>
      </trkpt>
      <trkpt lat="43.05357" lon="1.93444">
        <ele>386.9</ele>
        <time>2026-05-29T07:40:06Z</time>
      </trkpt>
      <trkpt lat="43.05351" lon="1.93443">
        <ele>387.6</ele>
        <time>2026-05-29T07:40:11Z</time>
      </trkpt>
      <trkpt lat="43.05345" lon="1.93441">
        <ele>388.5</ele>
        <time>2026-05-29T07:40:16Z</time>
      </trkpt>
      <trkpt lat="43.05341" lon="1.93441">
        <ele>389</ele>
        <time>2026-05-29T07:40:21Z</time>
      </trkpt>
      <trkpt lat="43.05336" lon="1.93442">
        <ele>389.5</ele>
        <time>2026-05-29T07:40:26Z</time>
      </trkpt>
      <trkpt lat="43.05331" lon="1.93441">
        <ele>389.8</ele>
        <time>2026-05-29T07:40:31Z</time>
      </trkpt>
      <trkpt lat="43.05326" lon="1.93442">
        <ele>389.5</ele>
        <time>2026-05-29T07:40:36Z</time>
      </trkpt>
      <trkpt lat="43.0532" lon="1.93442">
        <ele>389.2</ele>
        <time>2026-05-29T07:40:41Z</time>
      </trkpt>
      <trkpt lat="43.05313" lon="1.93443">
        <ele>388.7</ele>
        <time>2026-05-29T07:40:46Z</time>
      </trkpt>
      <trkpt lat="43.05306" lon="1.93446">
        <ele>388.1</ele>
        <time>2026-05-29T07:40:51Z</time>
      </trkpt>
      <trkpt lat="43.053" lon="1.93452">
        <ele>387.5</ele>
        <time>2026-05-29T07:40:56Z</time>
      </trkpt>
      <trkpt lat="43.05296" lon="1.93459">
        <ele>386.9</ele>
        <time>2026-05-29T07:41:01Z</time>
      </trkpt>
      <trkpt lat="43.05294" lon="1.93466">
        <ele>386.4</ele>
        <time>2026-05-29T07:41:06Z</time>
      </trkpt>
      <trkpt lat="43.05291" lon="1.93472">
        <ele>386</ele>
        <time>2026-05-29T07:41:11Z</time>
      </trkpt>
      <trkpt lat="43.05289" lon="1.93478">
        <ele>385.6</ele>
        <time>2026-05-29T07:41:16Z</time>
      </trkpt>
      <trkpt lat="43.05287" lon="1.93485">
        <ele>385.2</ele>
        <time>2026-05-29T07:41:21Z</time>
      </trkpt>
      <trkpt lat="43.05284" lon="1.93491">
        <ele>384.8</ele>
        <time>2026-05-29T07:41:26Z</time>
      </trkpt>
      <trkpt lat="43.05281" lon="1.93495">
        <ele>384.6</ele>
        <time>2026-05-29T07:41:31Z</time>
      </trkpt>
      <trkpt lat="43.05279" lon="1.93503">
        <ele>384.3</ele>
        <time>2026-05-29T07:41:36Z</time>
      </trkpt>
      <trkpt lat="43.05277" lon="1.93511">
        <ele>384.2</ele>
        <time>2026-05-29T07:41:41Z</time>
      </trkpt>
      <trkpt lat="43.05277" lon="1.93523">
        <ele>384.1</ele>
        <time>2026-05-29T07:41:46Z</time>
      </trkpt>
      <trkpt lat="43.05273" lon="1.93531">
        <ele>384</ele>
        <time>2026-05-29T07:41:51Z</time>
      </trkpt>
      <trkpt lat="43.05269" lon="1.93539">
        <ele>384.1</ele>
        <time>2026-05-29T07:41:56Z</time>
      </trkpt>
      <trkpt lat="43.05263" lon="1.93545">
        <ele>384.2</ele>
        <time>2026-05-29T07:42:01Z</time>
      </trkpt>
      <trkpt lat="43.05258" lon="1.93553">
        <ele>384.4</ele>
        <time>2026-05-29T07:42:06Z</time>
      </trkpt>
      <trkpt lat="43.05255" lon="1.9356">
        <ele>384.5</ele>
        <time>2026-05-29T07:42:11Z</time>
      </trkpt>
      <trkpt lat="43.05251" lon="1.9356">
        <ele>384.7</ele>
        <time>2026-05-29T07:42:16Z</time>
      </trkpt>
      <trkpt lat="43.05246" lon="1.93563">
        <ele>385</ele>
        <time>2026-05-29T07:42:21Z</time>
      </trkpt>
      <trkpt lat="43.0524" lon="1.9357">
        <ele>385.5</ele>
        <time>2026-05-29T07:42:26Z</time>
      </trkpt>
      <trkpt lat="43.05235" lon="1.93576">
        <ele>386</ele>
        <time>2026-05-29T07:42:31Z</time>
      </trkpt>
      <trkpt lat="43.05231" lon="1.93582">
        <ele>386.3</ele>
        <time>2026-05-29T07:42:36Z</time>
      </trkpt>
      <trkpt lat="43.05228" lon="1.93588">
        <ele>386.5</ele>
        <time>2026-05-29T07:42:41Z</time>
      </trkpt>
      <trkpt lat="43.05224" lon="1.93592">
        <ele>386.7</ele>
        <time>2026-05-29T07:42:46Z</time>
      </trkpt>
      <trkpt lat="43.0522" lon="1.93596">
        <ele>386.8</ele>
        <time>2026-05-29T07:42:51Z</time>
      </trkpt>
      <trkpt lat="43.05217" lon="1.93599">
        <ele>387</ele>
        <time>2026-05-29T07:42:56Z</time>
      </trkpt>
      <trkpt lat="43.05216" lon="1.93602">
        <ele>386.9</ele>
        <time>2026-05-29T07:43:01Z</time>
      </trkpt>
      <trkpt lat="43.05216" lon="1.93602">
        <ele>386.9</ele>
        <time>2026-05-29T07:43:06Z</time>
      </trkpt>
      <trkpt lat="43.05216" lon="1.93602">
        <ele>386.9</ele>
        <time>2026-05-29T07:43:11Z</time>
      </trkpt>
      <trkpt lat="43.05216" lon="1.93602">
        <ele>386.9</ele>
        <time>2026-05-29T07:43:16Z</time>
      </trkpt>
      <trkpt lat="43.05216" lon="1.93602">
        <ele>386.9</ele>
        <time>2026-05-29T07:43:21Z</time>
      </trkpt>
      <trkpt lat="43.05216" lon="1.93602">
        <ele>386.9</ele>
        <time>2026-05-29T07:43:26Z</time>
      </trkpt>
      <trkpt lat="43.05216" lon="1.93602">
        <ele>386.9</ele>
        <time>2026-05-29T07:43:31Z</time>
      </trkpt>
      <trkpt lat="43.05216" lon="1.93602">
        <ele>386.9</ele>
        <time>2026-05-29T07:43:36Z</time>
      </trkpt>
      <trkpt lat="43.05216" lon="1.93602">
        <ele>386.9</ele>
        <time>2026-05-29T07:43:41Z</time>
      </trkpt>
      <trkpt lat="43.05214" lon="1.93596">
        <ele>387.2</ele>
        <time>2026-05-29T07:43:46Z</time>
      </trkpt>
      <trkpt lat="43.05212" lon="1.93594">
        <ele>387.4</ele>
        <time>2026-05-29T07:43:51Z</time>
      </trkpt>
      <trkpt lat="43.05208" lon="1.9359">
        <ele>387.8</ele>
        <time>2026-05-29T07:43:56Z</time>
      </trkpt>
      <trkpt lat="43.05203" lon="1.93585">
        <ele>388.3</ele>
        <time>2026-05-29T07:44:01Z</time>
      </trkpt>
      <trkpt lat="43.05199" lon="1.93583">
        <ele>388.7</ele>
        <time>2026-05-29T07:44:06Z</time>
      </trkpt>
      <trkpt lat="43.05195" lon="1.9358">
        <ele>388.9</ele>
        <time>2026-05-29T07:44:11Z</time>
      </trkpt>
      <trkpt lat="43.05191" lon="1.93576">
        <ele>389</ele>
        <time>2026-05-29T07:44:16Z</time>
      </trkpt>
      <trkpt lat="43.05186" lon="1.93571">
        <ele>389.2</ele>
        <time>2026-05-29T07:44:21Z</time>
      </trkpt>
      <trkpt lat="43.0518" lon="1.93566">
        <ele>389.5</ele>
        <time>2026-05-29T07:44:26Z</time>
      </trkpt>
      <trkpt lat="43.05177" lon="1.93562">
        <ele>389.6</ele>
        <time>2026-05-29T07:44:31Z</time>
      </trkpt>
      <trkpt lat="43.05171" lon="1.93558">
        <ele>389.8</ele>
        <time>2026-05-29T07:44:36Z</time>
      </trkpt>
      <trkpt lat="43.05164" lon="1.93553">
        <ele>389.7</ele>
        <time>2026-05-29T07:44:41Z</time>
      </trkpt>
      <trkpt lat="43.0516" lon="1.93549">
        <ele>389.2</ele>
        <time>2026-05-29T07:44:46Z</time>
      </trkpt>
      <trkpt lat="43.0516" lon="1.93548">
        <ele>389.1</ele>
        <time>2026-05-29T07:44:51Z</time>
      </trkpt>
      <trkpt lat="43.0516" lon="1.93548">
        <ele>389.1</ele>
        <time>2026-05-29T07:44:56Z</time>
      </trkpt>
      <trkpt lat="43.0516" lon="1.93548">
        <ele>389.1</ele>
        <time>2026-05-29T07:45:01Z</time>
      </trkpt>
      <trkpt lat="43.05156" lon="1.93547">
        <ele>388.7</ele>
        <time>2026-05-29T07:45:06Z</time>
      </trkpt>
      <trkpt lat="43.05151" lon="1.93543">
        <ele>388.1</ele>
        <time>2026-05-29T07:45:11Z</time>
      </trkpt>
      <trkpt lat="43.05147" lon="1.93539">
        <ele>387.6</ele>
        <time>2026-05-29T07:45:16Z</time>
      </trkpt>
      <trkpt lat="43.05143" lon="1.93534">
        <ele>387.1</ele>
        <time>2026-05-29T07:45:21Z</time>
      </trkpt>
      <trkpt lat="43.05137" lon="1.93529">
        <ele>386.3</ele>
        <time>2026-05-29T07:45:26Z</time>
      </trkpt>
      <trkpt lat="43.05136" lon="1.93526">
        <ele>386.1</ele>
        <time>2026-05-29T07:45:31Z</time>
      </trkpt>
      <trkpt lat="43.05134" lon="1.93524">
        <ele>385.8</ele>
        <time>2026-05-29T07:45:36Z</time>
      </trkpt>
      <trkpt lat="43.0513" lon="1.93521">
        <ele>385.3</ele>
        <time>2026-05-29T07:45:41Z</time>
      </trkpt>
      <trkpt lat="43.05125" lon="1.93519">
        <ele>384.8</ele>
        <time>2026-05-29T07:45:46Z</time>
      </trkpt>
      <trkpt lat="43.05121" lon="1.93513">
        <ele>384.2</ele>
        <time>2026-05-29T07:45:51Z</time>
      </trkpt>
      <trkpt lat="43.05116" lon="1.93509">
        <ele>383.5</ele>
        <time>2026-05-29T07:45:56Z</time>
      </trkpt>
      <trkpt lat="43.05112" lon="1.93504">
        <ele>382.9</ele>
        <time>2026-05-29T07:46:01Z</time>
      </trkpt>
      <trkpt lat="43.05108" lon="1.93499">
        <ele>382.3</ele>
        <time>2026-05-29T07:46:06Z</time>
      </trkpt>
      <trkpt lat="43.05103" lon="1.93496">
        <ele>381.7</ele>
        <time>2026-05-29T07:46:11Z</time>
      </trkpt>
      <trkpt lat="43.05097" lon="1.93491">
        <ele>380.9</ele>
        <time>2026-05-29T07:46:16Z</time>
      </trkpt>
      <trkpt lat="43.05093" lon="1.93485">
        <ele>380.3</ele>
        <time>2026-05-29T07:46:21Z</time>
      </trkpt>
      <trkpt lat="43.05088" lon="1.93479">
        <ele>379.6</ele>
        <time>2026-05-29T07:46:26Z</time>
      </trkpt>
      <trkpt lat="43.05082" lon="1.93475">
        <ele>379.1</ele>
        <time>2026-05-29T07:46:31Z</time>
      </trkpt>
      <trkpt lat="43.05077" lon="1.93472">
        <ele>378.8</ele>
        <time>2026-05-29T07:46:36Z</time>
      </trkpt>
      <trkpt lat="43.05074" lon="1.93467">
        <ele>378.5</ele>
        <time>2026-05-29T07:46:41Z</time>
      </trkpt>
      <trkpt lat="43.05069" lon="1.93462">
        <ele>378.2</ele>
        <time>2026-05-29T07:46:46Z</time>
      </trkpt>
      <trkpt lat="43.05064" lon="1.93455">
        <ele>377.8</ele>
        <time>2026-05-29T07:46:51Z</time>
      </trkpt>
      <trkpt lat="43.05059" lon="1.9345">
        <ele>377.5</ele>
        <time>2026-05-29T07:46:56Z</time>
      </trkpt>
      <trkpt lat="43.05056" lon="1.93447">
        <ele>377.3</ele>
        <time>2026-05-29T07:47:01Z</time>
      </trkpt>
      <trkpt lat="43.0505" lon="1.93449">
        <ele>377.2</ele>
        <time>2026-05-29T07:47:06Z</time>
      </trkpt>
      <trkpt lat="43.05046" lon="1.93454">
        <ele>377.2</ele>
        <time>2026-05-29T07:47:11Z</time>
      </trkpt>
      <trkpt lat="43.05042" lon="1.93455">
        <ele>377.2</ele>
        <time>2026-05-29T07:47:16Z</time>
      </trkpt>
      <trkpt lat="43.05039" lon="1.93455">
        <ele>377.1</ele>
        <time>2026-05-29T07:47:21Z</time>
      </trkpt>
      <trkpt lat="43.05039" lon="1.93455">
        <ele>377.1</ele>
        <time>2026-05-29T07:47:26Z</time>
      </trkpt>
      <trkpt lat="43.05039" lon="1.93455">
        <ele>377.1</ele>
        <time>2026-05-29T07:47:31Z</time>
      </trkpt>
      <trkpt lat="43.05039" lon="1.93455">
        <ele>377.1</ele>
        <time>2026-05-29T07:47:36Z</time>
      </trkpt>
      <trkpt lat="43.05035" lon="1.93456">
        <ele>377</ele>
        <time>2026-05-29T07:47:41Z</time>
      </trkpt>
      <trkpt lat="43.05034" lon="1.93461">
        <ele>377.1</ele>
        <time>2026-05-29T07:47:46Z</time>
      </trkpt>
      <trkpt lat="43.05033" lon="1.93463">
        <ele>377.1</ele>
        <time>2026-05-29T07:47:51Z</time>
      </trkpt>
      <trkpt lat="43.05033" lon="1.93465">
        <ele>377.2</ele>
        <time>2026-05-29T07:47:56Z</time>
      </trkpt>
      <trkpt lat="43.05034" lon="1.93465">
        <ele>377.2</ele>
        <time>2026-05-29T07:48:01Z</time>
      </trkpt>
      <trkpt lat="43.05034" lon="1.93465">
        <ele>377.2</ele>
        <time>2026-05-29T07:48:06Z</time>
      </trkpt>
      <trkpt lat="43.05028" lon="1.93473">
        <ele>377.3</ele>
        <time>2026-05-29T07:48:11Z</time>
      </trkpt>
      <trkpt lat="43.05024" lon="1.93479">
        <ele>377.3</ele>
        <time>2026-05-29T07:48:16Z</time>
      </trkpt>
      <trkpt lat="43.0502" lon="1.93484">
        <ele>377.3</ele>
        <time>2026-05-29T07:48:21Z</time>
      </trkpt>
      <trkpt lat="43.05017" lon="1.93489">
        <ele>377.3</ele>
        <time>2026-05-29T07:48:26Z</time>
      </trkpt>
      <trkpt lat="43.05018" lon="1.93495">
        <ele>377.5</ele>
        <time>2026-05-29T07:48:31Z</time>
      </trkpt>
      <trkpt lat="43.05016" lon="1.93498">
        <ele>377.5</ele>
        <time>2026-05-29T07:48:36Z</time>
      </trkpt>
      <trkpt lat="43.05014" lon="1.93503">
        <ele>377.4</ele>
        <time>2026-05-29T07:48:41Z</time>
      </trkpt>
      <trkpt lat="43.0501" lon="1.93507">
        <ele>377</ele>
        <time>2026-05-29T07:48:46Z</time>
      </trkpt>
      <trkpt lat="43.05008" lon="1.93512">
        <ele>376.7</ele>
        <time>2026-05-29T07:48:51Z</time>
      </trkpt>
      <trkpt lat="43.05005" lon="1.93519">
        <ele>376.2</ele>
        <time>2026-05-29T07:48:56Z</time>
      </trkpt>
      <trkpt lat="43.05003" lon="1.93528">
        <ele>375.5</ele>
        <time>2026-05-29T07:49:01Z</time>
      </trkpt>
      <trkpt lat="43.05002" lon="1.93533">
        <ele>375.2</ele>
        <time>2026-05-29T07:49:06Z</time>
      </trkpt>
      <trkpt lat="43.05002" lon="1.93533">
        <ele>375.2</ele>
        <time>2026-05-29T07:49:11Z</time>
      </trkpt>
      <trkpt lat="43.05002" lon="1.93533">
        <ele>375.2</ele>
        <time>2026-05-29T07:49:16Z</time>
      </trkpt>
      <trkpt lat="43.05002" lon="1.93533">
        <ele>375.2</ele>
        <time>2026-05-29T07:49:21Z</time>
      </trkpt>
      <trkpt lat="43.05002" lon="1.93533">
        <ele>375.2</ele>
        <time>2026-05-29T07:49:26Z</time>
      </trkpt>
      <trkpt lat="43.05002" lon="1.93533">
        <ele>375.2</ele>
        <time>2026-05-29T07:49:31Z</time>
      </trkpt>
      <trkpt lat="43.05002" lon="1.93533">
        <ele>375.2</ele>
        <time>2026-05-29T07:49:36Z</time>
      </trkpt>
      <trkpt lat="43.05002" lon="1.93533">
        <ele>375.2</ele>
        <time>2026-05-29T07:49:41Z</time>
      </trkpt>
      <trkpt lat="43.05002" lon="1.93533">
        <ele>375.2</ele>
        <time>2026-05-29T07:49:46Z</time>
      </trkpt>
      <trkpt lat="43.05002" lon="1.93533">
        <ele>375.2</ele>
        <time>2026-05-29T07:49:51Z</time>
      </trkpt>
      <trkpt lat="43.05002" lon="1.93533">
        <ele>375.2</ele>
        <time>2026-05-29T07:49:56Z</time>
      </trkpt>
      <trkpt lat="43.05002" lon="1.93533">
        <ele>375.2</ele>
        <time>2026-05-29T07:50:01Z</time>
      </trkpt>
      <trkpt lat="43.05002" lon="1.93533">
        <ele>375.2</ele>
        <time>2026-05-29T07:50:06Z</time>
      </trkpt>
      <trkpt lat="43.05002" lon="1.93533">
        <ele>375.2</ele>
        <time>2026-05-29T07:50:11Z</time>
      </trkpt>
      <trkpt lat="43.05002" lon="1.93533">
        <ele>375.2</ele>
        <time>2026-05-29T07:50:16Z</time>
      </trkpt>
      <trkpt lat="43.05002" lon="1.93533">
        <ele>375.2</ele>
        <time>2026-05-29T07:50:21Z</time>
      </trkpt>
      <trkpt lat="43.04993" lon="1.93539">
        <ele>373.6</ele>
        <time>2026-05-29T07:50:26Z</time>
      </trkpt>
      <trkpt lat="43.0499" lon="1.93543">
        <ele>372.9</ele>
        <time>2026-05-29T07:50:31Z</time>
      </trkpt>
      <trkpt lat="43.04985" lon="1.93545">
        <ele>372</ele>
        <time>2026-05-29T07:50:36Z</time>
      </trkpt>
      <trkpt lat="43.04983" lon="1.93547">
        <ele>371.5</ele>
        <time>2026-05-29T07:50:41Z</time>
      </trkpt>
      <trkpt lat="43.04983" lon="1.93547">
        <ele>371.5</ele>
        <time>2026-05-29T07:50:46Z</time>
      </trkpt>
      <trkpt lat="43.04983" lon="1.93547">
        <ele>371.5</ele>
        <time>2026-05-29T07:50:51Z</time>
      </trkpt>
      <trkpt lat="43.04983" lon="1.93547">
        <ele>371.5</ele>
        <time>2026-05-29T07:50:56Z</time>
      </trkpt>
      <trkpt lat="43.04983" lon="1.93547">
        <ele>371.5</ele>
        <time>2026-05-29T07:51:01Z</time>
      </trkpt>
      <trkpt lat="43.04983" lon="1.93547">
        <ele>371.5</ele>
        <time>2026-05-29T07:51:06Z</time>
      </trkpt>
      <trkpt lat="43.04983" lon="1.93547">
        <ele>371.5</ele>
        <time>2026-05-29T07:51:11Z</time>
      </trkpt>
      <trkpt lat="43.04983" lon="1.93547">
        <ele>371.5</ele>
        <time>2026-05-29T07:51:16Z</time>
      </trkpt>
      <trkpt lat="43.04983" lon="1.93547">
        <ele>371.5</ele>
        <time>2026-05-29T07:51:21Z</time>
      </trkpt>
      <trkpt lat="43.04983" lon="1.93547">
        <ele>371.5</ele>
        <time>2026-05-29T07:51:26Z</time>
      </trkpt>
      <trkpt lat="43.04983" lon="1.93547">
        <ele>371.5</ele>
        <time>2026-05-29T07:51:31Z</time>
      </trkpt>
      <trkpt lat="43.04983" lon="1.93547">
        <ele>371.5</ele>
        <time>2026-05-29T07:51:36Z</time>
      </trkpt>
      <trkpt lat="43.04983" lon="1.93547">
        <ele>371.5</ele>
        <time>2026-05-29T07:51:41Z</time>
      </trkpt>
      <trkpt lat="43.04983" lon="1.93547">
        <ele>371.5</ele>
        <time>2026-05-29T07:51:46Z</time>
      </trkpt>
      <trkpt lat="43.04983" lon="1.93547">
        <ele>371.5</ele>
        <time>2026-05-29T07:51:51Z</time>
      </trkpt>
      <trkpt lat="43.04983" lon="1.93547">
        <ele>371.5</ele>
        <time>2026-05-29T07:51:56Z</time>
      </trkpt>
      <trkpt lat="43.04983" lon="1.93547">
        <ele>371.5</ele>
        <time>2026-05-29T07:52:01Z</time>
      </trkpt>
      <trkpt lat="43.04983" lon="1.93547">
        <ele>371.5</ele>
        <time>2026-05-29T07:52:06Z</time>
      </trkpt>
      <trkpt lat="43.04983" lon="1.93547">
        <ele>371.5</ele>
        <time>2026-05-29T07:52:11Z</time>
      </trkpt>
      <trkpt lat="43.04983" lon="1.93547">
        <ele>371.5</ele>
        <time>2026-05-29T07:52:16Z</time>
      </trkpt>
      <trkpt lat="43.04983" lon="1.93547">
        <ele>371.5</ele>
        <time>2026-05-29T07:52:21Z</time>
      </trkpt>
      <trkpt lat="43.04983" lon="1.93547">
        <ele>371.5</ele>
        <time>2026-05-29T07:52:26Z</time>
      </trkpt>
      <trkpt lat="43.04983" lon="1.93547">
        <ele>371.5</ele>
        <time>2026-05-29T07:52:31Z</time>
      </trkpt>
      <trkpt lat="43.04983" lon="1.93547">
        <ele>371.5</ele>
        <time>2026-05-29T07:52:36Z</time>
      </trkpt>
      <trkpt lat="43.04983" lon="1.93547">
        <ele>371.5</ele>
        <time>2026-05-29T07:52:41Z</time>
      </trkpt>
      <trkpt lat="43.04983" lon="1.93547">
        <ele>371.5</ele>
        <time>2026-05-29T07:52:46Z</time>
      </trkpt>
      <trkpt lat="43.04983" lon="1.93547">
        <ele>371.5</ele>
        <time>2026-05-29T07:52:51Z</time>
      </trkpt>
      <trkpt lat="43.04983" lon="1.93547">
        <ele>371.5</ele>
        <time>2026-05-29T07:52:56Z</time>
      </trkpt>
      <trkpt lat="43.04983" lon="1.93547">
        <ele>371.5</ele>
        <time>2026-05-29T07:53:01Z</time>
      </trkpt>
      <trkpt lat="43.04983" lon="1.93547">
        <ele>371.5</ele>
        <time>2026-05-29T07:53:06Z</time>
      </trkpt>
      <trkpt lat="43.04983" lon="1.93547">
        <ele>371.5</ele>
        <time>2026-05-29T07:53:11Z</time>
      </trkpt>
      <trkpt lat="43.04983" lon="1.93547">
        <ele>371.5</ele>
        <time>2026-05-29T07:53:16Z</time>
      </trkpt>
      <trkpt lat="43.04983" lon="1.93547">
        <ele>371.5</ele>
        <time>2026-05-29T07:53:21Z</time>
      </trkpt>
      <trkpt lat="43.04983" lon="1.93547">
        <ele>371.5</ele>
        <time>2026-05-29T07:53:26Z</time>
      </trkpt>
      <trkpt lat="43.04983" lon="1.93547">
        <ele>371.5</ele>
        <time>2026-05-29T07:53:31Z</time>
      </trkpt>
      <trkpt lat="43.04983" lon="1.93547">
        <ele>371.5</ele>
        <time>2026-05-29T07:53:36Z</time>
      </trkpt>
      <trkpt lat="43.04983" lon="1.93547">
        <ele>371.5</ele>
        <time>2026-05-29T07:53:41Z</time>
      </trkpt>
      <trkpt lat="43.04983" lon="1.93547">
        <ele>371.5</ele>
        <time>2026-05-29T07:53:46Z</time>
      </trkpt>
      <trkpt lat="43.04983" lon="1.93547">
        <ele>371.5</ele>
        <time>2026-05-29T07:53:51Z</time>
      </trkpt>
      <trkpt lat="43.04983" lon="1.93547">
        <ele>371.5</ele>
        <time>2026-05-29T07:53:56Z</time>
      </trkpt>
      <trkpt lat="43.04983" lon="1.93547">
        <ele>371.5</ele>
        <time>2026-05-29T07:54:01Z</time>
      </trkpt>
      <trkpt lat="43.04983" lon="1.93547">
        <ele>371.5</ele>
        <time>2026-05-29T07:54:06Z</time>
      </trkpt>
      <trkpt lat="43.04983" lon="1.93547">
        <ele>371.5</ele>
        <time>2026-05-29T07:54:11Z</time>
      </trkpt>
      <trkpt lat="43.04983" lon="1.93547">
        <ele>371.5</ele>
        <time>2026-05-29T07:54:16Z</time>
      </trkpt>
      <trkpt lat="43.04983" lon="1.93547">
        <ele>371.5</ele>
        <time>2026-05-29T07:54:21Z</time>
      </trkpt>
      <trkpt lat="43.04983" lon="1.93547">
        <ele>371.5</ele>
        <time>2026-05-29T07:54:26Z</time>
      </trkpt>
      <trkpt lat="43.04983" lon="1.93547">
        <ele>371.5</ele>
        <time>2026-05-29T07:54:31Z</time>
      </trkpt>
      <trkpt lat="43.04983" lon="1.93547">
        <ele>371.5</ele>
        <time>2026-05-29T07:54:36Z</time>
      </trkpt>
      <trkpt lat="43.04983" lon="1.93547">
        <ele>371.5</ele>
        <time>2026-05-29T07:54:41Z</time>
      </trkpt>
      <trkpt lat="43.04983" lon="1.93547">
        <ele>371.5</ele>
        <time>2026-05-29T07:54:46Z</time>
      </trkpt>
      <trkpt lat="43.04983" lon="1.93547">
        <ele>371.5</ele>
        <time>2026-05-29T07:54:51Z</time>
      </trkpt>
      <trkpt lat="43.04983" lon="1.93547">
        <ele>371.5</ele>
        <time>2026-05-29T07:54:56Z</time>
      </trkpt>
      <trkpt lat="43.04983" lon="1.93547">
        <ele>371.5</ele>
        <time>2026-05-29T07:55:01Z</time>
      </trkpt>
      <trkpt lat="43.04983" lon="1.93547">
        <ele>371.5</ele>
        <time>2026-05-29T07:55:06Z</time>
      </trkpt>
      <trkpt lat="43.04983" lon="1.93547">
        <ele>371.5</ele>
        <time>2026-05-29T07:55:11Z</time>
      </trkpt>
      <trkpt lat="43.04983" lon="1.93547">
        <ele>371.5</ele>
        <time>2026-05-29T07:55:16Z</time>
      </trkpt>
      <trkpt lat="43.04983" lon="1.93547">
        <ele>371.5</ele>
        <time>2026-05-29T07:55:21Z</time>
      </trkpt>
      <trkpt lat="43.04983" lon="1.93547">
        <ele>371.5</ele>
        <time>2026-05-29T07:55:26Z</time>
      </trkpt>
      <trkpt lat="43.04983" lon="1.93547">
        <ele>371.5</ele>
        <time>2026-05-29T07:55:31Z</time>
      </trkpt>
      <trkpt lat="43.04983" lon="1.93547">
        <ele>371.5</ele>
        <time>2026-05-29T07:55:36Z</time>
      </trkpt>
      <trkpt lat="43.04983" lon="1.93547">
        <ele>371.5</ele>
        <time>2026-05-29T07:55:41Z</time>
      </trkpt>
      <trkpt lat="43.04983" lon="1.93547">
        <ele>371.5</ele>
        <time>2026-05-29T07:55:46Z</time>
      </trkpt>
      <trkpt lat="43.04983" lon="1.93547">
        <ele>371.5</ele>
        <time>2026-05-29T07:55:51Z</time>
      </trkpt>
      <trkpt lat="43.04983" lon="1.93547">
        <ele>371.5</ele>
        <time>2026-05-29T07:55:56Z</time>
      </trkpt>
      <trkpt lat="43.04983" lon="1.93547">
        <ele>371.5</ele>
        <time>2026-05-29T07:56:01Z</time>
      </trkpt>
      <trkpt lat="43.04983" lon="1.93547">
        <ele>371.5</ele>
        <time>2026-05-29T07:56:06Z</time>
      </trkpt>
      <trkpt lat="43.04983" lon="1.93547">
        <ele>371.5</ele>
        <time>2026-05-29T07:56:11Z</time>
      </trkpt>
      <trkpt lat="43.04983" lon="1.93547">
        <ele>371.5</ele>
        <time>2026-05-29T07:56:16Z</time>
      </trkpt>
      <trkpt lat="43.04983" lon="1.93547">
        <ele>371.5</ele>
        <time>2026-05-29T07:56:21Z</time>
      </trkpt>
      <trkpt lat="43.04983" lon="1.93547">
        <ele>371.5</ele>
        <time>2026-05-29T07:56:26Z</time>
      </trkpt>
      <trkpt lat="43.04983" lon="1.93547">
        <ele>371.5</ele>
        <time>2026-05-29T07:56:31Z</time>
      </trkpt>
      <trkpt lat="43.04983" lon="1.93547">
        <ele>371.5</ele>
        <time>2026-05-29T07:56:36Z</time>
      </trkpt>
      <trkpt lat="43.04983" lon="1.93547">
        <ele>371.5</ele>
        <time>2026-05-29T07:56:41Z</time>
      </trkpt>
      <trkpt lat="43.04983" lon="1.93547">
        <ele>371.5</ele>
        <time>2026-05-29T07:56:46Z</time>
      </trkpt>
      <trkpt lat="43.04983" lon="1.93547">
        <ele>371.5</ele>
        <time>2026-05-29T07:56:51Z</time>
      </trkpt>
      <trkpt lat="43.04983" lon="1.93547">
        <ele>371.5</ele>
        <time>2026-05-29T07:56:56Z</time>
      </trkpt>
      <trkpt lat="43.04983" lon="1.93547">
        <ele>371.5</ele>
        <time>2026-05-29T07:57:01Z</time>
      </trkpt>
      <trkpt lat="43.04983" lon="1.93547">
        <ele>371.5</ele>
        <time>2026-05-29T07:57:06Z</time>
      </trkpt>
      <trkpt lat="43.04983" lon="1.93547">
        <ele>371.5</ele>
        <time>2026-05-29T07:57:11Z</time>
      </trkpt>
      <trkpt lat="43.04983" lon="1.93547">
        <ele>371.5</ele>
        <time>2026-05-29T07:57:16Z</time>
      </trkpt>
      <trkpt lat="43.04983" lon="1.93547">
        <ele>371.5</ele>
        <time>2026-05-29T07:57:21Z</time>
      </trkpt>
      <trkpt lat="43.04983" lon="1.93547">
        <ele>371.5</ele>
        <time>2026-05-29T07:57:26Z</time>
      </trkpt>
      <trkpt lat="43.04983" lon="1.93547">
        <ele>371.5</ele>
        <time>2026-05-29T07:57:31Z</time>
      </trkpt>
      <trkpt lat="43.04983" lon="1.93547">
        <ele>371.5</ele>
        <time>2026-05-29T07:57:36Z</time>
      </trkpt>
      <trkpt lat="43.04983" lon="1.93547">
        <ele>371.5</ele>
        <time>2026-05-29T07:57:41Z</time>
      </trkpt>
      <trkpt lat="43.04983" lon="1.93547">
        <ele>371.5</ele>
        <time>2026-05-29T07:57:46Z</time>
      </trkpt>
      <trkpt lat="43.04983" lon="1.93547">
        <ele>371.5</ele>
        <time>2026-05-29T07:57:51Z</time>
      </trkpt>
      <trkpt lat="43.04983" lon="1.93547">
        <ele>371.5</ele>
        <time>2026-05-29T07:57:56Z</time>
      </trkpt>
      <trkpt lat="43.04983" lon="1.93547">
        <ele>371.5</ele>
        <time>2026-05-29T07:58:01Z</time>
      </trkpt>
      <trkpt lat="43.04983" lon="1.93547">
        <ele>371.5</ele>
        <time>2026-05-29T07:58:06Z</time>
      </trkpt>
      <trkpt lat="43.04983" lon="1.93547">
        <ele>371.5</ele>
        <time>2026-05-29T07:58:11Z</time>
      </trkpt>
      <trkpt lat="43.04983" lon="1.93547">
        <ele>371.5</ele>
        <time>2026-05-29T07:58:16Z</time>
      </trkpt>
      <trkpt lat="43.04983" lon="1.93547">
        <ele>371.5</ele>
        <time>2026-05-29T07:58:21Z</time>
      </trkpt>
      <trkpt lat="43.04983" lon="1.93547">
        <ele>371.5</ele>
        <time>2026-05-29T07:58:26Z</time>
      </trkpt>
      <trkpt lat="43.04983" lon="1.93547">
        <ele>371.5</ele>
        <time>2026-05-29T07:58:31Z</time>
      </trkpt>
      <trkpt lat="43.04983" lon="1.93547">
        <ele>371.5</ele>
        <time>2026-05-29T07:58:36Z</time>
      </trkpt>
      <trkpt lat="43.04983" lon="1.93547">
        <ele>371.5</ele>
        <time>2026-05-29T07:58:41Z</time>
      </trkpt>
      <trkpt lat="43.04983" lon="1.93547">
        <ele>371.5</ele>
        <time>2026-05-29T07:58:46Z</time>
      </trkpt>
      <trkpt lat="43.04983" lon="1.93547">
        <ele>371.5</ele>
        <time>2026-05-29T07:58:51Z</time>
      </trkpt>
      <trkpt lat="43.04983" lon="1.93547">
        <ele>371.5</ele>
        <time>2026-05-29T07:58:56Z</time>
      </trkpt>
      <trkpt lat="43.04983" lon="1.93547">
        <ele>371.5</ele>
        <time>2026-05-29T07:59:01Z</time>
      </trkpt>
      <trkpt lat="43.04983" lon="1.93547">
        <ele>371.5</ele>
        <time>2026-05-29T07:59:06Z</time>
      </trkpt>
      <trkpt lat="43.04983" lon="1.93547">
        <ele>371.5</ele>
        <time>2026-05-29T07:59:11Z</time>
      </trkpt>
      <trkpt lat="43.04983" lon="1.93547">
        <ele>371.5</ele>
        <time>2026-05-29T07:59:16Z</time>
      </trkpt>
      <trkpt lat="43.04983" lon="1.93547">
        <ele>371.5</ele>
        <time>2026-05-29T07:59:21Z</time>
      </trkpt>
      <trkpt lat="43.04983" lon="1.93547">
        <ele>371.5</ele>
        <time>2026-05-29T07:59:26Z</time>
      </trkpt>
      <trkpt lat="43.04983" lon="1.93547">
        <ele>371.5</ele>
        <time>2026-05-29T07:59:31Z</time>
      </trkpt>
      <trkpt lat="43.04983" lon="1.93547">
        <ele>371.5</ele>
        <time>2026-05-29T07:59:36Z</time>
      </trkpt>
      <trkpt lat="43.04983" lon="1.93547">
        <ele>371.5</ele>
        <time>2026-05-29T07:59:41Z</time>
      </trkpt>
      <trkpt lat="43.04983" lon="1.93547">
        <ele>371.5</ele>
        <time>2026-05-29T07:59:46Z</time>
      </trkpt>
      <trkpt lat="43.04983" lon="1.93547">
        <ele>371.5</ele>
        <time>2026-05-29T07:59:51Z</time>
      </trkpt>
      <trkpt lat="43.04983" lon="1.93547">
        <ele>371.5</ele>
        <time>2026-05-29T07:59:56Z</time>
      </trkpt>
      <trkpt lat="43.04983" lon="1.93547">
        <ele>371.5</ele>
        <time>2026-05-29T08:00:01Z</time>
      </trkpt>
      <trkpt lat="43.04983" lon="1.93547">
        <ele>371.5</ele>
        <time>2026-05-29T08:00:06Z</time>
      </trkpt>
      <trkpt lat="43.04983" lon="1.93547">
        <ele>371.5</ele>
        <time>2026-05-29T08:00:11Z</time>
      </trkpt>
      <trkpt lat="43.04983" lon="1.93547">
        <ele>371.5</ele>
        <time>2026-05-29T08:00:16Z</time>
      </trkpt>
      <trkpt lat="43.04983" lon="1.93547">
        <ele>371.5</ele>
        <time>2026-05-29T08:00:21Z</time>
      </trkpt>
      <trkpt lat="43.04983" lon="1.93547">
        <ele>371.5</ele>
        <time>2026-05-29T08:00:26Z</time>
      </trkpt>
      <trkpt lat="43.04983" lon="1.93547">
        <ele>371.5</ele>
        <time>2026-05-29T08:00:31Z</time>
      </trkpt>
      <trkpt lat="43.04983" lon="1.93547">
        <ele>371.5</ele>
        <time>2026-05-29T08:00:36Z</time>
      </trkpt>
      <trkpt lat="43.04983" lon="1.93547">
        <ele>371.5</ele>
        <time>2026-05-29T08:00:41Z</time>
      </trkpt>
      <trkpt lat="43.04983" lon="1.93547">
        <ele>371.5</ele>
        <time>2026-05-29T08:00:46Z</time>
      </trkpt>
      <trkpt lat="43.04983" lon="1.93547">
        <ele>371.5</ele>
        <time>2026-05-29T08:00:51Z</time>
      </trkpt>
      <trkpt lat="43.04983" lon="1.93547">
        <ele>371.5</ele>
        <time>2026-05-29T08:00:56Z</time>
      </trkpt>
      <trkpt lat="43.04983" lon="1.93547">
        <ele>371.5</ele>
        <time>2026-05-29T08:01:01Z</time>
      </trkpt>
      <trkpt lat="43.04983" lon="1.93547">
        <ele>371.5</ele>
        <time>2026-05-29T08:01:06Z</time>
      </trkpt>
      <trkpt lat="43.04983" lon="1.93547">
        <ele>371.5</ele>
        <time>2026-05-29T08:01:11Z</time>
      </trkpt>
      <trkpt lat="43.04983" lon="1.93547">
        <ele>371.5</ele>
        <time>2026-05-29T08:01:16Z</time>
      </trkpt>
      <trkpt lat="43.04983" lon="1.93547">
        <ele>371.5</ele>
        <time>2026-05-29T08:01:21Z</time>
      </trkpt>
      <trkpt lat="43.04983" lon="1.93547">
        <ele>371.5</ele>
        <time>2026-05-29T08:01:26Z</time>
      </trkpt>
      <trkpt lat="43.04983" lon="1.93547">
        <ele>371.5</ele>
        <time>2026-05-29T08:01:31Z</time>
      </trkpt>
      <trkpt lat="43.04983" lon="1.93547">
        <ele>371.5</ele>
        <time>2026-05-29T08:01:36Z</time>
      </trkpt>
      <trkpt lat="43.04983" lon="1.93547">
        <ele>371.5</ele>
        <time>2026-05-29T08:01:41Z</time>
      </trkpt>
      <trkpt lat="43.04983" lon="1.93547">
        <ele>371.5</ele>
        <time>2026-05-29T08:01:46Z</time>
      </trkpt>
      <trkpt lat="43.04983" lon="1.93547">
        <ele>371.5</ele>
        <time>2026-05-29T08:01:51Z</time>
      </trkpt>
      <trkpt lat="43.04983" lon="1.93547">
        <ele>371.5</ele>
        <time>2026-05-29T08:01:56Z</time>
      </trkpt>
      <trkpt lat="43.04983" lon="1.93547">
        <ele>371.5</ele>
        <time>2026-05-29T08:02:01Z</time>
      </trkpt>
      <trkpt lat="43.04983" lon="1.93547">
        <ele>371.5</ele>
        <time>2026-05-29T08:02:06Z</time>
      </trkpt>
      <trkpt lat="43.04983" lon="1.93547">
        <ele>371.5</ele>
        <time>2026-05-29T08:02:11Z</time>
      </trkpt>
      <trkpt lat="43.04983" lon="1.93547">
        <ele>371.5</ele>
        <time>2026-05-29T08:02:16Z</time>
      </trkpt>
      <trkpt lat="43.04983" lon="1.93547">
        <ele>371.5</ele>
        <time>2026-05-29T08:02:21Z</time>
      </trkpt>
      <trkpt lat="43.04983" lon="1.93547">
        <ele>371.5</ele>
        <time>2026-05-29T08:02:26Z</time>
      </trkpt>
      <trkpt lat="43.04983" lon="1.93547">
        <ele>371.5</ele>
        <time>2026-05-29T08:02:31Z</time>
      </trkpt>
      <trkpt lat="43.04983" lon="1.93547">
        <ele>371.5</ele>
        <time>2026-05-29T08:02:36Z</time>
      </trkpt>
      <trkpt lat="43.04983" lon="1.93547">
        <ele>371.5</ele>
        <time>2026-05-29T08:02:41Z</time>
      </trkpt>
      <trkpt lat="43.04983" lon="1.93547">
        <ele>371.5</ele>
        <time>2026-05-29T08:02:46Z</time>
      </trkpt>
      <trkpt lat="43.04983" lon="1.93547">
        <ele>371.5</ele>
        <time>2026-05-29T08:02:51Z</time>
      </trkpt>
      <trkpt lat="43.04983" lon="1.93547">
        <ele>371.5</ele>
        <time>2026-05-29T08:02:56Z</time>
      </trkpt>
      <trkpt lat="43.04983" lon="1.93547">
        <ele>371.5</ele>
        <time>2026-05-29T08:03:01Z</time>
      </trkpt>
      <trkpt lat="43.04983" lon="1.93547">
        <ele>371.5</ele>
        <time>2026-05-29T08:03:06Z</time>
      </trkpt>
      <trkpt lat="43.04983" lon="1.93547">
        <ele>371.5</ele>
        <time>2026-05-29T08:03:11Z</time>
      </trkpt>
      <trkpt lat="43.04983" lon="1.93547">
        <ele>371.5</ele>
        <time>2026-05-29T08:03:16Z</time>
      </trkpt>
      <trkpt lat="43.04983" lon="1.93547">
        <ele>371.5</ele>
        <time>2026-05-29T08:03:21Z</time>
      </trkpt>
      <trkpt lat="43.04983" lon="1.93547">
        <ele>371.5</ele>
        <time>2026-05-29T08:03:26Z</time>
      </trkpt>
      <trkpt lat="43.04983" lon="1.93547">
        <ele>371.5</ele>
        <time>2026-05-29T08:03:31Z</time>
      </trkpt>
      <trkpt lat="43.04984" lon="1.93547">
        <ele>371.7</ele>
        <time>2026-05-29T08:03:36Z</time>
      </trkpt>
      <trkpt lat="43.04984" lon="1.93547">
        <ele>371.7</ele>
        <time>2026-05-29T08:03:41Z</time>
      </trkpt>
      <trkpt lat="43.04984" lon="1.93547">
        <ele>371.7</ele>
        <time>2026-05-29T08:03:46Z</time>
      </trkpt>
      <trkpt lat="43.04984" lon="1.93547">
        <ele>371.7</ele>
        <time>2026-05-29T08:03:51Z</time>
      </trkpt>
      <trkpt lat="43.04984" lon="1.93547">
        <ele>371.7</ele>
        <time>2026-05-29T08:03:56Z</time>
      </trkpt>
      <trkpt lat="43.04984" lon="1.93547">
        <ele>371.7</ele>
        <time>2026-05-29T08:04:01Z</time>
      </trkpt>
      <trkpt lat="43.04984" lon="1.93547">
        <ele>371.7</ele>
        <time>2026-05-29T08:04:06Z</time>
      </trkpt>
      <trkpt lat="43.04984" lon="1.93547">
        <ele>371.7</ele>
        <time>2026-05-29T08:04:11Z</time>
      </trkpt>
      <trkpt lat="43.04984" lon="1.93547">
        <ele>371.7</ele>
        <time>2026-05-29T08:04:16Z</time>
      </trkpt>
      <trkpt lat="43.04984" lon="1.93547">
        <ele>371.7</ele>
        <time>2026-05-29T08:04:21Z</time>
      </trkpt>
      <trkpt lat="43.04984" lon="1.93547">
        <ele>371.7</ele>
        <time>2026-05-29T08:04:26Z</time>
      </trkpt>
      <trkpt lat="43.04984" lon="1.93547">
        <ele>371.7</ele>
        <time>2026-05-29T08:04:31Z</time>
      </trkpt>
      <trkpt lat="43.04984" lon="1.93547">
        <ele>371.7</ele>
        <time>2026-05-29T08:04:36Z</time>
      </trkpt>
      <trkpt lat="43.04984" lon="1.93547">
        <ele>371.7</ele>
        <time>2026-05-29T08:04:41Z</time>
      </trkpt>
      <trkpt lat="43.04984" lon="1.93547">
        <ele>371.7</ele>
        <time>2026-05-29T08:04:46Z</time>
      </trkpt>
      <trkpt lat="43.04984" lon="1.93547">
        <ele>371.7</ele>
        <time>2026-05-29T08:04:51Z</time>
      </trkpt>
      <trkpt lat="43.04984" lon="1.93547">
        <ele>371.7</ele>
        <time>2026-05-29T08:04:56Z</time>
      </trkpt>
      <trkpt lat="43.04984" lon="1.93547">
        <ele>371.7</ele>
        <time>2026-05-29T08:05:01Z</time>
      </trkpt>
      <trkpt lat="43.04984" lon="1.93547">
        <ele>371.7</ele>
        <time>2026-05-29T08:05:06Z</time>
      </trkpt>
      <trkpt lat="43.04984" lon="1.93547">
        <ele>371.7</ele>
        <time>2026-05-29T08:05:11Z</time>
      </trkpt>
      <trkpt lat="43.04984" lon="1.93547">
        <ele>371.7</ele>
        <time>2026-05-29T08:05:16Z</time>
      </trkpt>
      <trkpt lat="43.04984" lon="1.93547">
        <ele>371.7</ele>
        <time>2026-05-29T08:05:21Z</time>
      </trkpt>
      <trkpt lat="43.04984" lon="1.93547">
        <ele>371.7</ele>
        <time>2026-05-29T08:05:26Z</time>
      </trkpt>
      <trkpt lat="43.04984" lon="1.93547">
        <ele>371.7</ele>
        <time>2026-05-29T08:05:31Z</time>
      </trkpt>
      <trkpt lat="43.04984" lon="1.93547">
        <ele>371.7</ele>
        <time>2026-05-29T08:05:36Z</time>
      </trkpt>
      <trkpt lat="43.04984" lon="1.93547">
        <ele>371.7</ele>
        <time>2026-05-29T08:05:41Z</time>
      </trkpt>
      <trkpt lat="43.04984" lon="1.93547">
        <ele>371.7</ele>
        <time>2026-05-29T08:05:46Z</time>
      </trkpt>
      <trkpt lat="43.04984" lon="1.93547">
        <ele>371.7</ele>
        <time>2026-05-29T08:05:51Z</time>
      </trkpt>
      <trkpt lat="43.04984" lon="1.93547">
        <ele>371.7</ele>
        <time>2026-05-29T08:05:56Z</time>
      </trkpt>
      <trkpt lat="43.04984" lon="1.93547">
        <ele>371.7</ele>
        <time>2026-05-29T08:06:01Z</time>
      </trkpt>
      <trkpt lat="43.04984" lon="1.93547">
        <ele>371.7</ele>
        <time>2026-05-29T08:06:06Z</time>
      </trkpt>
      <trkpt lat="43.04984" lon="1.93547">
        <ele>371.7</ele>
        <time>2026-05-29T08:06:11Z</time>
      </trkpt>
      <trkpt lat="43.04984" lon="1.93547">
        <ele>371.7</ele>
        <time>2026-05-29T08:06:16Z</time>
      </trkpt>
      <trkpt lat="43.04984" lon="1.93547">
        <ele>371.7</ele>
        <time>2026-05-29T08:06:21Z</time>
      </trkpt>
      <trkpt lat="43.04984" lon="1.93547">
        <ele>371.7</ele>
        <time>2026-05-29T08:06:26Z</time>
      </trkpt>
      <trkpt lat="43.04984" lon="1.93547">
        <ele>371.7</ele>
        <time>2026-05-29T08:06:31Z</time>
      </trkpt>
      <trkpt lat="43.04984" lon="1.93547">
        <ele>371.7</ele>
        <time>2026-05-29T08:06:36Z</time>
      </trkpt>
      <trkpt lat="43.04984" lon="1.93547">
        <ele>371.7</ele>
        <time>2026-05-29T08:06:41Z</time>
      </trkpt>
      <trkpt lat="43.04984" lon="1.93547">
        <ele>371.7</ele>
        <time>2026-05-29T08:06:46Z</time>
      </trkpt>
      <trkpt lat="43.04984" lon="1.93547">
        <ele>371.7</ele>
        <time>2026-05-29T08:06:51Z</time>
      </trkpt>
      <trkpt lat="43.04984" lon="1.93547">
        <ele>371.7</ele>
        <time>2026-05-29T08:06:56Z</time>
      </trkpt>
      <trkpt lat="43.04984" lon="1.93547">
        <ele>371.7</ele>
        <time>2026-05-29T08:07:01Z</time>
      </trkpt>
      <trkpt lat="43.04984" lon="1.93547">
        <ele>371.7</ele>
        <time>2026-05-29T08:07:06Z</time>
      </trkpt>
      <trkpt lat="43.04984" lon="1.93547">
        <ele>371.7</ele>
        <time>2026-05-29T08:07:11Z</time>
      </trkpt>
      <trkpt lat="43.04984" lon="1.93547">
        <ele>371.7</ele>
        <time>2026-05-29T08:07:16Z</time>
      </trkpt>
      <trkpt lat="43.04984" lon="1.93547">
        <ele>371.7</ele>
        <time>2026-05-29T08:07:21Z</time>
      </trkpt>
      <trkpt lat="43.04984" lon="1.93547">
        <ele>371.7</ele>
        <time>2026-05-29T08:07:26Z</time>
      </trkpt>
      <trkpt lat="43.04984" lon="1.93547">
        <ele>371.7</ele>
        <time>2026-05-29T08:07:31Z</time>
      </trkpt>
      <trkpt lat="43.04984" lon="1.93547">
        <ele>371.7</ele>
        <time>2026-05-29T08:07:36Z</time>
      </trkpt>
      <trkpt lat="43.04984" lon="1.93547">
        <ele>371.7</ele>
        <time>2026-05-29T08:07:41Z</time>
      </trkpt>
      <trkpt lat="43.04984" lon="1.93547">
        <ele>371.7</ele>
        <time>2026-05-29T08:07:46Z</time>
      </trkpt>
      <trkpt lat="43.04984" lon="1.93547">
        <ele>371.7</ele>
        <time>2026-05-29T08:07:51Z</time>
      </trkpt>
      <trkpt lat="43.04984" lon="1.93547">
        <ele>371.7</ele>
        <time>2026-05-29T08:07:56Z</time>
      </trkpt>
      <trkpt lat="43.04984" lon="1.93547">
        <ele>371.7</ele>
        <time>2026-05-29T08:08:01Z</time>
      </trkpt>
      <trkpt lat="43.04984" lon="1.93547">
        <ele>371.7</ele>
        <time>2026-05-29T08:08:06Z</time>
      </trkpt>
      <trkpt lat="43.04984" lon="1.93547">
        <ele>371.7</ele>
        <time>2026-05-29T08:08:11Z</time>
      </trkpt>
      <trkpt lat="43.04984" lon="1.93547">
        <ele>371.7</ele>
        <time>2026-05-29T08:08:16Z</time>
      </trkpt>
      <trkpt lat="43.04984" lon="1.93547">
        <ele>371.7</ele>
        <time>2026-05-29T08:08:21Z</time>
      </trkpt>
      <trkpt lat="43.04984" lon="1.93547">
        <ele>371.7</ele>
        <time>2026-05-29T08:08:26Z</time>
      </trkpt>
      <trkpt lat="43.04984" lon="1.93547">
        <ele>371.7</ele>
        <time>2026-05-29T08:08:31Z</time>
      </trkpt>
      <trkpt lat="43.04984" lon="1.93547">
        <ele>371.7</ele>
        <time>2026-05-29T08:08:36Z</time>
      </trkpt>
      <trkpt lat="43.04984" lon="1.93547">
        <ele>371.7</ele>
        <time>2026-05-29T08:08:41Z</time>
      </trkpt>
      <trkpt lat="43.04984" lon="1.93547">
        <ele>371.7</ele>
        <time>2026-05-29T08:08:46Z</time>
      </trkpt>
      <trkpt lat="43.04984" lon="1.93547">
        <ele>371.7</ele>
        <time>2026-05-29T08:08:51Z</time>
      </trkpt>
      <trkpt lat="43.04984" lon="1.93547">
        <ele>371.7</ele>
        <time>2026-05-29T08:08:56Z</time>
      </trkpt>
      <trkpt lat="43.04984" lon="1.93547">
        <ele>371.7</ele>
        <time>2026-05-29T08:09:01Z</time>
      </trkpt>
      <trkpt lat="43.04984" lon="1.93547">
        <ele>371.7</ele>
        <time>2026-05-29T08:09:06Z</time>
      </trkpt>
      <trkpt lat="43.04984" lon="1.93547">
        <ele>371.7</ele>
        <time>2026-05-29T08:09:11Z</time>
      </trkpt>
      <trkpt lat="43.04984" lon="1.93547">
        <ele>371.7</ele>
        <time>2026-05-29T08:09:16Z</time>
      </trkpt>
      <trkpt lat="43.04984" lon="1.93547">
        <ele>371.7</ele>
        <time>2026-05-29T08:09:21Z</time>
      </trkpt>
      <trkpt lat="43.04984" lon="1.93547">
        <ele>371.7</ele>
        <time>2026-05-29T08:09:26Z</time>
      </trkpt>
      <trkpt lat="43.04984" lon="1.93547">
        <ele>371.7</ele>
        <time>2026-05-29T08:09:31Z</time>
      </trkpt>
      <trkpt lat="43.04984" lon="1.93547">
        <ele>371.7</ele>
        <time>2026-05-29T08:09:36Z</time>
      </trkpt>
      <trkpt lat="43.04984" lon="1.93547">
        <ele>371.7</ele>
        <time>2026-05-29T08:09:41Z</time>
      </trkpt>
      <trkpt lat="43.04984" lon="1.93547">
        <ele>371.7</ele>
        <time>2026-05-29T08:09:46Z</time>
      </trkpt>
      <trkpt lat="43.04984" lon="1.93547">
        <ele>371.7</ele>
        <time>2026-05-29T08:09:51Z</time>
      </trkpt>
      <trkpt lat="43.04984" lon="1.93547">
        <ele>371.7</ele>
        <time>2026-05-29T08:09:56Z</time>
      </trkpt>
      <trkpt lat="43.04984" lon="1.93547">
        <ele>371.7</ele>
        <time>2026-05-29T08:10:01Z</time>
      </trkpt>
      <trkpt lat="43.04984" lon="1.93547">
        <ele>371.7</ele>
        <time>2026-05-29T08:10:06Z</time>
      </trkpt>
      <trkpt lat="43.04984" lon="1.93547">
        <ele>371.7</ele>
        <time>2026-05-29T08:10:11Z</time>
      </trkpt>
      <trkpt lat="43.04984" lon="1.93547">
        <ele>371.7</ele>
        <time>2026-05-29T08:10:16Z</time>
      </trkpt>
      <trkpt lat="43.04984" lon="1.93547">
        <ele>371.7</ele>
        <time>2026-05-29T08:10:21Z</time>
      </trkpt>
      <trkpt lat="43.04984" lon="1.93547">
        <ele>371.7</ele>
        <time>2026-05-29T08:10:26Z</time>
      </trkpt>
      <trkpt lat="43.04984" lon="1.93547">
        <ele>371.7</ele>
        <time>2026-05-29T08:10:31Z</time>
      </trkpt>
      <trkpt lat="43.04984" lon="1.93547">
        <ele>371.7</ele>
        <time>2026-05-29T08:10:36Z</time>
      </trkpt>
      <trkpt lat="43.04984" lon="1.93547">
        <ele>371.7</ele>
        <time>2026-05-29T08:10:41Z</time>
      </trkpt>
      <trkpt lat="43.04984" lon="1.93547">
        <ele>371.7</ele>
        <time>2026-05-29T08:10:46Z</time>
      </trkpt>
      <trkpt lat="43.04984" lon="1.93547">
        <ele>371.7</ele>
        <time>2026-05-29T08:10:51Z</time>
      </trkpt>
      <trkpt lat="43.04984" lon="1.93547">
        <ele>371.7</ele>
        <time>2026-05-29T08:10:56Z</time>
      </trkpt>
      <trkpt lat="43.04984" lon="1.93547">
        <ele>371.7</ele>
        <time>2026-05-29T08:11:01Z</time>
      </trkpt>
      <trkpt lat="43.04984" lon="1.93547">
        <ele>371.7</ele>
        <time>2026-05-29T08:11:06Z</time>
      </trkpt>
      <trkpt lat="43.04984" lon="1.93547">
        <ele>371.7</ele>
        <time>2026-05-29T08:11:11Z</time>
      </trkpt>
      <trkpt lat="43.04984" lon="1.93547">
        <ele>371.7</ele>
        <time>2026-05-29T08:11:16Z</time>
      </trkpt>
      <trkpt lat="43.04984" lon="1.93547">
        <ele>371.7</ele>
        <time>2026-05-29T08:11:21Z</time>
      </trkpt>
      <trkpt lat="43.04984" lon="1.93547">
        <ele>371.7</ele>
        <time>2026-05-29T08:11:26Z</time>
      </trkpt>
      <trkpt lat="43.04984" lon="1.93547">
        <ele>371.7</ele>
        <time>2026-05-29T08:11:31Z</time>
      </trkpt>
      <trkpt lat="43.04984" lon="1.93547">
        <ele>371.7</ele>
        <time>2026-05-29T08:11:36Z</time>
      </trkpt>
      <trkpt lat="43.04984" lon="1.93547">
        <ele>371.7</ele>
        <time>2026-05-29T08:11:41Z</time>
      </trkpt>
      <trkpt lat="43.04984" lon="1.93547">
        <ele>371.7</ele>
        <time>2026-05-29T08:11:46Z</time>
      </trkpt>
      <trkpt lat="43.04984" lon="1.93547">
        <ele>371.7</ele>
        <time>2026-05-29T08:11:51Z</time>
      </trkpt>
      <trkpt lat="43.04984" lon="1.93547">
        <ele>371.7</ele>
        <time>2026-05-29T08:11:56Z</time>
      </trkpt>
      <trkpt lat="43.04984" lon="1.93547">
        <ele>371.7</ele>
        <time>2026-05-29T08:12:01Z</time>
      </trkpt>
      <trkpt lat="43.04984" lon="1.93547">
        <ele>371.7</ele>
        <time>2026-05-29T08:12:06Z</time>
      </trkpt>
      <trkpt lat="43.04984" lon="1.93547">
        <ele>371.7</ele>
        <time>2026-05-29T08:12:11Z</time>
      </trkpt>
      <trkpt lat="43.04984" lon="1.93547">
        <ele>371.7</ele>
        <time>2026-05-29T08:12:11Z</time>
      </trkpt>
      <trkpt lat="43.0499" lon="1.93538">
        <ele>373.2</ele>
        <time>2026-05-29T08:12:23Z</time>
      </trkpt>
      <trkpt lat="43.04991" lon="1.93537">
        <ele>373.4</ele>
        <time>2026-05-29T08:12:29Z</time>
      </trkpt>
      <trkpt lat="43.04994" lon="1.93536">
        <ele>373.9</ele>
        <time>2026-05-29T08:12:34Z</time>
      </trkpt>
      <trkpt lat="43.04995" lon="1.93534">
        <ele>374.2</ele>
        <time>2026-05-29T08:12:39Z</time>
      </trkpt>
      <trkpt lat="43.04993" lon="1.93532">
        <ele>374</ele>
        <time>2026-05-29T08:12:44Z</time>
      </trkpt>
      <trkpt lat="43.0499" lon="1.93527">
        <ele>373.8</ele>
        <time>2026-05-29T08:12:49Z</time>
      </trkpt>
      <trkpt lat="43.04988" lon="1.93525">
        <ele>373.6</ele>
        <time>2026-05-29T08:12:54Z</time>
      </trkpt>
      <trkpt lat="43.04986" lon="1.93527">
        <ele>373.2</ele>
        <time>2026-05-29T08:12:59Z</time>
      </trkpt>
      <trkpt lat="43.04983" lon="1.93531">
        <ele>372.5</ele>
        <time>2026-05-29T08:13:04Z</time>
      </trkpt>
      <trkpt lat="43.04981" lon="1.93536">
        <ele>371.9</ele>
        <time>2026-05-29T08:13:09Z</time>
      </trkpt>
      <trkpt lat="43.04979" lon="1.93542">
        <ele>371.2</ele>
        <time>2026-05-29T08:13:14Z</time>
      </trkpt>
      <trkpt lat="43.04977" lon="1.93549">
        <ele>370.5</ele>
        <time>2026-05-29T08:13:19Z</time>
      </trkpt>
      <trkpt lat="43.04973" lon="1.93556">
        <ele>369.4</ele>
        <time>2026-05-29T08:13:24Z</time>
      </trkpt>
      <trkpt lat="43.04972" lon="1.93564">
        <ele>368.8</ele>
        <time>2026-05-29T08:13:29Z</time>
      </trkpt>
      <trkpt lat="43.04968" lon="1.93572">
        <ele>367.7</ele>
        <time>2026-05-29T08:13:34Z</time>
      </trkpt>
      <trkpt lat="43.04966" lon="1.93579">
        <ele>367</ele>
        <time>2026-05-29T08:13:39Z</time>
      </trkpt>
      <trkpt lat="43.04964" lon="1.93586">
        <ele>366</ele>
        <time>2026-05-29T08:13:44Z</time>
      </trkpt>
      <trkpt lat="43.04964" lon="1.93592">
        <ele>365.2</ele>
        <time>2026-05-29T08:13:49Z</time>
      </trkpt>
      <trkpt lat="43.04961" lon="1.93598">
        <ele>364</ele>
        <time>2026-05-29T08:13:54Z</time>
      </trkpt>
      <trkpt lat="43.04958" lon="1.93601">
        <ele>363.1</ele>
        <time>2026-05-29T08:13:59Z</time>
      </trkpt>
      <trkpt lat="43.04954" lon="1.93602">
        <ele>362.4</ele>
        <time>2026-05-29T08:14:04Z</time>
      </trkpt>
      <trkpt lat="43.04951" lon="1.93604">
        <ele>361.6</ele>
        <time>2026-05-29T08:14:09Z</time>
      </trkpt>
      <trkpt lat="43.04946" lon="1.93602">
        <ele>361.1</ele>
        <time>2026-05-29T08:14:14Z</time>
      </trkpt>
      <trkpt lat="43.04946" lon="1.93598">
        <ele>361.6</ele>
        <time>2026-05-29T08:14:19Z</time>
      </trkpt>
      <trkpt lat="43.04947" lon="1.93591">
        <ele>362.7</ele>
        <time>2026-05-29T08:14:24Z</time>
      </trkpt>
      <trkpt lat="43.04948" lon="1.93584">
        <ele>363.8</ele>
        <time>2026-05-29T08:14:29Z</time>
      </trkpt>
      <trkpt lat="43.04949" lon="1.93576">
        <ele>364.5</ele>
        <time>2026-05-29T08:14:34Z</time>
      </trkpt>
      <trkpt lat="43.0495" lon="1.9357">
        <ele>365</ele>
        <time>2026-05-29T08:14:39Z</time>
      </trkpt>
      <trkpt lat="43.04953" lon="1.93564">
        <ele>365.8</ele>
        <time>2026-05-29T08:14:44Z</time>
      </trkpt>
      <trkpt lat="43.04955" lon="1.93553">
        <ele>366.8</ele>
        <time>2026-05-29T08:14:49Z</time>
      </trkpt>
      <trkpt lat="43.04957" lon="1.93541">
        <ele>367.8</ele>
        <time>2026-05-29T08:14:54Z</time>
      </trkpt>
      <trkpt lat="43.04957" lon="1.93535">
        <ele>368.2</ele>
        <time>2026-05-29T08:14:59Z</time>
      </trkpt>
      <trkpt lat="43.04959" lon="1.93529">
        <ele>368.9</ele>
        <time>2026-05-29T08:15:04Z</time>
      </trkpt>
      <trkpt lat="43.04962" lon="1.9352">
        <ele>369.9</ele>
        <time>2026-05-29T08:15:09Z</time>
      </trkpt>
      <trkpt lat="43.04963" lon="1.93515">
        <ele>370.3</ele>
        <time>2026-05-29T08:15:14Z</time>
      </trkpt>
      <trkpt lat="43.04964" lon="1.93512">
        <ele>370.7</ele>
        <time>2026-05-29T08:15:19Z</time>
      </trkpt>
      <trkpt lat="43.04956" lon="1.93507">
        <ele>369.7</ele>
        <time>2026-05-29T08:15:24Z</time>
      </trkpt>
      <trkpt lat="43.04951" lon="1.93504">
        <ele>369.1</ele>
        <time>2026-05-29T08:15:29Z</time>
      </trkpt>
      <trkpt lat="43.04951" lon="1.935">
        <ele>369.4</ele>
        <time>2026-05-29T08:15:34Z</time>
      </trkpt>
      <trkpt lat="43.04953" lon="1.93493">
        <ele>369.8</ele>
        <time>2026-05-29T08:15:39Z</time>
      </trkpt>
      <trkpt lat="43.04954" lon="1.93485">
        <ele>370.2</ele>
        <time>2026-05-29T08:15:44Z</time>
      </trkpt>
      <trkpt lat="43.04956" lon="1.93478">
        <ele>370.6</ele>
        <time>2026-05-29T08:15:49Z</time>
      </trkpt>
      <trkpt lat="43.04957" lon="1.93476">
        <ele>370.8</ele>
        <time>2026-05-29T08:15:54Z</time>
      </trkpt>
      <trkpt lat="43.0496" lon="1.93478">
        <ele>371.1</ele>
        <time>2026-05-29T08:15:59Z</time>
      </trkpt>
      <trkpt lat="43.04964" lon="1.93484">
        <ele>371.6</ele>
        <time>2026-05-29T08:16:04Z</time>
      </trkpt>
      <trkpt lat="43.04967" lon="1.93485">
        <ele>372</ele>
        <time>2026-05-29T08:16:09Z</time>
      </trkpt>
      <trkpt lat="43.04967" lon="1.93485">
        <ele>372</ele>
        <time>2026-05-29T08:16:14Z</time>
      </trkpt>
      <trkpt lat="43.04968" lon="1.93485">
        <ele>372.1</ele>
        <time>2026-05-29T08:16:19Z</time>
      </trkpt>
      <trkpt lat="43.04968" lon="1.93485">
        <ele>372.1</ele>
        <time>2026-05-29T08:16:24Z</time>
      </trkpt>
      <trkpt lat="43.04968" lon="1.93485">
        <ele>372.1</ele>
        <time>2026-05-29T08:16:29Z</time>
      </trkpt>
      <trkpt lat="43.04968" lon="1.93485">
        <ele>372.1</ele>
        <time>2026-05-29T08:16:34Z</time>
      </trkpt>
      <trkpt lat="43.04968" lon="1.93485">
        <ele>372.1</ele>
        <time>2026-05-29T08:16:39Z</time>
      </trkpt>
      <trkpt lat="43.04968" lon="1.93485">
        <ele>372.1</ele>
        <time>2026-05-29T08:16:44Z</time>
      </trkpt>
      <trkpt lat="43.04968" lon="1.93485">
        <ele>372.1</ele>
        <time>2026-05-29T08:16:49Z</time>
      </trkpt>
      <trkpt lat="43.04968" lon="1.93485">
        <ele>372.1</ele>
        <time>2026-05-29T08:16:54Z</time>
      </trkpt>
      <trkpt lat="43.04968" lon="1.93485">
        <ele>372.1</ele>
        <time>2026-05-29T08:16:59Z</time>
      </trkpt>
      <trkpt lat="43.04968" lon="1.93485">
        <ele>372.1</ele>
        <time>2026-05-29T08:17:04Z</time>
      </trkpt>
      <trkpt lat="43.04968" lon="1.93485">
        <ele>372.1</ele>
        <time>2026-05-29T08:17:09Z</time>
      </trkpt>
      <trkpt lat="43.04968" lon="1.93485">
        <ele>372.1</ele>
        <time>2026-05-29T08:17:14Z</time>
      </trkpt>
      <trkpt lat="43.04964" lon="1.93478">
        <ele>371.7</ele>
        <time>2026-05-29T08:17:19Z</time>
      </trkpt>
      <trkpt lat="43.0496" lon="1.93473">
        <ele>371.2</ele>
        <time>2026-05-29T08:17:24Z</time>
      </trkpt>
      <trkpt lat="43.04959" lon="1.93473">
        <ele>371.1</ele>
        <time>2026-05-29T08:17:29Z</time>
      </trkpt>
      <trkpt lat="43.04958" lon="1.93473">
        <ele>370.9</ele>
        <time>2026-05-29T08:17:34Z</time>
      </trkpt>
      <trkpt lat="43.04958" lon="1.93473">
        <ele>370.9</ele>
        <time>2026-05-29T08:17:39Z</time>
      </trkpt>
      <trkpt lat="43.04958" lon="1.93473">
        <ele>370.9</ele>
        <time>2026-05-29T08:17:44Z</time>
      </trkpt>
      <trkpt lat="43.04958" lon="1.93473">
        <ele>370.9</ele>
        <time>2026-05-29T08:17:49Z</time>
      </trkpt>
      <trkpt lat="43.04958" lon="1.93473">
        <ele>370.9</ele>
        <time>2026-05-29T08:17:54Z</time>
      </trkpt>
      <trkpt lat="43.04958" lon="1.93473">
        <ele>370.9</ele>
        <time>2026-05-29T08:17:59Z</time>
      </trkpt>
      <trkpt lat="43.04958" lon="1.93473">
        <ele>370.9</ele>
        <time>2026-05-29T08:18:04Z</time>
      </trkpt>
      <trkpt lat="43.04958" lon="1.93473">
        <ele>370.9</ele>
        <time>2026-05-29T08:18:09Z</time>
      </trkpt>
      <trkpt lat="43.04958" lon="1.93473">
        <ele>370.9</ele>
        <time>2026-05-29T08:18:14Z</time>
      </trkpt>
      <trkpt lat="43.04958" lon="1.93473">
        <ele>370.9</ele>
        <time>2026-05-29T08:18:19Z</time>
      </trkpt>
      <trkpt lat="43.04955" lon="1.93491">
        <ele>370.2</ele>
        <time>2026-05-29T08:18:24Z</time>
      </trkpt>
      <trkpt lat="43.04954" lon="1.93498">
        <ele>369.9</ele>
        <time>2026-05-29T08:18:29Z</time>
      </trkpt>
      <trkpt lat="43.0495" lon="1.93502">
        <ele>369.1</ele>
        <time>2026-05-29T08:18:34Z</time>
      </trkpt>
      <trkpt lat="43.04947" lon="1.93504">
        <ele>368.5</ele>
        <time>2026-05-29T08:18:39Z</time>
      </trkpt>
      <trkpt lat="43.04945" lon="1.93504">
        <ele>368.2</ele>
        <time>2026-05-29T08:18:44Z</time>
      </trkpt>
      <trkpt lat="43.04945" lon="1.93504">
        <ele>368.2</ele>
        <time>2026-05-29T08:18:49Z</time>
      </trkpt>
      <trkpt lat="43.04945" lon="1.93504">
        <ele>368.2</ele>
        <time>2026-05-29T08:18:54Z</time>
      </trkpt>
      <trkpt lat="43.04945" lon="1.93504">
        <ele>368.2</ele>
        <time>2026-05-29T08:18:59Z</time>
      </trkpt>
      <trkpt lat="43.04945" lon="1.93504">
        <ele>368.2</ele>
        <time>2026-05-29T08:19:04Z</time>
      </trkpt>
      <trkpt lat="43.04945" lon="1.93504">
        <ele>368.2</ele>
        <time>2026-05-29T08:19:09Z</time>
      </trkpt>
      <trkpt lat="43.04945" lon="1.93504">
        <ele>368.2</ele>
        <time>2026-05-29T08:19:14Z</time>
      </trkpt>
      <trkpt lat="43.04935" lon="1.93498">
        <ele>366.9</ele>
        <time>2026-05-29T08:19:19Z</time>
      </trkpt>
      <trkpt lat="43.0493" lon="1.93496">
        <ele>366.3</ele>
        <time>2026-05-29T08:19:24Z</time>
      </trkpt>
      <trkpt lat="43.04923" lon="1.93495">
        <ele>365.3</ele>
        <time>2026-05-29T08:19:29Z</time>
      </trkpt>
      <trkpt lat="43.04919" lon="1.935">
        <ele>364.4</ele>
        <time>2026-05-29T08:19:34Z</time>
      </trkpt>
      <trkpt lat="43.04916" lon="1.93508">
        <ele>363.4</ele>
        <time>2026-05-29T08:19:39Z</time>
      </trkpt>
      <trkpt lat="43.04914" lon="1.93515">
        <ele>362.6</ele>
        <time>2026-05-29T08:19:44Z</time>
      </trkpt>
      <trkpt lat="43.04912" lon="1.93524">
        <ele>361.7</ele>
        <time>2026-05-29T08:19:49Z</time>
      </trkpt>
      <trkpt lat="43.0491" lon="1.9353">
        <ele>360.9</ele>
        <time>2026-05-29T08:19:54Z</time>
      </trkpt>
      <trkpt lat="43.0491" lon="1.93536">
        <ele>360.6</ele>
        <time>2026-05-29T08:19:59Z</time>
      </trkpt>
      <trkpt lat="43.0491" lon="1.93543">
        <ele>360.1</ele>
        <time>2026-05-29T08:20:04Z</time>
      </trkpt>
      <trkpt lat="43.04908" lon="1.93548">
        <ele>359.4</ele>
        <time>2026-05-29T08:20:09Z</time>
      </trkpt>
      <trkpt lat="43.04907" lon="1.93554">
        <ele>358.9</ele>
        <time>2026-05-29T08:20:14Z</time>
      </trkpt>
      <trkpt lat="43.04904" lon="1.9356">
        <ele>357.9</ele>
        <time>2026-05-29T08:20:19Z</time>
      </trkpt>
      <trkpt lat="43.04902" lon="1.93565">
        <ele>357.2</ele>
        <time>2026-05-29T08:20:24Z</time>
      </trkpt>
      <trkpt lat="43.04903" lon="1.93569">
        <ele>357.1</ele>
        <time>2026-05-29T08:20:29Z</time>
      </trkpt>
      <trkpt lat="43.04903" lon="1.9357">
        <ele>357.1</ele>
        <time>2026-05-29T08:20:34Z</time>
      </trkpt>
      <trkpt lat="43.04903" lon="1.9357">
        <ele>357.1</ele>
        <time>2026-05-29T08:20:39Z</time>
      </trkpt>
      <trkpt lat="43.04903" lon="1.9357">
        <ele>357.1</ele>
        <time>2026-05-29T08:20:44Z</time>
      </trkpt>
      <trkpt lat="43.04903" lon="1.9357">
        <ele>357.1</ele>
        <time>2026-05-29T08:20:49Z</time>
      </trkpt>
      <trkpt lat="43.04899" lon="1.93576">
        <ele>355.9</ele>
        <time>2026-05-29T08:20:54Z</time>
      </trkpt>
      <trkpt lat="43.04896" lon="1.93575">
        <ele>355.3</ele>
        <time>2026-05-29T08:20:59Z</time>
      </trkpt>
      <trkpt lat="43.0489" lon="1.93573">
        <ele>354.3</ele>
        <time>2026-05-29T08:21:04Z</time>
      </trkpt>
      <trkpt lat="43.04887" lon="1.93571">
        <ele>353.8</ele>
        <time>2026-05-29T08:21:09Z</time>
      </trkpt>
      <trkpt lat="43.0488" lon="1.93571">
        <ele>352.4</ele>
        <time>2026-05-29T08:21:14Z</time>
      </trkpt>
      <trkpt lat="43.04873" lon="1.93572">
        <ele>350.9</ele>
        <time>2026-05-29T08:21:19Z</time>
      </trkpt>
      <trkpt lat="43.04868" lon="1.93572">
        <ele>349.9</ele>
        <time>2026-05-29T08:21:24Z</time>
      </trkpt>
      <trkpt lat="43.04862" lon="1.93571">
        <ele>348.8</ele>
        <time>2026-05-29T08:21:29Z</time>
      </trkpt>
      <trkpt lat="43.04856" lon="1.93572">
        <ele>347.5</ele>
        <time>2026-05-29T08:21:34Z</time>
      </trkpt>
      <trkpt lat="43.04851" lon="1.93574">
        <ele>346.3</ele>
        <time>2026-05-29T08:21:39Z</time>
      </trkpt>
      <trkpt lat="43.04844" lon="1.93575">
        <ele>344.9</ele>
        <time>2026-05-29T08:21:44Z</time>
      </trkpt>
      <trkpt lat="43.04837" lon="1.93577">
        <ele>343.3</ele>
        <time>2026-05-29T08:21:49Z</time>
      </trkpt>
      <trkpt lat="43.04832" lon="1.93578">
        <ele>342.2</ele>
        <time>2026-05-29T08:21:54Z</time>
      </trkpt>
      <trkpt lat="43.04826" lon="1.93579">
        <ele>341.2</ele>
        <time>2026-05-29T08:21:59Z</time>
      </trkpt>
      <trkpt lat="43.0482" lon="1.9358">
        <ele>340.2</ele>
        <time>2026-05-29T08:22:04Z</time>
      </trkpt>
      <trkpt lat="43.04814" lon="1.9358">
        <ele>339.3</ele>
        <time>2026-05-29T08:22:09Z</time>
      </trkpt>
      <trkpt lat="43.04809" lon="1.9358">
        <ele>338.5</ele>
        <time>2026-05-29T08:22:14Z</time>
      </trkpt>
      <trkpt lat="43.04804" lon="1.9358">
        <ele>337.7</ele>
        <time>2026-05-29T08:22:19Z</time>
      </trkpt>
      <trkpt lat="43.04799" lon="1.93581">
        <ele>336.9</ele>
        <time>2026-05-29T08:22:24Z</time>
      </trkpt>
      <trkpt lat="43.04795" lon="1.93581">
        <ele>336.2</ele>
        <time>2026-05-29T08:22:29Z</time>
      </trkpt>
      <trkpt lat="43.04791" lon="1.9358">
        <ele>335.7</ele>
        <time>2026-05-29T08:22:34Z</time>
      </trkpt>
      <trkpt lat="43.04785" lon="1.9358">
        <ele>334.8</ele>
        <time>2026-05-29T08:22:39Z</time>
      </trkpt>
      <trkpt lat="43.04779" lon="1.9358">
        <ele>333.8</ele>
        <time>2026-05-29T08:22:44Z</time>
      </trkpt>
      <trkpt lat="43.04773" lon="1.93578">
        <ele>333.1</ele>
        <time>2026-05-29T08:22:49Z</time>
      </trkpt>
      <trkpt lat="43.04769" lon="1.93578">
        <ele>332.5</ele>
        <time>2026-05-29T08:22:54Z</time>
      </trkpt>
      <trkpt lat="43.04763" lon="1.93576">
        <ele>331.7</ele>
        <time>2026-05-29T08:22:59Z</time>
      </trkpt>
      <trkpt lat="43.04757" lon="1.93573">
        <ele>331.1</ele>
        <time>2026-05-29T08:23:04Z</time>
      </trkpt>
      <trkpt lat="43.04751" lon="1.9357">
        <ele>330.4</ele>
        <time>2026-05-29T08:23:09Z</time>
      </trkpt>
      <trkpt lat="43.04745" lon="1.93567">
        <ele>330.3</ele>
        <time>2026-05-29T08:23:14Z</time>
      </trkpt>
      <trkpt lat="43.04741" lon="1.93564">
        <ele>330.3</ele>
        <time>2026-05-29T08:23:19Z</time>
      </trkpt>
      <trkpt lat="43.04736" lon="1.9356">
        <ele>330.4</ele>
        <time>2026-05-29T08:23:24Z</time>
      </trkpt>
      <trkpt lat="43.04732" lon="1.93556">
        <ele>330.4</ele>
        <time>2026-05-29T08:23:29Z</time>
      </trkpt>
      <trkpt lat="43.04726" lon="1.93554">
        <ele>330.1</ele>
        <time>2026-05-29T08:23:34Z</time>
      </trkpt>
      <trkpt lat="43.04721" lon="1.93553">
        <ele>329.9</ele>
        <time>2026-05-29T08:23:39Z</time>
      </trkpt>
      <trkpt lat="43.04714" lon="1.93555">
        <ele>329.2</ele>
        <time>2026-05-29T08:23:44Z</time>
      </trkpt>
      <trkpt lat="43.0471" lon="1.93557">
        <ele>328.9</ele>
        <time>2026-05-29T08:23:49Z</time>
      </trkpt>
      <trkpt lat="43.04704" lon="1.93561">
        <ele>328.3</ele>
        <time>2026-05-29T08:23:54Z</time>
      </trkpt>
      <trkpt lat="43.04699" lon="1.93565">
        <ele>327.8</ele>
        <time>2026-05-29T08:23:59Z</time>
      </trkpt>
      <trkpt lat="43.04695" lon="1.93569">
        <ele>327.5</ele>
        <time>2026-05-29T08:24:04Z</time>
      </trkpt>
      <trkpt lat="43.04691" lon="1.93575">
        <ele>327.1</ele>
        <time>2026-05-29T08:24:09Z</time>
      </trkpt>
      <trkpt lat="43.0469" lon="1.93582">
        <ele>326.9</ele>
        <time>2026-05-29T08:24:14Z</time>
      </trkpt>
      <trkpt lat="43.04691" lon="1.9359">
        <ele>326.8</ele>
        <time>2026-05-29T08:24:19Z</time>
      </trkpt>
      <trkpt lat="43.04695" lon="1.93601">
        <ele>326.8</ele>
        <time>2026-05-29T08:24:24Z</time>
      </trkpt>
      <trkpt lat="43.04699" lon="1.93608">
        <ele>326.8</ele>
        <time>2026-05-29T08:24:29Z</time>
      </trkpt>
      <trkpt lat="43.04701" lon="1.93614">
        <ele>326.8</ele>
        <time>2026-05-29T08:24:34Z</time>
      </trkpt>
      <trkpt lat="43.04704" lon="1.93623">
        <ele>326.7</ele>
        <time>2026-05-29T08:24:39Z</time>
      </trkpt>
      <trkpt lat="43.04701" lon="1.93631">
        <ele>326.5</ele>
        <time>2026-05-29T08:24:44Z</time>
      </trkpt>
      <trkpt lat="43.04696" lon="1.93636">
        <ele>326.4</ele>
        <time>2026-05-29T08:24:49Z</time>
      </trkpt>
      <trkpt lat="43.04693" lon="1.93641">
        <ele>326.3</ele>
        <time>2026-05-29T08:24:54Z</time>
      </trkpt>
      <trkpt lat="43.04691" lon="1.93646">
        <ele>326.2</ele>
        <time>2026-05-29T08:24:59Z</time>
      </trkpt>
      <trkpt lat="43.04689" lon="1.93653">
        <ele>326.1</ele>
        <time>2026-05-29T08:25:04Z</time>
      </trkpt>
      <trkpt lat="43.04686" lon="1.93661">
        <ele>326</ele>
        <time>2026-05-29T08:25:09Z</time>
      </trkpt>
      <trkpt lat="43.04685" lon="1.93669">
        <ele>326</ele>
        <time>2026-05-29T08:25:14Z</time>
      </trkpt>
      <trkpt lat="43.04682" lon="1.93678">
        <ele>325.9</ele>
        <time>2026-05-29T08:25:19Z</time>
      </trkpt>
      <trkpt lat="43.0468" lon="1.93685">
        <ele>325.8</ele>
        <time>2026-05-29T08:25:24Z</time>
      </trkpt>
      <trkpt lat="43.04679" lon="1.93694">
        <ele>325.7</ele>
        <time>2026-05-29T08:25:29Z</time>
      </trkpt>
      <trkpt lat="43.04674" lon="1.93702">
        <ele>325.6</ele>
        <time>2026-05-29T08:25:34Z</time>
      </trkpt>
      <trkpt lat="43.0467" lon="1.9371">
        <ele>325.5</ele>
        <time>2026-05-29T08:25:39Z</time>
      </trkpt>
      <trkpt lat="43.04665" lon="1.93715">
        <ele>325.4</ele>
        <time>2026-05-29T08:25:44Z</time>
      </trkpt>
      <trkpt lat="43.0466" lon="1.93714">
        <ele>325.5</ele>
        <time>2026-05-29T08:25:49Z</time>
      </trkpt>
      <trkpt lat="43.04654" lon="1.93713">
        <ele>325.7</ele>
        <time>2026-05-29T08:25:54Z</time>
      </trkpt>
      <trkpt lat="43.04648" lon="1.93709">
        <ele>325.8</ele>
        <time>2026-05-29T08:25:59Z</time>
      </trkpt>
      <trkpt lat="43.04642" lon="1.93709">
        <ele>325.9</ele>
        <time>2026-05-29T08:26:04Z</time>
      </trkpt>
      <trkpt lat="43.04636" lon="1.93706">
        <ele>326.1</ele>
        <time>2026-05-29T08:26:09Z</time>
      </trkpt>
      <trkpt lat="43.04629" lon="1.93701">
        <ele>326.3</ele>
        <time>2026-05-29T08:26:14Z</time>
      </trkpt>
      <trkpt lat="43.04622" lon="1.93697">
        <ele>326.5</ele>
        <time>2026-05-29T08:26:19Z</time>
      </trkpt>
      <trkpt lat="43.04617" lon="1.93694">
        <ele>326.7</ele>
        <time>2026-05-29T08:26:24Z</time>
      </trkpt>
      <trkpt lat="43.0461" lon="1.93691">
        <ele>326.9</ele>
        <time>2026-05-29T08:26:29Z</time>
      </trkpt>
      <trkpt lat="43.04605" lon="1.93686">
        <ele>327.1</ele>
        <time>2026-05-29T08:26:34Z</time>
      </trkpt>
      <trkpt lat="43.04603" lon="1.93683">
        <ele>327.2</ele>
        <time>2026-05-29T08:26:39Z</time>
      </trkpt>
      <trkpt lat="43.04603" lon="1.93683">
        <ele>327.2</ele>
        <time>2026-05-29T08:26:44Z</time>
      </trkpt>
      <trkpt lat="43.04603" lon="1.93683">
        <ele>327.2</ele>
        <time>2026-05-29T08:26:49Z</time>
      </trkpt>
      <trkpt lat="43.04603" lon="1.93683">
        <ele>327.2</ele>
        <time>2026-05-29T08:26:54Z</time>
      </trkpt>
      <trkpt lat="43.04597" lon="1.93682">
        <ele>327.3</ele>
        <time>2026-05-29T08:26:59Z</time>
      </trkpt>
      <trkpt lat="43.04592" lon="1.9368">
        <ele>327.5</ele>
        <time>2026-05-29T08:27:04Z</time>
      </trkpt>
      <trkpt lat="43.04585" lon="1.93677">
        <ele>327.7</ele>
        <time>2026-05-29T08:27:09Z</time>
      </trkpt>
      <trkpt lat="43.04581" lon="1.93673">
        <ele>327.8</ele>
        <time>2026-05-29T08:27:14Z</time>
      </trkpt>
      <trkpt lat="43.0458" lon="1.93672">
        <ele>327.8</ele>
        <time>2026-05-29T08:27:19Z</time>
      </trkpt>
      <trkpt lat="43.04576" lon="1.93671">
        <ele>327.8</ele>
        <time>2026-05-29T08:27:24Z</time>
      </trkpt>
      <trkpt lat="43.04571" lon="1.93668">
        <ele>327.8</ele>
        <time>2026-05-29T08:27:29Z</time>
      </trkpt>
      <trkpt lat="43.04567" lon="1.93667">
        <ele>327.8</ele>
        <time>2026-05-29T08:27:34Z</time>
      </trkpt>
      <trkpt lat="43.04562" lon="1.93664">
        <ele>327.7</ele>
        <time>2026-05-29T08:27:39Z</time>
      </trkpt>
      <trkpt lat="43.04557" lon="1.93664">
        <ele>327.6</ele>
        <time>2026-05-29T08:27:44Z</time>
      </trkpt>
      <trkpt lat="43.04553" lon="1.93661">
        <ele>327.5</ele>
        <time>2026-05-29T08:27:49Z</time>
      </trkpt>
      <trkpt lat="43.04551" lon="1.93662">
        <ele>327.5</ele>
        <time>2026-05-29T08:27:54Z</time>
      </trkpt>
      <trkpt lat="43.04553" lon="1.93665">
        <ele>327.6</ele>
        <time>2026-05-29T08:27:59Z</time>
      </trkpt>
      <trkpt lat="43.04555" lon="1.93672">
        <ele>327.6</ele>
        <time>2026-05-29T08:28:04Z</time>
      </trkpt>
      <trkpt lat="43.04554" lon="1.93681">
        <ele>327.4</ele>
        <time>2026-05-29T08:28:09Z</time>
      </trkpt>
      <trkpt lat="43.04551" lon="1.9369">
        <ele>327.3</ele>
        <time>2026-05-29T08:28:14Z</time>
      </trkpt>
      <trkpt lat="43.0455" lon="1.93697">
        <ele>327.2</ele>
        <time>2026-05-29T08:28:19Z</time>
      </trkpt>
      <trkpt lat="43.04547" lon="1.93705">
        <ele>327</ele>
        <time>2026-05-29T08:28:24Z</time>
      </trkpt>
      <trkpt lat="43.04544" lon="1.93715">
        <ele>326.9</ele>
        <time>2026-05-29T08:28:29Z</time>
      </trkpt>
      <trkpt lat="43.04541" lon="1.93724">
        <ele>326.8</ele>
        <time>2026-05-29T08:28:34Z</time>
      </trkpt>
      <trkpt lat="43.04537" lon="1.93733">
        <ele>326.7</ele>
        <time>2026-05-29T08:28:39Z</time>
      </trkpt>
      <trkpt lat="43.04534" lon="1.93743">
        <ele>326.7</ele>
        <time>2026-05-29T08:28:44Z</time>
      </trkpt>
      <trkpt lat="43.04532" lon="1.93752">
        <ele>326.6</ele>
        <time>2026-05-29T08:28:49Z</time>
      </trkpt>
      <trkpt lat="43.04529" lon="1.9376">
        <ele>326.7</ele>
        <time>2026-05-29T08:28:54Z</time>
      </trkpt>
      <trkpt lat="43.04527" lon="1.93768">
        <ele>326.7</ele>
        <time>2026-05-29T08:28:59Z</time>
      </trkpt>
      <trkpt lat="43.04526" lon="1.93776">
        <ele>326.7</ele>
        <time>2026-05-29T08:29:04Z</time>
      </trkpt>
      <trkpt lat="43.04525" lon="1.93782">
        <ele>326.7</ele>
        <time>2026-05-29T08:29:09Z</time>
      </trkpt>
      <trkpt lat="43.04523" lon="1.93789">
        <ele>326.7</ele>
        <time>2026-05-29T08:29:14Z</time>
      </trkpt>
      <trkpt lat="43.0452" lon="1.93796">
        <ele>326.8</ele>
        <time>2026-05-29T08:29:19Z</time>
      </trkpt>
      <trkpt lat="43.04518" lon="1.93804">
        <ele>326.8</ele>
        <time>2026-05-29T08:29:24Z</time>
      </trkpt>
      <trkpt lat="43.04516" lon="1.93811">
        <ele>326.8</ele>
        <time>2026-05-29T08:29:29Z</time>
      </trkpt>
      <trkpt lat="43.04515" lon="1.93819">
        <ele>326.8</ele>
        <time>2026-05-29T08:29:34Z</time>
      </trkpt>
      <trkpt lat="43.04511" lon="1.93826">
        <ele>326.9</ele>
        <time>2026-05-29T08:29:39Z</time>
      </trkpt>
      <trkpt lat="43.04508" lon="1.93833">
        <ele>326.9</ele>
        <time>2026-05-29T08:29:44Z</time>
      </trkpt>
      <trkpt lat="43.04505" lon="1.9384">
        <ele>326.8</ele>
        <time>2026-05-29T08:29:49Z</time>
      </trkpt>
      <trkpt lat="43.045" lon="1.93845">
        <ele>326.7</ele>
        <time>2026-05-29T08:29:54Z</time>
      </trkpt>
      <trkpt lat="43.04495" lon="1.93852">
        <ele>326.6</ele>
        <time>2026-05-29T08:29:59Z</time>
      </trkpt>
      <trkpt lat="43.04491" lon="1.93856">
        <ele>326.5</ele>
        <time>2026-05-29T08:30:04Z</time>
      </trkpt>
      <trkpt lat="43.04486" lon="1.93863">
        <ele>326.3</ele>
        <time>2026-05-29T08:30:09Z</time>
      </trkpt>
      <trkpt lat="43.04481" lon="1.93868">
        <ele>326.3</ele>
        <time>2026-05-29T08:30:14Z</time>
      </trkpt>
      <trkpt lat="43.04481" lon="1.9387">
        <ele>326.2</ele>
        <time>2026-05-29T08:30:19Z</time>
      </trkpt>
      <trkpt lat="43.04482" lon="1.93872">
        <ele>326.2</ele>
        <time>2026-05-29T08:30:24Z</time>
      </trkpt>
      <trkpt lat="43.04482" lon="1.93872">
        <ele>326.2</ele>
        <time>2026-05-29T08:30:29Z</time>
      </trkpt>
      <trkpt lat="43.04482" lon="1.93872">
        <ele>326.2</ele>
        <time>2026-05-29T08:30:34Z</time>
      </trkpt>
      <trkpt lat="43.04482" lon="1.93872">
        <ele>326.2</ele>
        <time>2026-05-29T08:30:39Z</time>
      </trkpt>
      <trkpt lat="43.04482" lon="1.93872">
        <ele>326.2</ele>
        <time>2026-05-29T08:30:44Z</time>
      </trkpt>
      <trkpt lat="43.04482" lon="1.93872">
        <ele>326.2</ele>
        <time>2026-05-29T08:30:49Z</time>
      </trkpt>
      <trkpt lat="43.04482" lon="1.93872">
        <ele>326.2</ele>
        <time>2026-05-29T08:30:54Z</time>
      </trkpt>
      <trkpt lat="43.04482" lon="1.93872">
        <ele>326.2</ele>
        <time>2026-05-29T08:30:59Z</time>
      </trkpt>
      <trkpt lat="43.04475" lon="1.93873">
        <ele>326.2</ele>
        <time>2026-05-29T08:31:04Z</time>
      </trkpt>
      <trkpt lat="43.04475" lon="1.93879">
        <ele>326.1</ele>
        <time>2026-05-29T08:31:09Z</time>
      </trkpt>
      <trkpt lat="43.04469" lon="1.93886">
        <ele>326</ele>
        <time>2026-05-29T08:31:14Z</time>
      </trkpt>
      <trkpt lat="43.04464" lon="1.93892">
        <ele>325.9</ele>
        <time>2026-05-29T08:31:19Z</time>
      </trkpt>
      <trkpt lat="43.04459" lon="1.93899">
        <ele>325.8</ele>
        <time>2026-05-29T08:31:24Z</time>
      </trkpt>
      <trkpt lat="43.04456" lon="1.93905">
        <ele>325.7</ele>
        <time>2026-05-29T08:31:29Z</time>
      </trkpt>
      <trkpt lat="43.04452" lon="1.93911">
        <ele>325.7</ele>
        <time>2026-05-29T08:31:34Z</time>
      </trkpt>
      <trkpt lat="43.0445" lon="1.93919">
        <ele>325.6</ele>
        <time>2026-05-29T08:31:39Z</time>
      </trkpt>
      <trkpt lat="43.04448" lon="1.93927">
        <ele>325.7</ele>
        <time>2026-05-29T08:31:44Z</time>
      </trkpt>
      <trkpt lat="43.04446" lon="1.93935">
        <ele>325.7</ele>
        <time>2026-05-29T08:31:49Z</time>
      </trkpt>
      <trkpt lat="43.04445" lon="1.93943">
        <ele>325.8</ele>
        <time>2026-05-29T08:31:54Z</time>
      </trkpt>
      <trkpt lat="43.04446" lon="1.93952">
        <ele>325.8</ele>
        <time>2026-05-29T08:31:59Z</time>
      </trkpt>
      <trkpt lat="43.04445" lon="1.93959">
        <ele>325.8</ele>
        <time>2026-05-29T08:32:04Z</time>
      </trkpt>
      <trkpt lat="43.04446" lon="1.93969">
        <ele>325.9</ele>
        <time>2026-05-29T08:32:09Z</time>
      </trkpt>
      <trkpt lat="43.04446" lon="1.93979">
        <ele>325.9</ele>
        <time>2026-05-29T08:32:14Z</time>
      </trkpt>
      <trkpt lat="43.04447" lon="1.93986">
        <ele>325.9</ele>
        <time>2026-05-29T08:32:19Z</time>
      </trkpt>
      <trkpt lat="43.04448" lon="1.93995">
        <ele>326</ele>
        <time>2026-05-29T08:32:24Z</time>
      </trkpt>
      <trkpt lat="43.04448" lon="1.94004">
        <ele>326</ele>
        <time>2026-05-29T08:32:29Z</time>
      </trkpt>
      <trkpt lat="43.0445" lon="1.94013">
        <ele>326</ele>
        <time>2026-05-29T08:32:34Z</time>
      </trkpt>
      <trkpt lat="43.04452" lon="1.94021">
        <ele>326</ele>
        <time>2026-05-29T08:32:39Z</time>
      </trkpt>
      <trkpt lat="43.04454" lon="1.94029">
        <ele>326</ele>
        <time>2026-05-29T08:32:44Z</time>
      </trkpt>
      <trkpt lat="43.04456" lon="1.94038">
        <ele>326</ele>
        <time>2026-05-29T08:32:49Z</time>
      </trkpt>
      <trkpt lat="43.04457" lon="1.94047">
        <ele>326</ele>
        <time>2026-05-29T08:32:54Z</time>
      </trkpt>
      <trkpt lat="43.04459" lon="1.94056">
        <ele>326</ele>
        <time>2026-05-29T08:32:59Z</time>
      </trkpt>
      <trkpt lat="43.04461" lon="1.94064">
        <ele>326</ele>
        <time>2026-05-29T08:33:04Z</time>
      </trkpt>
      <trkpt lat="43.04462" lon="1.94072">
        <ele>326</ele>
        <time>2026-05-29T08:33:09Z</time>
      </trkpt>
      <trkpt lat="43.04464" lon="1.94081">
        <ele>326</ele>
        <time>2026-05-29T08:33:14Z</time>
      </trkpt>
      <trkpt lat="43.04467" lon="1.9409">
        <ele>326</ele>
        <time>2026-05-29T08:33:19Z</time>
      </trkpt>
      <trkpt lat="43.04469" lon="1.94097">
        <ele>326.1</ele>
        <time>2026-05-29T08:33:24Z</time>
      </trkpt>
      <trkpt lat="43.04474" lon="1.94104">
        <ele>326.1</ele>
        <time>2026-05-29T08:33:29Z</time>
      </trkpt>
      <trkpt lat="43.0448" lon="1.94109">
        <ele>326.1</ele>
        <time>2026-05-29T08:33:34Z</time>
      </trkpt>
      <trkpt lat="43.04487" lon="1.94113">
        <ele>326.1</ele>
        <time>2026-05-29T08:33:39Z</time>
      </trkpt>
      <trkpt lat="43.04494" lon="1.94116">
        <ele>326</ele>
        <time>2026-05-29T08:33:44Z</time>
      </trkpt>
      <trkpt lat="43.04501" lon="1.94119">
        <ele>326</ele>
        <time>2026-05-29T08:33:49Z</time>
      </trkpt>
      <trkpt lat="43.04507" lon="1.94122">
        <ele>326</ele>
        <time>2026-05-29T08:33:54Z</time>
      </trkpt>
      <trkpt lat="43.04513" lon="1.94125">
        <ele>326</ele>
        <time>2026-05-29T08:33:59Z</time>
      </trkpt>
      <trkpt lat="43.04519" lon="1.94129">
        <ele>326</ele>
        <time>2026-05-29T08:34:04Z</time>
      </trkpt>
      <trkpt lat="43.04525" lon="1.94132">
        <ele>326.1</ele>
        <time>2026-05-29T08:34:09Z</time>
      </trkpt>
      <trkpt lat="43.0453" lon="1.94137">
        <ele>326.1</ele>
        <time>2026-05-29T08:34:14Z</time>
      </trkpt>
      <trkpt lat="43.04535" lon="1.94144">
        <ele>326.2</ele>
        <time>2026-05-29T08:34:19Z</time>
      </trkpt>
      <trkpt lat="43.04539" lon="1.94151">
        <ele>326.3</ele>
        <time>2026-05-29T08:34:24Z</time>
      </trkpt>
      <trkpt lat="43.04543" lon="1.94158">
        <ele>326.4</ele>
        <time>2026-05-29T08:34:29Z</time>
      </trkpt>
      <trkpt lat="43.04546" lon="1.94166">
        <ele>326.5</ele>
        <time>2026-05-29T08:34:34Z</time>
      </trkpt>
      <trkpt lat="43.04548" lon="1.94174">
        <ele>326.7</ele>
        <time>2026-05-29T08:34:39Z</time>
      </trkpt>
      <trkpt lat="43.04549" lon="1.94183">
        <ele>326.9</ele>
        <time>2026-05-29T08:34:44Z</time>
      </trkpt>
      <trkpt lat="43.04551" lon="1.94192">
        <ele>327</ele>
        <time>2026-05-29T08:34:49Z</time>
      </trkpt>
      <trkpt lat="43.04553" lon="1.94202">
        <ele>327.2</ele>
        <time>2026-05-29T08:34:54Z</time>
      </trkpt>
      <trkpt lat="43.04554" lon="1.94212">
        <ele>327.4</ele>
        <time>2026-05-29T08:34:59Z</time>
      </trkpt>
      <trkpt lat="43.04556" lon="1.94221">
        <ele>327.5</ele>
        <time>2026-05-29T08:35:04Z</time>
      </trkpt>
      <trkpt lat="43.04559" lon="1.94229">
        <ele>327.7</ele>
        <time>2026-05-29T08:35:09Z</time>
      </trkpt>
      <trkpt lat="43.04563" lon="1.94237">
        <ele>327.8</ele>
        <time>2026-05-29T08:35:14Z</time>
      </trkpt>
      <trkpt lat="43.04567" lon="1.94245">
        <ele>327.9</ele>
        <time>2026-05-29T08:35:19Z</time>
      </trkpt>
      <trkpt lat="43.04571" lon="1.94253">
        <ele>328.1</ele>
        <time>2026-05-29T08:35:24Z</time>
      </trkpt>
      <trkpt lat="43.04575" lon="1.94257">
        <ele>328.3</ele>
        <time>2026-05-29T08:35:29Z</time>
      </trkpt>
      <trkpt lat="43.04578" lon="1.94263">
        <ele>328.6</ele>
        <time>2026-05-29T08:35:34Z</time>
      </trkpt>
      <trkpt lat="43.04582" lon="1.94267">
        <ele>328.8</ele>
        <time>2026-05-29T08:35:39Z</time>
      </trkpt>
      <trkpt lat="43.04586" lon="1.94271">
        <ele>329.1</ele>
        <time>2026-05-29T08:35:44Z</time>
      </trkpt>
      <trkpt lat="43.04589" lon="1.94276">
        <ele>329.5</ele>
        <time>2026-05-29T08:35:49Z</time>
      </trkpt>
      <trkpt lat="43.04594" lon="1.94282">
        <ele>330</ele>
        <time>2026-05-29T08:35:54Z</time>
      </trkpt>
      <trkpt lat="43.04599" lon="1.94289">
        <ele>330.7</ele>
        <time>2026-05-29T08:35:59Z</time>
      </trkpt>
      <trkpt lat="43.04603" lon="1.94295">
        <ele>331.3</ele>
        <time>2026-05-29T08:36:04Z</time>
      </trkpt>
      <trkpt lat="43.04609" lon="1.943">
        <ele>332</ele>
        <time>2026-05-29T08:36:09Z</time>
      </trkpt>
      <trkpt lat="43.04615" lon="1.94304">
        <ele>332.7</ele>
        <time>2026-05-29T08:36:14Z</time>
      </trkpt>
      <trkpt lat="43.0462" lon="1.94309">
        <ele>333.5</ele>
        <time>2026-05-29T08:36:19Z</time>
      </trkpt>
      <trkpt lat="43.04625" lon="1.94314">
        <ele>334.3</ele>
        <time>2026-05-29T08:36:24Z</time>
      </trkpt>
      <trkpt lat="43.0463" lon="1.94319">
        <ele>335.1</ele>
        <time>2026-05-29T08:36:29Z</time>
      </trkpt>
      <trkpt lat="43.04635" lon="1.94323">
        <ele>335.9</ele>
        <time>2026-05-29T08:36:34Z</time>
      </trkpt>
      <trkpt lat="43.04636" lon="1.94324">
        <ele>336.1</ele>
        <time>2026-05-29T08:36:39Z</time>
      </trkpt>
      <trkpt lat="43.04636" lon="1.94323">
        <ele>336</ele>
        <time>2026-05-29T08:36:44Z</time>
      </trkpt>
      <trkpt lat="43.04635" lon="1.94323">
        <ele>335.9</ele>
        <time>2026-05-29T08:36:49Z</time>
      </trkpt>
      <trkpt lat="43.04634" lon="1.94323">
        <ele>335.8</ele>
        <time>2026-05-29T08:36:54Z</time>
      </trkpt>
      <trkpt lat="43.0463" lon="1.94323">
        <ele>335.5</ele>
        <time>2026-05-29T08:36:59Z</time>
      </trkpt>
      <trkpt lat="43.04627" lon="1.94321">
        <ele>335.1</ele>
        <time>2026-05-29T08:37:04Z</time>
      </trkpt>
      <trkpt lat="43.04622" lon="1.94318">
        <ele>334.4</ele>
        <time>2026-05-29T08:37:09Z</time>
      </trkpt>
      <trkpt lat="43.04622" lon="1.94318">
        <ele>334.4</ele>
        <time>2026-05-29T08:37:14Z</time>
      </trkpt>
      <trkpt lat="43.04622" lon="1.94318">
        <ele>334.4</ele>
        <time>2026-05-29T08:37:19Z</time>
      </trkpt>
      <trkpt lat="43.04622" lon="1.94318">
        <ele>334.4</ele>
        <time>2026-05-29T08:37:24Z</time>
      </trkpt>
      <trkpt lat="43.04622" lon="1.94318">
        <ele>334.4</ele>
        <time>2026-05-29T08:37:29Z</time>
      </trkpt>
      <trkpt lat="43.04621" lon="1.94316">
        <ele>334.1</ele>
        <time>2026-05-29T08:37:34Z</time>
      </trkpt>
      <trkpt lat="43.04615" lon="1.94316">
        <ele>333.7</ele>
        <time>2026-05-29T08:37:39Z</time>
      </trkpt>
      <trkpt lat="43.04608" lon="1.94315">
        <ele>333</ele>
        <time>2026-05-29T08:37:44Z</time>
      </trkpt>
      <trkpt lat="43.04602" lon="1.94315">
        <ele>332.6</ele>
        <time>2026-05-29T08:37:49Z</time>
      </trkpt>
      <trkpt lat="43.04596" lon="1.94316">
        <ele>332.2</ele>
        <time>2026-05-29T08:37:54Z</time>
      </trkpt>
      <trkpt lat="43.04586" lon="1.94312">
        <ele>331.2</ele>
        <time>2026-05-29T08:37:59Z</time>
      </trkpt>
      <trkpt lat="43.04578" lon="1.9431">
        <ele>330.8</ele>
        <time>2026-05-29T08:38:04Z</time>
      </trkpt>
      <trkpt lat="43.04573" lon="1.9431">
        <ele>330.7</ele>
        <time>2026-05-29T08:38:09Z</time>
      </trkpt>
      <trkpt lat="43.04568" lon="1.9431">
        <ele>330.6</ele>
        <time>2026-05-29T08:38:14Z</time>
      </trkpt>
      <trkpt lat="43.04562" lon="1.94309">
        <ele>330.5</ele>
        <time>2026-05-29T08:38:19Z</time>
      </trkpt>
      <trkpt lat="43.04556" lon="1.94308">
        <ele>330.3</ele>
        <time>2026-05-29T08:38:24Z</time>
      </trkpt>
      <trkpt lat="43.04549" lon="1.94307">
        <ele>330.2</ele>
        <time>2026-05-29T08:38:29Z</time>
      </trkpt>
      <trkpt lat="43.04541" lon="1.94309">
        <ele>330.1</ele>
        <time>2026-05-29T08:38:34Z</time>
      </trkpt>
      <trkpt lat="43.04534" lon="1.94308">
        <ele>330</ele>
        <time>2026-05-29T08:38:39Z</time>
      </trkpt>
      <trkpt lat="43.04528" lon="1.94308">
        <ele>329.9</ele>
        <time>2026-05-29T08:38:44Z</time>
      </trkpt>
      <trkpt lat="43.04523" lon="1.94306">
        <ele>329.7</ele>
        <time>2026-05-29T08:38:49Z</time>
      </trkpt>
      <trkpt lat="43.04519" lon="1.94307">
        <ele>329.7</ele>
        <time>2026-05-29T08:38:54Z</time>
      </trkpt>
      <trkpt lat="43.04511" lon="1.94305">
        <ele>329.5</ele>
        <time>2026-05-29T08:38:59Z</time>
      </trkpt>
      <trkpt lat="43.04503" lon="1.94306">
        <ele>329.4</ele>
        <time>2026-05-29T08:39:04Z</time>
      </trkpt>
      <trkpt lat="43.04497" lon="1.94305">
        <ele>329.3</ele>
        <time>2026-05-29T08:39:09Z</time>
      </trkpt>
      <trkpt lat="43.04492" lon="1.94306">
        <ele>329.4</ele>
        <time>2026-05-29T08:39:14Z</time>
      </trkpt>
      <trkpt lat="43.04485" lon="1.94305">
        <ele>329.4</ele>
        <time>2026-05-29T08:39:19Z</time>
      </trkpt>
      <trkpt lat="43.04477" lon="1.94302">
        <ele>329.4</ele>
        <time>2026-05-29T08:39:24Z</time>
      </trkpt>
      <trkpt lat="43.04469" lon="1.94302">
        <ele>329.4</ele>
        <time>2026-05-29T08:39:29Z</time>
      </trkpt>
      <trkpt lat="43.04463" lon="1.94299">
        <ele>329.4</ele>
        <time>2026-05-29T08:39:34Z</time>
      </trkpt>
      <trkpt lat="43.04455" lon="1.94298">
        <ele>329.4</ele>
        <time>2026-05-29T08:39:39Z</time>
      </trkpt>
      <trkpt lat="43.04449" lon="1.94298">
        <ele>329.4</ele>
        <time>2026-05-29T08:39:44Z</time>
      </trkpt>
      <trkpt lat="43.04443" lon="1.94298">
        <ele>329.4</ele>
        <time>2026-05-29T08:39:49Z</time>
      </trkpt>
      <trkpt lat="43.04436" lon="1.94297">
        <ele>329.5</ele>
        <time>2026-05-29T08:39:54Z</time>
      </trkpt>
      <trkpt lat="43.04428" lon="1.94295">
        <ele>329.5</ele>
        <time>2026-05-29T08:39:59Z</time>
      </trkpt>
      <trkpt lat="43.04423" lon="1.94295">
        <ele>329.5</ele>
        <time>2026-05-29T08:40:04Z</time>
      </trkpt>
      <trkpt lat="43.04415" lon="1.94293">
        <ele>329.5</ele>
        <time>2026-05-29T08:40:09Z</time>
      </trkpt>
      <trkpt lat="43.04408" lon="1.94292">
        <ele>329.5</ele>
        <time>2026-05-29T08:40:14Z</time>
      </trkpt>
      <trkpt lat="43.04401" lon="1.94292">
        <ele>329.5</ele>
        <time>2026-05-29T08:40:19Z</time>
      </trkpt>
      <trkpt lat="43.04394" lon="1.94291">
        <ele>329.5</ele>
        <time>2026-05-29T08:40:24Z</time>
      </trkpt>
      <trkpt lat="43.04389" lon="1.94291">
        <ele>329.5</ele>
        <time>2026-05-29T08:40:29Z</time>
      </trkpt>
      <trkpt lat="43.04383" lon="1.94291">
        <ele>329.5</ele>
        <time>2026-05-29T08:40:34Z</time>
      </trkpt>
      <trkpt lat="43.04377" lon="1.9429">
        <ele>329.5</ele>
        <time>2026-05-29T08:40:39Z</time>
      </trkpt>
      <trkpt lat="43.04368" lon="1.94288">
        <ele>329.5</ele>
        <time>2026-05-29T08:40:44Z</time>
      </trkpt>
      <trkpt lat="43.04362" lon="1.94287">
        <ele>329.4</ele>
        <time>2026-05-29T08:40:49Z</time>
      </trkpt>
      <trkpt lat="43.04355" lon="1.94287">
        <ele>329.4</ele>
        <time>2026-05-29T08:40:54Z</time>
      </trkpt>
      <trkpt lat="43.0435" lon="1.94286">
        <ele>329.4</ele>
        <time>2026-05-29T08:40:59Z</time>
      </trkpt>
      <trkpt lat="43.04344" lon="1.94286">
        <ele>329.4</ele>
        <time>2026-05-29T08:41:04Z</time>
      </trkpt>
      <trkpt lat="43.04338" lon="1.94285">
        <ele>329.4</ele>
        <time>2026-05-29T08:41:09Z</time>
      </trkpt>
      <trkpt lat="43.04332" lon="1.94284">
        <ele>329.5</ele>
        <time>2026-05-29T08:41:14Z</time>
      </trkpt>
      <trkpt lat="43.04325" lon="1.94283">
        <ele>329.8</ele>
        <time>2026-05-29T08:41:19Z</time>
      </trkpt>
      <trkpt lat="43.04321" lon="1.94282">
        <ele>330</ele>
        <time>2026-05-29T08:41:24Z</time>
      </trkpt>
      <trkpt lat="43.04318" lon="1.9428">
        <ele>330.1</ele>
        <time>2026-05-29T08:41:29Z</time>
      </trkpt>
      <trkpt lat="43.04314" lon="1.94279">
        <ele>330.2</ele>
        <time>2026-05-29T08:41:34Z</time>
      </trkpt>
      <trkpt lat="43.04309" lon="1.94279">
        <ele>330.5</ele>
        <time>2026-05-29T08:41:39Z</time>
      </trkpt>
      <trkpt lat="43.04307" lon="1.94278">
        <ele>330.5</ele>
        <time>2026-05-29T08:41:44Z</time>
      </trkpt>
      <trkpt lat="43.04307" lon="1.94276">
        <ele>330.4</ele>
        <time>2026-05-29T08:41:49Z</time>
      </trkpt>
      <trkpt lat="43.04307" lon="1.94276">
        <ele>330.4</ele>
        <time>2026-05-29T08:41:54Z</time>
      </trkpt>
      <trkpt lat="43.04307" lon="1.94276">
        <ele>330.4</ele>
        <time>2026-05-29T08:41:59Z</time>
      </trkpt>
      <trkpt lat="43.04306" lon="1.94275">
        <ele>330.4</ele>
        <time>2026-05-29T08:42:04Z</time>
      </trkpt>
      <trkpt lat="43.04299" lon="1.94277">
        <ele>330.8</ele>
        <time>2026-05-29T08:42:09Z</time>
      </trkpt>
      <trkpt lat="43.04292" lon="1.94276">
        <ele>331</ele>
        <time>2026-05-29T08:42:14Z</time>
      </trkpt>
      <trkpt lat="43.04287" lon="1.94278">
        <ele>331.4</ele>
        <time>2026-05-29T08:42:19Z</time>
      </trkpt>
      <trkpt lat="43.04281" lon="1.94278">
        <ele>331.7</ele>
        <time>2026-05-29T08:42:24Z</time>
      </trkpt>
      <trkpt lat="43.04275" lon="1.94277">
        <ele>331.8</ele>
        <time>2026-05-29T08:42:29Z</time>
      </trkpt>
      <trkpt lat="43.04267" lon="1.94276">
        <ele>332.1</ele>
        <time>2026-05-29T08:42:34Z</time>
      </trkpt>
      <trkpt lat="43.04261" lon="1.94276">
        <ele>332.3</ele>
        <time>2026-05-29T08:42:39Z</time>
      </trkpt>
      <trkpt lat="43.04254" lon="1.94275">
        <ele>332.5</ele>
        <time>2026-05-29T08:42:44Z</time>
      </trkpt>
      <trkpt lat="43.04247" lon="1.94274">
        <ele>332.7</ele>
        <time>2026-05-29T08:42:49Z</time>
      </trkpt>
      <trkpt lat="43.04239" lon="1.94273">
        <ele>332.9</ele>
        <time>2026-05-29T08:42:54Z</time>
      </trkpt>
      <trkpt lat="43.04233" lon="1.94272">
        <ele>333.1</ele>
        <time>2026-05-29T08:42:59Z</time>
      </trkpt>
      <trkpt lat="43.04225" lon="1.9427">
        <ele>333.1</ele>
        <time>2026-05-29T08:43:04Z</time>
      </trkpt>
      <trkpt lat="43.04219" lon="1.9427">
        <ele>333.4</ele>
        <time>2026-05-29T08:43:09Z</time>
      </trkpt>
      <trkpt lat="43.04212" lon="1.94269">
        <ele>333.5</ele>
        <time>2026-05-29T08:43:14Z</time>
      </trkpt>
      <trkpt lat="43.04204" lon="1.94268">
        <ele>333.6</ele>
        <time>2026-05-29T08:43:19Z</time>
      </trkpt>
      <trkpt lat="43.04198" lon="1.94266">
        <ele>333.6</ele>
        <time>2026-05-29T08:43:24Z</time>
      </trkpt>
      <trkpt lat="43.04191" lon="1.94266">
        <ele>333.8</ele>
        <time>2026-05-29T08:43:29Z</time>
      </trkpt>
      <trkpt lat="43.04186" lon="1.94265">
        <ele>333.8</ele>
        <time>2026-05-29T08:43:34Z</time>
      </trkpt>
      <trkpt lat="43.04181" lon="1.94266">
        <ele>334.2</ele>
        <time>2026-05-29T08:43:39Z</time>
      </trkpt>
      <trkpt lat="43.04174" lon="1.94265">
        <ele>334.3</ele>
        <time>2026-05-29T08:43:44Z</time>
      </trkpt>
      <trkpt lat="43.04168" lon="1.94263">
        <ele>334.1</ele>
        <time>2026-05-29T08:43:49Z</time>
      </trkpt>
      <trkpt lat="43.04161" lon="1.94262">
        <ele>334</ele>
        <time>2026-05-29T08:43:54Z</time>
      </trkpt>
      <trkpt lat="43.04152" lon="1.9426">
        <ele>333.8</ele>
        <time>2026-05-29T08:43:59Z</time>
      </trkpt>
      <trkpt lat="43.04145" lon="1.9426">
        <ele>333.8</ele>
        <time>2026-05-29T08:44:04Z</time>
      </trkpt>
      <trkpt lat="43.04139" lon="1.94259">
        <ele>333.7</ele>
        <time>2026-05-29T08:44:09Z</time>
      </trkpt>
      <trkpt lat="43.04132" lon="1.94258">
        <ele>333.6</ele>
        <time>2026-05-29T08:44:14Z</time>
      </trkpt>
      <trkpt lat="43.04125" lon="1.94259">
        <ele>333.7</ele>
        <time>2026-05-29T08:44:19Z</time>
      </trkpt>
      <trkpt lat="43.04119" lon="1.94259">
        <ele>333.8</ele>
        <time>2026-05-29T08:44:24Z</time>
      </trkpt>
      <trkpt lat="43.04113" lon="1.9426">
        <ele>333.9</ele>
        <time>2026-05-29T08:44:29Z</time>
      </trkpt>
      <trkpt lat="43.04106" lon="1.9426">
        <ele>334</ele>
        <time>2026-05-29T08:44:34Z</time>
      </trkpt>
      <trkpt lat="43.041" lon="1.9426">
        <ele>334</ele>
        <time>2026-05-29T08:44:39Z</time>
      </trkpt>
      <trkpt lat="43.04093" lon="1.94259">
        <ele>333.9</ele>
        <time>2026-05-29T08:44:44Z</time>
      </trkpt>
      <trkpt lat="43.04087" lon="1.94257">
        <ele>333.7</ele>
        <time>2026-05-29T08:44:49Z</time>
      </trkpt>
      <trkpt lat="43.04081" lon="1.94258">
        <ele>333.9</ele>
        <time>2026-05-29T08:44:54Z</time>
      </trkpt>
      <trkpt lat="43.04073" lon="1.94257">
        <ele>333.7</ele>
        <time>2026-05-29T08:44:59Z</time>
      </trkpt>
      <trkpt lat="43.04066" lon="1.94257">
        <ele>333.7</ele>
        <time>2026-05-29T08:45:04Z</time>
      </trkpt>
      <trkpt lat="43.0406" lon="1.94255">
        <ele>333.5</ele>
        <time>2026-05-29T08:45:09Z</time>
      </trkpt>
      <trkpt lat="43.04054" lon="1.94255">
        <ele>333.5</ele>
        <time>2026-05-29T08:45:14Z</time>
      </trkpt>
      <trkpt lat="43.04048" lon="1.94255">
        <ele>333.5</ele>
        <time>2026-05-29T08:45:19Z</time>
      </trkpt>
      <trkpt lat="43.04041" lon="1.94252">
        <ele>333.2</ele>
        <time>2026-05-29T08:45:24Z</time>
      </trkpt>
      <trkpt lat="43.04035" lon="1.9425">
        <ele>333</ele>
        <time>2026-05-29T08:45:29Z</time>
      </trkpt>
      <trkpt lat="43.04028" lon="1.94248">
        <ele>332.9</ele>
        <time>2026-05-29T08:45:34Z</time>
      </trkpt>
      <trkpt lat="43.0402" lon="1.94247">
        <ele>332.8</ele>
        <time>2026-05-29T08:45:39Z</time>
      </trkpt>
      <trkpt lat="43.04014" lon="1.94245">
        <ele>332.7</ele>
        <time>2026-05-29T08:45:44Z</time>
      </trkpt>
      <trkpt lat="43.04007" lon="1.94244">
        <ele>332.7</ele>
        <time>2026-05-29T08:45:49Z</time>
      </trkpt>
      <trkpt lat="43.04" lon="1.94243">
        <ele>332.7</ele>
        <time>2026-05-29T08:45:54Z</time>
      </trkpt>
      <trkpt lat="43.03993" lon="1.94243">
        <ele>332.9</ele>
        <time>2026-05-29T08:45:59Z</time>
      </trkpt>
      <trkpt lat="43.03986" lon="1.94241">
        <ele>333</ele>
        <time>2026-05-29T08:46:04Z</time>
      </trkpt>
      <trkpt lat="43.0398" lon="1.9424">
        <ele>333.2</ele>
        <time>2026-05-29T08:46:09Z</time>
      </trkpt>
      <trkpt lat="43.03973" lon="1.9424">
        <ele>333.4</ele>
        <time>2026-05-29T08:46:14Z</time>
      </trkpt>
      <trkpt lat="43.03967" lon="1.94239">
        <ele>333.6</ele>
        <time>2026-05-29T08:46:19Z</time>
      </trkpt>
      <trkpt lat="43.03961" lon="1.94238">
        <ele>333.7</ele>
        <time>2026-05-29T08:46:24Z</time>
      </trkpt>
      <trkpt lat="43.03954" lon="1.94237">
        <ele>333.9</ele>
        <time>2026-05-29T08:46:29Z</time>
      </trkpt>
      <trkpt lat="43.03946" lon="1.94237">
        <ele>334.1</ele>
        <time>2026-05-29T08:46:34Z</time>
      </trkpt>
      <trkpt lat="43.0394" lon="1.94236">
        <ele>334.2</ele>
        <time>2026-05-29T08:46:39Z</time>
      </trkpt>
      <trkpt lat="43.03933" lon="1.94235">
        <ele>334.4</ele>
        <time>2026-05-29T08:46:44Z</time>
      </trkpt>
      <trkpt lat="43.03927" lon="1.94234">
        <ele>334.5</ele>
        <time>2026-05-29T08:46:49Z</time>
      </trkpt>
      <trkpt lat="43.03921" lon="1.94233">
        <ele>334.6</ele>
        <time>2026-05-29T08:46:54Z</time>
      </trkpt>
      <trkpt lat="43.03913" lon="1.94232">
        <ele>334.8</ele>
        <time>2026-05-29T08:46:59Z</time>
      </trkpt>
      <trkpt lat="43.03906" lon="1.94231">
        <ele>335</ele>
        <time>2026-05-29T08:47:04Z</time>
      </trkpt>
      <trkpt lat="43.039" lon="1.9423">
        <ele>335.2</ele>
        <time>2026-05-29T08:47:09Z</time>
      </trkpt>
      <trkpt lat="43.03893" lon="1.9423">
        <ele>335.4</ele>
        <time>2026-05-29T08:47:14Z</time>
      </trkpt>
      <trkpt lat="43.03887" lon="1.9423">
        <ele>335.6</ele>
        <time>2026-05-29T08:47:19Z</time>
      </trkpt>
      <trkpt lat="43.03881" lon="1.9423">
        <ele>335.9</ele>
        <time>2026-05-29T08:47:24Z</time>
      </trkpt>
      <trkpt lat="43.03874" lon="1.94229">
        <ele>336</ele>
        <time>2026-05-29T08:47:29Z</time>
      </trkpt>
      <trkpt lat="43.03866" lon="1.94227">
        <ele>336.1</ele>
        <time>2026-05-29T08:47:34Z</time>
      </trkpt>
      <trkpt lat="43.0386" lon="1.94225">
        <ele>336.1</ele>
        <time>2026-05-29T08:47:39Z</time>
      </trkpt>
      <trkpt lat="43.03853" lon="1.94224">
        <ele>336.2</ele>
        <time>2026-05-29T08:47:44Z</time>
      </trkpt>
      <trkpt lat="43.03847" lon="1.94225">
        <ele>336.5</ele>
        <time>2026-05-29T08:47:49Z</time>
      </trkpt>
      <trkpt lat="43.0384" lon="1.94224">
        <ele>336.7</ele>
        <time>2026-05-29T08:47:54Z</time>
      </trkpt>
      <trkpt lat="43.03832" lon="1.94222">
        <ele>336.7</ele>
        <time>2026-05-29T08:47:59Z</time>
      </trkpt>
      <trkpt lat="43.03825" lon="1.94221">
        <ele>336.7</ele>
        <time>2026-05-29T08:48:04Z</time>
      </trkpt>
      <trkpt lat="43.03819" lon="1.94221">
        <ele>336.9</ele>
        <time>2026-05-29T08:48:09Z</time>
      </trkpt>
      <trkpt lat="43.03812" lon="1.94222">
        <ele>337.2</ele>
        <time>2026-05-29T08:48:14Z</time>
      </trkpt>
      <trkpt lat="43.03806" lon="1.94221">
        <ele>337.2</ele>
        <time>2026-05-29T08:48:19Z</time>
      </trkpt>
      <trkpt lat="43.03799" lon="1.94221">
        <ele>337.3</ele>
        <time>2026-05-29T08:48:24Z</time>
      </trkpt>
      <trkpt lat="43.03792" lon="1.94221">
        <ele>337.5</ele>
        <time>2026-05-29T08:48:29Z</time>
      </trkpt>
      <trkpt lat="43.03786" lon="1.94221">
        <ele>337.7</ele>
        <time>2026-05-29T08:48:34Z</time>
      </trkpt>
      <trkpt lat="43.03779" lon="1.94218">
        <ele>337.5</ele>
        <time>2026-05-29T08:48:39Z</time>
      </trkpt>
      <trkpt lat="43.03772" lon="1.94217">
        <ele>337.5</ele>
        <time>2026-05-29T08:48:44Z</time>
      </trkpt>
      <trkpt lat="43.03765" lon="1.94215">
        <ele>337.4</ele>
        <time>2026-05-29T08:48:49Z</time>
      </trkpt>
      <trkpt lat="43.03758" lon="1.94215">
        <ele>337.6</ele>
        <time>2026-05-29T08:48:54Z</time>
      </trkpt>
      <trkpt lat="43.03752" lon="1.94214">
        <ele>337.6</ele>
        <time>2026-05-29T08:48:59Z</time>
      </trkpt>
      <trkpt lat="43.03744" lon="1.94211">
        <ele>337.5</ele>
        <time>2026-05-29T08:49:04Z</time>
      </trkpt>
      <trkpt lat="43.03737" lon="1.9421">
        <ele>337.7</ele>
        <time>2026-05-29T08:49:09Z</time>
      </trkpt>
      <trkpt lat="43.0373" lon="1.94209">
        <ele>337.8</ele>
        <time>2026-05-29T08:49:14Z</time>
      </trkpt>
      <trkpt lat="43.03724" lon="1.94208">
        <ele>337.9</ele>
        <time>2026-05-29T08:49:19Z</time>
      </trkpt>
      <trkpt lat="43.03716" lon="1.94205">
        <ele>337.8</ele>
        <time>2026-05-29T08:49:24Z</time>
      </trkpt>
      <trkpt lat="43.0371" lon="1.94204">
        <ele>337.9</ele>
        <time>2026-05-29T08:49:29Z</time>
      </trkpt>
      <trkpt lat="43.03703" lon="1.94204">
        <ele>338.1</ele>
        <time>2026-05-29T08:49:34Z</time>
      </trkpt>
      <trkpt lat="43.03697" lon="1.94203">
        <ele>338.2</ele>
        <time>2026-05-29T08:49:39Z</time>
      </trkpt>
      <trkpt lat="43.0369" lon="1.94203">
        <ele>338.4</ele>
        <time>2026-05-29T08:49:44Z</time>
      </trkpt>
      <trkpt lat="43.03684" lon="1.94203">
        <ele>338.6</ele>
        <time>2026-05-29T08:49:49Z</time>
      </trkpt>
      <trkpt lat="43.03677" lon="1.942">
        <ele>338.5</ele>
        <time>2026-05-29T08:49:54Z</time>
      </trkpt>
      <trkpt lat="43.03671" lon="1.942">
        <ele>338.7</ele>
        <time>2026-05-29T08:49:59Z</time>
      </trkpt>
      <trkpt lat="43.03663" lon="1.942">
        <ele>338.8</ele>
        <time>2026-05-29T08:50:04Z</time>
      </trkpt>
      <trkpt lat="43.03658" lon="1.94199">
        <ele>338.6</ele>
        <time>2026-05-29T08:50:09Z</time>
      </trkpt>
      <trkpt lat="43.03651" lon="1.94199">
        <ele>338.5</ele>
        <time>2026-05-29T08:50:14Z</time>
      </trkpt>
      <trkpt lat="43.03644" lon="1.94201">
        <ele>338.7</ele>
        <time>2026-05-29T08:50:19Z</time>
      </trkpt>
      <trkpt lat="43.03638" lon="1.94201">
        <ele>338.6</ele>
        <time>2026-05-29T08:50:24Z</time>
      </trkpt>
      <trkpt lat="43.03632" lon="1.94201">
        <ele>338.6</ele>
        <time>2026-05-29T08:50:29Z</time>
      </trkpt>
      <trkpt lat="43.03627" lon="1.94203">
        <ele>338.7</ele>
        <time>2026-05-29T08:50:34Z</time>
      </trkpt>
      <trkpt lat="43.0362" lon="1.94205">
        <ele>338.8</ele>
        <time>2026-05-29T08:50:39Z</time>
      </trkpt>
      <trkpt lat="43.03614" lon="1.94206">
        <ele>338.8</ele>
        <time>2026-05-29T08:50:44Z</time>
      </trkpt>
      <trkpt lat="43.03608" lon="1.94207">
        <ele>338.8</ele>
        <time>2026-05-29T08:50:49Z</time>
      </trkpt>
      <trkpt lat="43.03602" lon="1.94209">
        <ele>338.9</ele>
        <time>2026-05-29T08:50:54Z</time>
      </trkpt>
      <trkpt lat="43.03595" lon="1.94209">
        <ele>338.8</ele>
        <time>2026-05-29T08:50:59Z</time>
      </trkpt>
      <trkpt lat="43.03588" lon="1.94208">
        <ele>338.6</ele>
        <time>2026-05-29T08:51:04Z</time>
      </trkpt>
      <trkpt lat="43.03581" lon="1.94208">
        <ele>338.3</ele>
        <time>2026-05-29T08:51:09Z</time>
      </trkpt>
      <trkpt lat="43.03573" lon="1.94209">
        <ele>337.7</ele>
        <time>2026-05-29T08:51:14Z</time>
      </trkpt>
      <trkpt lat="43.03567" lon="1.94211">
        <ele>337.4</ele>
        <time>2026-05-29T08:51:19Z</time>
      </trkpt>
      <trkpt lat="43.03561" lon="1.94213">
        <ele>337</ele>
        <time>2026-05-29T08:51:24Z</time>
      </trkpt>
      <trkpt lat="43.03555" lon="1.94215">
        <ele>336.6</ele>
        <time>2026-05-29T08:51:29Z</time>
      </trkpt>
      <trkpt lat="43.03549" lon="1.94219">
        <ele>336.3</ele>
        <time>2026-05-29T08:51:34Z</time>
      </trkpt>
      <trkpt lat="43.03542" lon="1.94222">
        <ele>335.9</ele>
        <time>2026-05-29T08:51:39Z</time>
      </trkpt>
      <trkpt lat="43.03534" lon="1.94225">
        <ele>335.3</ele>
        <time>2026-05-29T08:51:44Z</time>
      </trkpt>
      <trkpt lat="43.03528" lon="1.94227">
        <ele>334.9</ele>
        <time>2026-05-29T08:51:49Z</time>
      </trkpt>
      <trkpt lat="43.03522" lon="1.94231">
        <ele>334.5</ele>
        <time>2026-05-29T08:51:54Z</time>
      </trkpt>
      <trkpt lat="43.03516" lon="1.94235">
        <ele>334.1</ele>
        <time>2026-05-29T08:51:59Z</time>
      </trkpt>
      <trkpt lat="43.0351" lon="1.9424">
        <ele>333.7</ele>
        <time>2026-05-29T08:52:04Z</time>
      </trkpt>
      <trkpt lat="43.03504" lon="1.94242">
        <ele>333.2</ele>
        <time>2026-05-29T08:52:09Z</time>
      </trkpt>
      <trkpt lat="43.03496" lon="1.94245">
        <ele>332.7</ele>
        <time>2026-05-29T08:52:14Z</time>
      </trkpt>
      <trkpt lat="43.0349" lon="1.9425">
        <ele>332.6</ele>
        <time>2026-05-29T08:52:19Z</time>
      </trkpt>
      <trkpt lat="43.03484" lon="1.94255">
        <ele>332.6</ele>
        <time>2026-05-29T08:52:24Z</time>
      </trkpt>
      <trkpt lat="43.03478" lon="1.94259">
        <ele>332.6</ele>
        <time>2026-05-29T08:52:29Z</time>
      </trkpt>
      <trkpt lat="43.03471" lon="1.94261">
        <ele>332.4</ele>
        <time>2026-05-29T08:52:34Z</time>
      </trkpt>
      <trkpt lat="43.03464" lon="1.94265">
        <ele>332.3</ele>
        <time>2026-05-29T08:52:39Z</time>
      </trkpt>
      <trkpt lat="43.03459" lon="1.94269">
        <ele>332.2</ele>
        <time>2026-05-29T08:52:44Z</time>
      </trkpt>
      <trkpt lat="43.03452" lon="1.94274">
        <ele>332.1</ele>
        <time>2026-05-29T08:52:49Z</time>
      </trkpt>
      <trkpt lat="43.03446" lon="1.94279">
        <ele>332</ele>
        <time>2026-05-29T08:52:54Z</time>
      </trkpt>
      <trkpt lat="43.0344" lon="1.94285">
        <ele>331.9</ele>
        <time>2026-05-29T08:52:59Z</time>
      </trkpt>
      <trkpt lat="43.03435" lon="1.9429">
        <ele>331.8</ele>
        <time>2026-05-29T08:53:04Z</time>
      </trkpt>
      <trkpt lat="43.03433" lon="1.94294">
        <ele>331.9</ele>
        <time>2026-05-29T08:53:09Z</time>
      </trkpt>
      <trkpt lat="43.03429" lon="1.943">
        <ele>331.8</ele>
        <time>2026-05-29T08:53:14Z</time>
      </trkpt>
      <trkpt lat="43.03425" lon="1.94304">
        <ele>331.7</ele>
        <time>2026-05-29T08:53:19Z</time>
      </trkpt>
      <trkpt lat="43.03425" lon="1.94305">
        <ele>331.8</ele>
        <time>2026-05-29T08:53:24Z</time>
      </trkpt>
      <trkpt lat="43.03424" lon="1.94304">
        <ele>331.7</ele>
        <time>2026-05-29T08:53:29Z</time>
      </trkpt>
      <trkpt lat="43.0342" lon="1.9431">
        <ele>331.6</ele>
        <time>2026-05-29T08:53:34Z</time>
      </trkpt>
      <trkpt lat="43.03415" lon="1.94315">
        <ele>331.5</ele>
        <time>2026-05-29T08:53:39Z</time>
      </trkpt>
      <trkpt lat="43.03411" lon="1.9432">
        <ele>331.6</ele>
        <time>2026-05-29T08:53:44Z</time>
      </trkpt>
      <trkpt lat="43.03408" lon="1.94324">
        <ele>331.6</ele>
        <time>2026-05-29T08:53:49Z</time>
      </trkpt>
      <trkpt lat="43.03403" lon="1.9433">
        <ele>331.6</ele>
        <time>2026-05-29T08:53:54Z</time>
      </trkpt>
      <trkpt lat="43.03398" lon="1.94336">
        <ele>331.6</ele>
        <time>2026-05-29T08:53:59Z</time>
      </trkpt>
      <trkpt lat="43.03394" lon="1.94341">
        <ele>331.6</ele>
        <time>2026-05-29T08:54:04Z</time>
      </trkpt>
      <trkpt lat="43.0339" lon="1.94348">
        <ele>331.7</ele>
        <time>2026-05-29T08:54:09Z</time>
      </trkpt>
      <trkpt lat="43.03385" lon="1.94354">
        <ele>331.6</ele>
        <time>2026-05-29T08:54:14Z</time>
      </trkpt>
      <trkpt lat="43.03382" lon="1.94359">
        <ele>331.7</ele>
        <time>2026-05-29T08:54:19Z</time>
      </trkpt>
      <trkpt lat="43.03376" lon="1.94367">
        <ele>331.6</ele>
        <time>2026-05-29T08:54:24Z</time>
      </trkpt>
      <trkpt lat="43.03372" lon="1.9437">
        <ele>331.6</ele>
        <time>2026-05-29T08:54:29Z</time>
      </trkpt>
      <trkpt lat="43.03368" lon="1.94377">
        <ele>331.6</ele>
        <time>2026-05-29T08:54:34Z</time>
      </trkpt>
      <trkpt lat="43.03365" lon="1.94384">
        <ele>331.6</ele>
        <time>2026-05-29T08:54:39Z</time>
      </trkpt>
      <trkpt lat="43.0336" lon="1.94393">
        <ele>331.6</ele>
        <time>2026-05-29T08:54:44Z</time>
      </trkpt>
      <trkpt lat="43.03356" lon="1.94401">
        <ele>331.6</ele>
        <time>2026-05-29T08:54:49Z</time>
      </trkpt>
      <trkpt lat="43.03352" lon="1.94407">
        <ele>331.5</ele>
        <time>2026-05-29T08:54:54Z</time>
      </trkpt>
      <trkpt lat="43.0335" lon="1.94414">
        <ele>331.6</ele>
        <time>2026-05-29T08:54:59Z</time>
      </trkpt>
      <trkpt lat="43.03347" lon="1.94421">
        <ele>331.7</ele>
        <time>2026-05-29T08:55:04Z</time>
      </trkpt>
      <trkpt lat="43.03342" lon="1.94428">
        <ele>331.7</ele>
        <time>2026-05-29T08:55:09Z</time>
      </trkpt>
      <trkpt lat="43.03338" lon="1.94435">
        <ele>331.7</ele>
        <time>2026-05-29T08:55:14Z</time>
      </trkpt>
      <trkpt lat="43.03335" lon="1.94444">
        <ele>331.8</ele>
        <time>2026-05-29T08:55:19Z</time>
      </trkpt>
      <trkpt lat="43.03332" lon="1.94453">
        <ele>331.9</ele>
        <time>2026-05-29T08:55:24Z</time>
      </trkpt>
      <trkpt lat="43.03327" lon="1.94461">
        <ele>332</ele>
        <time>2026-05-29T08:55:29Z</time>
      </trkpt>
      <trkpt lat="43.03325" lon="1.94469">
        <ele>332.1</ele>
        <time>2026-05-29T08:55:34Z</time>
      </trkpt>
      <trkpt lat="43.03322" lon="1.94477">
        <ele>332.3</ele>
        <time>2026-05-29T08:55:39Z</time>
      </trkpt>
      <trkpt lat="43.0332" lon="1.94485">
        <ele>332.4</ele>
        <time>2026-05-29T08:55:44Z</time>
      </trkpt>
      <trkpt lat="43.03317" lon="1.94493">
        <ele>332.5</ele>
        <time>2026-05-29T08:55:49Z</time>
      </trkpt>
      <trkpt lat="43.03314" lon="1.945">
        <ele>332.5</ele>
        <time>2026-05-29T08:55:54Z</time>
      </trkpt>
      <trkpt lat="43.03311" lon="1.94506">
        <ele>332.7</ele>
        <time>2026-05-29T08:55:59Z</time>
      </trkpt>
      <trkpt lat="43.03308" lon="1.94515">
        <ele>333</ele>
        <time>2026-05-29T08:56:04Z</time>
      </trkpt>
      <trkpt lat="43.03305" lon="1.94523">
        <ele>333.2</ele>
        <time>2026-05-29T08:56:09Z</time>
      </trkpt>
      <trkpt lat="43.03301" lon="1.94532">
        <ele>333.5</ele>
        <time>2026-05-29T08:56:14Z</time>
      </trkpt>
      <trkpt lat="43.03297" lon="1.94543">
        <ele>333.7</ele>
        <time>2026-05-29T08:56:19Z</time>
      </trkpt>
      <trkpt lat="43.03293" lon="1.9455">
        <ele>333.9</ele>
        <time>2026-05-29T08:56:24Z</time>
      </trkpt>
      <trkpt lat="43.03289" lon="1.94558">
        <ele>334</ele>
        <time>2026-05-29T08:56:29Z</time>
      </trkpt>
      <trkpt lat="43.03285" lon="1.94566">
        <ele>334.1</ele>
        <time>2026-05-29T08:56:34Z</time>
      </trkpt>
      <trkpt lat="43.03282" lon="1.94574">
        <ele>334.2</ele>
        <time>2026-05-29T08:56:39Z</time>
      </trkpt>
      <trkpt lat="43.03279" lon="1.94585">
        <ele>334.4</ele>
        <time>2026-05-29T08:56:44Z</time>
      </trkpt>
      <trkpt lat="43.03275" lon="1.94595">
        <ele>334.4</ele>
        <time>2026-05-29T08:56:49Z</time>
      </trkpt>
      <trkpt lat="43.03272" lon="1.94604">
        <ele>334.3</ele>
        <time>2026-05-29T08:56:54Z</time>
      </trkpt>
      <trkpt lat="43.03268" lon="1.94609">
        <ele>334.1</ele>
        <time>2026-05-29T08:56:59Z</time>
      </trkpt>
      <trkpt lat="43.03266" lon="1.94617">
        <ele>334.1</ele>
        <time>2026-05-29T08:57:04Z</time>
      </trkpt>
      <trkpt lat="43.03264" lon="1.94625">
        <ele>334</ele>
        <time>2026-05-29T08:57:09Z</time>
      </trkpt>
      <trkpt lat="43.0326" lon="1.94635">
        <ele>333.8</ele>
        <time>2026-05-29T08:57:14Z</time>
      </trkpt>
      <trkpt lat="43.03256" lon="1.94644">
        <ele>333.5</ele>
        <time>2026-05-29T08:57:19Z</time>
      </trkpt>
      <trkpt lat="43.03254" lon="1.94651">
        <ele>333.3</ele>
        <time>2026-05-29T08:57:24Z</time>
      </trkpt>
      <trkpt lat="43.03249" lon="1.9466">
        <ele>333</ele>
        <time>2026-05-29T08:57:29Z</time>
      </trkpt>
      <trkpt lat="43.03246" lon="1.94667">
        <ele>333</ele>
        <time>2026-05-29T08:57:34Z</time>
      </trkpt>
      <trkpt lat="43.03244" lon="1.94676">
        <ele>333.5</ele>
        <time>2026-05-29T08:57:39Z</time>
      </trkpt>
      <trkpt lat="43.03239" lon="1.94686">
        <ele>333.9</ele>
        <time>2026-05-29T08:57:44Z</time>
      </trkpt>
      <trkpt lat="43.03237" lon="1.94693">
        <ele>334.3</ele>
        <time>2026-05-29T08:57:49Z</time>
      </trkpt>
      <trkpt lat="43.03235" lon="1.94699">
        <ele>334.6</ele>
        <time>2026-05-29T08:57:54Z</time>
      </trkpt>
      <trkpt lat="43.03232" lon="1.94707">
        <ele>334.9</ele>
        <time>2026-05-29T08:57:59Z</time>
      </trkpt>
      <trkpt lat="43.0323" lon="1.94715">
        <ele>335.2</ele>
        <time>2026-05-29T08:58:04Z</time>
      </trkpt>
      <trkpt lat="43.03227" lon="1.94726">
        <ele>335.7</ele>
        <time>2026-05-29T08:58:09Z</time>
      </trkpt>
      <trkpt lat="43.03224" lon="1.94733">
        <ele>335.9</ele>
        <time>2026-05-29T08:58:14Z</time>
      </trkpt>
      <trkpt lat="43.03223" lon="1.94738">
        <ele>336.1</ele>
        <time>2026-05-29T08:58:19Z</time>
      </trkpt>
      <trkpt lat="43.03219" lon="1.94744">
        <ele>336.2</ele>
        <time>2026-05-29T08:58:24Z</time>
      </trkpt>
      <trkpt lat="43.03217" lon="1.94754">
        <ele>336.5</ele>
        <time>2026-05-29T08:58:29Z</time>
      </trkpt>
      <trkpt lat="43.03213" lon="1.94767">
        <ele>336.5</ele>
        <time>2026-05-29T08:58:34Z</time>
      </trkpt>
      <trkpt lat="43.03208" lon="1.94774">
        <ele>336.4</ele>
        <time>2026-05-29T08:58:39Z</time>
      </trkpt>
      <trkpt lat="43.03205" lon="1.94781">
        <ele>336.4</ele>
        <time>2026-05-29T08:58:44Z</time>
      </trkpt>
      <trkpt lat="43.03203" lon="1.9479">
        <ele>336.4</ele>
        <time>2026-05-29T08:58:49Z</time>
      </trkpt>
      <trkpt lat="43.032" lon="1.94798">
        <ele>336.4</ele>
        <time>2026-05-29T08:58:54Z</time>
      </trkpt>
      <trkpt lat="43.03196" lon="1.94806">
        <ele>336.3</ele>
        <time>2026-05-29T08:58:59Z</time>
      </trkpt>
      <trkpt lat="43.03193" lon="1.94813">
        <ele>336.3</ele>
        <time>2026-05-29T08:59:04Z</time>
      </trkpt>
      <trkpt lat="43.0319" lon="1.94822">
        <ele>336.2</ele>
        <time>2026-05-29T08:59:09Z</time>
      </trkpt>
      <trkpt lat="43.03187" lon="1.94828">
        <ele>336.1</ele>
        <time>2026-05-29T08:59:14Z</time>
      </trkpt>
      <trkpt lat="43.03185" lon="1.94835">
        <ele>336.2</ele>
        <time>2026-05-29T08:59:19Z</time>
      </trkpt>
      <trkpt lat="43.03181" lon="1.94845">
        <ele>336.3</ele>
        <time>2026-05-29T08:59:24Z</time>
      </trkpt>
      <trkpt lat="43.03177" lon="1.94854">
        <ele>336.4</ele>
        <time>2026-05-29T08:59:29Z</time>
      </trkpt>
      <trkpt lat="43.03175" lon="1.94861">
        <ele>336.6</ele>
        <time>2026-05-29T08:59:34Z</time>
      </trkpt>
      <trkpt lat="43.03172" lon="1.9487">
        <ele>336.7</ele>
        <time>2026-05-29T08:59:39Z</time>
      </trkpt>
      <trkpt lat="43.0317" lon="1.94879">
        <ele>336.9</ele>
        <time>2026-05-29T08:59:44Z</time>
      </trkpt>
      <trkpt lat="43.03166" lon="1.94887">
        <ele>336.9</ele>
        <time>2026-05-29T08:59:49Z</time>
      </trkpt>
      <trkpt lat="43.03162" lon="1.94892">
        <ele>336.9</ele>
        <time>2026-05-29T08:59:54Z</time>
      </trkpt>
      <trkpt lat="43.03159" lon="1.94899">
        <ele>336.9</ele>
        <time>2026-05-29T08:59:59Z</time>
      </trkpt>
      <trkpt lat="43.03155" lon="1.94909">
        <ele>337</ele>
        <time>2026-05-29T09:00:04Z</time>
      </trkpt>
      <trkpt lat="43.03151" lon="1.94915">
        <ele>337</ele>
        <time>2026-05-29T09:00:09Z</time>
      </trkpt>
      <trkpt lat="43.03147" lon="1.94922">
        <ele>336.9</ele>
        <time>2026-05-29T09:00:14Z</time>
      </trkpt>
      <trkpt lat="43.03142" lon="1.94932">
        <ele>336.8</ele>
        <time>2026-05-29T09:00:19Z</time>
      </trkpt>
      <trkpt lat="43.03138" lon="1.94939">
        <ele>336.6</ele>
        <time>2026-05-29T09:00:24Z</time>
      </trkpt>
      <trkpt lat="43.03134" lon="1.94946">
        <ele>336.5</ele>
        <time>2026-05-29T09:00:29Z</time>
      </trkpt>
      <trkpt lat="43.03131" lon="1.94954">
        <ele>336.4</ele>
        <time>2026-05-29T09:00:34Z</time>
      </trkpt>
      <trkpt lat="43.03128" lon="1.94962">
        <ele>336.3</ele>
        <time>2026-05-29T09:00:39Z</time>
      </trkpt>
      <trkpt lat="43.03124" lon="1.94967">
        <ele>336</ele>
        <time>2026-05-29T09:00:44Z</time>
      </trkpt>
      <trkpt lat="43.0312" lon="1.94973">
        <ele>335.8</ele>
        <time>2026-05-29T09:00:49Z</time>
      </trkpt>
      <trkpt lat="43.03115" lon="1.94982">
        <ele>335.5</ele>
        <time>2026-05-29T09:00:54Z</time>
      </trkpt>
      <trkpt lat="43.03111" lon="1.94988">
        <ele>335.2</ele>
        <time>2026-05-29T09:00:59Z</time>
      </trkpt>
      <trkpt lat="43.03108" lon="1.94994">
        <ele>335</ele>
        <time>2026-05-29T09:01:04Z</time>
      </trkpt>
      <trkpt lat="43.03104" lon="1.95002">
        <ele>334.9</ele>
        <time>2026-05-29T09:01:09Z</time>
      </trkpt>
      <trkpt lat="43.031" lon="1.95011">
        <ele>335.2</ele>
        <time>2026-05-29T09:01:14Z</time>
      </trkpt>
      <trkpt lat="43.03096" lon="1.95016">
        <ele>335.2</ele>
        <time>2026-05-29T09:01:19Z</time>
      </trkpt>
      <trkpt lat="43.03092" lon="1.95019">
        <ele>335</ele>
        <time>2026-05-29T09:01:24Z</time>
      </trkpt>
      <trkpt lat="43.03087" lon="1.95025">
        <ele>334.9</ele>
        <time>2026-05-29T09:01:29Z</time>
      </trkpt>
      <trkpt lat="43.03082" lon="1.9503">
        <ele>334.8</ele>
        <time>2026-05-29T09:01:34Z</time>
      </trkpt>
      <trkpt lat="43.03078" lon="1.95036">
        <ele>335.1</ele>
        <time>2026-05-29T09:01:39Z</time>
      </trkpt>
      <trkpt lat="43.03074" lon="1.95042">
        <ele>335.3</ele>
        <time>2026-05-29T09:01:44Z</time>
      </trkpt>
      <trkpt lat="43.03069" lon="1.95048">
        <ele>335.5</ele>
        <time>2026-05-29T09:01:49Z</time>
      </trkpt>
      <trkpt lat="43.03064" lon="1.95053">
        <ele>335.5</ele>
        <time>2026-05-29T09:01:54Z</time>
      </trkpt>
      <trkpt lat="43.03061" lon="1.95059">
        <ele>335.7</ele>
        <time>2026-05-29T09:01:59Z</time>
      </trkpt>
      <trkpt lat="43.03056" lon="1.95064">
        <ele>335.7</ele>
        <time>2026-05-29T09:02:04Z</time>
      </trkpt>
      <trkpt lat="43.03051" lon="1.95069">
        <ele>335.6</ele>
        <time>2026-05-29T09:02:09Z</time>
      </trkpt>
      <trkpt lat="43.03046" lon="1.95075">
        <ele>335.5</ele>
        <time>2026-05-29T09:02:14Z</time>
      </trkpt>
      <trkpt lat="43.03039" lon="1.9508">
        <ele>335.3</ele>
        <time>2026-05-29T09:02:19Z</time>
      </trkpt>
      <trkpt lat="43.03034" lon="1.95085">
        <ele>335.1</ele>
        <time>2026-05-29T09:02:24Z</time>
      </trkpt>
      <trkpt lat="43.03028" lon="1.95089">
        <ele>335</ele>
        <time>2026-05-29T09:02:29Z</time>
      </trkpt>
      <trkpt lat="43.03022" lon="1.95094">
        <ele>334.9</ele>
        <time>2026-05-29T09:02:34Z</time>
      </trkpt>
      <trkpt lat="43.03017" lon="1.951">
        <ele>334.8</ele>
        <time>2026-05-29T09:02:39Z</time>
      </trkpt>
      <trkpt lat="43.03011" lon="1.95106">
        <ele>334.7</ele>
        <time>2026-05-29T09:02:44Z</time>
      </trkpt>
      <trkpt lat="43.03006" lon="1.9511">
        <ele>334.4</ele>
        <time>2026-05-29T09:02:49Z</time>
      </trkpt>
      <trkpt lat="43.03001" lon="1.95115">
        <ele>334.2</ele>
        <time>2026-05-29T09:02:54Z</time>
      </trkpt>
      <trkpt lat="43.02996" lon="1.95119">
        <ele>334.2</ele>
        <time>2026-05-29T09:02:59Z</time>
      </trkpt>
      <trkpt lat="43.02991" lon="1.95124">
        <ele>334.4</ele>
        <time>2026-05-29T09:03:04Z</time>
      </trkpt>
      <trkpt lat="43.02986" lon="1.9513">
        <ele>334.5</ele>
        <time>2026-05-29T09:03:09Z</time>
      </trkpt>
      <trkpt lat="43.02981" lon="1.95135">
        <ele>334.6</ele>
        <time>2026-05-29T09:03:14Z</time>
      </trkpt>
      <trkpt lat="43.02977" lon="1.9514">
        <ele>334.7</ele>
        <time>2026-05-29T09:03:19Z</time>
      </trkpt>
      <trkpt lat="43.02972" lon="1.95146">
        <ele>334.8</ele>
        <time>2026-05-29T09:03:24Z</time>
      </trkpt>
      <trkpt lat="43.02966" lon="1.95151">
        <ele>334.8</ele>
        <time>2026-05-29T09:03:29Z</time>
      </trkpt>
      <trkpt lat="43.0296" lon="1.95156">
        <ele>334.8</ele>
        <time>2026-05-29T09:03:34Z</time>
      </trkpt>
      <trkpt lat="43.02955" lon="1.95162">
        <ele>334.8</ele>
        <time>2026-05-29T09:03:39Z</time>
      </trkpt>
      <trkpt lat="43.02951" lon="1.95169">
        <ele>335</ele>
        <time>2026-05-29T09:03:44Z</time>
      </trkpt>
      <trkpt lat="43.02945" lon="1.95173">
        <ele>335.2</ele>
        <time>2026-05-29T09:03:49Z</time>
      </trkpt>
      <trkpt lat="43.0294" lon="1.95179">
        <ele>335.5</ele>
        <time>2026-05-29T09:03:54Z</time>
      </trkpt>
      <trkpt lat="43.02935" lon="1.95183">
        <ele>335.6</ele>
        <time>2026-05-29T09:03:59Z</time>
      </trkpt>
      <trkpt lat="43.02929" lon="1.95189">
        <ele>335.8</ele>
        <time>2026-05-29T09:04:04Z</time>
      </trkpt>
      <trkpt lat="43.02923" lon="1.95194">
        <ele>335.9</ele>
        <time>2026-05-29T09:04:09Z</time>
      </trkpt>
      <trkpt lat="43.02919" lon="1.952">
        <ele>336.1</ele>
        <time>2026-05-29T09:04:14Z</time>
      </trkpt>
      <trkpt lat="43.02913" lon="1.95206">
        <ele>336.3</ele>
        <time>2026-05-29T09:04:19Z</time>
      </trkpt>
      <trkpt lat="43.02908" lon="1.95212">
        <ele>336.4</ele>
        <time>2026-05-29T09:04:24Z</time>
      </trkpt>
      <trkpt lat="43.02902" lon="1.95217">
        <ele>336.5</ele>
        <time>2026-05-29T09:04:29Z</time>
      </trkpt>
      <trkpt lat="43.02896" lon="1.95224">
        <ele>336.7</ele>
        <time>2026-05-29T09:04:34Z</time>
      </trkpt>
      <trkpt lat="43.02891" lon="1.95229">
        <ele>336.7</ele>
        <time>2026-05-29T09:04:39Z</time>
      </trkpt>
      <trkpt lat="43.02886" lon="1.95234">
        <ele>336.8</ele>
        <time>2026-05-29T09:04:44Z</time>
      </trkpt>
      <trkpt lat="43.02881" lon="1.95239">
        <ele>336.8</ele>
        <time>2026-05-29T09:04:49Z</time>
      </trkpt>
      <trkpt lat="43.02875" lon="1.95244">
        <ele>336.7</ele>
        <time>2026-05-29T09:04:54Z</time>
      </trkpt>
      <trkpt lat="43.0287" lon="1.95249">
        <ele>336.7</ele>
        <time>2026-05-29T09:04:59Z</time>
      </trkpt>
      <trkpt lat="43.02863" lon="1.95255">
        <ele>336.8</ele>
        <time>2026-05-29T09:05:04Z</time>
      </trkpt>
      <trkpt lat="43.02859" lon="1.95261">
        <ele>337</ele>
        <time>2026-05-29T09:05:09Z</time>
      </trkpt>
      <trkpt lat="43.02853" lon="1.95267">
        <ele>337.1</ele>
        <time>2026-05-29T09:05:14Z</time>
      </trkpt>
      <trkpt lat="43.02847" lon="1.95272">
        <ele>337.1</ele>
        <time>2026-05-29T09:05:19Z</time>
      </trkpt>
      <trkpt lat="43.02842" lon="1.95278">
        <ele>337.2</ele>
        <time>2026-05-29T09:05:24Z</time>
      </trkpt>
      <trkpt lat="43.02837" lon="1.95282">
        <ele>337.1</ele>
        <time>2026-05-29T09:05:29Z</time>
      </trkpt>
      <trkpt lat="43.02834" lon="1.95288">
        <ele>337.3</ele>
        <time>2026-05-29T09:05:34Z</time>
      </trkpt>
      <trkpt lat="43.02829" lon="1.95296">
        <ele>337.6</ele>
        <time>2026-05-29T09:05:39Z</time>
      </trkpt>
      <trkpt lat="43.02822" lon="1.95302">
        <ele>337.6</ele>
        <time>2026-05-29T09:05:44Z</time>
      </trkpt>
      <trkpt lat="43.02817" lon="1.95306">
        <ele>337.6</ele>
        <time>2026-05-29T09:05:49Z</time>
      </trkpt>
      <trkpt lat="43.02813" lon="1.9531">
        <ele>337.7</ele>
        <time>2026-05-29T09:05:54Z</time>
      </trkpt>
      <trkpt lat="43.02809" lon="1.95316">
        <ele>337.7</ele>
        <time>2026-05-29T09:05:59Z</time>
      </trkpt>
      <trkpt lat="43.02802" lon="1.95322">
        <ele>337.6</ele>
        <time>2026-05-29T09:06:04Z</time>
      </trkpt>
      <trkpt lat="43.02796" lon="1.95329">
        <ele>337.6</ele>
        <time>2026-05-29T09:06:09Z</time>
      </trkpt>
      <trkpt lat="43.02791" lon="1.95334">
        <ele>337.5</ele>
        <time>2026-05-29T09:06:14Z</time>
      </trkpt>
      <trkpt lat="43.02788" lon="1.95339">
        <ele>337.5</ele>
        <time>2026-05-29T09:06:19Z</time>
      </trkpt>
      <trkpt lat="43.02783" lon="1.95345">
        <ele>337.4</ele>
        <time>2026-05-29T09:06:24Z</time>
      </trkpt>
      <trkpt lat="43.02778" lon="1.95352">
        <ele>337.3</ele>
        <time>2026-05-29T09:06:29Z</time>
      </trkpt>
      <trkpt lat="43.02773" lon="1.95356">
        <ele>337</ele>
        <time>2026-05-29T09:06:34Z</time>
      </trkpt>
      <trkpt lat="43.02768" lon="1.95362">
        <ele>336.8</ele>
        <time>2026-05-29T09:06:39Z</time>
      </trkpt>
      <trkpt lat="43.02764" lon="1.95369">
        <ele>336.6</ele>
        <time>2026-05-29T09:06:44Z</time>
      </trkpt>
      <trkpt lat="43.02759" lon="1.95375">
        <ele>336.3</ele>
        <time>2026-05-29T09:06:49Z</time>
      </trkpt>
      <trkpt lat="43.02755" lon="1.9538">
        <ele>336</ele>
        <time>2026-05-29T09:06:54Z</time>
      </trkpt>
      <trkpt lat="43.02751" lon="1.95388">
        <ele>335.8</ele>
        <time>2026-05-29T09:06:59Z</time>
      </trkpt>
      <trkpt lat="43.02745" lon="1.95395">
        <ele>335.7</ele>
        <time>2026-05-29T09:07:04Z</time>
      </trkpt>
      <trkpt lat="43.0274" lon="1.95402">
        <ele>335.7</ele>
        <time>2026-05-29T09:07:09Z</time>
      </trkpt>
      <trkpt lat="43.02736" lon="1.9541">
        <ele>335.8</ele>
        <time>2026-05-29T09:07:14Z</time>
      </trkpt>
      <trkpt lat="43.02732" lon="1.95418">
        <ele>335.8</ele>
        <time>2026-05-29T09:07:19Z</time>
      </trkpt>
      <trkpt lat="43.02728" lon="1.95427">
        <ele>336.1</ele>
        <time>2026-05-29T09:07:24Z</time>
      </trkpt>
      <trkpt lat="43.02724" lon="1.95434">
        <ele>336.3</ele>
        <time>2026-05-29T09:07:29Z</time>
      </trkpt>
      <trkpt lat="43.0272" lon="1.95442">
        <ele>336.5</ele>
        <time>2026-05-29T09:07:34Z</time>
      </trkpt>
      <trkpt lat="43.02715" lon="1.9545">
        <ele>336.7</ele>
        <time>2026-05-29T09:07:39Z</time>
      </trkpt>
      <trkpt lat="43.02712" lon="1.95456">
        <ele>336.8</ele>
        <time>2026-05-29T09:07:44Z</time>
      </trkpt>
      <trkpt lat="43.02708" lon="1.95464">
        <ele>336.9</ele>
        <time>2026-05-29T09:07:49Z</time>
      </trkpt>
      <trkpt lat="43.02705" lon="1.95472">
        <ele>337</ele>
        <time>2026-05-29T09:07:54Z</time>
      </trkpt>
      <trkpt lat="43.02701" lon="1.9548">
        <ele>337.1</ele>
        <time>2026-05-29T09:07:59Z</time>
      </trkpt>
      <trkpt lat="43.02699" lon="1.95487">
        <ele>337.2</ele>
        <time>2026-05-29T09:08:04Z</time>
      </trkpt>
      <trkpt lat="43.02696" lon="1.95494">
        <ele>337.3</ele>
        <time>2026-05-29T09:08:09Z</time>
      </trkpt>
      <trkpt lat="43.02693" lon="1.95504">
        <ele>337.5</ele>
        <time>2026-05-29T09:08:14Z</time>
      </trkpt>
      <trkpt lat="43.0269" lon="1.95513">
        <ele>337.7</ele>
        <time>2026-05-29T09:08:19Z</time>
      </trkpt>
      <trkpt lat="43.02687" lon="1.95522">
        <ele>338</ele>
        <time>2026-05-29T09:08:24Z</time>
      </trkpt>
      <trkpt lat="43.02683" lon="1.95532">
        <ele>338.2</ele>
        <time>2026-05-29T09:08:29Z</time>
      </trkpt>
      <trkpt lat="43.02679" lon="1.95539">
        <ele>338.2</ele>
        <time>2026-05-29T09:08:34Z</time>
      </trkpt>
      <trkpt lat="43.02677" lon="1.95548">
        <ele>338.4</ele>
        <time>2026-05-29T09:08:39Z</time>
      </trkpt>
      <trkpt lat="43.02673" lon="1.95556">
        <ele>338.5</ele>
        <time>2026-05-29T09:08:44Z</time>
      </trkpt>
      <trkpt lat="43.0267" lon="1.95565">
        <ele>338.6</ele>
        <time>2026-05-29T09:08:49Z</time>
      </trkpt>
      <trkpt lat="43.02667" lon="1.95574">
        <ele>338.7</ele>
        <time>2026-05-29T09:08:54Z</time>
      </trkpt>
      <trkpt lat="43.02665" lon="1.95583">
        <ele>338.9</ele>
        <time>2026-05-29T09:08:59Z</time>
      </trkpt>
      <trkpt lat="43.02664" lon="1.9559">
        <ele>338.9</ele>
        <time>2026-05-29T09:09:04Z</time>
      </trkpt>
      <trkpt lat="43.02663" lon="1.95599">
        <ele>338.9</ele>
        <time>2026-05-29T09:09:09Z</time>
      </trkpt>
      <trkpt lat="43.02659" lon="1.95609">
        <ele>338.8</ele>
        <time>2026-05-29T09:09:14Z</time>
      </trkpt>
      <trkpt lat="43.02656" lon="1.95618">
        <ele>338.8</ele>
        <time>2026-05-29T09:09:19Z</time>
      </trkpt>
      <trkpt lat="43.02655" lon="1.95624">
        <ele>338.8</ele>
        <time>2026-05-29T09:09:24Z</time>
      </trkpt>
      <trkpt lat="43.02654" lon="1.95633">
        <ele>338.8</ele>
        <time>2026-05-29T09:09:29Z</time>
      </trkpt>
      <trkpt lat="43.02652" lon="1.95644">
        <ele>338.8</ele>
        <time>2026-05-29T09:09:34Z</time>
      </trkpt>
      <trkpt lat="43.0265" lon="1.95653">
        <ele>338.8</ele>
        <time>2026-05-29T09:09:39Z</time>
      </trkpt>
      <trkpt lat="43.02649" lon="1.95662">
        <ele>338.8</ele>
        <time>2026-05-29T09:09:44Z</time>
      </trkpt>
      <trkpt lat="43.02648" lon="1.95671">
        <ele>338.9</ele>
        <time>2026-05-29T09:09:49Z</time>
      </trkpt>
      <trkpt lat="43.02647" lon="1.95679">
        <ele>339.1</ele>
        <time>2026-05-29T09:09:54Z</time>
      </trkpt>
      <trkpt lat="43.02645" lon="1.95688">
        <ele>339.3</ele>
        <time>2026-05-29T09:09:59Z</time>
      </trkpt>
      <trkpt lat="43.02644" lon="1.95697">
        <ele>339.5</ele>
        <time>2026-05-29T09:10:04Z</time>
      </trkpt>
      <trkpt lat="43.02642" lon="1.95706">
        <ele>339.7</ele>
        <time>2026-05-29T09:10:09Z</time>
      </trkpt>
      <trkpt lat="43.02641" lon="1.95715">
        <ele>339.9</ele>
        <time>2026-05-29T09:10:14Z</time>
      </trkpt>
      <trkpt lat="43.02641" lon="1.95723">
        <ele>340.1</ele>
        <time>2026-05-29T09:10:19Z</time>
      </trkpt>
      <trkpt lat="43.0264" lon="1.95732">
        <ele>340.3</ele>
        <time>2026-05-29T09:10:24Z</time>
      </trkpt>
      <trkpt lat="43.0264" lon="1.95742">
        <ele>340.5</ele>
        <time>2026-05-29T09:10:29Z</time>
      </trkpt>
      <trkpt lat="43.02639" lon="1.95752">
        <ele>340.6</ele>
        <time>2026-05-29T09:10:34Z</time>
      </trkpt>
      <trkpt lat="43.02638" lon="1.95762">
        <ele>340.5</ele>
        <time>2026-05-29T09:10:39Z</time>
      </trkpt>
      <trkpt lat="43.02637" lon="1.9577">
        <ele>340.3</ele>
        <time>2026-05-29T09:10:44Z</time>
      </trkpt>
      <trkpt lat="43.02637" lon="1.95777">
        <ele>340.3</ele>
        <time>2026-05-29T09:10:49Z</time>
      </trkpt>
      <trkpt lat="43.02637" lon="1.95788">
        <ele>340.1</ele>
        <time>2026-05-29T09:10:54Z</time>
      </trkpt>
      <trkpt lat="43.02636" lon="1.95797">
        <ele>340</ele>
        <time>2026-05-29T09:10:59Z</time>
      </trkpt>
      <trkpt lat="43.02635" lon="1.95804">
        <ele>339.8</ele>
        <time>2026-05-29T09:11:04Z</time>
      </trkpt>
      <trkpt lat="43.02634" lon="1.95813">
        <ele>339.7</ele>
        <time>2026-05-29T09:11:09Z</time>
      </trkpt>
      <trkpt lat="43.02633" lon="1.95822">
        <ele>339.5</ele>
        <time>2026-05-29T09:11:14Z</time>
      </trkpt>
      <trkpt lat="43.02633" lon="1.95831">
        <ele>339.4</ele>
        <time>2026-05-29T09:11:19Z</time>
      </trkpt>
      <trkpt lat="43.02631" lon="1.9584">
        <ele>339.4</ele>
        <time>2026-05-29T09:11:24Z</time>
      </trkpt>
      <trkpt lat="43.02632" lon="1.95849">
        <ele>339.6</ele>
        <time>2026-05-29T09:11:29Z</time>
      </trkpt>
      <trkpt lat="43.02631" lon="1.95859">
        <ele>339.7</ele>
        <time>2026-05-29T09:11:34Z</time>
      </trkpt>
      <trkpt lat="43.02629" lon="1.95867">
        <ele>339.8</ele>
        <time>2026-05-29T09:11:39Z</time>
      </trkpt>
      <trkpt lat="43.02629" lon="1.95877">
        <ele>340</ele>
        <time>2026-05-29T09:11:44Z</time>
      </trkpt>
      <trkpt lat="43.02629" lon="1.95886">
        <ele>340.1</ele>
        <time>2026-05-29T09:11:49Z</time>
      </trkpt>
      <trkpt lat="43.02627" lon="1.95895">
        <ele>340.2</ele>
        <time>2026-05-29T09:11:54Z</time>
      </trkpt>
      <trkpt lat="43.02627" lon="1.95906">
        <ele>340.4</ele>
        <time>2026-05-29T09:11:59Z</time>
      </trkpt>
      <trkpt lat="43.02626" lon="1.95916">
        <ele>340.5</ele>
        <time>2026-05-29T09:12:04Z</time>
      </trkpt>
      <trkpt lat="43.02625" lon="1.95923">
        <ele>340.6</ele>
        <time>2026-05-29T09:12:09Z</time>
      </trkpt>
      <trkpt lat="43.02624" lon="1.95933">
        <ele>340.7</ele>
        <time>2026-05-29T09:12:14Z</time>
      </trkpt>
      <trkpt lat="43.02625" lon="1.95941">
        <ele>340.8</ele>
        <time>2026-05-29T09:12:19Z</time>
      </trkpt>
      <trkpt lat="43.02624" lon="1.95952">
        <ele>340.9</ele>
        <time>2026-05-29T09:12:24Z</time>
      </trkpt>
      <trkpt lat="43.02623" lon="1.95962">
        <ele>340.9</ele>
        <time>2026-05-29T09:12:29Z</time>
      </trkpt>
      <trkpt lat="43.02621" lon="1.95973">
        <ele>341</ele>
        <time>2026-05-29T09:12:34Z</time>
      </trkpt>
      <trkpt lat="43.02619" lon="1.95982">
        <ele>341</ele>
        <time>2026-05-29T09:12:39Z</time>
      </trkpt>
      <trkpt lat="43.02618" lon="1.9599">
        <ele>341</ele>
        <time>2026-05-29T09:12:44Z</time>
      </trkpt>
      <trkpt lat="43.02618" lon="1.95999">
        <ele>341.1</ele>
        <time>2026-05-29T09:12:49Z</time>
      </trkpt>
      <trkpt lat="43.02616" lon="1.96008">
        <ele>340.9</ele>
        <time>2026-05-29T09:12:54Z</time>
      </trkpt>
      <trkpt lat="43.02616" lon="1.96017">
        <ele>340.8</ele>
        <time>2026-05-29T09:12:59Z</time>
      </trkpt>
      <trkpt lat="43.02614" lon="1.96026">
        <ele>340.6</ele>
        <time>2026-05-29T09:13:04Z</time>
      </trkpt>
      <trkpt lat="43.02612" lon="1.96034">
        <ele>340.3</ele>
        <time>2026-05-29T09:13:09Z</time>
      </trkpt>
      <trkpt lat="43.02611" lon="1.96044">
        <ele>340.1</ele>
        <time>2026-05-29T09:13:14Z</time>
      </trkpt>
      <trkpt lat="43.02608" lon="1.96052">
        <ele>339.8</ele>
        <time>2026-05-29T09:13:19Z</time>
      </trkpt>
      <trkpt lat="43.02606" lon="1.96062">
        <ele>339.5</ele>
        <time>2026-05-29T09:13:24Z</time>
      </trkpt>
      <trkpt lat="43.02604" lon="1.96071">
        <ele>339.2</ele>
        <time>2026-05-29T09:13:29Z</time>
      </trkpt>
      <trkpt lat="43.02602" lon="1.9608">
        <ele>338.8</ele>
        <time>2026-05-29T09:13:34Z</time>
      </trkpt>
      <trkpt lat="43.026" lon="1.96092">
        <ele>338.7</ele>
        <time>2026-05-29T09:13:39Z</time>
      </trkpt>
      <trkpt lat="43.02597" lon="1.96102">
        <ele>338.6</ele>
        <time>2026-05-29T09:13:44Z</time>
      </trkpt>
      <trkpt lat="43.02595" lon="1.9611">
        <ele>338.5</ele>
        <time>2026-05-29T09:13:49Z</time>
      </trkpt>
      <trkpt lat="43.02595" lon="1.96115">
        <ele>338.6</ele>
        <time>2026-05-29T09:13:54Z</time>
      </trkpt>
      <trkpt lat="43.0259" lon="1.96124">
        <ele>338.2</ele>
        <time>2026-05-29T09:13:59Z</time>
      </trkpt>
      <trkpt lat="43.02586" lon="1.96131">
        <ele>337.9</ele>
        <time>2026-05-29T09:14:04Z</time>
      </trkpt>
      <trkpt lat="43.02581" lon="1.96135">
        <ele>337.7</ele>
        <time>2026-05-29T09:14:09Z</time>
      </trkpt>
      <trkpt lat="43.02577" lon="1.96133">
        <ele>337.7</ele>
        <time>2026-05-29T09:14:14Z</time>
      </trkpt>
      <trkpt lat="43.02577" lon="1.96133">
        <ele>337.7</ele>
        <time>2026-05-29T09:14:19Z</time>
      </trkpt>
      <trkpt lat="43.02582" lon="1.96139">
        <ele>337.7</ele>
        <time>2026-05-29T09:14:24Z</time>
      </trkpt>
      <trkpt lat="43.0258" lon="1.96148">
        <ele>337.8</ele>
        <time>2026-05-29T09:14:29Z</time>
      </trkpt>
      <trkpt lat="43.02578" lon="1.96155">
        <ele>337.9</ele>
        <time>2026-05-29T09:14:34Z</time>
      </trkpt>
      <trkpt lat="43.02574" lon="1.96161">
        <ele>338.1</ele>
        <time>2026-05-29T09:14:39Z</time>
      </trkpt>
      <trkpt lat="43.0257" lon="1.96168">
        <ele>338.2</ele>
        <time>2026-05-29T09:14:44Z</time>
      </trkpt>
      <trkpt lat="43.02566" lon="1.96175">
        <ele>338.6</ele>
        <time>2026-05-29T09:14:49Z</time>
      </trkpt>
      <trkpt lat="43.02563" lon="1.96183">
        <ele>339</ele>
        <time>2026-05-29T09:14:54Z</time>
      </trkpt>
      <trkpt lat="43.0256" lon="1.9619">
        <ele>339.4</ele>
        <time>2026-05-29T09:14:59Z</time>
      </trkpt>
      <trkpt lat="43.02556" lon="1.96197">
        <ele>339.7</ele>
        <time>2026-05-29T09:15:04Z</time>
      </trkpt>
      <trkpt lat="43.02552" lon="1.96206">
        <ele>340</ele>
        <time>2026-05-29T09:15:09Z</time>
      </trkpt>
      <trkpt lat="43.02548" lon="1.96213">
        <ele>340.3</ele>
        <time>2026-05-29T09:15:14Z</time>
      </trkpt>
      <trkpt lat="43.02543" lon="1.96221">
        <ele>340.5</ele>
        <time>2026-05-29T09:15:19Z</time>
      </trkpt>
      <trkpt lat="43.02538" lon="1.96229">
        <ele>340.7</ele>
        <time>2026-05-29T09:15:24Z</time>
      </trkpt>
      <trkpt lat="43.02532" lon="1.96235">
        <ele>340.7</ele>
        <time>2026-05-29T09:15:29Z</time>
      </trkpt>
      <trkpt lat="43.02527" lon="1.96242">
        <ele>340.8</ele>
        <time>2026-05-29T09:15:34Z</time>
      </trkpt>
      <trkpt lat="43.02521" lon="1.96251">
        <ele>340.8</ele>
        <time>2026-05-29T09:15:39Z</time>
      </trkpt>
      <trkpt lat="43.02516" lon="1.96257">
        <ele>340.7</ele>
        <time>2026-05-29T09:15:44Z</time>
      </trkpt>
      <trkpt lat="43.02513" lon="1.96263">
        <ele>340.8</ele>
        <time>2026-05-29T09:15:49Z</time>
      </trkpt>
      <trkpt lat="43.02509" lon="1.96269">
        <ele>340.8</ele>
        <time>2026-05-29T09:15:54Z</time>
      </trkpt>
      <trkpt lat="43.02505" lon="1.96273">
        <ele>340.7</ele>
        <time>2026-05-29T09:15:59Z</time>
      </trkpt>
      <trkpt lat="43.02501" lon="1.96278">
        <ele>340.7</ele>
        <time>2026-05-29T09:16:04Z</time>
      </trkpt>
      <trkpt lat="43.02495" lon="1.96285">
        <ele>340.8</ele>
        <time>2026-05-29T09:16:09Z</time>
      </trkpt>
      <trkpt lat="43.02493" lon="1.96288">
        <ele>340.8</ele>
        <time>2026-05-29T09:16:14Z</time>
      </trkpt>
      <trkpt lat="43.02489" lon="1.96292">
        <ele>340.8</ele>
        <time>2026-05-29T09:16:19Z</time>
      </trkpt>
      <trkpt lat="43.02486" lon="1.96296">
        <ele>340.8</ele>
        <time>2026-05-29T09:16:24Z</time>
      </trkpt>
      <trkpt lat="43.02481" lon="1.963">
        <ele>340.8</ele>
        <time>2026-05-29T09:16:29Z</time>
      </trkpt>
      <trkpt lat="43.02477" lon="1.96305">
        <ele>340.9</ele>
        <time>2026-05-29T09:16:34Z</time>
      </trkpt>
      <trkpt lat="43.02472" lon="1.96308">
        <ele>340.8</ele>
        <time>2026-05-29T09:16:39Z</time>
      </trkpt>
      <trkpt lat="43.02467" lon="1.96313">
        <ele>340.8</ele>
        <time>2026-05-29T09:16:44Z</time>
      </trkpt>
      <trkpt lat="43.02463" lon="1.96318">
        <ele>340.8</ele>
        <time>2026-05-29T09:16:49Z</time>
      </trkpt>
      <trkpt lat="43.02459" lon="1.96323">
        <ele>340.8</ele>
        <time>2026-05-29T09:16:54Z</time>
      </trkpt>
      <trkpt lat="43.02451" lon="1.96327">
        <ele>340.7</ele>
        <time>2026-05-29T09:16:59Z</time>
      </trkpt>
      <trkpt lat="43.02446" lon="1.9633">
        <ele>340.6</ele>
        <time>2026-05-29T09:17:04Z</time>
      </trkpt>
      <trkpt lat="43.02441" lon="1.96336">
        <ele>340.6</ele>
        <time>2026-05-29T09:17:09Z</time>
      </trkpt>
      <trkpt lat="43.02435" lon="1.96341">
        <ele>340.5</ele>
        <time>2026-05-29T09:17:14Z</time>
      </trkpt>
      <trkpt lat="43.0243" lon="1.96344">
        <ele>340.4</ele>
        <time>2026-05-29T09:17:19Z</time>
      </trkpt>
      <trkpt lat="43.02423" lon="1.96348">
        <ele>340.3</ele>
        <time>2026-05-29T09:17:24Z</time>
      </trkpt>
      <trkpt lat="43.02417" lon="1.96353">
        <ele>340.2</ele>
        <time>2026-05-29T09:17:29Z</time>
      </trkpt>
      <trkpt lat="43.02412" lon="1.96357">
        <ele>340.3</ele>
        <time>2026-05-29T09:17:34Z</time>
      </trkpt>
      <trkpt lat="43.02406" lon="1.96361">
        <ele>340.4</ele>
        <time>2026-05-29T09:17:39Z</time>
      </trkpt>
      <trkpt lat="43.02399" lon="1.96363">
        <ele>340.5</ele>
        <time>2026-05-29T09:17:44Z</time>
      </trkpt>
      <trkpt lat="43.02394" lon="1.96365">
        <ele>340.5</ele>
        <time>2026-05-29T09:17:49Z</time>
      </trkpt>
      <trkpt lat="43.02388" lon="1.96369">
        <ele>340.6</ele>
        <time>2026-05-29T09:17:54Z</time>
      </trkpt>
      <trkpt lat="43.02382" lon="1.96371">
        <ele>340.7</ele>
        <time>2026-05-29T09:17:59Z</time>
      </trkpt>
      <trkpt lat="43.02376" lon="1.96373">
        <ele>340.7</ele>
        <time>2026-05-29T09:18:04Z</time>
      </trkpt>
      <trkpt lat="43.0237" lon="1.96376">
        <ele>340.8</ele>
        <time>2026-05-29T09:18:09Z</time>
      </trkpt>
      <trkpt lat="43.02364" lon="1.96379">
        <ele>340.8</ele>
        <time>2026-05-29T09:18:14Z</time>
      </trkpt>
      <trkpt lat="43.02359" lon="1.96381">
        <ele>340.9</ele>
        <time>2026-05-29T09:18:19Z</time>
      </trkpt>
      <trkpt lat="43.02352" lon="1.96382">
        <ele>340.9</ele>
        <time>2026-05-29T09:18:24Z</time>
      </trkpt>
      <trkpt lat="43.02345" lon="1.96387">
        <ele>341</ele>
        <time>2026-05-29T09:18:29Z</time>
      </trkpt>
      <trkpt lat="43.02339" lon="1.96388">
        <ele>341</ele>
        <time>2026-05-29T09:18:34Z</time>
      </trkpt>
      <trkpt lat="43.02332" lon="1.96393">
        <ele>341.1</ele>
        <time>2026-05-29T09:18:39Z</time>
      </trkpt>
      <trkpt lat="43.02326" lon="1.96394">
        <ele>341.7</ele>
        <time>2026-05-29T09:18:44Z</time>
      </trkpt>
      <trkpt lat="43.0232" lon="1.96394">
        <ele>342.3</ele>
        <time>2026-05-29T09:18:49Z</time>
      </trkpt>
      <trkpt lat="43.02313" lon="1.96395">
        <ele>342.9</ele>
        <time>2026-05-29T09:18:54Z</time>
      </trkpt>
      <trkpt lat="43.02307" lon="1.96397">
        <ele>343.4</ele>
        <time>2026-05-29T09:18:59Z</time>
      </trkpt>
      <trkpt lat="43.023" lon="1.96399">
        <ele>344.1</ele>
        <time>2026-05-29T09:19:04Z</time>
      </trkpt>
      <trkpt lat="43.02293" lon="1.964">
        <ele>344.7</ele>
        <time>2026-05-29T09:19:09Z</time>
      </trkpt>
      <trkpt lat="43.02287" lon="1.96401">
        <ele>345.2</ele>
        <time>2026-05-29T09:19:14Z</time>
      </trkpt>
      <trkpt lat="43.0228" lon="1.96401">
        <ele>345.8</ele>
        <time>2026-05-29T09:19:19Z</time>
      </trkpt>
      <trkpt lat="43.02274" lon="1.964">
        <ele>346.4</ele>
        <time>2026-05-29T09:19:24Z</time>
      </trkpt>
      <trkpt lat="43.02266" lon="1.96401">
        <ele>347.1</ele>
        <time>2026-05-29T09:19:29Z</time>
      </trkpt>
      <trkpt lat="43.0226" lon="1.964">
        <ele>347.7</ele>
        <time>2026-05-29T09:19:34Z</time>
      </trkpt>
      <trkpt lat="43.02252" lon="1.964">
        <ele>348.4</ele>
        <time>2026-05-29T09:19:39Z</time>
      </trkpt>
      <trkpt lat="43.02244" lon="1.96401">
        <ele>348.9</ele>
        <time>2026-05-29T09:19:44Z</time>
      </trkpt>
      <trkpt lat="43.02239" lon="1.964">
        <ele>349.3</ele>
        <time>2026-05-29T09:19:49Z</time>
      </trkpt>
      <trkpt lat="43.02236" lon="1.96401">
        <ele>349.4</ele>
        <time>2026-05-29T09:19:54Z</time>
      </trkpt>
      <trkpt lat="43.02235" lon="1.96402">
        <ele>349.4</ele>
        <time>2026-05-29T09:19:59Z</time>
      </trkpt>
      <trkpt lat="43.02235" lon="1.96402">
        <ele>349.4</ele>
        <time>2026-05-29T09:20:04Z</time>
      </trkpt>
      <trkpt lat="43.02235" lon="1.96402">
        <ele>349.4</ele>
        <time>2026-05-29T09:20:09Z</time>
      </trkpt>
      <trkpt lat="43.02235" lon="1.96402">
        <ele>349.4</ele>
        <time>2026-05-29T09:20:14Z</time>
      </trkpt>
      <trkpt lat="43.02235" lon="1.96402">
        <ele>349.4</ele>
        <time>2026-05-29T09:20:19Z</time>
      </trkpt>
      <trkpt lat="43.02235" lon="1.96402">
        <ele>349.4</ele>
        <time>2026-05-29T09:20:24Z</time>
      </trkpt>
      <trkpt lat="43.02227" lon="1.96401">
        <ele>350</ele>
        <time>2026-05-29T09:20:29Z</time>
      </trkpt>
      <trkpt lat="43.02221" lon="1.96402">
        <ele>350.3</ele>
        <time>2026-05-29T09:20:34Z</time>
      </trkpt>
      <trkpt lat="43.02215" lon="1.964">
        <ele>350.8</ele>
        <time>2026-05-29T09:20:39Z</time>
      </trkpt>
      <trkpt lat="43.02212" lon="1.96397">
        <ele>351.2</ele>
        <time>2026-05-29T09:20:44Z</time>
      </trkpt>
      <trkpt lat="43.0221" lon="1.96399">
        <ele>351.2</ele>
        <time>2026-05-29T09:20:49Z</time>
      </trkpt>
      <trkpt lat="43.0221" lon="1.96399">
        <ele>351.2</ele>
        <time>2026-05-29T09:20:54Z</time>
      </trkpt>
      <trkpt lat="43.02208" lon="1.96399">
        <ele>351.3</ele>
        <time>2026-05-29T09:20:59Z</time>
      </trkpt>
      <trkpt lat="43.02203" lon="1.96399">
        <ele>351.6</ele>
        <time>2026-05-29T09:21:04Z</time>
      </trkpt>
      <trkpt lat="43.02197" lon="1.96399">
        <ele>352</ele>
        <time>2026-05-29T09:21:09Z</time>
      </trkpt>
      <trkpt lat="43.02191" lon="1.96399">
        <ele>352.4</ele>
        <time>2026-05-29T09:21:14Z</time>
      </trkpt>
      <trkpt lat="43.02186" lon="1.96398">
        <ele>352.8</ele>
        <time>2026-05-29T09:21:19Z</time>
      </trkpt>
      <trkpt lat="43.02181" lon="1.96398">
        <ele>353.1</ele>
        <time>2026-05-29T09:21:24Z</time>
      </trkpt>
      <trkpt lat="43.02175" lon="1.96398">
        <ele>353.5</ele>
        <time>2026-05-29T09:21:29Z</time>
      </trkpt>
      <trkpt lat="43.02171" lon="1.96399">
        <ele>353.6</ele>
        <time>2026-05-29T09:21:34Z</time>
      </trkpt>
      <trkpt lat="43.02169" lon="1.96401">
        <ele>353.5</ele>
        <time>2026-05-29T09:21:39Z</time>
      </trkpt>
      <trkpt lat="43.02168" lon="1.96406">
        <ele>353.1</ele>
        <time>2026-05-29T09:21:44Z</time>
      </trkpt>
      <trkpt lat="43.02168" lon="1.96412">
        <ele>352.4</ele>
        <time>2026-05-29T09:21:49Z</time>
      </trkpt>
      <trkpt lat="43.02168" lon="1.9642">
        <ele>351.7</ele>
        <time>2026-05-29T09:21:54Z</time>
      </trkpt>
      <trkpt lat="43.02165" lon="1.96425">
        <ele>351.2</ele>
        <time>2026-05-29T09:21:59Z</time>
      </trkpt>
      <trkpt lat="43.02163" lon="1.96431">
        <ele>350.6</ele>
        <time>2026-05-29T09:22:04Z</time>
      </trkpt>
      <trkpt lat="43.02162" lon="1.9644">
        <ele>349.9</ele>
        <time>2026-05-29T09:22:09Z</time>
      </trkpt>
      <trkpt lat="43.0216" lon="1.96447">
        <ele>349.3</ele>
        <time>2026-05-29T09:22:14Z</time>
      </trkpt>
      <trkpt lat="43.02161" lon="1.96451">
        <ele>349.1</ele>
        <time>2026-05-29T09:22:19Z</time>
      </trkpt>
      <trkpt lat="43.02161" lon="1.96458">
        <ele>348.6</ele>
        <time>2026-05-29T09:22:24Z</time>
      </trkpt>
      <trkpt lat="43.02164" lon="1.96465">
        <ele>348.3</ele>
        <time>2026-05-29T09:22:29Z</time>
      </trkpt>
      <trkpt lat="43.02168" lon="1.96468">
        <ele>348.3</ele>
        <time>2026-05-29T09:22:34Z</time>
      </trkpt>
      <trkpt lat="43.02172" lon="1.96459">
        <ele>348.8</ele>
        <time>2026-05-29T09:22:39Z</time>
      </trkpt>
      <trkpt lat="43.02174" lon="1.96451">
        <ele>349.3</ele>
        <time>2026-05-29T09:22:44Z</time>
      </trkpt>
      <trkpt lat="43.02178" lon="1.96442">
        <ele>349.8</ele>
        <time>2026-05-29T09:22:49Z</time>
      </trkpt>
      <trkpt lat="43.02181" lon="1.96434">
        <ele>350.2</ele>
        <time>2026-05-29T09:22:54Z</time>
      </trkpt>
      <trkpt lat="43.02184" lon="1.96425">
        <ele>350.6</ele>
        <time>2026-05-29T09:22:59Z</time>
      </trkpt>
      <trkpt lat="43.02184" lon="1.96418">
        <ele>351.1</ele>
        <time>2026-05-29T09:23:04Z</time>
      </trkpt>
      <trkpt lat="43.02187" lon="1.96411">
        <ele>351.5</ele>
        <time>2026-05-29T09:23:09Z</time>
      </trkpt>
      <trkpt lat="43.02187" lon="1.96406">
        <ele>352</ele>
        <time>2026-05-29T09:23:14Z</time>
      </trkpt>
      <trkpt lat="43.02187" lon="1.96396">
        <ele>352.9</ele>
        <time>2026-05-29T09:23:19Z</time>
      </trkpt>
      <trkpt lat="43.02188" lon="1.96388">
        <ele>353.5</ele>
        <time>2026-05-29T09:23:24Z</time>
      </trkpt>
      <trkpt lat="43.02187" lon="1.9638">
        <ele>354.3</ele>
        <time>2026-05-29T09:23:29Z</time>
      </trkpt>
      <trkpt lat="43.02188" lon="1.9637">
        <ele>355.2</ele>
        <time>2026-05-29T09:23:34Z</time>
      </trkpt>
      <trkpt lat="43.02189" lon="1.96362">
        <ele>355.8</ele>
        <time>2026-05-29T09:23:39Z</time>
      </trkpt>
      <trkpt lat="43.02189" lon="1.96357">
        <ele>356.2</ele>
        <time>2026-05-29T09:23:44Z</time>
      </trkpt>
      <trkpt lat="43.02188" lon="1.96355">
        <ele>356.5</ele>
        <time>2026-05-29T09:23:49Z</time>
      </trkpt>
      <trkpt lat="43.02188" lon="1.96355">
        <ele>356.5</ele>
        <time>2026-05-29T09:23:54Z</time>
      </trkpt>
      <trkpt lat="43.02188" lon="1.96355">
        <ele>356.5</ele>
        <time>2026-05-29T09:23:59Z</time>
      </trkpt>
      <trkpt lat="43.02188" lon="1.96355">
        <ele>356.5</ele>
        <time>2026-05-29T09:24:04Z</time>
      </trkpt>
      <trkpt lat="43.02188" lon="1.96355">
        <ele>356.5</ele>
        <time>2026-05-29T09:24:04Z</time>
      </trkpt>
      <trkpt lat="43.02185" lon="1.96356">
        <ele>356.7</ele>
        <time>2026-05-29T09:41:06Z</time>
      </trkpt>
      <trkpt lat="43.02188" lon="1.96353">
        <ele>356.7</ele>
        <time>2026-05-29T09:41:13Z</time>
      </trkpt>
      <trkpt lat="43.02188" lon="1.96353">
        <ele>356.7</ele>
        <time>2026-05-29T09:41:18Z</time>
      </trkpt>
      <trkpt lat="43.02188" lon="1.96353">
        <ele>356.7</ele>
        <time>2026-05-29T09:41:23Z</time>
      </trkpt>
      <trkpt lat="43.02188" lon="1.96353">
        <ele>356.7</ele>
        <time>2026-05-29T09:41:28Z</time>
      </trkpt>
      <trkpt lat="43.02192" lon="1.96356">
        <ele>356</ele>
        <time>2026-05-29T09:41:33Z</time>
      </trkpt>
      <trkpt lat="43.02192" lon="1.96357">
        <ele>355.9</ele>
        <time>2026-05-29T09:41:38Z</time>
      </trkpt>
      <trkpt lat="43.02192" lon="1.96357">
        <ele>355.9</ele>
        <time>2026-05-29T09:41:43Z</time>
      </trkpt>
      <trkpt lat="43.02191" lon="1.96363">
        <ele>355.5</ele>
        <time>2026-05-29T09:41:48Z</time>
      </trkpt>
      <trkpt lat="43.02189" lon="1.96365">
        <ele>355.5</ele>
        <time>2026-05-29T09:41:53Z</time>
      </trkpt>
      <trkpt lat="43.02187" lon="1.96367">
        <ele>355.5</ele>
        <time>2026-05-29T09:41:58Z</time>
      </trkpt>
      <trkpt lat="43.02187" lon="1.96367">
        <ele>355.5</ele>
        <time>2026-05-29T09:42:03Z</time>
      </trkpt>
      <trkpt lat="43.02187" lon="1.9637">
        <ele>355.2</ele>
        <time>2026-05-29T09:42:08Z</time>
      </trkpt>
      <trkpt lat="43.02187" lon="1.96371">
        <ele>355.2</ele>
        <time>2026-05-29T09:42:13Z</time>
      </trkpt>
      <trkpt lat="43.02188" lon="1.96374">
        <ele>354.8</ele>
        <time>2026-05-29T09:42:18Z</time>
      </trkpt>
      <trkpt lat="43.02187" lon="1.96379">
        <ele>354.4</ele>
        <time>2026-05-29T09:42:23Z</time>
      </trkpt>
      <trkpt lat="43.02188" lon="1.96383">
        <ele>354</ele>
        <time>2026-05-29T09:42:28Z</time>
      </trkpt>
      <trkpt lat="43.02188" lon="1.96384">
        <ele>353.9</ele>
        <time>2026-05-29T09:42:33Z</time>
      </trkpt>
      <trkpt lat="43.02188" lon="1.96384">
        <ele>353.9</ele>
        <time>2026-05-29T09:42:38Z</time>
      </trkpt>
      <trkpt lat="43.02188" lon="1.96384">
        <ele>353.9</ele>
        <time>2026-05-29T09:42:43Z</time>
      </trkpt>
      <trkpt lat="43.02188" lon="1.96384">
        <ele>353.9</ele>
        <time>2026-05-29T09:42:48Z</time>
      </trkpt>
      <trkpt lat="43.02188" lon="1.96384">
        <ele>353.9</ele>
        <time>2026-05-29T09:42:53Z</time>
      </trkpt>
      <trkpt lat="43.02188" lon="1.96384">
        <ele>353.9</ele>
        <time>2026-05-29T09:42:58Z</time>
      </trkpt>
      <trkpt lat="43.02188" lon="1.96384">
        <ele>353.9</ele>
        <time>2026-05-29T09:43:03Z</time>
      </trkpt>
      <trkpt lat="43.02188" lon="1.96384">
        <ele>353.9</ele>
        <time>2026-05-29T09:43:08Z</time>
      </trkpt>
      <trkpt lat="43.02188" lon="1.96384">
        <ele>353.9</ele>
        <time>2026-05-29T09:43:13Z</time>
      </trkpt>
      <trkpt lat="43.02188" lon="1.96384">
        <ele>353.9</ele>
        <time>2026-05-29T09:43:18Z</time>
      </trkpt>
      <trkpt lat="43.02188" lon="1.96384">
        <ele>353.9</ele>
        <time>2026-05-29T09:43:23Z</time>
      </trkpt>
      <trkpt lat="43.02188" lon="1.96384">
        <ele>353.9</ele>
        <time>2026-05-29T09:43:28Z</time>
      </trkpt>
      <trkpt lat="43.02188" lon="1.96384">
        <ele>353.9</ele>
        <time>2026-05-29T09:43:33Z</time>
      </trkpt>
      <trkpt lat="43.02188" lon="1.96384">
        <ele>353.9</ele>
        <time>2026-05-29T09:43:38Z</time>
      </trkpt>
      <trkpt lat="43.02188" lon="1.96384">
        <ele>353.9</ele>
        <time>2026-05-29T09:43:43Z</time>
      </trkpt>
      <trkpt lat="43.02188" lon="1.96384">
        <ele>353.9</ele>
        <time>2026-05-29T09:43:48Z</time>
      </trkpt>
      <trkpt lat="43.02188" lon="1.96384">
        <ele>353.9</ele>
        <time>2026-05-29T09:43:53Z</time>
      </trkpt>
      <trkpt lat="43.02188" lon="1.96384">
        <ele>353.9</ele>
        <time>2026-05-29T09:43:58Z</time>
      </trkpt>
      <trkpt lat="43.02188" lon="1.96384">
        <ele>353.9</ele>
        <time>2026-05-29T09:44:03Z</time>
      </trkpt>
      <trkpt lat="43.02188" lon="1.96384">
        <ele>353.9</ele>
        <time>2026-05-29T09:44:08Z</time>
      </trkpt>
      <trkpt lat="43.02188" lon="1.96384">
        <ele>353.9</ele>
        <time>2026-05-29T09:44:13Z</time>
      </trkpt>
      <trkpt lat="43.02188" lon="1.96384">
        <ele>353.9</ele>
        <time>2026-05-29T09:44:18Z</time>
      </trkpt>
      <trkpt lat="43.02188" lon="1.96384">
        <ele>353.9</ele>
        <time>2026-05-29T09:44:23Z</time>
      </trkpt>
      <trkpt lat="43.02188" lon="1.96384">
        <ele>353.9</ele>
        <time>2026-05-29T09:44:28Z</time>
      </trkpt>
      <trkpt lat="43.02188" lon="1.96384">
        <ele>353.9</ele>
        <time>2026-05-29T09:44:33Z</time>
      </trkpt>
      <trkpt lat="43.02188" lon="1.96384">
        <ele>353.9</ele>
        <time>2026-05-29T09:44:38Z</time>
      </trkpt>
      <trkpt lat="43.02188" lon="1.96384">
        <ele>353.9</ele>
        <time>2026-05-29T09:44:43Z</time>
      </trkpt>
      <trkpt lat="43.02188" lon="1.96384">
        <ele>353.9</ele>
        <time>2026-05-29T09:44:48Z</time>
      </trkpt>
      <trkpt lat="43.02188" lon="1.96384">
        <ele>353.9</ele>
        <time>2026-05-29T09:44:53Z</time>
      </trkpt>
      <trkpt lat="43.02188" lon="1.96384">
        <ele>353.9</ele>
        <time>2026-05-29T09:44:58Z</time>
      </trkpt>
      <trkpt lat="43.02188" lon="1.96384">
        <ele>353.9</ele>
        <time>2026-05-29T09:45:03Z</time>
      </trkpt>
      <trkpt lat="43.02188" lon="1.96384">
        <ele>353.9</ele>
        <time>2026-05-29T09:45:08Z</time>
      </trkpt>
      <trkpt lat="43.02188" lon="1.96384">
        <ele>353.9</ele>
        <time>2026-05-29T09:45:13Z</time>
      </trkpt>
      <trkpt lat="43.02188" lon="1.96384">
        <ele>353.9</ele>
        <time>2026-05-29T09:45:18Z</time>
      </trkpt>
      <trkpt lat="43.02188" lon="1.96384">
        <ele>353.9</ele>
        <time>2026-05-29T09:45:23Z</time>
      </trkpt>
      <trkpt lat="43.02188" lon="1.96384">
        <ele>353.9</ele>
        <time>2026-05-29T09:45:28Z</time>
      </trkpt>
      <trkpt lat="43.02188" lon="1.96384">
        <ele>353.9</ele>
        <time>2026-05-29T09:45:33Z</time>
      </trkpt>
      <trkpt lat="43.02188" lon="1.96384">
        <ele>353.9</ele>
        <time>2026-05-29T09:45:38Z</time>
      </trkpt>
      <trkpt lat="43.02188" lon="1.96384">
        <ele>353.9</ele>
        <time>2026-05-29T09:45:43Z</time>
      </trkpt>
      <trkpt lat="43.02188" lon="1.96384">
        <ele>353.9</ele>
        <time>2026-05-29T09:45:48Z</time>
      </trkpt>
      <trkpt lat="43.02188" lon="1.96384">
        <ele>353.9</ele>
        <time>2026-05-29T09:45:53Z</time>
      </trkpt>
      <trkpt lat="43.02188" lon="1.96384">
        <ele>353.9</ele>
        <time>2026-05-29T09:45:58Z</time>
      </trkpt>
      <trkpt lat="43.02188" lon="1.96384">
        <ele>353.9</ele>
        <time>2026-05-29T09:46:03Z</time>
      </trkpt>
      <trkpt lat="43.02188" lon="1.96384">
        <ele>353.9</ele>
        <time>2026-05-29T09:46:08Z</time>
      </trkpt>
      <trkpt lat="43.02188" lon="1.96384">
        <ele>353.9</ele>
        <time>2026-05-29T09:46:13Z</time>
      </trkpt>
      <trkpt lat="43.02188" lon="1.96384">
        <ele>353.9</ele>
        <time>2026-05-29T09:46:18Z</time>
      </trkpt>
      <trkpt lat="43.02188" lon="1.96384">
        <ele>353.9</ele>
        <time>2026-05-29T09:46:23Z</time>
      </trkpt>
      <trkpt lat="43.02188" lon="1.96384">
        <ele>353.9</ele>
        <time>2026-05-29T09:46:28Z</time>
      </trkpt>
      <trkpt lat="43.02188" lon="1.96384">
        <ele>353.9</ele>
        <time>2026-05-29T09:46:33Z</time>
      </trkpt>
      <trkpt lat="43.02188" lon="1.96384">
        <ele>353.9</ele>
        <time>2026-05-29T09:46:38Z</time>
      </trkpt>
      <trkpt lat="43.02188" lon="1.96384">
        <ele>353.9</ele>
        <time>2026-05-29T09:46:43Z</time>
      </trkpt>
      <trkpt lat="43.02188" lon="1.96384">
        <ele>353.9</ele>
        <time>2026-05-29T09:46:48Z</time>
      </trkpt>
      <trkpt lat="43.02188" lon="1.96384">
        <ele>353.9</ele>
        <time>2026-05-29T09:46:53Z</time>
      </trkpt>
      <trkpt lat="43.02188" lon="1.96384">
        <ele>353.9</ele>
        <time>2026-05-29T09:46:58Z</time>
      </trkpt>
      <trkpt lat="43.02188" lon="1.96384">
        <ele>353.9</ele>
        <time>2026-05-29T09:47:03Z</time>
      </trkpt>
      <trkpt lat="43.02188" lon="1.96384">
        <ele>353.9</ele>
        <time>2026-05-29T09:47:08Z</time>
      </trkpt>
      <trkpt lat="43.02188" lon="1.96384">
        <ele>353.9</ele>
        <time>2026-05-29T09:47:13Z</time>
      </trkpt>
      <trkpt lat="43.02188" lon="1.96384">
        <ele>353.9</ele>
        <time>2026-05-29T09:47:18Z</time>
      </trkpt>
      <trkpt lat="43.02188" lon="1.96384">
        <ele>353.9</ele>
        <time>2026-05-29T09:47:23Z</time>
      </trkpt>
      <trkpt lat="43.02188" lon="1.96384">
        <ele>353.9</ele>
        <time>2026-05-29T09:47:28Z</time>
      </trkpt>
      <trkpt lat="43.02188" lon="1.96384">
        <ele>353.9</ele>
        <time>2026-05-29T09:47:33Z</time>
      </trkpt>
      <trkpt lat="43.02188" lon="1.96384">
        <ele>353.9</ele>
        <time>2026-05-29T09:47:38Z</time>
      </trkpt>
      <trkpt lat="43.02188" lon="1.96384">
        <ele>353.9</ele>
        <time>2026-05-29T09:47:43Z</time>
      </trkpt>
      <trkpt lat="43.02188" lon="1.96384">
        <ele>353.9</ele>
        <time>2026-05-29T09:47:48Z</time>
      </trkpt>
      <trkpt lat="43.02188" lon="1.96384">
        <ele>353.9</ele>
        <time>2026-05-29T09:47:53Z</time>
      </trkpt>
      <trkpt lat="43.02188" lon="1.96384">
        <ele>353.9</ele>
        <time>2026-05-29T09:47:58Z</time>
      </trkpt>
      <trkpt lat="43.02188" lon="1.96384">
        <ele>353.9</ele>
        <time>2026-05-29T09:48:03Z</time>
      </trkpt>
      <trkpt lat="43.02188" lon="1.96384">
        <ele>353.9</ele>
        <time>2026-05-29T09:48:08Z</time>
      </trkpt>
      <trkpt lat="43.02188" lon="1.96384">
        <ele>353.9</ele>
        <time>2026-05-29T09:48:13Z</time>
      </trkpt>
      <trkpt lat="43.02188" lon="1.96384">
        <ele>353.9</ele>
        <time>2026-05-29T09:48:18Z</time>
      </trkpt>
      <trkpt lat="43.02188" lon="1.96384">
        <ele>353.9</ele>
        <time>2026-05-29T09:48:23Z</time>
      </trkpt>
      <trkpt lat="43.02188" lon="1.96384">
        <ele>353.9</ele>
        <time>2026-05-29T09:48:28Z</time>
      </trkpt>
      <trkpt lat="43.02188" lon="1.96384">
        <ele>353.9</ele>
        <time>2026-05-29T09:48:33Z</time>
      </trkpt>
      <trkpt lat="43.02188" lon="1.96384">
        <ele>353.9</ele>
        <time>2026-05-29T09:48:38Z</time>
      </trkpt>
      <trkpt lat="43.02188" lon="1.96384">
        <ele>353.9</ele>
        <time>2026-05-29T09:48:43Z</time>
      </trkpt>
      <trkpt lat="43.02188" lon="1.96384">
        <ele>353.9</ele>
        <time>2026-05-29T09:48:48Z</time>
      </trkpt>
      <trkpt lat="43.02188" lon="1.96384">
        <ele>353.9</ele>
        <time>2026-05-29T09:48:53Z</time>
      </trkpt>
      <trkpt lat="43.02188" lon="1.96384">
        <ele>353.9</ele>
        <time>2026-05-29T09:48:58Z</time>
      </trkpt>
      <trkpt lat="43.02188" lon="1.96384">
        <ele>353.9</ele>
        <time>2026-05-29T09:49:03Z</time>
      </trkpt>
      <trkpt lat="43.02188" lon="1.96384">
        <ele>353.9</ele>
        <time>2026-05-29T09:49:08Z</time>
      </trkpt>
      <trkpt lat="43.02188" lon="1.96384">
        <ele>353.9</ele>
        <time>2026-05-29T09:49:13Z</time>
      </trkpt>
      <trkpt lat="43.02188" lon="1.96384">
        <ele>353.9</ele>
        <time>2026-05-29T09:49:18Z</time>
      </trkpt>
      <trkpt lat="43.02188" lon="1.96384">
        <ele>353.9</ele>
        <time>2026-05-29T09:49:23Z</time>
      </trkpt>
      <trkpt lat="43.02188" lon="1.96384">
        <ele>353.9</ele>
        <time>2026-05-29T09:49:28Z</time>
      </trkpt>
      <trkpt lat="43.02188" lon="1.96384">
        <ele>353.9</ele>
        <time>2026-05-29T09:49:33Z</time>
      </trkpt>
      <trkpt lat="43.02188" lon="1.96384">
        <ele>353.9</ele>
        <time>2026-05-29T09:49:38Z</time>
      </trkpt>
      <trkpt lat="43.02188" lon="1.96384">
        <ele>353.9</ele>
        <time>2026-05-29T09:49:43Z</time>
      </trkpt>
      <trkpt lat="43.02188" lon="1.96384">
        <ele>353.9</ele>
        <time>2026-05-29T09:49:48Z</time>
      </trkpt>
      <trkpt lat="43.02188" lon="1.96384">
        <ele>353.9</ele>
        <time>2026-05-29T09:49:53Z</time>
      </trkpt>
      <trkpt lat="43.02188" lon="1.96384">
        <ele>353.9</ele>
        <time>2026-05-29T09:49:58Z</time>
      </trkpt>
      <trkpt lat="43.02188" lon="1.96384">
        <ele>353.9</ele>
        <time>2026-05-29T09:50:03Z</time>
      </trkpt>
      <trkpt lat="43.02188" lon="1.96384">
        <ele>353.9</ele>
        <time>2026-05-29T09:50:08Z</time>
      </trkpt>
      <trkpt lat="43.02188" lon="1.96384">
        <ele>353.9</ele>
        <time>2026-05-29T09:50:13Z</time>
      </trkpt>
      <trkpt lat="43.02188" lon="1.96384">
        <ele>353.9</ele>
        <time>2026-05-29T09:50:18Z</time>
      </trkpt>
      <trkpt lat="43.02188" lon="1.96384">
        <ele>353.9</ele>
        <time>2026-05-29T09:50:23Z</time>
      </trkpt>
      <trkpt lat="43.02188" lon="1.96384">
        <ele>353.9</ele>
        <time>2026-05-29T09:50:28Z</time>
      </trkpt>
      <trkpt lat="43.02188" lon="1.96384">
        <ele>353.9</ele>
        <time>2026-05-29T09:50:33Z</time>
      </trkpt>
      <trkpt lat="43.02188" lon="1.96384">
        <ele>353.9</ele>
        <time>2026-05-29T09:50:38Z</time>
      </trkpt>
      <trkpt lat="43.02188" lon="1.96384">
        <ele>353.9</ele>
        <time>2026-05-29T09:50:43Z</time>
      </trkpt>
      <trkpt lat="43.02188" lon="1.96384">
        <ele>353.9</ele>
        <time>2026-05-29T09:50:48Z</time>
      </trkpt>
      <trkpt lat="43.02188" lon="1.96384">
        <ele>353.9</ele>
        <time>2026-05-29T09:50:53Z</time>
      </trkpt>
      <trkpt lat="43.02188" lon="1.96384">
        <ele>353.9</ele>
        <time>2026-05-29T09:50:58Z</time>
      </trkpt>
      <trkpt lat="43.02188" lon="1.96384">
        <ele>353.9</ele>
        <time>2026-05-29T09:51:03Z</time>
      </trkpt>
      <trkpt lat="43.02188" lon="1.96384">
        <ele>353.9</ele>
        <time>2026-05-29T09:51:08Z</time>
      </trkpt>
      <trkpt lat="43.02188" lon="1.96384">
        <ele>353.9</ele>
        <time>2026-05-29T09:51:13Z</time>
      </trkpt>
      <trkpt lat="43.02189" lon="1.96389">
        <ele>353.4</ele>
        <time>2026-05-29T09:51:18Z</time>
      </trkpt>
      <trkpt lat="43.02188" lon="1.96393">
        <ele>353.1</ele>
        <time>2026-05-29T09:51:23Z</time>
      </trkpt>
      <trkpt lat="43.02187" lon="1.96395">
        <ele>353</ele>
        <time>2026-05-29T09:51:28Z</time>
      </trkpt>
      <trkpt lat="43.02185" lon="1.96401">
        <ele>352.6</ele>
        <time>2026-05-29T09:51:33Z</time>
      </trkpt>
      <trkpt lat="43.02185" lon="1.96407">
        <ele>352</ele>
        <time>2026-05-29T09:51:38Z</time>
      </trkpt>
      <trkpt lat="43.02184" lon="1.96412">
        <ele>351.6</ele>
        <time>2026-05-29T09:51:43Z</time>
      </trkpt>
      <trkpt lat="43.02183" lon="1.96417">
        <ele>351.2</ele>
        <time>2026-05-29T09:51:48Z</time>
      </trkpt>
      <trkpt lat="43.02181" lon="1.96422">
        <ele>351</ele>
        <time>2026-05-29T09:51:53Z</time>
      </trkpt>
      <trkpt lat="43.02181" lon="1.96427">
        <ele>350.6</ele>
        <time>2026-05-29T09:51:58Z</time>
      </trkpt>
      <trkpt lat="43.0218" lon="1.96432">
        <ele>350.3</ele>
        <time>2026-05-29T09:52:03Z</time>
      </trkpt>
      <trkpt lat="43.02178" lon="1.96437">
        <ele>350.1</ele>
        <time>2026-05-29T09:52:08Z</time>
      </trkpt>
      <trkpt lat="43.02176" lon="1.96441">
        <ele>349.9</ele>
        <time>2026-05-29T09:52:13Z</time>
      </trkpt>
      <trkpt lat="43.02175" lon="1.96446">
        <ele>349.6</ele>
        <time>2026-05-29T09:52:18Z</time>
      </trkpt>
      <trkpt lat="43.02174" lon="1.96451">
        <ele>349.3</ele>
        <time>2026-05-29T09:52:23Z</time>
      </trkpt>
      <trkpt lat="43.02174" lon="1.96456">
        <ele>348.9</ele>
        <time>2026-05-29T09:52:28Z</time>
      </trkpt>
      <trkpt lat="43.02174" lon="1.96461">
        <ele>348.6</ele>
        <time>2026-05-29T09:52:33Z</time>
      </trkpt>
      <trkpt lat="43.02172" lon="1.96465">
        <ele>348.4</ele>
        <time>2026-05-29T09:52:38Z</time>
      </trkpt>
      <trkpt lat="43.02171" lon="1.96469">
        <ele>348.1</ele>
        <time>2026-05-29T09:52:43Z</time>
      </trkpt>
      <trkpt lat="43.02169" lon="1.96473">
        <ele>347.9</ele>
        <time>2026-05-29T09:52:48Z</time>
      </trkpt>
      <trkpt lat="43.02168" lon="1.96479">
        <ele>347.5</ele>
        <time>2026-05-29T09:52:53Z</time>
      </trkpt>
      <trkpt lat="43.02166" lon="1.96484">
        <ele>347.1</ele>
        <time>2026-05-29T09:52:58Z</time>
      </trkpt>
      <trkpt lat="43.02165" lon="1.96488">
        <ele>346.8</ele>
        <time>2026-05-29T09:53:03Z</time>
      </trkpt>
      <trkpt lat="43.02165" lon="1.96491">
        <ele>346.6</ele>
        <time>2026-05-29T09:53:08Z</time>
      </trkpt>
      <trkpt lat="43.02163" lon="1.96494">
        <ele>346.2</ele>
        <time>2026-05-29T09:53:13Z</time>
      </trkpt>
      <trkpt lat="43.02164" lon="1.96498">
        <ele>346</ele>
        <time>2026-05-29T09:53:18Z</time>
      </trkpt>
      <trkpt lat="43.02163" lon="1.96501">
        <ele>345.8</ele>
        <time>2026-05-29T09:53:23Z</time>
      </trkpt>
      <trkpt lat="43.02163" lon="1.96503">
        <ele>345.7</ele>
        <time>2026-05-29T09:53:28Z</time>
      </trkpt>
      <trkpt lat="43.02161" lon="1.96507">
        <ele>345.5</ele>
        <time>2026-05-29T09:53:33Z</time>
      </trkpt>
      <trkpt lat="43.02161" lon="1.96511">
        <ele>345.3</ele>
        <time>2026-05-29T09:53:38Z</time>
      </trkpt>
      <trkpt lat="43.02161" lon="1.96516">
        <ele>345.2</ele>
        <time>2026-05-29T09:53:43Z</time>
      </trkpt>
      <trkpt lat="43.02163" lon="1.96522">
        <ele>345.1</ele>
        <time>2026-05-29T09:53:48Z</time>
      </trkpt>
      <trkpt lat="43.02165" lon="1.96528">
        <ele>344.9</ele>
        <time>2026-05-29T09:53:53Z</time>
      </trkpt>
      <trkpt lat="43.02168" lon="1.96532">
        <ele>344.9</ele>
        <time>2026-05-29T09:53:58Z</time>
      </trkpt>
      <trkpt lat="43.02171" lon="1.96535">
        <ele>344.8</ele>
        <time>2026-05-29T09:54:03Z</time>
      </trkpt>
      <trkpt lat="43.02172" lon="1.96537">
        <ele>344.7</ele>
        <time>2026-05-29T09:54:08Z</time>
      </trkpt>
      <trkpt lat="43.02173" lon="1.96541">
        <ele>344.6</ele>
        <time>2026-05-29T09:54:13Z</time>
      </trkpt>
      <trkpt lat="43.02173" lon="1.96542">
        <ele>344.6</ele>
        <time>2026-05-29T09:54:18Z</time>
      </trkpt>
      <trkpt lat="43.02176" lon="1.96545">
        <ele>344.6</ele>
        <time>2026-05-29T09:54:23Z</time>
      </trkpt>
      <trkpt lat="43.02178" lon="1.96549">
        <ele>344.5</ele>
        <time>2026-05-29T09:54:28Z</time>
      </trkpt>
      <trkpt lat="43.02179" lon="1.96552">
        <ele>344.4</ele>
        <time>2026-05-29T09:54:33Z</time>
      </trkpt>
      <trkpt lat="43.02181" lon="1.96555">
        <ele>344.4</ele>
        <time>2026-05-29T09:54:38Z</time>
      </trkpt>
      <trkpt lat="43.02182" lon="1.96558">
        <ele>344.4</ele>
        <time>2026-05-29T09:54:43Z</time>
      </trkpt>
      <trkpt lat="43.02184" lon="1.96562">
        <ele>344.3</ele>
        <time>2026-05-29T09:54:48Z</time>
      </trkpt>
      <trkpt lat="43.02185" lon="1.96565">
        <ele>344.3</ele>
        <time>2026-05-29T09:54:53Z</time>
      </trkpt>
      <trkpt lat="43.02185" lon="1.96568">
        <ele>344.2</ele>
        <time>2026-05-29T09:54:58Z</time>
      </trkpt>
      <trkpt lat="43.02185" lon="1.96572">
        <ele>344.1</ele>
        <time>2026-05-29T09:55:03Z</time>
      </trkpt>
      <trkpt lat="43.02186" lon="1.96576">
        <ele>344.1</ele>
        <time>2026-05-29T09:55:08Z</time>
      </trkpt>
      <trkpt lat="43.02186" lon="1.96579">
        <ele>344</ele>
        <time>2026-05-29T09:55:13Z</time>
      </trkpt>
      <trkpt lat="43.02186" lon="1.96579">
        <ele>344</ele>
        <time>2026-05-29T09:55:18Z</time>
      </trkpt>
      <trkpt lat="43.02186" lon="1.96579">
        <ele>344</ele>
        <time>2026-05-29T09:55:23Z</time>
      </trkpt>
      <trkpt lat="43.02187" lon="1.96582">
        <ele>344</ele>
        <time>2026-05-29T09:55:28Z</time>
      </trkpt>
      <trkpt lat="43.02187" lon="1.96585">
        <ele>344</ele>
        <time>2026-05-29T09:55:33Z</time>
      </trkpt>
      <trkpt lat="43.02188" lon="1.96589">
        <ele>344.1</ele>
        <time>2026-05-29T09:55:38Z</time>
      </trkpt>
      <trkpt lat="43.02189" lon="1.96592">
        <ele>344.1</ele>
        <time>2026-05-29T09:55:43Z</time>
      </trkpt>
      <trkpt lat="43.02189" lon="1.96596">
        <ele>344.2</ele>
        <time>2026-05-29T09:55:48Z</time>
      </trkpt>
      <trkpt lat="43.02189" lon="1.96598">
        <ele>344.2</ele>
        <time>2026-05-29T09:55:53Z</time>
      </trkpt>
      <trkpt lat="43.0219" lon="1.96601">
        <ele>344.2</ele>
        <time>2026-05-29T09:55:58Z</time>
      </trkpt>
      <trkpt lat="43.02192" lon="1.96604">
        <ele>344.4</ele>
        <time>2026-05-29T09:56:03Z</time>
      </trkpt>
      <trkpt lat="43.02194" lon="1.96607">
        <ele>344.5</ele>
        <time>2026-05-29T09:56:08Z</time>
      </trkpt>
      <trkpt lat="43.02195" lon="1.96611">
        <ele>344.6</ele>
        <time>2026-05-29T09:56:13Z</time>
      </trkpt>
      <trkpt lat="43.02195" lon="1.96615">
        <ele>344.6</ele>
        <time>2026-05-29T09:56:18Z</time>
      </trkpt>
      <trkpt lat="43.02195" lon="1.96619">
        <ele>344.7</ele>
        <time>2026-05-29T09:56:23Z</time>
      </trkpt>
      <trkpt lat="43.02197" lon="1.96622">
        <ele>344.8</ele>
        <time>2026-05-29T09:56:28Z</time>
      </trkpt>
      <trkpt lat="43.02198" lon="1.96625">
        <ele>344.9</ele>
        <time>2026-05-29T09:56:33Z</time>
      </trkpt>
      <trkpt lat="43.022" lon="1.96629">
        <ele>345</ele>
        <time>2026-05-29T09:56:38Z</time>
      </trkpt>
      <trkpt lat="43.02201" lon="1.96631">
        <ele>345.1</ele>
        <time>2026-05-29T09:56:43Z</time>
      </trkpt>
      <trkpt lat="43.02201" lon="1.96632">
        <ele>345.1</ele>
        <time>2026-05-29T09:56:48Z</time>
      </trkpt>
      <trkpt lat="43.02201" lon="1.96632">
        <ele>345.1</ele>
        <time>2026-05-29T09:56:53Z</time>
      </trkpt>
      <trkpt lat="43.02201" lon="1.96632">
        <ele>345.1</ele>
        <time>2026-05-29T09:56:58Z</time>
      </trkpt>
      <trkpt lat="43.02201" lon="1.96632">
        <ele>345.1</ele>
        <time>2026-05-29T09:57:03Z</time>
      </trkpt>
      <trkpt lat="43.02202" lon="1.96635">
        <ele>345.2</ele>
        <time>2026-05-29T09:57:08Z</time>
      </trkpt>
      <trkpt lat="43.02203" lon="1.96638">
        <ele>345.3</ele>
        <time>2026-05-29T09:57:13Z</time>
      </trkpt>
      <trkpt lat="43.02205" lon="1.96641">
        <ele>345.5</ele>
        <time>2026-05-29T09:57:18Z</time>
      </trkpt>
      <trkpt lat="43.02206" lon="1.96646">
        <ele>345.6</ele>
        <time>2026-05-29T09:57:23Z</time>
      </trkpt>
      <trkpt lat="43.02207" lon="1.9665">
        <ele>345.7</ele>
        <time>2026-05-29T09:57:28Z</time>
      </trkpt>
      <trkpt lat="43.02208" lon="1.96655">
        <ele>345.8</ele>
        <time>2026-05-29T09:57:33Z</time>
      </trkpt>
      <trkpt lat="43.02209" lon="1.96659">
        <ele>346</ele>
        <time>2026-05-29T09:57:38Z</time>
      </trkpt>
      <trkpt lat="43.02209" lon="1.96664">
        <ele>346</ele>
        <time>2026-05-29T09:57:43Z</time>
      </trkpt>
      <trkpt lat="43.02209" lon="1.96669">
        <ele>346.1</ele>
        <time>2026-05-29T09:57:48Z</time>
      </trkpt>
      <trkpt lat="43.02211" lon="1.96674">
        <ele>346.2</ele>
        <time>2026-05-29T09:57:53Z</time>
      </trkpt>
      <trkpt lat="43.02212" lon="1.96678">
        <ele>346.3</ele>
        <time>2026-05-29T09:57:58Z</time>
      </trkpt>
      <trkpt lat="43.02214" lon="1.96683">
        <ele>346.5</ele>
        <time>2026-05-29T09:58:03Z</time>
      </trkpt>
      <trkpt lat="43.02217" lon="1.96685">
        <ele>346.7</ele>
        <time>2026-05-29T09:58:08Z</time>
      </trkpt>
      <trkpt lat="43.02219" lon="1.9669">
        <ele>346.9</ele>
        <time>2026-05-29T09:58:13Z</time>
      </trkpt>
      <trkpt lat="43.0222" lon="1.96694">
        <ele>347</ele>
        <time>2026-05-29T09:58:18Z</time>
      </trkpt>
      <trkpt lat="43.02221" lon="1.96698">
        <ele>347</ele>
        <time>2026-05-29T09:58:23Z</time>
      </trkpt>
      <trkpt lat="43.02223" lon="1.96701">
        <ele>347.2</ele>
        <time>2026-05-29T09:58:28Z</time>
      </trkpt>
      <trkpt lat="43.02224" lon="1.96705">
        <ele>347.3</ele>
        <time>2026-05-29T09:58:33Z</time>
      </trkpt>
      <trkpt lat="43.02226" lon="1.96708">
        <ele>347.4</ele>
        <time>2026-05-29T09:58:38Z</time>
      </trkpt>
      <trkpt lat="43.02227" lon="1.96711">
        <ele>347.5</ele>
        <time>2026-05-29T09:58:43Z</time>
      </trkpt>
      <trkpt lat="43.02228" lon="1.96712">
        <ele>347.6</ele>
        <time>2026-05-29T09:58:48Z</time>
      </trkpt>
      <trkpt lat="43.02228" lon="1.96712">
        <ele>347.6</ele>
        <time>2026-05-29T09:58:53Z</time>
      </trkpt>
      <trkpt lat="43.02228" lon="1.96712">
        <ele>347.6</ele>
        <time>2026-05-29T09:58:58Z</time>
      </trkpt>
      <trkpt lat="43.02228" lon="1.96712">
        <ele>347.6</ele>
        <time>2026-05-29T09:59:03Z</time>
      </trkpt>
      <trkpt lat="43.02228" lon="1.96712">
        <ele>347.6</ele>
        <time>2026-05-29T09:59:08Z</time>
      </trkpt>
      <trkpt lat="43.02227" lon="1.96718">
        <ele>347.5</ele>
        <time>2026-05-29T09:59:13Z</time>
      </trkpt>
      <trkpt lat="43.02228" lon="1.96722">
        <ele>347.6</ele>
        <time>2026-05-29T09:59:18Z</time>
      </trkpt>
      <trkpt lat="43.02228" lon="1.96725">
        <ele>347.6</ele>
        <time>2026-05-29T09:59:23Z</time>
      </trkpt>
      <trkpt lat="43.02228" lon="1.96726">
        <ele>347.6</ele>
        <time>2026-05-29T09:59:28Z</time>
      </trkpt>
      <trkpt lat="43.02228" lon="1.96726">
        <ele>347.6</ele>
        <time>2026-05-29T09:59:33Z</time>
      </trkpt>
      <trkpt lat="43.02228" lon="1.96726">
        <ele>347.6</ele>
        <time>2026-05-29T09:59:38Z</time>
      </trkpt>
      <trkpt lat="43.02228" lon="1.96726">
        <ele>347.6</ele>
        <time>2026-05-29T09:59:43Z</time>
      </trkpt>
      <trkpt lat="43.02228" lon="1.96726">
        <ele>347.6</ele>
        <time>2026-05-29T09:59:48Z</time>
      </trkpt>
      <trkpt lat="43.02228" lon="1.96726">
        <ele>347.6</ele>
        <time>2026-05-29T09:59:53Z</time>
      </trkpt>
      <trkpt lat="43.02228" lon="1.96726">
        <ele>347.6</ele>
        <time>2026-05-29T09:59:58Z</time>
      </trkpt>
      <trkpt lat="43.02228" lon="1.96726">
        <ele>347.6</ele>
        <time>2026-05-29T10:00:03Z</time>
      </trkpt>
      <trkpt lat="43.02228" lon="1.96726">
        <ele>347.6</ele>
        <time>2026-05-29T10:00:08Z</time>
      </trkpt>
      <trkpt lat="43.02228" lon="1.96726">
        <ele>347.6</ele>
        <time>2026-05-29T10:00:13Z</time>
      </trkpt>
      <trkpt lat="43.02234" lon="1.96734">
        <ele>348</ele>
        <time>2026-05-29T10:00:18Z</time>
      </trkpt>
      <trkpt lat="43.02236" lon="1.96737">
        <ele>348.1</ele>
        <time>2026-05-29T10:00:23Z</time>
      </trkpt>
      <trkpt lat="43.02238" lon="1.96744">
        <ele>348.3</ele>
        <time>2026-05-29T10:00:28Z</time>
      </trkpt>
      <trkpt lat="43.02239" lon="1.96751">
        <ele>348.3</ele>
        <time>2026-05-29T10:00:33Z</time>
      </trkpt>
      <trkpt lat="43.0224" lon="1.96756">
        <ele>348</ele>
        <time>2026-05-29T10:00:38Z</time>
      </trkpt>
      <trkpt lat="43.02241" lon="1.96761">
        <ele>347.7</ele>
        <time>2026-05-29T10:00:43Z</time>
      </trkpt>
      <trkpt lat="43.02242" lon="1.96766">
        <ele>347.4</ele>
        <time>2026-05-29T10:00:48Z</time>
      </trkpt>
      <trkpt lat="43.02242" lon="1.96768">
        <ele>347.3</ele>
        <time>2026-05-29T10:00:53Z</time>
      </trkpt>
      <trkpt lat="43.02242" lon="1.96772">
        <ele>347</ele>
        <time>2026-05-29T10:00:58Z</time>
      </trkpt>
      <trkpt lat="43.02242" lon="1.96773">
        <ele>346.9</ele>
        <time>2026-05-29T10:01:03Z</time>
      </trkpt>
      <trkpt lat="43.02239" lon="1.9677">
        <ele>347</ele>
        <time>2026-05-29T10:01:08Z</time>
      </trkpt>
      <trkpt lat="43.02238" lon="1.96766">
        <ele>347.2</ele>
        <time>2026-05-29T10:01:13Z</time>
      </trkpt>
      <trkpt lat="43.02237" lon="1.96763">
        <ele>347.4</ele>
        <time>2026-05-29T10:01:18Z</time>
      </trkpt>
      <trkpt lat="43.02235" lon="1.96761">
        <ele>347.4</ele>
        <time>2026-05-29T10:01:23Z</time>
      </trkpt>
      <trkpt lat="43.02235" lon="1.96761">
        <ele>347.4</ele>
        <time>2026-05-29T10:01:23Z</time>
      </trkpt>
      <trkpt lat="43.02226" lon="1.96774">
        <ele>346.1</ele>
        <time>2026-05-29T10:03:11Z</time>
      </trkpt>
      <trkpt lat="43.02235" lon="1.96764">
        <ele>347.2</ele>
        <time>2026-05-29T10:03:17Z</time>
      </trkpt>
      <trkpt lat="43.02236" lon="1.96763">
        <ele>347.3</ele>
        <time>2026-05-29T10:03:22Z</time>
      </trkpt>
      <trkpt lat="43.02238" lon="1.96762">
        <ele>347.5</ele>
        <time>2026-05-29T10:03:27Z</time>
      </trkpt>
      <trkpt lat="43.02238" lon="1.96762">
        <ele>347.5</ele>
        <time>2026-05-29T10:03:32Z</time>
      </trkpt>
      <trkpt lat="43.02234" lon="1.96761">
        <ele>347.3</ele>
        <time>2026-05-29T10:03:37Z</time>
      </trkpt>
      <trkpt lat="43.02231" lon="1.96755">
        <ele>347.5</ele>
        <time>2026-05-29T10:03:42Z</time>
      </trkpt>
      <trkpt lat="43.02231" lon="1.96747">
        <ele>347.9</ele>
        <time>2026-05-29T10:03:47Z</time>
      </trkpt>
      <trkpt lat="43.02233" lon="1.96743">
        <ele>348</ele>
        <time>2026-05-29T10:03:52Z</time>
      </trkpt>
      <trkpt lat="43.02229" lon="1.96737">
        <ele>347.7</ele>
        <time>2026-05-29T10:03:57Z</time>
      </trkpt>
      <trkpt lat="43.02225" lon="1.96736">
        <ele>347.4</ele>
        <time>2026-05-29T10:04:02Z</time>
      </trkpt>
      <trkpt lat="43.02224" lon="1.96739">
        <ele>347.4</ele>
        <time>2026-05-29T10:04:07Z</time>
      </trkpt>
      <trkpt lat="43.02221" lon="1.96738">
        <ele>347.2</ele>
        <time>2026-05-29T10:04:12Z</time>
      </trkpt>
      <trkpt lat="43.02215" lon="1.96737">
        <ele>346.8</ele>
        <time>2026-05-29T10:04:17Z</time>
      </trkpt>
      <trkpt lat="43.02209" lon="1.96737">
        <ele>346.5</ele>
        <time>2026-05-29T10:04:22Z</time>
      </trkpt>
      <trkpt lat="43.02204" lon="1.96736">
        <ele>346.1</ele>
        <time>2026-05-29T10:04:27Z</time>
      </trkpt>
      <trkpt lat="43.022" lon="1.96737">
        <ele>345.9</ele>
        <time>2026-05-29T10:04:32Z</time>
      </trkpt>
      <trkpt lat="43.02199" lon="1.96737">
        <ele>345.8</ele>
        <time>2026-05-29T10:04:37Z</time>
      </trkpt>
      <trkpt lat="43.02199" lon="1.96733">
        <ele>345.8</ele>
        <time>2026-05-29T10:04:42Z</time>
      </trkpt>
      <trkpt lat="43.02198" lon="1.96729">
        <ele>345.7</ele>
        <time>2026-05-29T10:04:47Z</time>
      </trkpt>
      <trkpt lat="43.02198" lon="1.96729">
        <ele>345.7</ele>
        <time>2026-05-29T10:04:52Z</time>
      </trkpt>
      <trkpt lat="43.02198" lon="1.96729">
        <ele>345.7</ele>
        <time>2026-05-29T10:04:57Z</time>
      </trkpt>
      <trkpt lat="43.02198" lon="1.96729">
        <ele>345.7</ele>
        <time>2026-05-29T10:05:02Z</time>
      </trkpt>
      <trkpt lat="43.02198" lon="1.96729">
        <ele>345.7</ele>
        <time>2026-05-29T10:05:07Z</time>
      </trkpt>
      <trkpt lat="43.02198" lon="1.96729">
        <ele>345.7</ele>
        <time>2026-05-29T10:05:12Z</time>
      </trkpt>
      <trkpt lat="43.02198" lon="1.96729">
        <ele>345.7</ele>
        <time>2026-05-29T10:05:17Z</time>
      </trkpt>
      <trkpt lat="43.02198" lon="1.96729">
        <ele>345.7</ele>
        <time>2026-05-29T10:05:22Z</time>
      </trkpt>
      <trkpt lat="43.02195" lon="1.96714">
        <ele>345.4</ele>
        <time>2026-05-29T10:05:27Z</time>
      </trkpt>
      <trkpt lat="43.0219" lon="1.96713">
        <ele>345.1</ele>
        <time>2026-05-29T10:05:32Z</time>
      </trkpt>
      <trkpt lat="43.02185" lon="1.96713">
        <ele>344.8</ele>
        <time>2026-05-29T10:05:37Z</time>
      </trkpt>
      <trkpt lat="43.02182" lon="1.96714">
        <ele>344.6</ele>
        <time>2026-05-29T10:05:42Z</time>
      </trkpt>
      <trkpt lat="43.0218" lon="1.96711">
        <ele>344.4</ele>
        <time>2026-05-29T10:05:47Z</time>
      </trkpt>
      <trkpt lat="43.02177" lon="1.96709">
        <ele>344.2</ele>
        <time>2026-05-29T10:05:52Z</time>
      </trkpt>
      <trkpt lat="43.02177" lon="1.96707">
        <ele>344.2</ele>
        <time>2026-05-29T10:05:57Z</time>
      </trkpt>
      <trkpt lat="43.02177" lon="1.96702">
        <ele>344.1</ele>
        <time>2026-05-29T10:06:02Z</time>
      </trkpt>
      <trkpt lat="43.02177" lon="1.96697">
        <ele>344.1</ele>
        <time>2026-05-29T10:06:07Z</time>
      </trkpt>
      <trkpt lat="43.02176" lon="1.96693">
        <ele>344</ele>
        <time>2026-05-29T10:06:12Z</time>
      </trkpt>
      <trkpt lat="43.02177" lon="1.96688">
        <ele>344</ele>
        <time>2026-05-29T10:06:17Z</time>
      </trkpt>
      <trkpt lat="43.02176" lon="1.96683">
        <ele>343.8</ele>
        <time>2026-05-29T10:06:22Z</time>
      </trkpt>
      <trkpt lat="43.02176" lon="1.96681">
        <ele>343.8</ele>
        <time>2026-05-29T10:06:27Z</time>
      </trkpt>
      <trkpt lat="43.02176" lon="1.96681">
        <ele>343.8</ele>
        <time>2026-05-29T10:06:32Z</time>
      </trkpt>
      <trkpt lat="43.02176" lon="1.96681">
        <ele>343.8</ele>
        <time>2026-05-29T10:06:37Z</time>
      </trkpt>
      <trkpt lat="43.02176" lon="1.96681">
        <ele>343.8</ele>
        <time>2026-05-29T10:06:42Z</time>
      </trkpt>
      <trkpt lat="43.02171" lon="1.96684">
        <ele>343.5</ele>
        <time>2026-05-29T10:06:47Z</time>
      </trkpt>
      <trkpt lat="43.0217" lon="1.96687">
        <ele>343.5</ele>
        <time>2026-05-29T10:06:52Z</time>
      </trkpt>
      <trkpt lat="43.02169" lon="1.96692">
        <ele>343.5</ele>
        <time>2026-05-29T10:06:57Z</time>
      </trkpt>
      <trkpt lat="43.02172" lon="1.96699">
        <ele>343.7</ele>
        <time>2026-05-29T10:07:02Z</time>
      </trkpt>
      <trkpt lat="43.02172" lon="1.96702">
        <ele>343.8</ele>
        <time>2026-05-29T10:07:07Z</time>
      </trkpt>
      <trkpt lat="43.02172" lon="1.96702">
        <ele>343.8</ele>
        <time>2026-05-29T10:07:12Z</time>
      </trkpt>
      <trkpt lat="43.02161" lon="1.96701">
        <ele>343.3</ele>
        <time>2026-05-29T10:07:17Z</time>
      </trkpt>
      <trkpt lat="43.02153" lon="1.96702">
        <ele>343.1</ele>
        <time>2026-05-29T10:07:22Z</time>
      </trkpt>
      <trkpt lat="43.02152" lon="1.96701">
        <ele>343.1</ele>
        <time>2026-05-29T10:07:27Z</time>
      </trkpt>
      <trkpt lat="43.0215" lon="1.96702">
        <ele>343</ele>
        <time>2026-05-29T10:07:32Z</time>
      </trkpt>
      <trkpt lat="43.02147" lon="1.96702">
        <ele>343</ele>
        <time>2026-05-29T10:07:37Z</time>
      </trkpt>
      <trkpt lat="43.02143" lon="1.96702">
        <ele>342.9</ele>
        <time>2026-05-29T10:07:42Z</time>
      </trkpt>
      <trkpt lat="43.02143" lon="1.96704">
        <ele>342.9</ele>
        <time>2026-05-29T10:07:47Z</time>
      </trkpt>
      <trkpt lat="43.02143" lon="1.96704">
        <ele>342.9</ele>
        <time>2026-05-29T10:07:52Z</time>
      </trkpt>
      <trkpt lat="43.02143" lon="1.96704">
        <ele>342.9</ele>
        <time>2026-05-29T10:07:57Z</time>
      </trkpt>
      <trkpt lat="43.02152" lon="1.96707">
        <ele>343.1</ele>
        <time>2026-05-29T10:08:02Z</time>
      </trkpt>
      <trkpt lat="43.02153" lon="1.96707">
        <ele>343.2</ele>
        <time>2026-05-29T10:08:07Z</time>
      </trkpt>
      <trkpt lat="43.02153" lon="1.96707">
        <ele>343.2</ele>
        <time>2026-05-29T10:08:12Z</time>
      </trkpt>
      <trkpt lat="43.02153" lon="1.96707">
        <ele>343.2</ele>
        <time>2026-05-29T10:08:17Z</time>
      </trkpt>
      <trkpt lat="43.02153" lon="1.96707">
        <ele>343.2</ele>
        <time>2026-05-29T10:08:22Z</time>
      </trkpt>
      <trkpt lat="43.02153" lon="1.96707">
        <ele>343.2</ele>
        <time>2026-05-29T10:08:27Z</time>
      </trkpt>
      <trkpt lat="43.02153" lon="1.96707">
        <ele>343.2</ele>
        <time>2026-05-29T10:08:32Z</time>
      </trkpt>
      <trkpt lat="43.02153" lon="1.96707">
        <ele>343.2</ele>
        <time>2026-05-29T10:08:37Z</time>
      </trkpt>
      <trkpt lat="43.02147" lon="1.96711">
        <ele>343.1</ele>
        <time>2026-05-29T10:08:42Z</time>
      </trkpt>
      <trkpt lat="43.02139" lon="1.96711">
        <ele>342.9</ele>
        <time>2026-05-29T10:08:47Z</time>
      </trkpt>
      <trkpt lat="43.02134" lon="1.96708">
        <ele>342.7</ele>
        <time>2026-05-29T10:08:52Z</time>
      </trkpt>
      <trkpt lat="43.02129" lon="1.9671">
        <ele>342.6</ele>
        <time>2026-05-29T10:08:57Z</time>
      </trkpt>
      <trkpt lat="43.02123" lon="1.96714">
        <ele>342.5</ele>
        <time>2026-05-29T10:09:02Z</time>
      </trkpt>
      <trkpt lat="43.02118" lon="1.96717">
        <ele>342.4</ele>
        <time>2026-05-29T10:09:07Z</time>
      </trkpt>
      <trkpt lat="43.02112" lon="1.96717">
        <ele>342.3</ele>
        <time>2026-05-29T10:09:12Z</time>
      </trkpt>
      <trkpt lat="43.02106" lon="1.96717">
        <ele>342.1</ele>
        <time>2026-05-29T10:09:17Z</time>
      </trkpt>
      <trkpt lat="43.021" lon="1.96719">
        <ele>342</ele>
        <time>2026-05-29T10:09:22Z</time>
      </trkpt>
      <trkpt lat="43.02095" lon="1.96721">
        <ele>341.9</ele>
        <time>2026-05-29T10:09:27Z</time>
      </trkpt>
      <trkpt lat="43.0209" lon="1.9672">
        <ele>341.8</ele>
        <time>2026-05-29T10:09:32Z</time>
      </trkpt>
      <trkpt lat="43.02085" lon="1.9672">
        <ele>341.7</ele>
        <time>2026-05-29T10:09:37Z</time>
      </trkpt>
      <trkpt lat="43.02079" lon="1.96719">
        <ele>341.6</ele>
        <time>2026-05-29T10:09:42Z</time>
      </trkpt>
      <trkpt lat="43.02074" lon="1.96718">
        <ele>341.7</ele>
        <time>2026-05-29T10:09:47Z</time>
      </trkpt>
      <trkpt lat="43.02069" lon="1.96719">
        <ele>341.7</ele>
        <time>2026-05-29T10:09:52Z</time>
      </trkpt>
      <trkpt lat="43.02062" lon="1.96721">
        <ele>341.7</ele>
        <time>2026-05-29T10:09:57Z</time>
      </trkpt>
      <trkpt lat="43.0206" lon="1.96719">
        <ele>341.7</ele>
        <time>2026-05-29T10:10:02Z</time>
      </trkpt>
      <trkpt lat="43.02055" lon="1.9672">
        <ele>341.8</ele>
        <time>2026-05-29T10:10:07Z</time>
      </trkpt>
      <trkpt lat="43.02049" lon="1.9672">
        <ele>341.8</ele>
        <time>2026-05-29T10:10:12Z</time>
      </trkpt>
      <trkpt lat="43.02045" lon="1.96722">
        <ele>341.8</ele>
        <time>2026-05-29T10:10:17Z</time>
      </trkpt>
      <trkpt lat="43.0204" lon="1.96721">
        <ele>341.8</ele>
        <time>2026-05-29T10:10:22Z</time>
      </trkpt>
      <trkpt lat="43.02033" lon="1.96722">
        <ele>341.9</ele>
        <time>2026-05-29T10:10:27Z</time>
      </trkpt>
      <trkpt lat="43.02028" lon="1.96721">
        <ele>341.9</ele>
        <time>2026-05-29T10:10:32Z</time>
      </trkpt>
      <trkpt lat="43.02024" lon="1.9672">
        <ele>341.9</ele>
        <time>2026-05-29T10:10:37Z</time>
      </trkpt>
      <trkpt lat="43.0202" lon="1.96721">
        <ele>341.9</ele>
        <time>2026-05-29T10:10:42Z</time>
      </trkpt>
      <trkpt lat="43.02014" lon="1.96723">
        <ele>341.9</ele>
        <time>2026-05-29T10:10:47Z</time>
      </trkpt>
      <trkpt lat="43.02009" lon="1.96724">
        <ele>342</ele>
        <time>2026-05-29T10:10:52Z</time>
      </trkpt>
      <trkpt lat="43.02003" lon="1.96724">
        <ele>342</ele>
        <time>2026-05-29T10:10:57Z</time>
      </trkpt>
      <trkpt lat="43.01999" lon="1.96724">
        <ele>342</ele>
        <time>2026-05-29T10:11:02Z</time>
      </trkpt>
      <trkpt lat="43.01992" lon="1.96724">
        <ele>342.2</ele>
        <time>2026-05-29T10:11:07Z</time>
      </trkpt>
      <trkpt lat="43.01986" lon="1.96722">
        <ele>342.3</ele>
        <time>2026-05-29T10:11:12Z</time>
      </trkpt>
      <trkpt lat="43.01982" lon="1.96719">
        <ele>342.4</ele>
        <time>2026-05-29T10:11:17Z</time>
      </trkpt>
      <trkpt lat="43.01978" lon="1.96714">
        <ele>342.4</ele>
        <time>2026-05-29T10:11:22Z</time>
      </trkpt>
      <trkpt lat="43.01973" lon="1.96709">
        <ele>342.5</ele>
        <time>2026-05-29T10:11:27Z</time>
      </trkpt>
      <trkpt lat="43.01968" lon="1.96701">
        <ele>342.5</ele>
        <time>2026-05-29T10:11:32Z</time>
      </trkpt>
      <trkpt lat="43.01964" lon="1.96696">
        <ele>342.5</ele>
        <time>2026-05-29T10:11:37Z</time>
      </trkpt>
      <trkpt lat="43.01961" lon="1.9669">
        <ele>342.4</ele>
        <time>2026-05-29T10:11:42Z</time>
      </trkpt>
      <trkpt lat="43.01956" lon="1.96684">
        <ele>342.3</ele>
        <time>2026-05-29T10:11:47Z</time>
      </trkpt>
      <trkpt lat="43.01951" lon="1.96679">
        <ele>342.3</ele>
        <time>2026-05-29T10:11:52Z</time>
      </trkpt>
      <trkpt lat="43.01946" lon="1.96672">
        <ele>342.1</ele>
        <time>2026-05-29T10:11:57Z</time>
      </trkpt>
      <trkpt lat="43.01941" lon="1.96666">
        <ele>342</ele>
        <time>2026-05-29T10:12:02Z</time>
      </trkpt>
      <trkpt lat="43.01936" lon="1.96661">
        <ele>341.9</ele>
        <time>2026-05-29T10:12:07Z</time>
      </trkpt>
      <trkpt lat="43.01931" lon="1.96656">
        <ele>341.9</ele>
        <time>2026-05-29T10:12:12Z</time>
      </trkpt>
      <trkpt lat="43.01926" lon="1.9665">
        <ele>341.8</ele>
        <time>2026-05-29T10:12:17Z</time>
      </trkpt>
      <trkpt lat="43.0192" lon="1.96645">
        <ele>341.7</ele>
        <time>2026-05-29T10:12:22Z</time>
      </trkpt>
      <trkpt lat="43.01916" lon="1.9664">
        <ele>341.7</ele>
        <time>2026-05-29T10:12:27Z</time>
      </trkpt>
      <trkpt lat="43.0191" lon="1.96634">
        <ele>342.1</ele>
        <time>2026-05-29T10:12:32Z</time>
      </trkpt>
      <trkpt lat="43.01905" lon="1.96629">
        <ele>342.3</ele>
        <time>2026-05-29T10:12:37Z</time>
      </trkpt>
      <trkpt lat="43.019" lon="1.96624">
        <ele>342.6</ele>
        <time>2026-05-29T10:12:42Z</time>
      </trkpt>
      <trkpt lat="43.01894" lon="1.96621">
        <ele>342.9</ele>
        <time>2026-05-29T10:12:47Z</time>
      </trkpt>
      <trkpt lat="43.01889" lon="1.96616">
        <ele>343.1</ele>
        <time>2026-05-29T10:12:52Z</time>
      </trkpt>
      <trkpt lat="43.01884" lon="1.96614">
        <ele>343.4</ele>
        <time>2026-05-29T10:12:57Z</time>
      </trkpt>
      <trkpt lat="43.01878" lon="1.96614">
        <ele>343.7</ele>
        <time>2026-05-29T10:13:02Z</time>
      </trkpt>
      <trkpt lat="43.01878" lon="1.96614">
        <ele>343.7</ele>
        <time>2026-05-29T10:13:07Z</time>
      </trkpt>
      <trkpt lat="43.01877" lon="1.96616">
        <ele>343.9</ele>
        <time>2026-05-29T10:13:12Z</time>
      </trkpt>
      <trkpt lat="43.01873" lon="1.96618">
        <ele>344.2</ele>
        <time>2026-05-29T10:13:17Z</time>
      </trkpt>
      <trkpt lat="43.01868" lon="1.96621">
        <ele>344.6</ele>
        <time>2026-05-29T10:13:22Z</time>
      </trkpt>
      <trkpt lat="43.01864" lon="1.96622">
        <ele>344.9</ele>
        <time>2026-05-29T10:13:27Z</time>
      </trkpt>
      <trkpt lat="43.0186" lon="1.96624">
        <ele>345.2</ele>
        <time>2026-05-29T10:13:32Z</time>
      </trkpt>
      <trkpt lat="43.01855" lon="1.96627">
        <ele>345.6</ele>
        <time>2026-05-29T10:13:37Z</time>
      </trkpt>
      <trkpt lat="43.01849" lon="1.96632">
        <ele>346.3</ele>
        <time>2026-05-29T10:13:42Z</time>
      </trkpt>
      <trkpt lat="43.01845" lon="1.96637">
        <ele>346.7</ele>
        <time>2026-05-29T10:13:47Z</time>
      </trkpt>
      <trkpt lat="43.01843" lon="1.9664">
        <ele>347</ele>
        <time>2026-05-29T10:13:52Z</time>
      </trkpt>
      <trkpt lat="43.01845" lon="1.9664">
        <ele>346.9</ele>
        <time>2026-05-29T10:13:57Z</time>
      </trkpt>
      <trkpt lat="43.01848" lon="1.96635">
        <ele>346.4</ele>
        <time>2026-05-29T10:14:02Z</time>
      </trkpt>
      <trkpt lat="43.01851" lon="1.9663">
        <ele>346</ele>
        <time>2026-05-29T10:14:07Z</time>
      </trkpt>
      <trkpt lat="43.01856" lon="1.96627">
        <ele>345.6</ele>
        <time>2026-05-29T10:14:12Z</time>
      </trkpt>
      <trkpt lat="43.01861" lon="1.96623">
        <ele>345.1</ele>
        <time>2026-05-29T10:14:17Z</time>
      </trkpt>
      <trkpt lat="43.01867" lon="1.96621">
        <ele>344.6</ele>
        <time>2026-05-29T10:14:22Z</time>
      </trkpt>
      <trkpt lat="43.01873" lon="1.96619">
        <ele>344.2</ele>
        <time>2026-05-29T10:14:27Z</time>
      </trkpt>
      <trkpt lat="43.01876" lon="1.96614">
        <ele>343.9</ele>
        <time>2026-05-29T10:14:32Z</time>
      </trkpt>
      <trkpt lat="43.01874" lon="1.96609">
        <ele>343.8</ele>
        <time>2026-05-29T10:14:37Z</time>
      </trkpt>
      <trkpt lat="43.01871" lon="1.96603">
        <ele>343.8</ele>
        <time>2026-05-29T10:14:42Z</time>
      </trkpt>
      <trkpt lat="43.01865" lon="1.96598">
        <ele>344</ele>
        <time>2026-05-29T10:14:47Z</time>
      </trkpt>
      <trkpt lat="43.0186" lon="1.96595">
        <ele>344.1</ele>
        <time>2026-05-29T10:14:52Z</time>
      </trkpt>
      <trkpt lat="43.01854" lon="1.96592">
        <ele>344.3</ele>
        <time>2026-05-29T10:14:57Z</time>
      </trkpt>
      <trkpt lat="43.01849" lon="1.96588">
        <ele>344.4</ele>
        <time>2026-05-29T10:15:02Z</time>
      </trkpt>
      <trkpt lat="43.01844" lon="1.96582">
        <ele>344.5</ele>
        <time>2026-05-29T10:15:07Z</time>
      </trkpt>
      <trkpt lat="43.01838" lon="1.96576">
        <ele>344.8</ele>
        <time>2026-05-29T10:15:12Z</time>
      </trkpt>
      <trkpt lat="43.01832" lon="1.96573">
        <ele>345.1</ele>
        <time>2026-05-29T10:15:17Z</time>
      </trkpt>
      <trkpt lat="43.01826" lon="1.9657">
        <ele>345.4</ele>
        <time>2026-05-29T10:15:22Z</time>
      </trkpt>
      <trkpt lat="43.01821" lon="1.96567">
        <ele>345.7</ele>
        <time>2026-05-29T10:15:27Z</time>
      </trkpt>
      <trkpt lat="43.01816" lon="1.96564">
        <ele>345.9</ele>
        <time>2026-05-29T10:15:32Z</time>
      </trkpt>
      <trkpt lat="43.01812" lon="1.96559">
        <ele>346</ele>
        <time>2026-05-29T10:15:37Z</time>
      </trkpt>
      <trkpt lat="43.01806" lon="1.96552">
        <ele>346.1</ele>
        <time>2026-05-29T10:15:42Z</time>
      </trkpt>
      <trkpt lat="43.01802" lon="1.96544">
        <ele>346</ele>
        <time>2026-05-29T10:15:47Z</time>
      </trkpt>
      <trkpt lat="43.01799" lon="1.96538">
        <ele>345.9</ele>
        <time>2026-05-29T10:15:52Z</time>
      </trkpt>
      <trkpt lat="43.01796" lon="1.96532">
        <ele>345.8</ele>
        <time>2026-05-29T10:15:57Z</time>
      </trkpt>
      <trkpt lat="43.01795" lon="1.96524">
        <ele>345.5</ele>
        <time>2026-05-29T10:16:02Z</time>
      </trkpt>
      <trkpt lat="43.01792" lon="1.96515">
        <ele>345.1</ele>
        <time>2026-05-29T10:16:07Z</time>
      </trkpt>
      <trkpt lat="43.0179" lon="1.96506">
        <ele>344.7</ele>
        <time>2026-05-29T10:16:12Z</time>
      </trkpt>
      <trkpt lat="43.01788" lon="1.96498">
        <ele>344.4</ele>
        <time>2026-05-29T10:16:17Z</time>
      </trkpt>
      <trkpt lat="43.01785" lon="1.96491">
        <ele>344.3</ele>
        <time>2026-05-29T10:16:22Z</time>
      </trkpt>
      <trkpt lat="43.01783" lon="1.96482">
        <ele>344.2</ele>
        <time>2026-05-29T10:16:27Z</time>
      </trkpt>
      <trkpt lat="43.01781" lon="1.96475">
        <ele>344.1</ele>
        <time>2026-05-29T10:16:32Z</time>
      </trkpt>
      <trkpt lat="43.01778" lon="1.96468">
        <ele>344</ele>
        <time>2026-05-29T10:16:37Z</time>
      </trkpt>
      <trkpt lat="43.01775" lon="1.96461">
        <ele>343.8</ele>
        <time>2026-05-29T10:16:42Z</time>
      </trkpt>
      <trkpt lat="43.01771" lon="1.96455">
        <ele>343.7</ele>
        <time>2026-05-29T10:16:47Z</time>
      </trkpt>
      <trkpt lat="43.01767" lon="1.96448">
        <ele>343.6</ele>
        <time>2026-05-29T10:16:52Z</time>
      </trkpt>
      <trkpt lat="43.01765" lon="1.9644">
        <ele>343.5</ele>
        <time>2026-05-29T10:16:57Z</time>
      </trkpt>
      <trkpt lat="43.0176" lon="1.96433">
        <ele>343.3</ele>
        <time>2026-05-29T10:17:02Z</time>
      </trkpt>
      <trkpt lat="43.01757" lon="1.96426">
        <ele>343.2</ele>
        <time>2026-05-29T10:17:07Z</time>
      </trkpt>
      <trkpt lat="43.01753" lon="1.9642">
        <ele>343.1</ele>
        <time>2026-05-29T10:17:12Z</time>
      </trkpt>
      <trkpt lat="43.01749" lon="1.96413">
        <ele>343</ele>
        <time>2026-05-29T10:17:17Z</time>
      </trkpt>
      <trkpt lat="43.01743" lon="1.96408">
        <ele>342.9</ele>
        <time>2026-05-29T10:17:22Z</time>
      </trkpt>
      <trkpt lat="43.01738" lon="1.96403">
        <ele>342.9</ele>
        <time>2026-05-29T10:17:27Z</time>
      </trkpt>
      <trkpt lat="43.01733" lon="1.96398">
        <ele>342.8</ele>
        <time>2026-05-29T10:17:32Z</time>
      </trkpt>
      <trkpt lat="43.0173" lon="1.96391">
        <ele>342.8</ele>
        <time>2026-05-29T10:17:37Z</time>
      </trkpt>
      <trkpt lat="43.01726" lon="1.96386">
        <ele>342.8</ele>
        <time>2026-05-29T10:17:42Z</time>
      </trkpt>
      <trkpt lat="43.01721" lon="1.96383">
        <ele>342.8</ele>
        <time>2026-05-29T10:17:47Z</time>
      </trkpt>
      <trkpt lat="43.01715" lon="1.96377">
        <ele>342.8</ele>
        <time>2026-05-29T10:17:52Z</time>
      </trkpt>
      <trkpt lat="43.01709" lon="1.96369">
        <ele>342.8</ele>
        <time>2026-05-29T10:17:57Z</time>
      </trkpt>
      <trkpt lat="43.01703" lon="1.96364">
        <ele>342.8</ele>
        <time>2026-05-29T10:18:02Z</time>
      </trkpt>
      <trkpt lat="43.01697" lon="1.96361">
        <ele>342.8</ele>
        <time>2026-05-29T10:18:07Z</time>
      </trkpt>
      <trkpt lat="43.01692" lon="1.96357">
        <ele>342.8</ele>
        <time>2026-05-29T10:18:12Z</time>
      </trkpt>
      <trkpt lat="43.01689" lon="1.9635">
        <ele>342.9</ele>
        <time>2026-05-29T10:18:17Z</time>
      </trkpt>
      <trkpt lat="43.01685" lon="1.96347">
        <ele>342.9</ele>
        <time>2026-05-29T10:18:22Z</time>
      </trkpt>
      <trkpt lat="43.01681" lon="1.96343">
        <ele>342.9</ele>
        <time>2026-05-29T10:18:27Z</time>
      </trkpt>
      <trkpt lat="43.01678" lon="1.96339">
        <ele>342.9</ele>
        <time>2026-05-29T10:18:32Z</time>
      </trkpt>
      <trkpt lat="43.01669" lon="1.96334">
        <ele>343</ele>
        <time>2026-05-29T10:18:37Z</time>
      </trkpt>
      <trkpt lat="43.01662" lon="1.96328">
        <ele>343.1</ele>
        <time>2026-05-29T10:18:42Z</time>
      </trkpt>
      <trkpt lat="43.01656" lon="1.96322">
        <ele>343.2</ele>
        <time>2026-05-29T10:18:47Z</time>
      </trkpt>
      <trkpt lat="43.0165" lon="1.96318">
        <ele>343.3</ele>
        <time>2026-05-29T10:18:52Z</time>
      </trkpt>
      <trkpt lat="43.01646" lon="1.96314">
        <ele>343.3</ele>
        <time>2026-05-29T10:18:57Z</time>
      </trkpt>
      <trkpt lat="43.01641" lon="1.96311">
        <ele>343.4</ele>
        <time>2026-05-29T10:19:02Z</time>
      </trkpt>
      <trkpt lat="43.01636" lon="1.96307">
        <ele>343.5</ele>
        <time>2026-05-29T10:19:07Z</time>
      </trkpt>
      <trkpt lat="43.01631" lon="1.96305">
        <ele>343.6</ele>
        <time>2026-05-29T10:19:12Z</time>
      </trkpt>
      <trkpt lat="43.01624" lon="1.96301">
        <ele>343.8</ele>
        <time>2026-05-29T10:19:17Z</time>
      </trkpt>
      <trkpt lat="43.0162" lon="1.96297">
        <ele>343.9</ele>
        <time>2026-05-29T10:19:22Z</time>
      </trkpt>
      <trkpt lat="43.01613" lon="1.96294">
        <ele>344.1</ele>
        <time>2026-05-29T10:19:27Z</time>
      </trkpt>
      <trkpt lat="43.01608" lon="1.96291">
        <ele>344.2</ele>
        <time>2026-05-29T10:19:32Z</time>
      </trkpt>
      <trkpt lat="43.01602" lon="1.96287">
        <ele>344.4</ele>
        <time>2026-05-29T10:19:37Z</time>
      </trkpt>
      <trkpt lat="43.01595" lon="1.96281">
        <ele>344.7</ele>
        <time>2026-05-29T10:19:42Z</time>
      </trkpt>
      <trkpt lat="43.01588" lon="1.96277">
        <ele>345</ele>
        <time>2026-05-29T10:19:47Z</time>
      </trkpt>
      <trkpt lat="43.01583" lon="1.96272">
        <ele>345.2</ele>
        <time>2026-05-29T10:19:52Z</time>
      </trkpt>
      <trkpt lat="43.01577" lon="1.96268">
        <ele>345.4</ele>
        <time>2026-05-29T10:19:57Z</time>
      </trkpt>
      <trkpt lat="43.0157" lon="1.96264">
        <ele>345.5</ele>
        <time>2026-05-29T10:20:02Z</time>
      </trkpt>
      <trkpt lat="43.01565" lon="1.9626">
        <ele>345.7</ele>
        <time>2026-05-29T10:20:07Z</time>
      </trkpt>
      <trkpt lat="43.01559" lon="1.96257">
        <ele>345.8</ele>
        <time>2026-05-29T10:20:12Z</time>
      </trkpt>
      <trkpt lat="43.01554" lon="1.96253">
        <ele>345.9</ele>
        <time>2026-05-29T10:20:17Z</time>
      </trkpt>
      <trkpt lat="43.01549" lon="1.96251">
        <ele>346</ele>
        <time>2026-05-29T10:20:22Z</time>
      </trkpt>
      <trkpt lat="43.01544" lon="1.96248">
        <ele>346.3</ele>
        <time>2026-05-29T10:20:27Z</time>
      </trkpt>
      <trkpt lat="43.01538" lon="1.96244">
        <ele>346.9</ele>
        <time>2026-05-29T10:20:32Z</time>
      </trkpt>
      <trkpt lat="43.01533" lon="1.96238">
        <ele>347.8</ele>
        <time>2026-05-29T10:20:37Z</time>
      </trkpt>
      <trkpt lat="43.01528" lon="1.96236">
        <ele>348.1</ele>
        <time>2026-05-29T10:20:42Z</time>
      </trkpt>
      <trkpt lat="43.01523" lon="1.96234">
        <ele>348.5</ele>
        <time>2026-05-29T10:20:47Z</time>
      </trkpt>
      <trkpt lat="43.01516" lon="1.96233">
        <ele>348.8</ele>
        <time>2026-05-29T10:20:52Z</time>
      </trkpt>
      <trkpt lat="43.0151" lon="1.9623">
        <ele>349.4</ele>
        <time>2026-05-29T10:20:57Z</time>
      </trkpt>
      <trkpt lat="43.01502" lon="1.96228">
        <ele>349.9</ele>
        <time>2026-05-29T10:21:02Z</time>
      </trkpt>
      <trkpt lat="43.01496" lon="1.96225">
        <ele>350.7</ele>
        <time>2026-05-29T10:21:07Z</time>
      </trkpt>
      <trkpt lat="43.0149" lon="1.96222">
        <ele>351.6</ele>
        <time>2026-05-29T10:21:12Z</time>
      </trkpt>
      <trkpt lat="43.01489" lon="1.96223">
        <ele>351.5</ele>
        <time>2026-05-29T10:21:17Z</time>
      </trkpt>
      <trkpt lat="43.01494" lon="1.96225">
        <ele>350.8</ele>
        <time>2026-05-29T10:21:22Z</time>
      </trkpt>
      <trkpt lat="43.01501" lon="1.96226">
        <ele>350.3</ele>
        <time>2026-05-29T10:21:27Z</time>
      </trkpt>
      <trkpt lat="43.01507" lon="1.96228">
        <ele>349.8</ele>
        <time>2026-05-29T10:21:32Z</time>
      </trkpt>
      <trkpt lat="43.01512" lon="1.96231">
        <ele>349.2</ele>
        <time>2026-05-29T10:21:37Z</time>
      </trkpt>
      <trkpt lat="43.01516" lon="1.96232">
        <ele>348.9</ele>
        <time>2026-05-29T10:21:42Z</time>
      </trkpt>
      <trkpt lat="43.01518" lon="1.96234">
        <ele>348.6</ele>
        <time>2026-05-29T10:21:47Z</time>
      </trkpt>
      <trkpt lat="43.01518" lon="1.96234">
        <ele>348.6</ele>
        <time>2026-05-29T10:21:52Z</time>
      </trkpt>
      <trkpt lat="43.01518" lon="1.96234">
        <ele>348.6</ele>
        <time>2026-05-29T10:21:57Z</time>
      </trkpt>
      <trkpt lat="43.01521" lon="1.96232">
        <ele>348.9</ele>
        <time>2026-05-29T10:22:02Z</time>
      </trkpt>
      <trkpt lat="43.01526" lon="1.96238">
        <ele>347.8</ele>
        <time>2026-05-29T10:22:07Z</time>
      </trkpt>
      <trkpt lat="43.01534" lon="1.96245">
        <ele>346.7</ele>
        <time>2026-05-29T10:22:12Z</time>
      </trkpt>
      <trkpt lat="43.0154" lon="1.96247">
        <ele>346.4</ele>
        <time>2026-05-29T10:22:17Z</time>
      </trkpt>
      <trkpt lat="43.01546" lon="1.96251">
        <ele>346</ele>
        <time>2026-05-29T10:22:22Z</time>
      </trkpt>
      <trkpt lat="43.01553" lon="1.96253">
        <ele>345.9</ele>
        <time>2026-05-29T10:22:27Z</time>
      </trkpt>
      <trkpt lat="43.01558" lon="1.96256">
        <ele>345.8</ele>
        <time>2026-05-29T10:22:32Z</time>
      </trkpt>
      <trkpt lat="43.01564" lon="1.9626">
        <ele>345.7</ele>
        <time>2026-05-29T10:22:37Z</time>
      </trkpt>
      <trkpt lat="43.01565" lon="1.96258">
        <ele>345.7</ele>
        <time>2026-05-29T10:22:42Z</time>
      </trkpt>
      <trkpt lat="43.01563" lon="1.96257">
        <ele>345.8</ele>
        <time>2026-05-29T10:22:47Z</time>
      </trkpt>
      <trkpt lat="43.01558" lon="1.96255">
        <ele>345.8</ele>
        <time>2026-05-29T10:22:52Z</time>
      </trkpt>
      <trkpt lat="43.01553" lon="1.96252">
        <ele>345.9</ele>
        <time>2026-05-29T10:22:57Z</time>
      </trkpt>
      <trkpt lat="43.01549" lon="1.96249">
        <ele>346.1</ele>
        <time>2026-05-29T10:23:02Z</time>
      </trkpt>
      <trkpt lat="43.01544" lon="1.96245">
        <ele>346.7</ele>
        <time>2026-05-29T10:23:07Z</time>
      </trkpt>
      <trkpt lat="43.01538" lon="1.96244">
        <ele>346.9</ele>
        <time>2026-05-29T10:23:12Z</time>
      </trkpt>
      <trkpt lat="43.01532" lon="1.9624">
        <ele>347.5</ele>
        <time>2026-05-29T10:23:17Z</time>
      </trkpt>
      <trkpt lat="43.01527" lon="1.96239">
        <ele>347.7</ele>
        <time>2026-05-29T10:23:22Z</time>
      </trkpt>
      <trkpt lat="43.01521" lon="1.96236">
        <ele>348.2</ele>
        <time>2026-05-29T10:23:27Z</time>
      </trkpt>
      <trkpt lat="43.01518" lon="1.96233">
        <ele>348.8</ele>
        <time>2026-05-29T10:23:32Z</time>
      </trkpt>
      <trkpt lat="43.01518" lon="1.96225">
        <ele>350</ele>
        <time>2026-05-29T10:23:37Z</time>
      </trkpt>
      <trkpt lat="43.0152" lon="1.96218">
        <ele>351.1</ele>
        <time>2026-05-29T10:23:42Z</time>
      </trkpt>
      <trkpt lat="43.01523" lon="1.96211">
        <ele>352.1</ele>
        <time>2026-05-29T10:23:47Z</time>
      </trkpt>
      <trkpt lat="43.01526" lon="1.96203">
        <ele>353.2</ele>
        <time>2026-05-29T10:23:52Z</time>
      </trkpt>
      <trkpt lat="43.01527" lon="1.96198">
        <ele>353.9</ele>
        <time>2026-05-29T10:23:57Z</time>
      </trkpt>
      <trkpt lat="43.01529" lon="1.96192">
        <ele>354.7</ele>
        <time>2026-05-29T10:24:02Z</time>
      </trkpt>
      <trkpt lat="43.0153" lon="1.96186">
        <ele>355.6</ele>
        <time>2026-05-29T10:24:07Z</time>
      </trkpt>
      <trkpt lat="43.0153" lon="1.9618">
        <ele>356.5</ele>
        <time>2026-05-29T10:24:12Z</time>
      </trkpt>
      <trkpt lat="43.01528" lon="1.96173">
        <ele>357.7</ele>
        <time>2026-05-29T10:24:17Z</time>
      </trkpt>
      <trkpt lat="43.01525" lon="1.96167">
        <ele>358.8</ele>
        <time>2026-05-29T10:24:22Z</time>
      </trkpt>
      <trkpt lat="43.01522" lon="1.9616">
        <ele>360.9</ele>
        <time>2026-05-29T10:24:27Z</time>
      </trkpt>
      <trkpt lat="43.0152" lon="1.96153">
        <ele>363</ele>
        <time>2026-05-29T10:24:32Z</time>
      </trkpt>
      <trkpt lat="43.01517" lon="1.96148">
        <ele>364.7</ele>
        <time>2026-05-29T10:24:37Z</time>
      </trkpt>
      <trkpt lat="43.01511" lon="1.96148">
        <ele>365.4</ele>
        <time>2026-05-29T10:24:42Z</time>
      </trkpt>
      <trkpt lat="43.01503" lon="1.96149">
        <ele>366</ele>
        <time>2026-05-29T10:24:47Z</time>
      </trkpt>
      <trkpt lat="43.01497" lon="1.96149">
        <ele>366.7</ele>
        <time>2026-05-29T10:24:52Z</time>
      </trkpt>
      <trkpt lat="43.0149" lon="1.96151">
        <ele>367</ele>
        <time>2026-05-29T10:24:57Z</time>
      </trkpt>
      <trkpt lat="43.01483" lon="1.96152">
        <ele>367.6</ele>
        <time>2026-05-29T10:25:02Z</time>
      </trkpt>
      <trkpt lat="43.01477" lon="1.9615">
        <ele>369</ele>
        <time>2026-05-29T10:25:07Z</time>
      </trkpt>
      <trkpt lat="43.0147" lon="1.96152">
        <ele>369.3</ele>
        <time>2026-05-29T10:25:12Z</time>
      </trkpt>
      <trkpt lat="43.01463" lon="1.96153">
        <ele>369.9</ele>
        <time>2026-05-29T10:25:17Z</time>
      </trkpt>
      <trkpt lat="43.01456" lon="1.96153">
        <ele>370.8</ele>
        <time>2026-05-29T10:25:22Z</time>
      </trkpt>
      <trkpt lat="43.01451" lon="1.96154">
        <ele>371.1</ele>
        <time>2026-05-29T10:25:27Z</time>
      </trkpt>
      <trkpt lat="43.01447" lon="1.96154">
        <ele>371.6</ele>
        <time>2026-05-29T10:25:32Z</time>
      </trkpt>
      <trkpt lat="43.01443" lon="1.96154">
        <ele>372.2</ele>
        <time>2026-05-29T10:25:37Z</time>
      </trkpt>
      <trkpt lat="43.01437" lon="1.96154">
        <ele>372.9</ele>
        <time>2026-05-29T10:25:42Z</time>
      </trkpt>
      <trkpt lat="43.01429" lon="1.96157">
        <ele>372.9</ele>
        <time>2026-05-29T10:25:47Z</time>
      </trkpt>
      <trkpt lat="43.01421" lon="1.9616">
        <ele>372.9</ele>
        <time>2026-05-29T10:25:52Z</time>
      </trkpt>
      <trkpt lat="43.01414" lon="1.96163">
        <ele>372.8</ele>
        <time>2026-05-29T10:25:57Z</time>
      </trkpt>
      <trkpt lat="43.01409" lon="1.96165">
        <ele>373.1</ele>
        <time>2026-05-29T10:26:02Z</time>
      </trkpt>
      <trkpt lat="43.01403" lon="1.96167">
        <ele>373.5</ele>
        <time>2026-05-29T10:26:07Z</time>
      </trkpt>
      <trkpt lat="43.01395" lon="1.96168">
        <ele>374.8</ele>
        <time>2026-05-29T10:26:12Z</time>
      </trkpt>
      <trkpt lat="43.01389" lon="1.96168">
        <ele>375.9</ele>
        <time>2026-05-29T10:26:17Z</time>
      </trkpt>
      <trkpt lat="43.01383" lon="1.96169">
        <ele>376.7</ele>
        <time>2026-05-29T10:26:22Z</time>
      </trkpt>
      <trkpt lat="43.01377" lon="1.96172">
        <ele>376.9</ele>
        <time>2026-05-29T10:26:27Z</time>
      </trkpt>
      <trkpt lat="43.0137" lon="1.96175">
        <ele>377.2</ele>
        <time>2026-05-29T10:26:32Z</time>
      </trkpt>
      <trkpt lat="43.01363" lon="1.96178">
        <ele>377.4</ele>
        <time>2026-05-29T10:26:37Z</time>
      </trkpt>
      <trkpt lat="43.01357" lon="1.9618">
        <ele>377.7</ele>
        <time>2026-05-29T10:26:42Z</time>
      </trkpt>
      <trkpt lat="43.01351" lon="1.96181">
        <ele>378.4</ele>
        <time>2026-05-29T10:26:47Z</time>
      </trkpt>
      <trkpt lat="43.01345" lon="1.96185">
        <ele>378</ele>
        <time>2026-05-29T10:26:52Z</time>
      </trkpt>
      <trkpt lat="43.01341" lon="1.96188">
        <ele>377.5</ele>
        <time>2026-05-29T10:26:57Z</time>
      </trkpt>
      <trkpt lat="43.01341" lon="1.96191">
        <ele>376.4</ele>
        <time>2026-05-29T10:27:02Z</time>
      </trkpt>
      <trkpt lat="43.01339" lon="1.96192">
        <ele>376.4</ele>
        <time>2026-05-29T10:27:07Z</time>
      </trkpt>
      <trkpt lat="43.01334" lon="1.96195">
        <ele>376</ele>
        <time>2026-05-29T10:27:12Z</time>
      </trkpt>
      <trkpt lat="43.01329" lon="1.96198">
        <ele>376</ele>
        <time>2026-05-29T10:27:17Z</time>
      </trkpt>
      <trkpt lat="43.01323" lon="1.96198">
        <ele>377.5</ele>
        <time>2026-05-29T10:27:22Z</time>
      </trkpt>
      <trkpt lat="43.01318" lon="1.96199">
        <ele>378.4</ele>
        <time>2026-05-29T10:27:27Z</time>
      </trkpt>
      <trkpt lat="43.01311" lon="1.96199">
        <ele>380.1</ele>
        <time>2026-05-29T10:27:32Z</time>
      </trkpt>
      <trkpt lat="43.01305" lon="1.962">
        <ele>381.2</ele>
        <time>2026-05-29T10:27:37Z</time>
      </trkpt>
      <trkpt lat="43.01299" lon="1.96203">
        <ele>381.6</ele>
        <time>2026-05-29T10:27:42Z</time>
      </trkpt>
      <trkpt lat="43.01294" lon="1.96205">
        <ele>382.1</ele>
        <time>2026-05-29T10:27:47Z</time>
      </trkpt>
      <trkpt lat="43.01286" lon="1.96211">
        <ele>382</ele>
        <time>2026-05-29T10:27:52Z</time>
      </trkpt>
      <trkpt lat="43.0128" lon="1.96214">
        <ele>382.4</ele>
        <time>2026-05-29T10:27:57Z</time>
      </trkpt>
      <trkpt lat="43.01273" lon="1.96216">
        <ele>383.5</ele>
        <time>2026-05-29T10:28:02Z</time>
      </trkpt>
      <trkpt lat="43.01267" lon="1.96216">
        <ele>385.1</ele>
        <time>2026-05-29T10:28:07Z</time>
      </trkpt>
      <trkpt lat="43.01262" lon="1.96217">
        <ele>386</ele>
        <time>2026-05-29T10:28:12Z</time>
      </trkpt>
      <trkpt lat="43.01257" lon="1.96219">
        <ele>386.6</ele>
        <time>2026-05-29T10:28:17Z</time>
      </trkpt>
      <trkpt lat="43.01251" lon="1.96219">
        <ele>388.2</ele>
        <time>2026-05-29T10:28:22Z</time>
      </trkpt>
      <trkpt lat="43.01244" lon="1.96221">
        <ele>389.3</ele>
        <time>2026-05-29T10:28:27Z</time>
      </trkpt>
      <trkpt lat="43.01239" lon="1.96223">
        <ele>389.9</ele>
        <time>2026-05-29T10:28:32Z</time>
      </trkpt>
      <trkpt lat="43.01233" lon="1.96226">
        <ele>390.5</ele>
        <time>2026-05-29T10:28:37Z</time>
      </trkpt>
      <trkpt lat="43.01228" lon="1.96227">
        <ele>391.5</ele>
        <time>2026-05-29T10:28:42Z</time>
      </trkpt>
      <trkpt lat="43.01223" lon="1.9623">
        <ele>391.9</ele>
        <time>2026-05-29T10:28:47Z</time>
      </trkpt>
      <trkpt lat="43.01218" lon="1.96231">
        <ele>392.9</ele>
        <time>2026-05-29T10:28:52Z</time>
      </trkpt>
      <trkpt lat="43.01213" lon="1.96235">
        <ele>393.1</ele>
        <time>2026-05-29T10:28:57Z</time>
      </trkpt>
      <trkpt lat="43.01211" lon="1.96239">
        <ele>392.4</ele>
        <time>2026-05-29T10:29:02Z</time>
      </trkpt>
      <trkpt lat="43.00903" lon="1.96489">
        <ele>355.3</ele>
        <time>2026-05-29T10:33:52Z</time>
      </trkpt>
      <trkpt lat="43.00915" lon="1.96456">
        <ele>365</ele>
        <time>2026-05-29T10:33:57Z</time>
      </trkpt>
      <trkpt lat="43.00915" lon="1.96456">
        <ele>365</ele>
        <time>2026-05-29T10:34:02Z</time>
      </trkpt>
      <trkpt lat="43.00913" lon="1.96463">
        <ele>362.8</ele>
        <time>2026-05-29T10:34:07Z</time>
      </trkpt>
      <trkpt lat="43.00908" lon="1.96469">
        <ele>360.8</ele>
        <time>2026-05-29T10:34:12Z</time>
      </trkpt>
      <trkpt lat="43.00905" lon="1.96472">
        <ele>359.7</ele>
        <time>2026-05-29T10:34:17Z</time>
      </trkpt>
      <trkpt lat="43.009" lon="1.9648">
        <ele>357.3</ele>
        <time>2026-05-29T10:34:22Z</time>
      </trkpt>
      <trkpt lat="43.00896" lon="1.96486">
        <ele>355.6</ele>
        <time>2026-05-29T10:34:27Z</time>
      </trkpt>
      <trkpt lat="43.00894" lon="1.96488">
        <ele>355</ele>
        <time>2026-05-29T10:34:32Z</time>
      </trkpt>
      <trkpt lat="43.00894" lon="1.96488">
        <ele>355</ele>
        <time>2026-05-29T10:34:37Z</time>
      </trkpt>
      <trkpt lat="43.00894" lon="1.96488">
        <ele>355</ele>
        <time>2026-05-29T10:34:42Z</time>
      </trkpt>
      <trkpt lat="43.0089" lon="1.96488">
        <ele>354.8</ele>
        <time>2026-05-29T10:34:47Z</time>
      </trkpt>
      <trkpt lat="43.00886" lon="1.96495">
        <ele>353</ele>
        <time>2026-05-29T10:34:52Z</time>
      </trkpt>
      <trkpt lat="43.00882" lon="1.96501">
        <ele>351.7</ele>
        <time>2026-05-29T10:34:57Z</time>
      </trkpt>
      <trkpt lat="43.00878" lon="1.96508">
        <ele>351.6</ele>
        <time>2026-05-29T10:35:02Z</time>
      </trkpt>
      <trkpt lat="43.00874" lon="1.96516">
        <ele>351.5</ele>
        <time>2026-05-29T10:35:07Z</time>
      </trkpt>
      <trkpt lat="43.00869" lon="1.96522">
        <ele>351.4</ele>
        <time>2026-05-29T10:35:12Z</time>
      </trkpt>
      <trkpt lat="43.00865" lon="1.96527">
        <ele>351.3</ele>
        <time>2026-05-29T10:35:17Z</time>
      </trkpt>
      <trkpt lat="43.00862" lon="1.96533">
        <ele>351.3</ele>
        <time>2026-05-29T10:35:22Z</time>
      </trkpt>
      <trkpt lat="43.00859" lon="1.96541">
        <ele>351.3</ele>
        <time>2026-05-29T10:35:27Z</time>
      </trkpt>
      <trkpt lat="43.0086" lon="1.96547">
        <ele>351.4</ele>
        <time>2026-05-29T10:35:32Z</time>
      </trkpt>
      <trkpt lat="43.0086" lon="1.96547">
        <ele>351.4</ele>
        <time>2026-05-29T10:35:37Z</time>
      </trkpt>
      <trkpt lat="43.0086" lon="1.96547">
        <ele>351.4</ele>
        <time>2026-05-29T10:35:42Z</time>
      </trkpt>
      <trkpt lat="43.0086" lon="1.96547">
        <ele>351.4</ele>
        <time>2026-05-29T10:35:47Z</time>
      </trkpt>
      <trkpt lat="43.0086" lon="1.96547">
        <ele>351.4</ele>
        <time>2026-05-29T10:35:52Z</time>
      </trkpt>
      <trkpt lat="43.0086" lon="1.96547">
        <ele>351.4</ele>
        <time>2026-05-29T10:35:57Z</time>
      </trkpt>
      <trkpt lat="43.0086" lon="1.96547">
        <ele>351.4</ele>
        <time>2026-05-29T10:36:02Z</time>
      </trkpt>
      <trkpt lat="43.0086" lon="1.96547">
        <ele>351.4</ele>
        <time>2026-05-29T10:36:07Z</time>
      </trkpt>
      <trkpt lat="43.0086" lon="1.96547">
        <ele>351.4</ele>
        <time>2026-05-29T10:36:12Z</time>
      </trkpt>
      <trkpt lat="43.0086" lon="1.96547">
        <ele>351.4</ele>
        <time>2026-05-29T10:36:17Z</time>
      </trkpt>
      <trkpt lat="43.00855" lon="1.9655">
        <ele>351.4</ele>
        <time>2026-05-29T10:36:22Z</time>
      </trkpt>
      <trkpt lat="43.00852" lon="1.96557">
        <ele>351.4</ele>
        <time>2026-05-29T10:36:27Z</time>
      </trkpt>
      <trkpt lat="43.00848" lon="1.96562">
        <ele>351.5</ele>
        <time>2026-05-29T10:36:32Z</time>
      </trkpt>
      <trkpt lat="43.00846" lon="1.9657">
        <ele>351.6</ele>
        <time>2026-05-29T10:36:37Z</time>
      </trkpt>
      <trkpt lat="43.00843" lon="1.96575">
        <ele>351.7</ele>
        <time>2026-05-29T10:36:42Z</time>
      </trkpt>
      <trkpt lat="43.0084" lon="1.96581">
        <ele>351.9</ele>
        <time>2026-05-29T10:36:47Z</time>
      </trkpt>
      <trkpt lat="43.00834" lon="1.96591">
        <ele>353.5</ele>
        <time>2026-05-29T10:36:52Z</time>
      </trkpt>
      <trkpt lat="43.00831" lon="1.96599">
        <ele>355.2</ele>
        <time>2026-05-29T10:36:57Z</time>
      </trkpt>
      <trkpt lat="43.00828" lon="1.96606">
        <ele>356.8</ele>
        <time>2026-05-29T10:37:02Z</time>
      </trkpt>
      <trkpt lat="43.00824" lon="1.96614">
        <ele>358.7</ele>
        <time>2026-05-29T10:37:07Z</time>
      </trkpt>
      <trkpt lat="43.00821" lon="1.9662">
        <ele>360.1</ele>
        <time>2026-05-29T10:37:12Z</time>
      </trkpt>
      <trkpt lat="43.00819" lon="1.96627">
        <ele>361.6</ele>
        <time>2026-05-29T10:37:17Z</time>
      </trkpt>
      <trkpt lat="43.00816" lon="1.96635">
        <ele>363.4</ele>
        <time>2026-05-29T10:37:22Z</time>
      </trkpt>
      <trkpt lat="43.00814" lon="1.96642">
        <ele>364.9</ele>
        <time>2026-05-29T10:37:27Z</time>
      </trkpt>
      <trkpt lat="43.00812" lon="1.96651">
        <ele>366.8</ele>
        <time>2026-05-29T10:37:32Z</time>
      </trkpt>
      <trkpt lat="43.00809" lon="1.9666">
        <ele>368.8</ele>
        <time>2026-05-29T10:37:37Z</time>
      </trkpt>
      <trkpt lat="43.00808" lon="1.96665">
        <ele>369.8</ele>
        <time>2026-05-29T10:37:42Z</time>
      </trkpt>
      <trkpt lat="43.00808" lon="1.96665">
        <ele>369.8</ele>
        <time>2026-05-29T10:37:47Z</time>
      </trkpt>
      <trkpt lat="43.00808" lon="1.96665">
        <ele>369.8</ele>
        <time>2026-05-29T10:37:52Z</time>
      </trkpt>
      <trkpt lat="43.00806" lon="1.96664">
        <ele>369.8</ele>
        <time>2026-05-29T10:37:57Z</time>
      </trkpt>
      <trkpt lat="43.00801" lon="1.96664">
        <ele>370.2</ele>
        <time>2026-05-29T10:38:02Z</time>
      </trkpt>
      <trkpt lat="43.00799" lon="1.96665">
        <ele>370.6</ele>
        <time>2026-05-29T10:38:07Z</time>
      </trkpt>
      <trkpt lat="43.00799" lon="1.96666">
        <ele>370.8</ele>
        <time>2026-05-29T10:38:12Z</time>
      </trkpt>
      <trkpt lat="43.00799" lon="1.96667">
        <ele>371</ele>
        <time>2026-05-29T10:38:17Z</time>
      </trkpt>
      <trkpt lat="43.00799" lon="1.96667">
        <ele>371</ele>
        <time>2026-05-29T10:38:22Z</time>
      </trkpt>
      <trkpt lat="43.00793" lon="1.96666">
        <ele>371.3</ele>
        <time>2026-05-29T10:38:27Z</time>
      </trkpt>
      <trkpt lat="43.00789" lon="1.96663">
        <ele>371</ele>
        <time>2026-05-29T10:38:32Z</time>
      </trkpt>
      <trkpt lat="43.00786" lon="1.96661">
        <ele>370.9</ele>
        <time>2026-05-29T10:38:37Z</time>
      </trkpt>
      <trkpt lat="43.00781" lon="1.9666">
        <ele>371.1</ele>
        <time>2026-05-29T10:38:42Z</time>
      </trkpt>
      <trkpt lat="43.00776" lon="1.96657">
        <ele>371</ele>
        <time>2026-05-29T10:38:47Z</time>
      </trkpt>
      <trkpt lat="43.00772" lon="1.96653">
        <ele>370.5</ele>
        <time>2026-05-29T10:38:52Z</time>
      </trkpt>
      <trkpt lat="43.00766" lon="1.96648">
        <ele>370.1</ele>
        <time>2026-05-29T10:38:57Z</time>
      </trkpt>
      <trkpt lat="43.00762" lon="1.96644">
        <ele>369.6</ele>
        <time>2026-05-29T10:39:02Z</time>
      </trkpt>
      <trkpt lat="43.00757" lon="1.96642">
        <ele>369.7</ele>
        <time>2026-05-29T10:39:07Z</time>
      </trkpt>
      <trkpt lat="43.00752" lon="1.96641">
        <ele>369.9</ele>
        <time>2026-05-29T10:39:12Z</time>
      </trkpt>
      <trkpt lat="43.00747" lon="1.96641">
        <ele>370.1</ele>
        <time>2026-05-29T10:39:17Z</time>
      </trkpt>
      <trkpt lat="43.00741" lon="1.96638">
        <ele>369.6</ele>
        <time>2026-05-29T10:39:22Z</time>
      </trkpt>
      <trkpt lat="43.00735" lon="1.96634">
        <ele>369</ele>
        <time>2026-05-29T10:39:27Z</time>
      </trkpt>
      <trkpt lat="43.0073" lon="1.9663">
        <ele>368.4</ele>
        <time>2026-05-29T10:39:32Z</time>
      </trkpt>
      <trkpt lat="43.00724" lon="1.96627">
        <ele>368.1</ele>
        <time>2026-05-29T10:39:37Z</time>
      </trkpt>
      <trkpt lat="43.00719" lon="1.96625">
        <ele>367.9</ele>
        <time>2026-05-29T10:39:42Z</time>
      </trkpt>
      <trkpt lat="43.00714" lon="1.96623">
        <ele>367.8</ele>
        <time>2026-05-29T10:39:47Z</time>
      </trkpt>
      <trkpt lat="43.00709" lon="1.96621">
        <ele>367.7</ele>
        <time>2026-05-29T10:39:52Z</time>
      </trkpt>
      <trkpt lat="43.00705" lon="1.96621">
        <ele>367.9</ele>
        <time>2026-05-29T10:39:57Z</time>
      </trkpt>
      <trkpt lat="43.00699" lon="1.9662">
        <ele>368</ele>
        <time>2026-05-29T10:40:02Z</time>
      </trkpt>
      <trkpt lat="43.00694" lon="1.9662">
        <ele>368.2</ele>
        <time>2026-05-29T10:40:07Z</time>
      </trkpt>
      <trkpt lat="43.0069" lon="1.96621">
        <ele>368.4</ele>
        <time>2026-05-29T10:40:12Z</time>
      </trkpt>
      <trkpt lat="43.00685" lon="1.96622">
        <ele>368.7</ele>
        <time>2026-05-29T10:40:17Z</time>
      </trkpt>
      <trkpt lat="43.00682" lon="1.96623">
        <ele>368.9</ele>
        <time>2026-05-29T10:40:22Z</time>
      </trkpt>
      <trkpt lat="43.00679" lon="1.96625">
        <ele>369.1</ele>
        <time>2026-05-29T10:40:27Z</time>
      </trkpt>
      <trkpt lat="43.00675" lon="1.96627">
        <ele>369.4</ele>
        <time>2026-05-29T10:40:32Z</time>
      </trkpt>
      <trkpt lat="43.00671" lon="1.96626">
        <ele>369.4</ele>
        <time>2026-05-29T10:40:37Z</time>
      </trkpt>
      <trkpt lat="43.00666" lon="1.96626">
        <ele>369.7</ele>
        <time>2026-05-29T10:40:42Z</time>
      </trkpt>
      <trkpt lat="43.00662" lon="1.96628">
        <ele>370.4</ele>
        <time>2026-05-29T10:40:47Z</time>
      </trkpt>
      <trkpt lat="43.00658" lon="1.96631">
        <ele>371.1</ele>
        <time>2026-05-29T10:40:52Z</time>
      </trkpt>
      <trkpt lat="43.00654" lon="1.96635">
        <ele>371.9</ele>
        <time>2026-05-29T10:40:57Z</time>
      </trkpt>
      <trkpt lat="43.0065" lon="1.96639">
        <ele>372.7</ele>
        <time>2026-05-29T10:41:02Z</time>
      </trkpt>
      <trkpt lat="43.00648" lon="1.96644">
        <ele>373.3</ele>
        <time>2026-05-29T10:41:07Z</time>
      </trkpt>
      <trkpt lat="43.00646" lon="1.96648">
        <ele>373.8</ele>
        <time>2026-05-29T10:41:12Z</time>
      </trkpt>
      <trkpt lat="43.00644" lon="1.96653">
        <ele>374.3</ele>
        <time>2026-05-29T10:41:17Z</time>
      </trkpt>
      <trkpt lat="43.00642" lon="1.96656">
        <ele>374.7</ele>
        <time>2026-05-29T10:41:22Z</time>
      </trkpt>
      <trkpt lat="43.00642" lon="1.96657">
        <ele>374.8</ele>
        <time>2026-05-29T10:41:27Z</time>
      </trkpt>
      <trkpt lat="43.00642" lon="1.96665">
        <ele>375.2</ele>
        <time>2026-05-29T10:41:32Z</time>
      </trkpt>
      <trkpt lat="43.00642" lon="1.96665">
        <ele>375.2</ele>
        <time>2026-05-29T10:41:37Z</time>
      </trkpt>
      <trkpt lat="43.00642" lon="1.96665">
        <ele>375.2</ele>
        <time>2026-05-29T10:41:42Z</time>
      </trkpt>
      <trkpt lat="43.00642" lon="1.96665">
        <ele>375.2</ele>
        <time>2026-05-29T10:41:47Z</time>
      </trkpt>
      <trkpt lat="43.00644" lon="1.96678">
        <ele>376.1</ele>
        <time>2026-05-29T10:41:52Z</time>
      </trkpt>
      <trkpt lat="43.00644" lon="1.96678">
        <ele>376.1</ele>
        <time>2026-05-29T10:41:57Z</time>
      </trkpt>
      <trkpt lat="43.00644" lon="1.96678">
        <ele>376.1</ele>
        <time>2026-05-29T10:42:02Z</time>
      </trkpt>
      <trkpt lat="43.00644" lon="1.96678">
        <ele>376.1</ele>
        <time>2026-05-29T10:42:07Z</time>
      </trkpt>
      <trkpt lat="43.0064" lon="1.96692">
        <ele>377.9</ele>
        <time>2026-05-29T10:42:12Z</time>
      </trkpt>
      <trkpt lat="43.00639" lon="1.96695">
        <ele>378.3</ele>
        <time>2026-05-29T10:42:17Z</time>
      </trkpt>
      <trkpt lat="43.00639" lon="1.96695">
        <ele>378.3</ele>
        <time>2026-05-29T10:42:22Z</time>
      </trkpt>
      <trkpt lat="43.00639" lon="1.96703">
        <ele>379</ele>
        <time>2026-05-29T10:42:27Z</time>
      </trkpt>
      <trkpt lat="43.00638" lon="1.96705">
        <ele>379.3</ele>
        <time>2026-05-29T10:42:32Z</time>
      </trkpt>
      <trkpt lat="43.00636" lon="1.96708">
        <ele>379.7</ele>
        <time>2026-05-29T10:42:37Z</time>
      </trkpt>
      <trkpt lat="43.00636" lon="1.9671">
        <ele>379.9</ele>
        <time>2026-05-29T10:42:42Z</time>
      </trkpt>
      <trkpt lat="43.00636" lon="1.9671">
        <ele>379.9</ele>
        <time>2026-05-29T10:42:47Z</time>
      </trkpt>
      <trkpt lat="43.00636" lon="1.9671">
        <ele>379.9</ele>
        <time>2026-05-29T10:42:52Z</time>
      </trkpt>
      <trkpt lat="43.00631" lon="1.96723">
        <ele>381.4</ele>
        <time>2026-05-29T10:42:57Z</time>
      </trkpt>
      <trkpt lat="43.00631" lon="1.96727">
        <ele>381.8</ele>
        <time>2026-05-29T10:43:02Z</time>
      </trkpt>
      <trkpt lat="43.00632" lon="1.9673">
        <ele>382</ele>
        <time>2026-05-29T10:43:07Z</time>
      </trkpt>
      <trkpt lat="43.00632" lon="1.9673">
        <ele>382</ele>
        <time>2026-05-29T10:43:12Z</time>
      </trkpt>
      <trkpt lat="43.00632" lon="1.9674">
        <ele>382.8</ele>
        <time>2026-05-29T10:43:17Z</time>
      </trkpt>
      <trkpt lat="43.00632" lon="1.9674">
        <ele>382.8</ele>
        <time>2026-05-29T10:43:22Z</time>
      </trkpt>
      <trkpt lat="43.00632" lon="1.9674">
        <ele>382.8</ele>
        <time>2026-05-29T10:43:27Z</time>
      </trkpt>
      <trkpt lat="43.00628" lon="1.96752">
        <ele>384.1</ele>
        <time>2026-05-29T10:43:32Z</time>
      </trkpt>
      <trkpt lat="43.00627" lon="1.96757">
        <ele>384.8</ele>
        <time>2026-05-29T10:43:37Z</time>
      </trkpt>
      <trkpt lat="43.00626" lon="1.96759">
        <ele>385.1</ele>
        <time>2026-05-29T10:43:42Z</time>
      </trkpt>
      <trkpt lat="43.00626" lon="1.96759">
        <ele>385.1</ele>
        <time>2026-05-29T10:43:47Z</time>
      </trkpt>
      <trkpt lat="43.00626" lon="1.96759">
        <ele>385.1</ele>
        <time>2026-05-29T10:43:52Z</time>
      </trkpt>
      <trkpt lat="43.00621" lon="1.96769">
        <ele>386.3</ele>
        <time>2026-05-29T10:43:57Z</time>
      </trkpt>
      <trkpt lat="43.00622" lon="1.96771">
        <ele>386.5</ele>
        <time>2026-05-29T10:44:02Z</time>
      </trkpt>
      <trkpt lat="43.00622" lon="1.96771">
        <ele>386.5</ele>
        <time>2026-05-29T10:44:07Z</time>
      </trkpt>
      <trkpt lat="43.00622" lon="1.96771">
        <ele>386.5</ele>
        <time>2026-05-29T10:44:12Z</time>
      </trkpt>
      <trkpt lat="43.00622" lon="1.96771">
        <ele>386.5</ele>
        <time>2026-05-29T10:44:17Z</time>
      </trkpt>
      <trkpt lat="43.00622" lon="1.96771">
        <ele>386.5</ele>
        <time>2026-05-29T10:44:22Z</time>
      </trkpt>
      <trkpt lat="43.00622" lon="1.96771">
        <ele>386.5</ele>
        <time>2026-05-29T10:44:27Z</time>
      </trkpt>
      <trkpt lat="43.00622" lon="1.96771">
        <ele>386.5</ele>
        <time>2026-05-29T10:44:32Z</time>
      </trkpt>
      <trkpt lat="43.00614" lon="1.9678">
        <ele>387.5</ele>
        <time>2026-05-29T10:44:37Z</time>
      </trkpt>
      <trkpt lat="43.00614" lon="1.96784">
        <ele>387.9</ele>
        <time>2026-05-29T10:44:42Z</time>
      </trkpt>
      <trkpt lat="43.00615" lon="1.96785">
        <ele>388</ele>
        <time>2026-05-29T10:44:47Z</time>
      </trkpt>
      <trkpt lat="43.00615" lon="1.96785">
        <ele>388</ele>
        <time>2026-05-29T10:44:52Z</time>
      </trkpt>
      <trkpt lat="43.00614" lon="1.96794">
        <ele>388.8</ele>
        <time>2026-05-29T10:44:57Z</time>
      </trkpt>
      <trkpt lat="43.00613" lon="1.96799">
        <ele>389.3</ele>
        <time>2026-05-29T10:45:02Z</time>
      </trkpt>
      <trkpt lat="43.00612" lon="1.96802">
        <ele>389.5</ele>
        <time>2026-05-29T10:45:07Z</time>
      </trkpt>
      <trkpt lat="43.0061" lon="1.96805">
        <ele>389.7</ele>
        <time>2026-05-29T10:45:12Z</time>
      </trkpt>
      <trkpt lat="43.0061" lon="1.96809">
        <ele>390</ele>
        <time>2026-05-29T10:45:17Z</time>
      </trkpt>
      <trkpt lat="43.00609" lon="1.96812">
        <ele>390.2</ele>
        <time>2026-05-29T10:45:22Z</time>
      </trkpt>
      <trkpt lat="43.00608" lon="1.96814">
        <ele>390.3</ele>
        <time>2026-05-29T10:45:27Z</time>
      </trkpt>
      <trkpt lat="43.00606" lon="1.96821">
        <ele>390.7</ele>
        <time>2026-05-29T10:45:32Z</time>
      </trkpt>
      <trkpt lat="43.00604" lon="1.96826">
        <ele>390.9</ele>
        <time>2026-05-29T10:45:37Z</time>
      </trkpt>
      <trkpt lat="43.00603" lon="1.9683">
        <ele>391.1</ele>
        <time>2026-05-29T10:45:42Z</time>
      </trkpt>
      <trkpt lat="43.00602" lon="1.96832">
        <ele>391.1</ele>
        <time>2026-05-29T10:45:47Z</time>
      </trkpt>
      <trkpt lat="43.00601" lon="1.96835">
        <ele>391.4</ele>
        <time>2026-05-29T10:45:52Z</time>
      </trkpt>
      <trkpt lat="43.00601" lon="1.96835">
        <ele>391.4</ele>
        <time>2026-05-29T10:45:57Z</time>
      </trkpt>
      <trkpt lat="43.00598" lon="1.96844">
        <ele>392.7</ele>
        <time>2026-05-29T10:46:02Z</time>
      </trkpt>
      <trkpt lat="43.00596" lon="1.96848">
        <ele>393.2</ele>
        <time>2026-05-29T10:46:07Z</time>
      </trkpt>
      <trkpt lat="43.00596" lon="1.96849">
        <ele>393.4</ele>
        <time>2026-05-29T10:46:12Z</time>
      </trkpt>
      <trkpt lat="43.00596" lon="1.96849">
        <ele>393.4</ele>
        <time>2026-05-29T10:46:17Z</time>
      </trkpt>
      <trkpt lat="43.00592" lon="1.96859">
        <ele>394.7</ele>
        <time>2026-05-29T10:46:22Z</time>
      </trkpt>
      <trkpt lat="43.00589" lon="1.96862">
        <ele>394.9</ele>
        <time>2026-05-29T10:46:27Z</time>
      </trkpt>
      <trkpt lat="43.00588" lon="1.96862">
        <ele>394.7</ele>
        <time>2026-05-29T10:46:32Z</time>
      </trkpt>
      <trkpt lat="43.00586" lon="1.96867">
        <ele>395.4</ele>
        <time>2026-05-29T10:46:37Z</time>
      </trkpt>
      <trkpt lat="43.00585" lon="1.96871">
        <ele>396</ele>
        <time>2026-05-29T10:46:42Z</time>
      </trkpt>
      <trkpt lat="43.00583" lon="1.96875">
        <ele>396.5</ele>
        <time>2026-05-29T10:46:47Z</time>
      </trkpt>
      <trkpt lat="43.00581" lon="1.96879">
        <ele>397.4</ele>
        <time>2026-05-29T10:46:52Z</time>
      </trkpt>
      <trkpt lat="43.00579" lon="1.96881">
        <ele>398</ele>
        <time>2026-05-29T10:46:57Z</time>
      </trkpt>
      <trkpt lat="43.00577" lon="1.96883">
        <ele>398.5</ele>
        <time>2026-05-29T10:47:02Z</time>
      </trkpt>
      <trkpt lat="43.00574" lon="1.96887">
        <ele>399.3</ele>
        <time>2026-05-29T10:47:07Z</time>
      </trkpt>
      <trkpt lat="43.00571" lon="1.96888">
        <ele>399.7</ele>
        <time>2026-05-29T10:47:12Z</time>
      </trkpt>
      <trkpt lat="43.00569" lon="1.96891">
        <ele>400.3</ele>
        <time>2026-05-29T10:47:17Z</time>
      </trkpt>
      <trkpt lat="43.00567" lon="1.96894">
        <ele>400.8</ele>
        <time>2026-05-29T10:47:22Z</time>
      </trkpt>
      <trkpt lat="43.00564" lon="1.96897">
        <ele>401.4</ele>
        <time>2026-05-29T10:47:27Z</time>
      </trkpt>
      <trkpt lat="43.00561" lon="1.969">
        <ele>401.9</ele>
        <time>2026-05-29T10:47:32Z</time>
      </trkpt>
      <trkpt lat="43.00559" lon="1.96903">
        <ele>402.4</ele>
        <time>2026-05-29T10:47:37Z</time>
      </trkpt>
      <trkpt lat="43.00558" lon="1.96905">
        <ele>402.6</ele>
        <time>2026-05-29T10:47:42Z</time>
      </trkpt>
      <trkpt lat="43.00555" lon="1.96908">
        <ele>403</ele>
        <time>2026-05-29T10:47:47Z</time>
      </trkpt>
      <trkpt lat="43.00553" lon="1.96911">
        <ele>403.4</ele>
        <time>2026-05-29T10:47:52Z</time>
      </trkpt>
      <trkpt lat="43.0055" lon="1.96914">
        <ele>403.7</ele>
        <time>2026-05-29T10:47:57Z</time>
      </trkpt>
      <trkpt lat="43.00547" lon="1.96917">
        <ele>404.1</ele>
        <time>2026-05-29T10:48:02Z</time>
      </trkpt>
      <trkpt lat="43.00545" lon="1.9692">
        <ele>404.7</ele>
        <time>2026-05-29T10:48:07Z</time>
      </trkpt>
      <trkpt lat="43.00543" lon="1.96923">
        <ele>405.3</ele>
        <time>2026-05-29T10:48:12Z</time>
      </trkpt>
      <trkpt lat="43.00541" lon="1.96925">
        <ele>405.7</ele>
        <time>2026-05-29T10:48:17Z</time>
      </trkpt>
      <trkpt lat="43.00539" lon="1.96929">
        <ele>406.5</ele>
        <time>2026-05-29T10:48:22Z</time>
      </trkpt>
      <trkpt lat="43.00537" lon="1.96932">
        <ele>407</ele>
        <time>2026-05-29T10:48:27Z</time>
      </trkpt>
      <trkpt lat="43.00535" lon="1.96935">
        <ele>407.6</ele>
        <time>2026-05-29T10:48:32Z</time>
      </trkpt>
      <trkpt lat="43.00532" lon="1.96938">
        <ele>408.1</ele>
        <time>2026-05-29T10:48:37Z</time>
      </trkpt>
      <trkpt lat="43.00529" lon="1.96941">
        <ele>408.5</ele>
        <time>2026-05-29T10:48:42Z</time>
      </trkpt>
      <trkpt lat="43.00525" lon="1.96945">
        <ele>409.1</ele>
        <time>2026-05-29T10:48:47Z</time>
      </trkpt>
      <trkpt lat="43.00521" lon="1.96949">
        <ele>409.6</ele>
        <time>2026-05-29T10:48:52Z</time>
      </trkpt>
      <trkpt lat="43.00518" lon="1.96954">
        <ele>410.3</ele>
        <time>2026-05-29T10:48:57Z</time>
      </trkpt>
      <trkpt lat="43.00518" lon="1.96957">
        <ele>410.9</ele>
        <time>2026-05-29T10:49:02Z</time>
      </trkpt>
      <trkpt lat="43.00521" lon="1.96962">
        <ele>411.9</ele>
        <time>2026-05-29T10:49:07Z</time>
      </trkpt>
      <trkpt lat="43.00523" lon="1.96966">
        <ele>412.7</ele>
        <time>2026-05-29T10:49:12Z</time>
      </trkpt>
      <trkpt lat="43.00525" lon="1.96971">
        <ele>413.8</ele>
        <time>2026-05-29T10:49:17Z</time>
      </trkpt>
      <trkpt lat="43.00528" lon="1.96975">
        <ele>414.8</ele>
        <time>2026-05-29T10:49:22Z</time>
      </trkpt>
      <trkpt lat="43.00532" lon="1.96979">
        <ele>415.8</ele>
        <time>2026-05-29T10:49:27Z</time>
      </trkpt>
      <trkpt lat="43.00534" lon="1.96982">
        <ele>416.6</ele>
        <time>2026-05-29T10:49:32Z</time>
      </trkpt>
      <trkpt lat="43.00537" lon="1.96984">
        <ele>417.3</ele>
        <time>2026-05-29T10:49:37Z</time>
      </trkpt>
      <trkpt lat="43.00541" lon="1.96986">
        <ele>418.1</ele>
        <time>2026-05-29T10:49:42Z</time>
      </trkpt>
      <trkpt lat="43.00544" lon="1.96989">
        <ele>419</ele>
        <time>2026-05-29T10:49:47Z</time>
      </trkpt>
      <trkpt lat="43.00546" lon="1.96993">
        <ele>420</ele>
        <time>2026-05-29T10:49:52Z</time>
      </trkpt>
      <trkpt lat="43.00548" lon="1.96997">
        <ele>421.1</ele>
        <time>2026-05-29T10:49:57Z</time>
      </trkpt>
      <trkpt lat="43.00549" lon="1.97002">
        <ele>422.4</ele>
        <time>2026-05-29T10:50:02Z</time>
      </trkpt>
      <trkpt lat="43.00551" lon="1.97006">
        <ele>423.6</ele>
        <time>2026-05-29T10:50:07Z</time>
      </trkpt>
      <trkpt lat="43.00552" lon="1.9701">
        <ele>424.7</ele>
        <time>2026-05-29T10:50:12Z</time>
      </trkpt>
      <trkpt lat="43.00553" lon="1.97015">
        <ele>426</ele>
        <time>2026-05-29T10:50:17Z</time>
      </trkpt>
      <trkpt lat="43.00554" lon="1.97021">
        <ele>427.6</ele>
        <time>2026-05-29T10:50:22Z</time>
      </trkpt>
      <trkpt lat="43.00554" lon="1.97025">
        <ele>428.6</ele>
        <time>2026-05-29T10:50:27Z</time>
      </trkpt>
      <trkpt lat="43.00555" lon="1.9703">
        <ele>429.9</ele>
        <time>2026-05-29T10:50:32Z</time>
      </trkpt>
      <trkpt lat="43.00556" lon="1.97036">
        <ele>431.5</ele>
        <time>2026-05-29T10:50:37Z</time>
      </trkpt>
      <trkpt lat="43.00557" lon="1.97042">
        <ele>433.1</ele>
        <time>2026-05-29T10:50:42Z</time>
      </trkpt>
      <trkpt lat="43.00556" lon="1.97047">
        <ele>434.2</ele>
        <time>2026-05-29T10:50:47Z</time>
      </trkpt>
      <trkpt lat="43.00552" lon="1.97053">
        <ele>435.2</ele>
        <time>2026-05-29T10:50:52Z</time>
      </trkpt>
      <trkpt lat="43.00549" lon="1.97054">
        <ele>435.1</ele>
        <time>2026-05-29T10:50:57Z</time>
      </trkpt>
      <trkpt lat="43.00546" lon="1.97053">
        <ele>434.5</ele>
        <time>2026-05-29T10:51:02Z</time>
      </trkpt>
      <trkpt lat="43.00543" lon="1.97053">
        <ele>434.2</ele>
        <time>2026-05-29T10:51:07Z</time>
      </trkpt>
      <trkpt lat="43.00538" lon="1.97054">
        <ele>433.9</ele>
        <time>2026-05-29T10:51:12Z</time>
      </trkpt>
      <trkpt lat="43.00533" lon="1.97053">
        <ele>433.1</ele>
        <time>2026-05-29T10:51:17Z</time>
      </trkpt>
      <trkpt lat="43.0053" lon="1.97053">
        <ele>432.7</ele>
        <time>2026-05-29T10:51:22Z</time>
      </trkpt>
      <trkpt lat="43.00527" lon="1.97054">
        <ele>432.6</ele>
        <time>2026-05-29T10:51:27Z</time>
      </trkpt>
      <trkpt lat="43.00522" lon="1.97055">
        <ele>432.3</ele>
        <time>2026-05-29T10:51:32Z</time>
      </trkpt>
      <trkpt lat="43.00519" lon="1.97057">
        <ele>432.5</ele>
        <time>2026-05-29T10:51:37Z</time>
      </trkpt>
      <trkpt lat="43.00515" lon="1.9706">
        <ele>432.8</ele>
        <time>2026-05-29T10:51:42Z</time>
      </trkpt>
      <trkpt lat="43.00511" lon="1.97061">
        <ele>432.6</ele>
        <time>2026-05-29T10:51:47Z</time>
      </trkpt>
      <trkpt lat="43.00508" lon="1.97063">
        <ele>432.8</ele>
        <time>2026-05-29T10:51:52Z</time>
      </trkpt>
      <trkpt lat="43.00506" lon="1.97067">
        <ele>433.5</ele>
        <time>2026-05-29T10:51:57Z</time>
      </trkpt>
      <trkpt lat="43.00504" lon="1.97071">
        <ele>434.3</ele>
        <time>2026-05-29T10:52:02Z</time>
      </trkpt>
      <trkpt lat="43.00501" lon="1.97074">
        <ele>434.8</ele>
        <time>2026-05-29T10:52:07Z</time>
      </trkpt>
      <trkpt lat="43.00499" lon="1.97077">
        <ele>435.3</ele>
        <time>2026-05-29T10:52:12Z</time>
      </trkpt>
      <trkpt lat="43.00497" lon="1.97081">
        <ele>436</ele>
        <time>2026-05-29T10:52:17Z</time>
      </trkpt>
      <trkpt lat="43.00495" lon="1.97085">
        <ele>436.8</ele>
        <time>2026-05-29T10:52:22Z</time>
      </trkpt>
      <trkpt lat="43.00493" lon="1.97087">
        <ele>437.1</ele>
        <time>2026-05-29T10:52:27Z</time>
      </trkpt>
      <trkpt lat="43.00491" lon="1.9709">
        <ele>437.6</ele>
        <time>2026-05-29T10:52:32Z</time>
      </trkpt>
      <trkpt lat="43.0049" lon="1.97093">
        <ele>438.3</ele>
        <time>2026-05-29T10:52:37Z</time>
      </trkpt>
      <trkpt lat="43.00486" lon="1.97096">
        <ele>438.6</ele>
        <time>2026-05-29T10:52:42Z</time>
      </trkpt>
      <trkpt lat="43.00484" lon="1.97098">
        <ele>438.9</ele>
        <time>2026-05-29T10:52:47Z</time>
      </trkpt>
      <trkpt lat="43.0048" lon="1.971">
        <ele>438.9</ele>
        <time>2026-05-29T10:52:52Z</time>
      </trkpt>
      <trkpt lat="43.00477" lon="1.97101">
        <ele>438.7</ele>
        <time>2026-05-29T10:52:57Z</time>
      </trkpt>
      <trkpt lat="43.00474" lon="1.97104">
        <ele>439.1</ele>
        <time>2026-05-29T10:53:02Z</time>
      </trkpt>
      <trkpt lat="43.00471" lon="1.97106">
        <ele>439.2</ele>
        <time>2026-05-29T10:53:07Z</time>
      </trkpt>
      <trkpt lat="43.00468" lon="1.97109">
        <ele>439.6</ele>
        <time>2026-05-29T10:53:12Z</time>
      </trkpt>
      <trkpt lat="43.00466" lon="1.97112">
        <ele>440.1</ele>
        <time>2026-05-29T10:53:17Z</time>
      </trkpt>
      <trkpt lat="43.00464" lon="1.97117">
        <ele>441.2</ele>
        <time>2026-05-29T10:53:22Z</time>
      </trkpt>
      <trkpt lat="43.00461" lon="1.97121">
        <ele>441.8</ele>
        <time>2026-05-29T10:53:27Z</time>
      </trkpt>
      <trkpt lat="43.00458" lon="1.97125">
        <ele>442.5</ele>
        <time>2026-05-29T10:53:32Z</time>
      </trkpt>
      <trkpt lat="43.00456" lon="1.97128">
        <ele>443</ele>
        <time>2026-05-29T10:53:37Z</time>
      </trkpt>
      <trkpt lat="43.00453" lon="1.97131">
        <ele>443.3</ele>
        <time>2026-05-29T10:53:42Z</time>
      </trkpt>
      <trkpt lat="43.00452" lon="1.97134">
        <ele>443.9</ele>
        <time>2026-05-29T10:53:47Z</time>
      </trkpt>
      <trkpt lat="43.00451" lon="1.97139">
        <ele>445.1</ele>
        <time>2026-05-29T10:53:52Z</time>
      </trkpt>
      <trkpt lat="43.00449" lon="1.97143">
        <ele>445.9</ele>
        <time>2026-05-29T10:53:57Z</time>
      </trkpt>
      <trkpt lat="43.00446" lon="1.97147">
        <ele>446.5</ele>
        <time>2026-05-29T10:54:02Z</time>
      </trkpt>
      <trkpt lat="43.00443" lon="1.97151">
        <ele>447</ele>
        <time>2026-05-29T10:54:07Z</time>
      </trkpt>
      <trkpt lat="43.0044" lon="1.97155">
        <ele>447.6</ele>
        <time>2026-05-29T10:54:12Z</time>
      </trkpt>
      <trkpt lat="43.00438" lon="1.97159">
        <ele>448.3</ele>
        <time>2026-05-29T10:54:17Z</time>
      </trkpt>
      <trkpt lat="43.00436" lon="1.97163">
        <ele>449.1</ele>
        <time>2026-05-29T10:54:22Z</time>
      </trkpt>
      <trkpt lat="43.00433" lon="1.97167">
        <ele>449.6</ele>
        <time>2026-05-29T10:54:27Z</time>
      </trkpt>
      <trkpt lat="43.0043" lon="1.97171">
        <ele>450.1</ele>
        <time>2026-05-29T10:54:32Z</time>
      </trkpt>
      <trkpt lat="43.00426" lon="1.97174">
        <ele>450.2</ele>
        <time>2026-05-29T10:54:37Z</time>
      </trkpt>
      <trkpt lat="43.00422" lon="1.97178">
        <ele>450.6</ele>
        <time>2026-05-29T10:54:42Z</time>
      </trkpt>
      <trkpt lat="43.0042" lon="1.97181">
        <ele>451.1</ele>
        <time>2026-05-29T10:54:47Z</time>
      </trkpt>
      <trkpt lat="43.00418" lon="1.97185">
        <ele>451.8</ele>
        <time>2026-05-29T10:54:52Z</time>
      </trkpt>
      <trkpt lat="43.00418" lon="1.97189">
        <ele>452.8</ele>
        <time>2026-05-29T10:54:57Z</time>
      </trkpt>
      <trkpt lat="43.00418" lon="1.9719">
        <ele>453</ele>
        <time>2026-05-29T10:55:02Z</time>
      </trkpt>
      <trkpt lat="43.00414" lon="1.97195">
        <ele>454</ele>
        <time>2026-05-29T10:55:07Z</time>
      </trkpt>
      <trkpt lat="43.00412" lon="1.97197">
        <ele>454.4</ele>
        <time>2026-05-29T10:55:12Z</time>
      </trkpt>
      <trkpt lat="43.0041" lon="1.97199">
        <ele>454.8</ele>
        <time>2026-05-29T10:55:17Z</time>
      </trkpt>
      <trkpt lat="43.00409" lon="1.972">
        <ele>455</ele>
        <time>2026-05-29T10:55:22Z</time>
      </trkpt>
      <trkpt lat="43.00404" lon="1.97204">
        <ele>455.7</ele>
        <time>2026-05-29T10:55:27Z</time>
      </trkpt>
      <trkpt lat="43.00403" lon="1.97205">
        <ele>455.9</ele>
        <time>2026-05-29T10:55:32Z</time>
      </trkpt>
      <trkpt lat="43.00401" lon="1.97211">
        <ele>457.3</ele>
        <time>2026-05-29T10:55:37Z</time>
      </trkpt>
      <trkpt lat="43.00398" lon="1.97215">
        <ele>458.2</ele>
        <time>2026-05-29T10:55:42Z</time>
      </trkpt>
      <trkpt lat="43.00396" lon="1.97219">
        <ele>459</ele>
        <time>2026-05-29T10:55:47Z</time>
      </trkpt>
      <trkpt lat="43.00392" lon="1.97223">
        <ele>459.8</ele>
        <time>2026-05-29T10:55:52Z</time>
      </trkpt>
      <trkpt lat="43.00388" lon="1.97227">
        <ele>460.6</ele>
        <time>2026-05-29T10:55:57Z</time>
      </trkpt>
      <trkpt lat="43.00384" lon="1.97231">
        <ele>461.3</ele>
        <time>2026-05-29T10:56:02Z</time>
      </trkpt>
      <trkpt lat="43.0038" lon="1.97233">
        <ele>461.6</ele>
        <time>2026-05-29T10:56:07Z</time>
      </trkpt>
      <trkpt lat="43.00377" lon="1.97237">
        <ele>462.4</ele>
        <time>2026-05-29T10:56:12Z</time>
      </trkpt>
      <trkpt lat="43.00374" lon="1.97241">
        <ele>463.2</ele>
        <time>2026-05-29T10:56:17Z</time>
      </trkpt>
      <trkpt lat="43.00372" lon="1.97245">
        <ele>464.1</ele>
        <time>2026-05-29T10:56:22Z</time>
      </trkpt>
      <trkpt lat="43.00369" lon="1.97249">
        <ele>464.9</ele>
        <time>2026-05-29T10:56:27Z</time>
      </trkpt>
      <trkpt lat="43.00367" lon="1.97253">
        <ele>465.5</ele>
        <time>2026-05-29T10:56:32Z</time>
      </trkpt>
      <trkpt lat="43.00364" lon="1.97258">
        <ele>466.2</ele>
        <time>2026-05-29T10:56:37Z</time>
      </trkpt>
      <trkpt lat="43.00361" lon="1.97263">
        <ele>466.9</ele>
        <time>2026-05-29T10:56:42Z</time>
      </trkpt>
      <trkpt lat="43.00358" lon="1.97267">
        <ele>467.5</ele>
        <time>2026-05-29T10:56:47Z</time>
      </trkpt>
      <trkpt lat="43.00355" lon="1.97273">
        <ele>468.5</ele>
        <time>2026-05-29T10:56:52Z</time>
      </trkpt>
      <trkpt lat="43.00352" lon="1.97278">
        <ele>469.3</ele>
        <time>2026-05-29T10:56:57Z</time>
      </trkpt>
      <trkpt lat="43.0035" lon="1.97283">
        <ele>470.2</ele>
        <time>2026-05-29T10:57:02Z</time>
      </trkpt>
      <trkpt lat="43.00347" lon="1.97288">
        <ele>471</ele>
        <time>2026-05-29T10:57:07Z</time>
      </trkpt>
      <trkpt lat="43.00344" lon="1.97294">
        <ele>472.1</ele>
        <time>2026-05-29T10:57:12Z</time>
      </trkpt>
      <trkpt lat="43.00341" lon="1.973">
        <ele>473.3</ele>
        <time>2026-05-29T10:57:17Z</time>
      </trkpt>
      <trkpt lat="43.00339" lon="1.97305">
        <ele>474.2</ele>
        <time>2026-05-29T10:57:22Z</time>
      </trkpt>
      <trkpt lat="43.00336" lon="1.9731">
        <ele>475.2</ele>
        <time>2026-05-29T10:57:27Z</time>
      </trkpt>
      <trkpt lat="43.00334" lon="1.97315">
        <ele>476.3</ele>
        <time>2026-05-29T10:57:32Z</time>
      </trkpt>
      <trkpt lat="43.00334" lon="1.97318">
        <ele>476.9</ele>
        <time>2026-05-29T10:57:37Z</time>
      </trkpt>
      <trkpt lat="43.00334" lon="1.97318">
        <ele>476.9</ele>
        <time>2026-05-29T10:57:42Z</time>
      </trkpt>
      <trkpt lat="43.00334" lon="1.97318">
        <ele>476.9</ele>
        <time>2026-05-29T10:57:47Z</time>
      </trkpt>
      <trkpt lat="43.00334" lon="1.97318">
        <ele>476.9</ele>
        <time>2026-05-29T10:57:52Z</time>
      </trkpt>
      <trkpt lat="43.00334" lon="1.97318">
        <ele>476.9</ele>
        <time>2026-05-29T10:57:57Z</time>
      </trkpt>
      <trkpt lat="43.00334" lon="1.97318">
        <ele>476.9</ele>
        <time>2026-05-29T10:58:02Z</time>
      </trkpt>
      <trkpt lat="43.00334" lon="1.97318">
        <ele>476.9</ele>
        <time>2026-05-29T10:58:07Z</time>
      </trkpt>
      <trkpt lat="43.00334" lon="1.97318">
        <ele>476.9</ele>
        <time>2026-05-29T10:58:12Z</time>
      </trkpt>
      <trkpt lat="43.00334" lon="1.97318">
        <ele>476.9</ele>
        <time>2026-05-29T10:58:17Z</time>
      </trkpt>
      <trkpt lat="43.00334" lon="1.97318">
        <ele>476.9</ele>
        <time>2026-05-29T10:58:22Z</time>
      </trkpt>
      <trkpt lat="43.00334" lon="1.97318">
        <ele>476.9</ele>
        <time>2026-05-29T10:58:27Z</time>
      </trkpt>
      <trkpt lat="43.00334" lon="1.97318">
        <ele>476.9</ele>
        <time>2026-05-29T10:58:32Z</time>
      </trkpt>
      <trkpt lat="43.00334" lon="1.97318">
        <ele>476.9</ele>
        <time>2026-05-29T10:58:37Z</time>
      </trkpt>
      <trkpt lat="43.00334" lon="1.97318">
        <ele>476.9</ele>
        <time>2026-05-29T10:58:42Z</time>
      </trkpt>
      <trkpt lat="43.00334" lon="1.97318">
        <ele>476.9</ele>
        <time>2026-05-29T10:58:47Z</time>
      </trkpt>
      <trkpt lat="43.00334" lon="1.97318">
        <ele>476.9</ele>
        <time>2026-05-29T10:58:52Z</time>
      </trkpt>
      <trkpt lat="43.00334" lon="1.97318">
        <ele>476.9</ele>
        <time>2026-05-29T10:58:57Z</time>
      </trkpt>
      <trkpt lat="43.00334" lon="1.97318">
        <ele>476.9</ele>
        <time>2026-05-29T10:59:02Z</time>
      </trkpt>
      <trkpt lat="43.00334" lon="1.97318">
        <ele>476.9</ele>
        <time>2026-05-29T10:59:07Z</time>
      </trkpt>
      <trkpt lat="43.00334" lon="1.97318">
        <ele>476.9</ele>
        <time>2026-05-29T10:59:12Z</time>
      </trkpt>
      <trkpt lat="43.00334" lon="1.97318">
        <ele>476.9</ele>
        <time>2026-05-29T10:59:17Z</time>
      </trkpt>
      <trkpt lat="43.00334" lon="1.97318">
        <ele>476.9</ele>
        <time>2026-05-29T10:59:22Z</time>
      </trkpt>
      <trkpt lat="43.00334" lon="1.97318">
        <ele>476.9</ele>
        <time>2026-05-29T10:59:27Z</time>
      </trkpt>
      <trkpt lat="43.00334" lon="1.97318">
        <ele>476.9</ele>
        <time>2026-05-29T10:59:32Z</time>
      </trkpt>
      <trkpt lat="43.00334" lon="1.97318">
        <ele>476.9</ele>
        <time>2026-05-29T10:59:37Z</time>
      </trkpt>
      <trkpt lat="43.00334" lon="1.97318">
        <ele>476.9</ele>
        <time>2026-05-29T10:59:42Z</time>
      </trkpt>
      <trkpt lat="43.00334" lon="1.97318">
        <ele>476.9</ele>
        <time>2026-05-29T10:59:47Z</time>
      </trkpt>
      <trkpt lat="43.00334" lon="1.97318">
        <ele>476.9</ele>
        <time>2026-05-29T10:59:52Z</time>
      </trkpt>
      <trkpt lat="43.00334" lon="1.97318">
        <ele>476.9</ele>
        <time>2026-05-29T10:59:57Z</time>
      </trkpt>
      <trkpt lat="43.00334" lon="1.97318">
        <ele>476.9</ele>
        <time>2026-05-29T11:00:02Z</time>
      </trkpt>
      <trkpt lat="43.00334" lon="1.97318">
        <ele>476.9</ele>
        <time>2026-05-29T11:00:07Z</time>
      </trkpt>
      <trkpt lat="43.00334" lon="1.97318">
        <ele>476.9</ele>
        <time>2026-05-29T11:00:12Z</time>
      </trkpt>
      <trkpt lat="43.00334" lon="1.97318">
        <ele>476.9</ele>
        <time>2026-05-29T11:00:17Z</time>
      </trkpt>
      <trkpt lat="43.00334" lon="1.97318">
        <ele>476.9</ele>
        <time>2026-05-29T11:00:22Z</time>
      </trkpt>
      <trkpt lat="43.00334" lon="1.97318">
        <ele>476.9</ele>
        <time>2026-05-29T11:00:27Z</time>
      </trkpt>
      <trkpt lat="43.00334" lon="1.97318">
        <ele>476.9</ele>
        <time>2026-05-29T11:00:32Z</time>
      </trkpt>
      <trkpt lat="43.00334" lon="1.97318">
        <ele>476.9</ele>
        <time>2026-05-29T11:00:37Z</time>
      </trkpt>
      <trkpt lat="43.00334" lon="1.97318">
        <ele>476.9</ele>
        <time>2026-05-29T11:00:42Z</time>
      </trkpt>
      <trkpt lat="43.00334" lon="1.97318">
        <ele>476.9</ele>
        <time>2026-05-29T11:00:47Z</time>
      </trkpt>
      <trkpt lat="43.00334" lon="1.97318">
        <ele>476.9</ele>
        <time>2026-05-29T11:00:52Z</time>
      </trkpt>
      <trkpt lat="43.00334" lon="1.97318">
        <ele>476.9</ele>
        <time>2026-05-29T11:00:57Z</time>
      </trkpt>
      <trkpt lat="43.00334" lon="1.97318">
        <ele>476.9</ele>
        <time>2026-05-29T11:01:02Z</time>
      </trkpt>
      <trkpt lat="43.00334" lon="1.97318">
        <ele>476.9</ele>
        <time>2026-05-29T11:01:07Z</time>
      </trkpt>
      <trkpt lat="43.00334" lon="1.97318">
        <ele>476.9</ele>
        <time>2026-05-29T11:01:12Z</time>
      </trkpt>
      <trkpt lat="43.00334" lon="1.97318">
        <ele>476.9</ele>
        <time>2026-05-29T11:01:17Z</time>
      </trkpt>
      <trkpt lat="43.00334" lon="1.97318">
        <ele>476.9</ele>
        <time>2026-05-29T11:01:22Z</time>
      </trkpt>
      <trkpt lat="43.00334" lon="1.97318">
        <ele>476.9</ele>
        <time>2026-05-29T11:01:27Z</time>
      </trkpt>
      <trkpt lat="43.00334" lon="1.97318">
        <ele>476.9</ele>
        <time>2026-05-29T11:01:32Z</time>
      </trkpt>
      <trkpt lat="43.00334" lon="1.97318">
        <ele>476.9</ele>
        <time>2026-05-29T11:01:37Z</time>
      </trkpt>
      <trkpt lat="43.00334" lon="1.97318">
        <ele>476.9</ele>
        <time>2026-05-29T11:01:42Z</time>
      </trkpt>
      <trkpt lat="43.00334" lon="1.97318">
        <ele>476.9</ele>
        <time>2026-05-29T11:01:47Z</time>
      </trkpt>
      <trkpt lat="43.00334" lon="1.97318">
        <ele>476.9</ele>
        <time>2026-05-29T11:01:52Z</time>
      </trkpt>
      <trkpt lat="43.00334" lon="1.97318">
        <ele>476.9</ele>
        <time>2026-05-29T11:01:57Z</time>
      </trkpt>
      <trkpt lat="43.00334" lon="1.97318">
        <ele>476.9</ele>
        <time>2026-05-29T11:02:02Z</time>
      </trkpt>
      <trkpt lat="43.00334" lon="1.97318">
        <ele>476.9</ele>
        <time>2026-05-29T11:02:07Z</time>
      </trkpt>
      <trkpt lat="43.00334" lon="1.97318">
        <ele>476.9</ele>
        <time>2026-05-29T11:02:12Z</time>
      </trkpt>
      <trkpt lat="43.00334" lon="1.97318">
        <ele>476.9</ele>
        <time>2026-05-29T11:02:17Z</time>
      </trkpt>
      <trkpt lat="43.00334" lon="1.97318">
        <ele>476.9</ele>
        <time>2026-05-29T11:02:22Z</time>
      </trkpt>
      <trkpt lat="43.00334" lon="1.97318">
        <ele>476.9</ele>
        <time>2026-05-29T11:02:27Z</time>
      </trkpt>
      <trkpt lat="43.00334" lon="1.97318">
        <ele>476.9</ele>
        <time>2026-05-29T11:02:32Z</time>
      </trkpt>
      <trkpt lat="43.00334" lon="1.97318">
        <ele>476.9</ele>
        <time>2026-05-29T11:02:37Z</time>
      </trkpt>
      <trkpt lat="43.00334" lon="1.97318">
        <ele>476.9</ele>
        <time>2026-05-29T11:02:42Z</time>
      </trkpt>
      <trkpt lat="43.00334" lon="1.97318">
        <ele>476.9</ele>
        <time>2026-05-29T11:02:47Z</time>
      </trkpt>
      <trkpt lat="43.00334" lon="1.97318">
        <ele>476.9</ele>
        <time>2026-05-29T11:02:52Z</time>
      </trkpt>
      <trkpt lat="43.00334" lon="1.97318">
        <ele>476.9</ele>
        <time>2026-05-29T11:02:57Z</time>
      </trkpt>
      <trkpt lat="43.00334" lon="1.97318">
        <ele>476.9</ele>
        <time>2026-05-29T11:03:02Z</time>
      </trkpt>
      <trkpt lat="43.00334" lon="1.97318">
        <ele>476.9</ele>
        <time>2026-05-29T11:03:07Z</time>
      </trkpt>
      <trkpt lat="43.00334" lon="1.97318">
        <ele>476.9</ele>
        <time>2026-05-29T11:03:12Z</time>
      </trkpt>
      <trkpt lat="43.00334" lon="1.97318">
        <ele>476.9</ele>
        <time>2026-05-29T11:03:17Z</time>
      </trkpt>
      <trkpt lat="43.00334" lon="1.97318">
        <ele>476.9</ele>
        <time>2026-05-29T11:03:22Z</time>
      </trkpt>
      <trkpt lat="43.00334" lon="1.97318">
        <ele>476.9</ele>
        <time>2026-05-29T11:03:27Z</time>
      </trkpt>
      <trkpt lat="43.00334" lon="1.97318">
        <ele>476.9</ele>
        <time>2026-05-29T11:03:32Z</time>
      </trkpt>
      <trkpt lat="43.00334" lon="1.97318">
        <ele>476.9</ele>
        <time>2026-05-29T11:03:37Z</time>
      </trkpt>
      <trkpt lat="43.00334" lon="1.97318">
        <ele>476.9</ele>
        <time>2026-05-29T11:03:42Z</time>
      </trkpt>
      <trkpt lat="43.00334" lon="1.97318">
        <ele>476.9</ele>
        <time>2026-05-29T11:03:47Z</time>
      </trkpt>
      <trkpt lat="43.00334" lon="1.97318">
        <ele>476.9</ele>
        <time>2026-05-29T11:03:52Z</time>
      </trkpt>
      <trkpt lat="43.00334" lon="1.97318">
        <ele>476.9</ele>
        <time>2026-05-29T11:03:57Z</time>
      </trkpt>
      <trkpt lat="43.00334" lon="1.97318">
        <ele>476.9</ele>
        <time>2026-05-29T11:04:02Z</time>
      </trkpt>
      <trkpt lat="43.00334" lon="1.97318">
        <ele>476.9</ele>
        <time>2026-05-29T11:04:07Z</time>
      </trkpt>
      <trkpt lat="43.00334" lon="1.97318">
        <ele>476.9</ele>
        <time>2026-05-29T11:04:12Z</time>
      </trkpt>
      <trkpt lat="43.00334" lon="1.97318">
        <ele>476.9</ele>
        <time>2026-05-29T11:04:17Z</time>
      </trkpt>
      <trkpt lat="43.00334" lon="1.97318">
        <ele>476.9</ele>
        <time>2026-05-29T11:04:22Z</time>
      </trkpt>
      <trkpt lat="43.00334" lon="1.97318">
        <ele>476.9</ele>
        <time>2026-05-29T11:04:27Z</time>
      </trkpt>
      <trkpt lat="43.00334" lon="1.97318">
        <ele>476.9</ele>
        <time>2026-05-29T11:04:32Z</time>
      </trkpt>
      <trkpt lat="43.00323" lon="1.97323">
        <ele>476.9</ele>
        <time>2026-05-29T11:04:37Z</time>
      </trkpt>
      <trkpt lat="43.00323" lon="1.97323">
        <ele>476.9</ele>
        <time>2026-05-29T11:04:42Z</time>
      </trkpt>
      <trkpt lat="43.00323" lon="1.97323">
        <ele>476.9</ele>
        <time>2026-05-29T11:04:47Z</time>
      </trkpt>
      <trkpt lat="43.00312" lon="1.97321">
        <ele>475.4</ele>
        <time>2026-05-29T11:04:52Z</time>
      </trkpt>
      <trkpt lat="43.00312" lon="1.97321">
        <ele>475.4</ele>
        <time>2026-05-29T11:04:57Z</time>
      </trkpt>
      <trkpt lat="43.00312" lon="1.97321">
        <ele>475.4</ele>
        <time>2026-05-29T11:05:02Z</time>
      </trkpt>
      <trkpt lat="43.00302" lon="1.97324">
        <ele>475</ele>
        <time>2026-05-29T11:05:07Z</time>
      </trkpt>
      <trkpt lat="43.00301" lon="1.97325">
        <ele>475.2</ele>
        <time>2026-05-29T11:05:12Z</time>
      </trkpt>
      <trkpt lat="43.00301" lon="1.97325">
        <ele>475.2</ele>
        <time>2026-05-29T11:05:17Z</time>
      </trkpt>
      <trkpt lat="43.00301" lon="1.97325">
        <ele>475.2</ele>
        <time>2026-05-29T11:05:22Z</time>
      </trkpt>
      <trkpt lat="43.00289" lon="1.97328">
        <ele>474.6</ele>
        <time>2026-05-29T11:05:27Z</time>
      </trkpt>
      <trkpt lat="43.00289" lon="1.97328">
        <ele>474.6</ele>
        <time>2026-05-29T11:05:32Z</time>
      </trkpt>
      <trkpt lat="43.00289" lon="1.97328">
        <ele>474.6</ele>
        <time>2026-05-29T11:05:37Z</time>
      </trkpt>
      <trkpt lat="43.00277" lon="1.97329">
        <ele>473.7</ele>
        <time>2026-05-29T11:05:42Z</time>
      </trkpt>
      <trkpt lat="43.00277" lon="1.97329">
        <ele>473.7</ele>
        <time>2026-05-29T11:05:47Z</time>
      </trkpt>
      <trkpt lat="43.00265" lon="1.97329">
        <ele>472.5</ele>
        <time>2026-05-29T11:05:52Z</time>
      </trkpt>
      <trkpt lat="43.00259" lon="1.97329">
        <ele>471.9</ele>
        <time>2026-05-29T11:05:57Z</time>
      </trkpt>
      <trkpt lat="43.00252" lon="1.97331">
        <ele>471.7</ele>
        <time>2026-05-29T11:06:02Z</time>
      </trkpt>
      <trkpt lat="43.00246" lon="1.97333">
        <ele>471.5</ele>
        <time>2026-05-29T11:06:07Z</time>
      </trkpt>
      <trkpt lat="43.0024" lon="1.97336">
        <ele>471.2</ele>
        <time>2026-05-29T11:06:12Z</time>
      </trkpt>
      <trkpt lat="43.00236" lon="1.97339">
        <ele>471.2</ele>
        <time>2026-05-29T11:06:17Z</time>
      </trkpt>
      <trkpt lat="43.00231" lon="1.97341">
        <ele>471</ele>
        <time>2026-05-29T11:06:22Z</time>
      </trkpt>
      <trkpt lat="43.00227" lon="1.97344">
        <ele>471</ele>
        <time>2026-05-29T11:06:27Z</time>
      </trkpt>
      <trkpt lat="43.00224" lon="1.97348">
        <ele>471.3</ele>
        <time>2026-05-29T11:06:32Z</time>
      </trkpt>
      <trkpt lat="43.0022" lon="1.97351">
        <ele>471.4</ele>
        <time>2026-05-29T11:06:37Z</time>
      </trkpt>
      <trkpt lat="43.00216" lon="1.97354">
        <ele>471.4</ele>
        <time>2026-05-29T11:06:42Z</time>
      </trkpt>
      <trkpt lat="43.00213" lon="1.97357">
        <ele>471.6</ele>
        <time>2026-05-29T11:06:47Z</time>
      </trkpt>
      <trkpt lat="43.00208" lon="1.97361">
        <ele>471.8</ele>
        <time>2026-05-29T11:06:52Z</time>
      </trkpt>
      <trkpt lat="43.00204" lon="1.97365">
        <ele>472</ele>
        <time>2026-05-29T11:06:57Z</time>
      </trkpt>
      <trkpt lat="43.00199" lon="1.97369">
        <ele>472.2</ele>
        <time>2026-05-29T11:07:02Z</time>
      </trkpt>
      <trkpt lat="43.00195" lon="1.97373">
        <ele>472.5</ele>
        <time>2026-05-29T11:07:07Z</time>
      </trkpt>
      <trkpt lat="43.0019" lon="1.97376">
        <ele>472.6</ele>
        <time>2026-05-29T11:07:12Z</time>
      </trkpt>
      <trkpt lat="43.00187" lon="1.97381">
        <ele>473.2</ele>
        <time>2026-05-29T11:07:17Z</time>
      </trkpt>
      <trkpt lat="43.00184" lon="1.97385">
        <ele>473.6</ele>
        <time>2026-05-29T11:07:22Z</time>
      </trkpt>
      <trkpt lat="43.0018" lon="1.9739">
        <ele>474.2</ele>
        <time>2026-05-29T11:07:27Z</time>
      </trkpt>
      <trkpt lat="43.00176" lon="1.97396">
        <ele>474.9</ele>
        <time>2026-05-29T11:07:32Z</time>
      </trkpt>
      <trkpt lat="43.00173" lon="1.97402">
        <ele>475.8</ele>
        <time>2026-05-29T11:07:37Z</time>
      </trkpt>
      <trkpt lat="43.0017" lon="1.97407">
        <ele>476.4</ele>
        <time>2026-05-29T11:07:42Z</time>
      </trkpt>
      <trkpt lat="43.00166" lon="1.97413">
        <ele>477.3</ele>
        <time>2026-05-29T11:07:47Z</time>
      </trkpt>
      <trkpt lat="43.00163" lon="1.97417">
        <ele>478</ele>
        <time>2026-05-29T11:07:52Z</time>
      </trkpt>
      <trkpt lat="43.00159" lon="1.97422">
        <ele>478.7</ele>
        <time>2026-05-29T11:07:57Z</time>
      </trkpt>
      <trkpt lat="43.00156" lon="1.97428">
        <ele>479.5</ele>
        <time>2026-05-29T11:08:02Z</time>
      </trkpt>
      <trkpt lat="43.00152" lon="1.97432">
        <ele>480</ele>
        <time>2026-05-29T11:08:07Z</time>
      </trkpt>
      <trkpt lat="43.00148" lon="1.97437">
        <ele>480.7</ele>
        <time>2026-05-29T11:08:12Z</time>
      </trkpt>
      <trkpt lat="43.00144" lon="1.97442">
        <ele>481.4</ele>
        <time>2026-05-29T11:08:17Z</time>
      </trkpt>
      <trkpt lat="43.0014" lon="1.97447">
        <ele>482</ele>
        <time>2026-05-29T11:08:22Z</time>
      </trkpt>
      <trkpt lat="43.00135" lon="1.97453">
        <ele>482.9</ele>
        <time>2026-05-29T11:08:27Z</time>
      </trkpt>
      <trkpt lat="43.00131" lon="1.97457">
        <ele>483.4</ele>
        <time>2026-05-29T11:08:32Z</time>
      </trkpt>
      <trkpt lat="43.00127" lon="1.97461">
        <ele>483.9</ele>
        <time>2026-05-29T11:08:37Z</time>
      </trkpt>
      <trkpt lat="43.00123" lon="1.97467">
        <ele>484.7</ele>
        <time>2026-05-29T11:08:42Z</time>
      </trkpt>
      <trkpt lat="43.00119" lon="1.97471">
        <ele>485.3</ele>
        <time>2026-05-29T11:08:47Z</time>
      </trkpt>
      <trkpt lat="43.00113" lon="1.97475">
        <ele>485.8</ele>
        <time>2026-05-29T11:08:52Z</time>
      </trkpt>
      <trkpt lat="43.00109" lon="1.97479">
        <ele>486.3</ele>
        <time>2026-05-29T11:08:57Z</time>
      </trkpt>
      <trkpt lat="43.00106" lon="1.97483">
        <ele>486.8</ele>
        <time>2026-05-29T11:09:02Z</time>
      </trkpt>
      <trkpt lat="43.00101" lon="1.97487">
        <ele>487.3</ele>
        <time>2026-05-29T11:09:07Z</time>
      </trkpt>
      <trkpt lat="43.00099" lon="1.97492">
        <ele>488</ele>
        <time>2026-05-29T11:09:12Z</time>
      </trkpt>
      <trkpt lat="43.00095" lon="1.97495">
        <ele>488.4</ele>
        <time>2026-05-29T11:09:17Z</time>
      </trkpt>
      <trkpt lat="43.00091" lon="1.975">
        <ele>489.1</ele>
        <time>2026-05-29T11:09:22Z</time>
      </trkpt>
      <trkpt lat="43.00086" lon="1.97505">
        <ele>489.5</ele>
        <time>2026-05-29T11:09:27Z</time>
      </trkpt>
      <trkpt lat="43.00081" lon="1.97509">
        <ele>490.1</ele>
        <time>2026-05-29T11:09:32Z</time>
      </trkpt>
      <trkpt lat="43.00076" lon="1.97513">
        <ele>491</ele>
        <time>2026-05-29T11:09:37Z</time>
      </trkpt>
      <trkpt lat="43.00072" lon="1.97516">
        <ele>491.7</ele>
        <time>2026-05-29T11:09:42Z</time>
      </trkpt>
      <trkpt lat="43.00068" lon="1.97521">
        <ele>492.5</ele>
        <time>2026-05-29T11:09:47Z</time>
      </trkpt>
      <trkpt lat="43.00063" lon="1.97523">
        <ele>493.2</ele>
        <time>2026-05-29T11:09:52Z</time>
      </trkpt>
      <trkpt lat="43.00059" lon="1.97527">
        <ele>493.8</ele>
        <time>2026-05-29T11:09:57Z</time>
      </trkpt>
      <trkpt lat="43.00054" lon="1.97531">
        <ele>494.6</ele>
        <time>2026-05-29T11:10:02Z</time>
      </trkpt>
      <trkpt lat="43.00049" lon="1.97533">
        <ele>495.1</ele>
        <time>2026-05-29T11:10:07Z</time>
      </trkpt>
      <trkpt lat="43.00045" lon="1.97536">
        <ele>495.7</ele>
        <time>2026-05-29T11:10:12Z</time>
      </trkpt>
      <trkpt lat="43.00039" lon="1.97539">
        <ele>496.3</ele>
        <time>2026-05-29T11:10:17Z</time>
      </trkpt>
      <trkpt lat="43.00035" lon="1.97542">
        <ele>496.8</ele>
        <time>2026-05-29T11:10:22Z</time>
      </trkpt>
      <trkpt lat="43.00032" lon="1.97545">
        <ele>497.2</ele>
        <time>2026-05-29T11:10:27Z</time>
      </trkpt>
      <trkpt lat="43.00027" lon="1.97547">
        <ele>497.6</ele>
        <time>2026-05-29T11:10:32Z</time>
      </trkpt>
      <trkpt lat="43.00022" lon="1.9755">
        <ele>498.1</ele>
        <time>2026-05-29T11:10:37Z</time>
      </trkpt>
      <trkpt lat="43.00018" lon="1.97552">
        <ele>498.4</ele>
        <time>2026-05-29T11:10:42Z</time>
      </trkpt>
      <trkpt lat="43.00015" lon="1.97558">
        <ele>498.8</ele>
        <time>2026-05-29T11:10:47Z</time>
      </trkpt>
      <trkpt lat="43.00014" lon="1.97567">
        <ele>499.1</ele>
        <time>2026-05-29T11:10:52Z</time>
      </trkpt>
      <trkpt lat="43.00012" lon="1.97574">
        <ele>499.3</ele>
        <time>2026-05-29T11:10:57Z</time>
      </trkpt>
      <trkpt lat="43.0001" lon="1.9758">
        <ele>499.6</ele>
        <time>2026-05-29T11:11:02Z</time>
      </trkpt>
      <trkpt lat="43.0001" lon="1.97584">
        <ele>499.7</ele>
        <time>2026-05-29T11:11:07Z</time>
      </trkpt>
      <trkpt lat="43.0001" lon="1.97584">
        <ele>499.7</ele>
        <time>2026-05-29T11:11:12Z</time>
      </trkpt>
      <trkpt lat="43.00011" lon="1.97589">
        <ele>499.9</ele>
        <time>2026-05-29T11:11:17Z</time>
      </trkpt>
      <trkpt lat="43.00011" lon="1.97596">
        <ele>500.2</ele>
        <time>2026-05-29T11:11:22Z</time>
      </trkpt>
      <trkpt lat="43.0001" lon="1.97604">
        <ele>500.6</ele>
        <time>2026-05-29T11:11:27Z</time>
      </trkpt>
      <trkpt lat="43.0001" lon="1.97611">
        <ele>500.9</ele>
        <time>2026-05-29T11:11:32Z</time>
      </trkpt>
      <trkpt lat="43.0001" lon="1.97618">
        <ele>501.3</ele>
        <time>2026-05-29T11:11:37Z</time>
      </trkpt>
      <trkpt lat="43.0001" lon="1.97625">
        <ele>501.6</ele>
        <time>2026-05-29T11:11:42Z</time>
      </trkpt>
      <trkpt lat="43.0001" lon="1.97632">
        <ele>501.9</ele>
        <time>2026-05-29T11:11:47Z</time>
      </trkpt>
      <trkpt lat="43.00009" lon="1.97638">
        <ele>502.2</ele>
        <time>2026-05-29T11:11:52Z</time>
      </trkpt>
      <trkpt lat="43.00009" lon="1.97645">
        <ele>502.6</ele>
        <time>2026-05-29T11:11:57Z</time>
      </trkpt>
      <trkpt lat="43.00009" lon="1.97651">
        <ele>502.8</ele>
        <time>2026-05-29T11:12:02Z</time>
      </trkpt>
      <trkpt lat="43.00009" lon="1.97658">
        <ele>503.2</ele>
        <time>2026-05-29T11:12:07Z</time>
      </trkpt>
      <trkpt lat="43.00008" lon="1.97665">
        <ele>503.5</ele>
        <time>2026-05-29T11:12:12Z</time>
      </trkpt>
      <trkpt lat="43.00008" lon="1.97672">
        <ele>503.7</ele>
        <time>2026-05-29T11:12:17Z</time>
      </trkpt>
      <trkpt lat="43.00008" lon="1.97679">
        <ele>503.9</ele>
        <time>2026-05-29T11:12:22Z</time>
      </trkpt>
      <trkpt lat="43.00008" lon="1.97687">
        <ele>504</ele>
        <time>2026-05-29T11:12:27Z</time>
      </trkpt>
      <trkpt lat="43.00004" lon="1.97689">
        <ele>504.3</ele>
        <time>2026-05-29T11:12:32Z</time>
      </trkpt>
      <trkpt lat="42.99998" lon="1.97691">
        <ele>504.8</ele>
        <time>2026-05-29T11:12:37Z</time>
      </trkpt>
      <trkpt lat="42.99992" lon="1.9769">
        <ele>505.4</ele>
        <time>2026-05-29T11:12:42Z</time>
      </trkpt>
      <trkpt lat="42.99987" lon="1.97689">
        <ele>505.9</ele>
        <time>2026-05-29T11:12:47Z</time>
      </trkpt>
      <trkpt lat="42.99981" lon="1.97688">
        <ele>506.5</ele>
        <time>2026-05-29T11:12:52Z</time>
      </trkpt>
      <trkpt lat="42.99977" lon="1.97687">
        <ele>506.9</ele>
        <time>2026-05-29T11:12:57Z</time>
      </trkpt>
      <trkpt lat="42.99971" lon="1.97684">
        <ele>507.5</ele>
        <time>2026-05-29T11:13:02Z</time>
      </trkpt>
      <trkpt lat="42.99965" lon="1.97683">
        <ele>508.1</ele>
        <time>2026-05-29T11:13:07Z</time>
      </trkpt>
      <trkpt lat="42.99961" lon="1.97683">
        <ele>508.5</ele>
        <time>2026-05-29T11:13:12Z</time>
      </trkpt>
      <trkpt lat="42.99959" lon="1.97682">
        <ele>508.7</ele>
        <time>2026-05-29T11:13:17Z</time>
      </trkpt>
      <trkpt lat="42.99956" lon="1.97679">
        <ele>509</ele>
        <time>2026-05-29T11:13:22Z</time>
      </trkpt>
      <trkpt lat="42.9995" lon="1.97679">
        <ele>509.6</ele>
        <time>2026-05-29T11:13:27Z</time>
      </trkpt>
      <trkpt lat="42.99945" lon="1.97677">
        <ele>510.1</ele>
        <time>2026-05-29T11:13:32Z</time>
      </trkpt>
      <trkpt lat="42.9994" lon="1.97675">
        <ele>510.6</ele>
        <time>2026-05-29T11:13:37Z</time>
      </trkpt>
      <trkpt lat="42.99934" lon="1.97674">
        <ele>511.2</ele>
        <time>2026-05-29T11:13:42Z</time>
      </trkpt>
      <trkpt lat="42.99928" lon="1.97674">
        <ele>511.9</ele>
        <time>2026-05-29T11:13:47Z</time>
      </trkpt>
      <trkpt lat="42.99922" lon="1.97672">
        <ele>512.5</ele>
        <time>2026-05-29T11:13:52Z</time>
      </trkpt>
      <trkpt lat="42.99916" lon="1.97672">
        <ele>513.1</ele>
        <time>2026-05-29T11:13:57Z</time>
      </trkpt>
      <trkpt lat="42.99913" lon="1.97671">
        <ele>513.4</ele>
        <time>2026-05-29T11:14:02Z</time>
      </trkpt>
      <trkpt lat="42.99908" lon="1.9767">
        <ele>513.9</ele>
        <time>2026-05-29T11:14:07Z</time>
      </trkpt>
      <trkpt lat="42.99902" lon="1.97669">
        <ele>514.4</ele>
        <time>2026-05-29T11:14:12Z</time>
      </trkpt>
      <trkpt lat="42.99897" lon="1.97668">
        <ele>514.9</ele>
        <time>2026-05-29T11:14:17Z</time>
      </trkpt>
      <trkpt lat="42.99892" lon="1.97668">
        <ele>515.4</ele>
        <time>2026-05-29T11:14:22Z</time>
      </trkpt>
      <trkpt lat="42.99887" lon="1.97667">
        <ele>515.9</ele>
        <time>2026-05-29T11:14:27Z</time>
      </trkpt>
      <trkpt lat="42.99882" lon="1.97666">
        <ele>516.3</ele>
        <time>2026-05-29T11:14:32Z</time>
      </trkpt>
      <trkpt lat="42.99877" lon="1.97665">
        <ele>516.7</ele>
        <time>2026-05-29T11:14:37Z</time>
      </trkpt>
      <trkpt lat="42.99872" lon="1.97665">
        <ele>517.2</ele>
        <time>2026-05-29T11:14:42Z</time>
      </trkpt>
      <trkpt lat="42.99867" lon="1.97665">
        <ele>517.7</ele>
        <time>2026-05-29T11:14:47Z</time>
      </trkpt>
      <trkpt lat="42.99862" lon="1.97663">
        <ele>518.1</ele>
        <time>2026-05-29T11:14:52Z</time>
      </trkpt>
      <trkpt lat="42.99856" lon="1.97662">
        <ele>518.7</ele>
        <time>2026-05-29T11:14:57Z</time>
      </trkpt>
      <trkpt lat="42.99851" lon="1.97662">
        <ele>519.1</ele>
        <time>2026-05-29T11:15:02Z</time>
      </trkpt>
      <trkpt lat="42.99848" lon="1.9766">
        <ele>519.4</ele>
        <time>2026-05-29T11:15:07Z</time>
      </trkpt>
      <trkpt lat="42.99848" lon="1.97659">
        <ele>519.3</ele>
        <time>2026-05-29T11:15:12Z</time>
      </trkpt>
      <trkpt lat="42.99848" lon="1.97659">
        <ele>519.3</ele>
        <time>2026-05-29T11:15:17Z</time>
      </trkpt>
      <trkpt lat="42.99848" lon="1.97659">
        <ele>519.3</ele>
        <time>2026-05-29T11:15:22Z</time>
      </trkpt>
      <trkpt lat="42.99848" lon="1.97659">
        <ele>519.3</ele>
        <time>2026-05-29T11:15:27Z</time>
      </trkpt>
      <trkpt lat="42.99848" lon="1.97659">
        <ele>519.3</ele>
        <time>2026-05-29T11:15:32Z</time>
      </trkpt>
      <trkpt lat="42.99848" lon="1.97659">
        <ele>519.3</ele>
        <time>2026-05-29T11:15:37Z</time>
      </trkpt>
      <trkpt lat="42.99848" lon="1.97659">
        <ele>519.3</ele>
        <time>2026-05-29T11:15:42Z</time>
      </trkpt>
      <trkpt lat="42.99848" lon="1.97659">
        <ele>519.3</ele>
        <time>2026-05-29T11:15:47Z</time>
      </trkpt>
      <trkpt lat="42.99836" lon="1.97657">
        <ele>520.4</ele>
        <time>2026-05-29T11:15:52Z</time>
      </trkpt>
      <trkpt lat="42.99831" lon="1.97657">
        <ele>520.8</ele>
        <time>2026-05-29T11:15:57Z</time>
      </trkpt>
      <trkpt lat="42.99825" lon="1.97657">
        <ele>521.2</ele>
        <time>2026-05-29T11:16:02Z</time>
      </trkpt>
      <trkpt lat="42.9982" lon="1.97656">
        <ele>521.5</ele>
        <time>2026-05-29T11:16:07Z</time>
      </trkpt>
      <trkpt lat="42.99816" lon="1.97655">
        <ele>521.7</ele>
        <time>2026-05-29T11:16:12Z</time>
      </trkpt>
      <trkpt lat="42.99812" lon="1.97654">
        <ele>521.9</ele>
        <time>2026-05-29T11:16:17Z</time>
      </trkpt>
      <trkpt lat="42.99807" lon="1.97653">
        <ele>522.1</ele>
        <time>2026-05-29T11:16:22Z</time>
      </trkpt>
      <trkpt lat="42.99802" lon="1.97653">
        <ele>522.5</ele>
        <time>2026-05-29T11:16:27Z</time>
      </trkpt>
      <trkpt lat="42.99796" lon="1.97652">
        <ele>522.8</ele>
        <time>2026-05-29T11:16:32Z</time>
      </trkpt>
      <trkpt lat="42.99791" lon="1.97651">
        <ele>523</ele>
        <time>2026-05-29T11:16:37Z</time>
      </trkpt>
      <trkpt lat="42.99787" lon="1.9765">
        <ele>523.2</ele>
        <time>2026-05-29T11:16:42Z</time>
      </trkpt>
      <trkpt lat="42.99782" lon="1.97649">
        <ele>523.4</ele>
        <time>2026-05-29T11:16:47Z</time>
      </trkpt>
      <trkpt lat="42.99777" lon="1.97647">
        <ele>523.6</ele>
        <time>2026-05-29T11:16:52Z</time>
      </trkpt>
      <trkpt lat="42.99772" lon="1.97645">
        <ele>523.7</ele>
        <time>2026-05-29T11:16:57Z</time>
      </trkpt>
      <trkpt lat="42.99767" lon="1.97644">
        <ele>523.9</ele>
        <time>2026-05-29T11:17:02Z</time>
      </trkpt>
      <trkpt lat="42.99762" lon="1.97644">
        <ele>524.2</ele>
        <time>2026-05-29T11:17:07Z</time>
      </trkpt>
      <trkpt lat="42.99759" lon="1.97641">
        <ele>524.1</ele>
        <time>2026-05-29T11:17:12Z</time>
      </trkpt>
      <trkpt lat="42.99755" lon="1.97638">
        <ele>524</ele>
        <time>2026-05-29T11:17:17Z</time>
      </trkpt>
      <trkpt lat="42.9975" lon="1.97636">
        <ele>524.1</ele>
        <time>2026-05-29T11:17:22Z</time>
      </trkpt>
      <trkpt lat="42.99745" lon="1.97633">
        <ele>523.4</ele>
        <time>2026-05-29T11:17:27Z</time>
      </trkpt>
      <trkpt lat="42.99741" lon="1.9763">
        <ele>522.8</ele>
        <time>2026-05-29T11:17:32Z</time>
      </trkpt>
      <trkpt lat="42.99736" lon="1.97629">
        <ele>522.3</ele>
        <time>2026-05-29T11:17:37Z</time>
      </trkpt>
      <trkpt lat="42.99731" lon="1.97626">
        <ele>521.6</ele>
        <time>2026-05-29T11:17:42Z</time>
      </trkpt>
      <trkpt lat="42.99727" lon="1.97622">
        <ele>520.9</ele>
        <time>2026-05-29T11:17:47Z</time>
      </trkpt>
      <trkpt lat="42.99721" lon="1.97621">
        <ele>520.3</ele>
        <time>2026-05-29T11:17:52Z</time>
      </trkpt>
      <trkpt lat="42.99716" lon="1.97619">
        <ele>519.6</ele>
        <time>2026-05-29T11:17:57Z</time>
      </trkpt>
      <trkpt lat="42.99711" lon="1.97618">
        <ele>519.1</ele>
        <time>2026-05-29T11:18:02Z</time>
      </trkpt>
      <trkpt lat="42.99706" lon="1.97621">
        <ele>519.1</ele>
        <time>2026-05-29T11:18:07Z</time>
      </trkpt>
      <trkpt lat="42.99703" lon="1.97624">
        <ele>519.2</ele>
        <time>2026-05-29T11:18:12Z</time>
      </trkpt>
      <trkpt lat="42.99702" lon="1.97624">
        <ele>519.1</ele>
        <time>2026-05-29T11:18:17Z</time>
      </trkpt>
      <trkpt lat="42.997" lon="1.97629">
        <ele>519.6</ele>
        <time>2026-05-29T11:18:22Z</time>
      </trkpt>
      <trkpt lat="42.99697" lon="1.97636">
        <ele>520.3</ele>
        <time>2026-05-29T11:18:27Z</time>
      </trkpt>
      <trkpt lat="42.99693" lon="1.97641">
        <ele>520.7</ele>
        <time>2026-05-29T11:18:32Z</time>
      </trkpt>
      <trkpt lat="42.9969" lon="1.97647">
        <ele>521.4</ele>
        <time>2026-05-29T11:18:37Z</time>
      </trkpt>
      <trkpt lat="42.99686" lon="1.97651">
        <ele>521.7</ele>
        <time>2026-05-29T11:18:42Z</time>
      </trkpt>
      <trkpt lat="42.99682" lon="1.97654">
        <ele>521.9</ele>
        <time>2026-05-29T11:18:47Z</time>
      </trkpt>
      <trkpt lat="42.99676" lon="1.97657">
        <ele>522</ele>
        <time>2026-05-29T11:18:52Z</time>
      </trkpt>
      <trkpt lat="42.9967" lon="1.97656">
        <ele>521.5</ele>
        <time>2026-05-29T11:18:57Z</time>
      </trkpt>
      <trkpt lat="42.99665" lon="1.97656">
        <ele>521.1</ele>
        <time>2026-05-29T11:19:02Z</time>
      </trkpt>
      <trkpt lat="42.99659" lon="1.97653">
        <ele>519.9</ele>
        <time>2026-05-29T11:19:07Z</time>
      </trkpt>
      <trkpt lat="42.99653" lon="1.97653">
        <ele>519.1</ele>
        <time>2026-05-29T11:19:12Z</time>
      </trkpt>
      <trkpt lat="42.99648" lon="1.97653">
        <ele>518.4</ele>
        <time>2026-05-29T11:19:17Z</time>
      </trkpt>
      <trkpt lat="42.99644" lon="1.97655">
        <ele>518.2</ele>
        <time>2026-05-29T11:19:22Z</time>
      </trkpt>
      <trkpt lat="42.99644" lon="1.97655">
        <ele>518.2</ele>
        <time>2026-05-29T11:19:27Z</time>
      </trkpt>
      <trkpt lat="42.99641" lon="1.97652">
        <ele>517.4</ele>
        <time>2026-05-29T11:19:32Z</time>
      </trkpt>
      <trkpt lat="42.99637" lon="1.9765">
        <ele>516.6</ele>
        <time>2026-05-29T11:19:37Z</time>
      </trkpt>
      <trkpt lat="42.99631" lon="1.9765">
        <ele>515.8</ele>
        <time>2026-05-29T11:19:42Z</time>
      </trkpt>
      <trkpt lat="42.99626" lon="1.97649">
        <ele>515</ele>
        <time>2026-05-29T11:19:47Z</time>
      </trkpt>
      <trkpt lat="42.9962" lon="1.97651">
        <ele>514.5</ele>
        <time>2026-05-29T11:19:52Z</time>
      </trkpt>
      <trkpt lat="42.99615" lon="1.97651">
        <ele>513.9</ele>
        <time>2026-05-29T11:19:57Z</time>
      </trkpt>
      <trkpt lat="42.99611" lon="1.97649">
        <ele>513</ele>
        <time>2026-05-29T11:20:02Z</time>
      </trkpt>
      <trkpt lat="42.9961" lon="1.97648">
        <ele>512.8</ele>
        <time>2026-05-29T11:20:07Z</time>
      </trkpt>
      <trkpt lat="42.99607" lon="1.97649">
        <ele>512.5</ele>
        <time>2026-05-29T11:20:12Z</time>
      </trkpt>
      <trkpt lat="42.99602" lon="1.97653">
        <ele>512.5</ele>
        <time>2026-05-29T11:20:17Z</time>
      </trkpt>
      <trkpt lat="42.99597" lon="1.97655">
        <ele>512.1</ele>
        <time>2026-05-29T11:20:22Z</time>
      </trkpt>
      <trkpt lat="42.99593" lon="1.97654">
        <ele>511.4</ele>
        <time>2026-05-29T11:20:27Z</time>
      </trkpt>
      <trkpt lat="42.99592" lon="1.97652">
        <ele>511</ele>
        <time>2026-05-29T11:20:32Z</time>
      </trkpt>
      <trkpt lat="42.99592" lon="1.97652">
        <ele>511</ele>
        <time>2026-05-29T11:20:37Z</time>
      </trkpt>
      <trkpt lat="42.99587" lon="1.97657">
        <ele>511.1</ele>
        <time>2026-05-29T11:20:42Z</time>
      </trkpt>
      <trkpt lat="42.99582" lon="1.97662">
        <ele>511.3</ele>
        <time>2026-05-29T11:20:47Z</time>
      </trkpt>
      <trkpt lat="42.99577" lon="1.97668">
        <ele>512.1</ele>
        <time>2026-05-29T11:20:52Z</time>
      </trkpt>
      <trkpt lat="42.99572" lon="1.97672">
        <ele>512.4</ele>
        <time>2026-05-29T11:20:57Z</time>
      </trkpt>
      <trkpt lat="42.99568" lon="1.97677">
        <ele>512.8</ele>
        <time>2026-05-29T11:21:02Z</time>
      </trkpt>
      <trkpt lat="42.99563" lon="1.9768">
        <ele>513</ele>
        <time>2026-05-29T11:21:07Z</time>
      </trkpt>
      <trkpt lat="42.99559" lon="1.97684">
        <ele>513.3</ele>
        <time>2026-05-29T11:21:12Z</time>
      </trkpt>
      <trkpt lat="42.99554" lon="1.97688">
        <ele>513.6</ele>
        <time>2026-05-29T11:21:17Z</time>
      </trkpt>
      <trkpt lat="42.99549" lon="1.97692">
        <ele>513.8</ele>
        <time>2026-05-29T11:21:22Z</time>
      </trkpt>
      <trkpt lat="42.99544" lon="1.97697">
        <ele>514.1</ele>
        <time>2026-05-29T11:21:27Z</time>
      </trkpt>
      <trkpt lat="42.99539" lon="1.977">
        <ele>514.2</ele>
        <time>2026-05-29T11:21:32Z</time>
      </trkpt>
      <trkpt lat="42.99534" lon="1.97706">
        <ele>514.5</ele>
        <time>2026-05-29T11:21:37Z</time>
      </trkpt>
      <trkpt lat="42.9953" lon="1.97709">
        <ele>514.6</ele>
        <time>2026-05-29T11:21:42Z</time>
      </trkpt>
      <trkpt lat="42.99524" lon="1.97713">
        <ele>514.7</ele>
        <time>2026-05-29T11:21:47Z</time>
      </trkpt>
      <trkpt lat="42.9952" lon="1.9772">
        <ele>515.1</ele>
        <time>2026-05-29T11:21:52Z</time>
      </trkpt>
      <trkpt lat="42.99516" lon="1.97725">
        <ele>515.2</ele>
        <time>2026-05-29T11:21:57Z</time>
      </trkpt>
      <trkpt lat="42.99512" lon="1.9773">
        <ele>515.4</ele>
        <time>2026-05-29T11:22:02Z</time>
      </trkpt>
      <trkpt lat="42.99509" lon="1.97735">
        <ele>515.6</ele>
        <time>2026-05-29T11:22:07Z</time>
      </trkpt>
      <trkpt lat="42.99505" lon="1.97742">
        <ele>515.8</ele>
        <time>2026-05-29T11:22:12Z</time>
      </trkpt>
      <trkpt lat="42.99501" lon="1.97747">
        <ele>515.9</ele>
        <time>2026-05-29T11:22:17Z</time>
      </trkpt>
      <trkpt lat="42.99494" lon="1.97752">
        <ele>516.2</ele>
        <time>2026-05-29T11:22:22Z</time>
      </trkpt>
      <trkpt lat="42.99488" lon="1.97755">
        <ele>516.4</ele>
        <time>2026-05-29T11:22:27Z</time>
      </trkpt>
      <trkpt lat="42.99482" lon="1.97757">
        <ele>516.7</ele>
        <time>2026-05-29T11:22:32Z</time>
      </trkpt>
      <trkpt lat="42.99475" lon="1.97756">
        <ele>517.1</ele>
        <time>2026-05-29T11:22:37Z</time>
      </trkpt>
      <trkpt lat="42.9947" lon="1.97756">
        <ele>517.3</ele>
        <time>2026-05-29T11:22:42Z</time>
      </trkpt>
      <trkpt lat="42.99464" lon="1.97755">
        <ele>517.7</ele>
        <time>2026-05-29T11:22:47Z</time>
      </trkpt>
      <trkpt lat="42.99458" lon="1.97754">
        <ele>518</ele>
        <time>2026-05-29T11:22:52Z</time>
      </trkpt>
      <trkpt lat="42.99453" lon="1.97753">
        <ele>518.2</ele>
        <time>2026-05-29T11:22:57Z</time>
      </trkpt>
      <trkpt lat="42.99447" lon="1.97752">
        <ele>518.5</ele>
        <time>2026-05-29T11:23:02Z</time>
      </trkpt>
      <trkpt lat="42.99442" lon="1.97751">
        <ele>518.8</ele>
        <time>2026-05-29T11:23:07Z</time>
      </trkpt>
      <trkpt lat="42.99436" lon="1.9775">
        <ele>519.1</ele>
        <time>2026-05-29T11:23:12Z</time>
      </trkpt>
      <trkpt lat="42.9943" lon="1.9775">
        <ele>519.4</ele>
        <time>2026-05-29T11:23:17Z</time>
      </trkpt>
      <trkpt lat="42.99424" lon="1.97748">
        <ele>519.6</ele>
        <time>2026-05-29T11:23:22Z</time>
      </trkpt>
      <trkpt lat="42.99418" lon="1.97747">
        <ele>519.9</ele>
        <time>2026-05-29T11:23:27Z</time>
      </trkpt>
      <trkpt lat="42.99412" lon="1.97747">
        <ele>520.8</ele>
        <time>2026-05-29T11:23:32Z</time>
      </trkpt>
      <trkpt lat="42.99406" lon="1.97746">
        <ele>521.8</ele>
        <time>2026-05-29T11:23:37Z</time>
      </trkpt>
      <trkpt lat="42.994" lon="1.97744">
        <ele>522.8</ele>
        <time>2026-05-29T11:23:42Z</time>
      </trkpt>
      <trkpt lat="42.99395" lon="1.97742">
        <ele>523.6</ele>
        <time>2026-05-29T11:23:47Z</time>
      </trkpt>
      <trkpt lat="42.9939" lon="1.9774">
        <ele>524.4</ele>
        <time>2026-05-29T11:23:52Z</time>
      </trkpt>
      <trkpt lat="42.99386" lon="1.97737">
        <ele>525</ele>
        <time>2026-05-29T11:23:57Z</time>
      </trkpt>
      <trkpt lat="42.99382" lon="1.97736">
        <ele>525.6</ele>
        <time>2026-05-29T11:24:02Z</time>
      </trkpt>
      <trkpt lat="42.99377" lon="1.97733">
        <ele>526.4</ele>
        <time>2026-05-29T11:24:07Z</time>
      </trkpt>
      <trkpt lat="42.99372" lon="1.97729">
        <ele>527.1</ele>
        <time>2026-05-29T11:24:12Z</time>
      </trkpt>
      <trkpt lat="42.99368" lon="1.97725">
        <ele>527.7</ele>
        <time>2026-05-29T11:24:17Z</time>
      </trkpt>
      <trkpt lat="42.99363" lon="1.97722">
        <ele>528.4</ele>
        <time>2026-05-29T11:24:22Z</time>
      </trkpt>
      <trkpt lat="42.99358" lon="1.9772">
        <ele>529.1</ele>
        <time>2026-05-29T11:24:27Z</time>
      </trkpt>
      <trkpt lat="42.99354" lon="1.97716">
        <ele>529.6</ele>
        <time>2026-05-29T11:24:32Z</time>
      </trkpt>
      <trkpt lat="42.9935" lon="1.97711">
        <ele>530.1</ele>
        <time>2026-05-29T11:24:37Z</time>
      </trkpt>
      <trkpt lat="42.99346" lon="1.97706">
        <ele>530.5</ele>
        <time>2026-05-29T11:24:42Z</time>
      </trkpt>
      <trkpt lat="42.99343" lon="1.97701">
        <ele>530.8</ele>
        <time>2026-05-29T11:24:47Z</time>
      </trkpt>
      <trkpt lat="42.99339" lon="1.97695">
        <ele>531.2</ele>
        <time>2026-05-29T11:24:52Z</time>
      </trkpt>
      <trkpt lat="42.99337" lon="1.97689">
        <ele>531.3</ele>
        <time>2026-05-29T11:24:57Z</time>
      </trkpt>
      <trkpt lat="42.99334" lon="1.97684">
        <ele>531.5</ele>
        <time>2026-05-29T11:25:02Z</time>
      </trkpt>
      <trkpt lat="42.99331" lon="1.97679">
        <ele>531.7</ele>
        <time>2026-05-29T11:25:07Z</time>
      </trkpt>
      <trkpt lat="42.99327" lon="1.97672">
        <ele>531.9</ele>
        <time>2026-05-29T11:25:12Z</time>
      </trkpt>
      <trkpt lat="42.99323" lon="1.97667">
        <ele>532.1</ele>
        <time>2026-05-29T11:25:17Z</time>
      </trkpt>
      <trkpt lat="42.9932" lon="1.97661">
        <ele>532.3</ele>
        <time>2026-05-29T11:25:22Z</time>
      </trkpt>
      <trkpt lat="42.99318" lon="1.97655">
        <ele>532.5</ele>
        <time>2026-05-29T11:25:27Z</time>
      </trkpt>
      <trkpt lat="42.99318" lon="1.97654">
        <ele>532.5</ele>
        <time>2026-05-29T11:25:32Z</time>
      </trkpt>
      <trkpt lat="42.99319" lon="1.97654">
        <ele>532.3</ele>
        <time>2026-05-29T11:25:37Z</time>
      </trkpt>
      <trkpt lat="42.99319" lon="1.97654">
        <ele>532.3</ele>
        <time>2026-05-29T11:25:42Z</time>
      </trkpt>
      <trkpt lat="42.99319" lon="1.97654">
        <ele>532.3</ele>
        <time>2026-05-29T11:25:47Z</time>
      </trkpt>
      <trkpt lat="42.99316" lon="1.97651">
        <ele>532.7</ele>
        <time>2026-05-29T11:25:52Z</time>
      </trkpt>
      <trkpt lat="42.99313" lon="1.97645">
        <ele>532.9</ele>
        <time>2026-05-29T11:25:57Z</time>
      </trkpt>
      <trkpt lat="42.9931" lon="1.97639">
        <ele>533.2</ele>
        <time>2026-05-29T11:26:02Z</time>
      </trkpt>
      <trkpt lat="42.99307" lon="1.97633">
        <ele>533.5</ele>
        <time>2026-05-29T11:26:07Z</time>
      </trkpt>
      <trkpt lat="42.99307" lon="1.97631">
        <ele>533.5</ele>
        <time>2026-05-29T11:26:12Z</time>
      </trkpt>
      <trkpt lat="42.99307" lon="1.97631">
        <ele>533.5</ele>
        <time>2026-05-29T11:26:17Z</time>
      </trkpt>
      <trkpt lat="42.99307" lon="1.97631">
        <ele>533.5</ele>
        <time>2026-05-29T11:26:22Z</time>
      </trkpt>
      <trkpt lat="42.99307" lon="1.97631">
        <ele>533.5</ele>
        <time>2026-05-29T11:26:27Z</time>
      </trkpt>
      <trkpt lat="42.99307" lon="1.97631">
        <ele>533.5</ele>
        <time>2026-05-29T11:26:32Z</time>
      </trkpt>
      <trkpt lat="42.99301" lon="1.97622">
        <ele>534.3</ele>
        <time>2026-05-29T11:26:37Z</time>
      </trkpt>
      <trkpt lat="42.99296" lon="1.97615">
        <ele>534.9</ele>
        <time>2026-05-29T11:26:42Z</time>
      </trkpt>
      <trkpt lat="42.99292" lon="1.97612">
        <ele>535.5</ele>
        <time>2026-05-29T11:26:47Z</time>
      </trkpt>
      <trkpt lat="42.99286" lon="1.97613">
        <ele>536.3</ele>
        <time>2026-05-29T11:26:52Z</time>
      </trkpt>
      <trkpt lat="42.99281" lon="1.97615">
        <ele>537</ele>
        <time>2026-05-29T11:26:57Z</time>
      </trkpt>
      <trkpt lat="42.99276" lon="1.97618">
        <ele>537.6</ele>
        <time>2026-05-29T11:27:02Z</time>
      </trkpt>
      <trkpt lat="42.99272" lon="1.97622">
        <ele>538.1</ele>
        <time>2026-05-29T11:27:07Z</time>
      </trkpt>
      <trkpt lat="42.99268" lon="1.97626">
        <ele>538.6</ele>
        <time>2026-05-29T11:27:12Z</time>
      </trkpt>
      <trkpt lat="42.99263" lon="1.97631">
        <ele>539.2</ele>
        <time>2026-05-29T11:27:17Z</time>
      </trkpt>
      <trkpt lat="42.99258" lon="1.97636">
        <ele>539.7</ele>
        <time>2026-05-29T11:27:22Z</time>
      </trkpt>
      <trkpt lat="42.99253" lon="1.97641">
        <ele>540.2</ele>
        <time>2026-05-29T11:27:27Z</time>
      </trkpt>
      <trkpt lat="42.99249" lon="1.97645">
        <ele>540.6</ele>
        <time>2026-05-29T11:27:32Z</time>
      </trkpt>
      <trkpt lat="42.99244" lon="1.9765">
        <ele>541</ele>
        <time>2026-05-29T11:27:37Z</time>
      </trkpt>
      <trkpt lat="42.9924" lon="1.97655">
        <ele>541.3</ele>
        <time>2026-05-29T11:27:42Z</time>
      </trkpt>
      <trkpt lat="42.99236" lon="1.97659">
        <ele>541.6</ele>
        <time>2026-05-29T11:27:47Z</time>
      </trkpt>
      <trkpt lat="42.99232" lon="1.97664">
        <ele>542</ele>
        <time>2026-05-29T11:27:52Z</time>
      </trkpt>
      <trkpt lat="42.99229" lon="1.97669">
        <ele>542.3</ele>
        <time>2026-05-29T11:27:57Z</time>
      </trkpt>
      <trkpt lat="42.99225" lon="1.97674">
        <ele>542.9</ele>
        <time>2026-05-29T11:28:02Z</time>
      </trkpt>
      <trkpt lat="42.99221" lon="1.97679">
        <ele>543.4</ele>
        <time>2026-05-29T11:28:07Z</time>
      </trkpt>
      <trkpt lat="42.99217" lon="1.97684">
        <ele>544</ele>
        <time>2026-05-29T11:28:12Z</time>
      </trkpt>
      <trkpt lat="42.99213" lon="1.97689">
        <ele>544.5</ele>
        <time>2026-05-29T11:28:17Z</time>
      </trkpt>
      <trkpt lat="42.99208" lon="1.97695">
        <ele>545.2</ele>
        <time>2026-05-29T11:28:22Z</time>
      </trkpt>
      <trkpt lat="42.99203" lon="1.977">
        <ele>545.9</ele>
        <time>2026-05-29T11:28:27Z</time>
      </trkpt>
      <trkpt lat="42.99197" lon="1.97704">
        <ele>546.6</ele>
        <time>2026-05-29T11:28:32Z</time>
      </trkpt>
      <trkpt lat="42.99192" lon="1.97705">
        <ele>547.2</ele>
        <time>2026-05-29T11:28:37Z</time>
      </trkpt>
      <trkpt lat="42.9919" lon="1.97705">
        <ele>547.4</ele>
        <time>2026-05-29T11:28:42Z</time>
      </trkpt>
      <trkpt lat="42.99185" lon="1.97705">
        <ele>547.9</ele>
        <time>2026-05-29T11:28:47Z</time>
      </trkpt>
      <trkpt lat="42.9918" lon="1.97704">
        <ele>548.5</ele>
        <time>2026-05-29T11:28:52Z</time>
      </trkpt>
      <trkpt lat="42.99175" lon="1.97703">
        <ele>549</ele>
        <time>2026-05-29T11:28:57Z</time>
      </trkpt>
      <trkpt lat="42.9917" lon="1.97702">
        <ele>549.5</ele>
        <time>2026-05-29T11:29:02Z</time>
      </trkpt>
      <trkpt lat="42.99166" lon="1.97698">
        <ele>549.8</ele>
        <time>2026-05-29T11:29:07Z</time>
      </trkpt>
      <trkpt lat="42.99161" lon="1.97694">
        <ele>550.1</ele>
        <time>2026-05-29T11:29:12Z</time>
      </trkpt>
      <trkpt lat="42.99156" lon="1.97689">
        <ele>550.3</ele>
        <time>2026-05-29T11:29:17Z</time>
      </trkpt>
      <trkpt lat="42.99155" lon="1.97688">
        <ele>550.4</ele>
        <time>2026-05-29T11:29:22Z</time>
      </trkpt>
      <trkpt lat="42.99155" lon="1.97688">
        <ele>550.4</ele>
        <time>2026-05-29T11:29:27Z</time>
      </trkpt>
      <trkpt lat="42.99153" lon="1.97686">
        <ele>550.4</ele>
        <time>2026-05-29T11:29:32Z</time>
      </trkpt>
      <trkpt lat="42.99148" lon="1.97681">
        <ele>550.6</ele>
        <time>2026-05-29T11:29:37Z</time>
      </trkpt>
      <trkpt lat="42.99144" lon="1.97676">
        <ele>550.7</ele>
        <time>2026-05-29T11:29:42Z</time>
      </trkpt>
      <trkpt lat="42.9914" lon="1.97669">
        <ele>550.7</ele>
        <time>2026-05-29T11:29:47Z</time>
      </trkpt>
      <trkpt lat="42.99138" lon="1.97661">
        <ele>550.4</ele>
        <time>2026-05-29T11:29:52Z</time>
      </trkpt>
      <trkpt lat="42.99135" lon="1.97653">
        <ele>550.1</ele>
        <time>2026-05-29T11:29:57Z</time>
      </trkpt>
      <trkpt lat="42.99133" lon="1.97647">
        <ele>549.9</ele>
        <time>2026-05-29T11:30:02Z</time>
      </trkpt>
      <trkpt lat="42.9913" lon="1.97638">
        <ele>549.5</ele>
        <time>2026-05-29T11:30:07Z</time>
      </trkpt>
      <trkpt lat="42.99127" lon="1.97631">
        <ele>549.1</ele>
        <time>2026-05-29T11:30:12Z</time>
      </trkpt>
      <trkpt lat="42.99125" lon="1.97624">
        <ele>548.7</ele>
        <time>2026-05-29T11:30:17Z</time>
      </trkpt>
      <trkpt lat="42.99123" lon="1.97618">
        <ele>548.3</ele>
        <time>2026-05-29T11:30:22Z</time>
      </trkpt>
      <trkpt lat="42.99122" lon="1.97611">
        <ele>547.8</ele>
        <time>2026-05-29T11:30:27Z</time>
      </trkpt>
      <trkpt lat="42.99119" lon="1.97606">
        <ele>547.5</ele>
        <time>2026-05-29T11:30:32Z</time>
      </trkpt>
      <trkpt lat="42.99115" lon="1.97602">
        <ele>547.2</ele>
        <time>2026-05-29T11:30:37Z</time>
      </trkpt>
      <trkpt lat="42.99111" lon="1.97598">
        <ele>546.8</ele>
        <time>2026-05-29T11:30:42Z</time>
      </trkpt>
      <trkpt lat="42.99105" lon="1.97598">
        <ele>546.8</ele>
        <time>2026-05-29T11:30:47Z</time>
      </trkpt>
      <trkpt lat="42.991" lon="1.97597">
        <ele>546.6</ele>
        <time>2026-05-29T11:30:52Z</time>
      </trkpt>
      <trkpt lat="42.99095" lon="1.97598">
        <ele>546.7</ele>
        <time>2026-05-29T11:30:57Z</time>
      </trkpt>
      <trkpt lat="42.99089" lon="1.976">
        <ele>546.8</ele>
        <time>2026-05-29T11:31:02Z</time>
      </trkpt>
      <trkpt lat="42.99085" lon="1.97601">
        <ele>546.9</ele>
        <time>2026-05-29T11:31:07Z</time>
      </trkpt>
      <trkpt lat="42.99079" lon="1.97604">
        <ele>547.4</ele>
        <time>2026-05-29T11:31:12Z</time>
      </trkpt>
      <trkpt lat="42.99074" lon="1.97607">
        <ele>547.8</ele>
        <time>2026-05-29T11:31:17Z</time>
      </trkpt>
      <trkpt lat="42.99066" lon="1.97609">
        <ele>548.3</ele>
        <time>2026-05-29T11:31:22Z</time>
      </trkpt>
      <trkpt lat="42.9906" lon="1.97613">
        <ele>549</ele>
        <time>2026-05-29T11:31:27Z</time>
      </trkpt>
      <trkpt lat="42.99056" lon="1.97615">
        <ele>549.3</ele>
        <time>2026-05-29T11:31:32Z</time>
      </trkpt>
      <trkpt lat="42.9905" lon="1.97618">
        <ele>549.9</ele>
        <time>2026-05-29T11:31:37Z</time>
      </trkpt>
      <trkpt lat="42.99045" lon="1.9762">
        <ele>550.3</ele>
        <time>2026-05-29T11:31:42Z</time>
      </trkpt>
      <trkpt lat="42.99038" lon="1.97621">
        <ele>550.6</ele>
        <time>2026-05-29T11:31:47Z</time>
      </trkpt>
      <trkpt lat="42.99032" lon="1.97622">
        <ele>551</ele>
        <time>2026-05-29T11:31:52Z</time>
      </trkpt>
      <trkpt lat="42.99026" lon="1.97619">
        <ele>550.8</ele>
        <time>2026-05-29T11:31:57Z</time>
      </trkpt>
      <trkpt lat="42.99021" lon="1.9762">
        <ele>551.1</ele>
        <time>2026-05-29T11:32:02Z</time>
      </trkpt>
      <trkpt lat="42.99016" lon="1.97619">
        <ele>551.2</ele>
        <time>2026-05-29T11:32:07Z</time>
      </trkpt>
      <trkpt lat="42.99011" lon="1.97617">
        <ele>551.1</ele>
        <time>2026-05-29T11:32:12Z</time>
      </trkpt>
      <trkpt lat="42.99005" lon="1.97614">
        <ele>550.9</ele>
        <time>2026-05-29T11:32:17Z</time>
      </trkpt>
      <trkpt lat="42.98998" lon="1.97612">
        <ele>550.7</ele>
        <time>2026-05-29T11:32:22Z</time>
      </trkpt>
      <trkpt lat="42.98993" lon="1.97613">
        <ele>550.8</ele>
        <time>2026-05-29T11:32:27Z</time>
      </trkpt>
      <trkpt lat="42.98988" lon="1.97613">
        <ele>550.7</ele>
        <time>2026-05-29T11:32:32Z</time>
      </trkpt>
      <trkpt lat="42.98982" lon="1.97611">
        <ele>550.3</ele>
        <time>2026-05-29T11:32:37Z</time>
      </trkpt>
      <trkpt lat="42.98976" lon="1.9761">
        <ele>550</ele>
        <time>2026-05-29T11:32:42Z</time>
      </trkpt>
      <trkpt lat="42.98971" lon="1.97608">
        <ele>549.7</ele>
        <time>2026-05-29T11:32:47Z</time>
      </trkpt>
      <trkpt lat="42.98965" lon="1.97604">
        <ele>549.1</ele>
        <time>2026-05-29T11:32:52Z</time>
      </trkpt>
      <trkpt lat="42.98959" lon="1.97599">
        <ele>548.4</ele>
        <time>2026-05-29T11:32:57Z</time>
      </trkpt>
      <trkpt lat="42.98953" lon="1.97595">
        <ele>547.8</ele>
        <time>2026-05-29T11:33:02Z</time>
      </trkpt>
      <trkpt lat="42.98946" lon="1.97591">
        <ele>547.2</ele>
        <time>2026-05-29T11:33:07Z</time>
      </trkpt>
      <trkpt lat="42.9894" lon="1.97588">
        <ele>546.8</ele>
        <time>2026-05-29T11:33:12Z</time>
      </trkpt>
      <trkpt lat="42.98933" lon="1.97586">
        <ele>546.5</ele>
        <time>2026-05-29T11:33:17Z</time>
      </trkpt>
      <trkpt lat="42.98927" lon="1.97582">
        <ele>545.9</ele>
        <time>2026-05-29T11:33:22Z</time>
      </trkpt>
      <trkpt lat="42.98921" lon="1.9758">
        <ele>545.6</ele>
        <time>2026-05-29T11:33:27Z</time>
      </trkpt>
      <trkpt lat="42.98915" lon="1.9758">
        <ele>545.6</ele>
        <time>2026-05-29T11:33:32Z</time>
      </trkpt>
      <trkpt lat="42.9891" lon="1.97582">
        <ele>545.8</ele>
        <time>2026-05-29T11:33:37Z</time>
      </trkpt>
      <trkpt lat="42.98907" lon="1.9758">
        <ele>545.6</ele>
        <time>2026-05-29T11:33:42Z</time>
      </trkpt>
      <trkpt lat="42.98905" lon="1.9758">
        <ele>545.5</ele>
        <time>2026-05-29T11:33:47Z</time>
      </trkpt>
      <trkpt lat="42.98899" lon="1.97578">
        <ele>545.3</ele>
        <time>2026-05-29T11:33:52Z</time>
      </trkpt>
      <trkpt lat="42.98893" lon="1.97579">
        <ele>545.4</ele>
        <time>2026-05-29T11:33:57Z</time>
      </trkpt>
      <trkpt lat="42.98888" lon="1.97581">
        <ele>545.7</ele>
        <time>2026-05-29T11:34:02Z</time>
      </trkpt>
      <trkpt lat="42.98883" lon="1.97582">
        <ele>545.8</ele>
        <time>2026-05-29T11:34:07Z</time>
      </trkpt>
      <trkpt lat="42.98878" lon="1.97583">
        <ele>546</ele>
        <time>2026-05-29T11:34:12Z</time>
      </trkpt>
      <trkpt lat="42.98874" lon="1.97582">
        <ele>545.8</ele>
        <time>2026-05-29T11:34:17Z</time>
      </trkpt>
      <trkpt lat="42.98867" lon="1.9758">
        <ele>545.5</ele>
        <time>2026-05-29T11:34:22Z</time>
      </trkpt>
      <trkpt lat="42.98861" lon="1.97579">
        <ele>545.4</ele>
        <time>2026-05-29T11:34:27Z</time>
      </trkpt>
      <trkpt lat="42.98857" lon="1.97581">
        <ele>545.7</ele>
        <time>2026-05-29T11:34:32Z</time>
      </trkpt>
      <trkpt lat="42.98851" lon="1.97583">
        <ele>545.9</ele>
        <time>2026-05-29T11:34:37Z</time>
      </trkpt>
      <trkpt lat="42.98846" lon="1.97583">
        <ele>545.9</ele>
        <time>2026-05-29T11:34:42Z</time>
      </trkpt>
      <trkpt lat="42.98841" lon="1.97581">
        <ele>545.6</ele>
        <time>2026-05-29T11:34:47Z</time>
      </trkpt>
      <trkpt lat="42.98835" lon="1.9758">
        <ele>545.5</ele>
        <time>2026-05-29T11:34:52Z</time>
      </trkpt>
      <trkpt lat="42.98829" lon="1.97578">
        <ele>545</ele>
        <time>2026-05-29T11:34:57Z</time>
      </trkpt>
      <trkpt lat="42.98823" lon="1.97575">
        <ele>544.3</ele>
        <time>2026-05-29T11:35:02Z</time>
      </trkpt>
      <trkpt lat="42.98818" lon="1.97572">
        <ele>543.7</ele>
        <time>2026-05-29T11:35:07Z</time>
      </trkpt>
      <trkpt lat="42.98813" lon="1.97571">
        <ele>543.4</ele>
        <time>2026-05-29T11:35:12Z</time>
      </trkpt>
      <trkpt lat="42.98808" lon="1.9757">
        <ele>543.1</ele>
        <time>2026-05-29T11:35:17Z</time>
      </trkpt>
      <trkpt lat="42.98803" lon="1.97568">
        <ele>542.8</ele>
        <time>2026-05-29T11:35:22Z</time>
      </trkpt>
      <trkpt lat="42.98797" lon="1.97568">
        <ele>542.6</ele>
        <time>2026-05-29T11:35:27Z</time>
      </trkpt>
      <trkpt lat="42.98791" lon="1.97568">
        <ele>542.4</ele>
        <time>2026-05-29T11:35:32Z</time>
      </trkpt>
      <trkpt lat="42.98785" lon="1.9757">
        <ele>542.4</ele>
        <time>2026-05-29T11:35:37Z</time>
      </trkpt>
      <trkpt lat="42.98778" lon="1.97572">
        <ele>542.4</ele>
        <time>2026-05-29T11:35:42Z</time>
      </trkpt>
      <trkpt lat="42.98772" lon="1.97572">
        <ele>542.2</ele>
        <time>2026-05-29T11:35:47Z</time>
      </trkpt>
      <trkpt lat="42.98765" lon="1.97575">
        <ele>542.2</ele>
        <time>2026-05-29T11:35:52Z</time>
      </trkpt>
      <trkpt lat="42.98759" lon="1.97577">
        <ele>542.1</ele>
        <time>2026-05-29T11:35:57Z</time>
      </trkpt>
      <trkpt lat="42.98752" lon="1.97579">
        <ele>541.9</ele>
        <time>2026-05-29T11:36:02Z</time>
      </trkpt>
      <trkpt lat="42.98747" lon="1.9758">
        <ele>541.8</ele>
        <time>2026-05-29T11:36:07Z</time>
      </trkpt>
      <trkpt lat="42.9874" lon="1.97582">
        <ele>541.8</ele>
        <time>2026-05-29T11:36:12Z</time>
      </trkpt>
      <trkpt lat="42.98732" lon="1.97586">
        <ele>542.1</ele>
        <time>2026-05-29T11:36:17Z</time>
      </trkpt>
      <trkpt lat="42.98724" lon="1.97586">
        <ele>542</ele>
        <time>2026-05-29T11:36:22Z</time>
      </trkpt>
      <trkpt lat="42.98718" lon="1.97587">
        <ele>542</ele>
        <time>2026-05-29T11:36:27Z</time>
      </trkpt>
      <trkpt lat="42.98712" lon="1.97588">
        <ele>542</ele>
        <time>2026-05-29T11:36:32Z</time>
      </trkpt>
      <trkpt lat="42.98705" lon="1.97589">
        <ele>542</ele>
        <time>2026-05-29T11:36:37Z</time>
      </trkpt>
      <trkpt lat="42.98699" lon="1.97591">
        <ele>542</ele>
        <time>2026-05-29T11:36:42Z</time>
      </trkpt>
      <trkpt lat="42.98694" lon="1.97592">
        <ele>542</ele>
        <time>2026-05-29T11:36:47Z</time>
      </trkpt>
      <trkpt lat="42.98689" lon="1.97593">
        <ele>542</ele>
        <time>2026-05-29T11:36:52Z</time>
      </trkpt>
      <trkpt lat="42.98683" lon="1.97596">
        <ele>542.1</ele>
        <time>2026-05-29T11:36:57Z</time>
      </trkpt>
      <trkpt lat="42.98677" lon="1.97599">
        <ele>542.2</ele>
        <time>2026-05-29T11:37:02Z</time>
      </trkpt>
      <trkpt lat="42.98671" lon="1.97601">
        <ele>542.2</ele>
        <time>2026-05-29T11:37:07Z</time>
      </trkpt>
      <trkpt lat="42.98665" lon="1.97605">
        <ele>542.2</ele>
        <time>2026-05-29T11:37:12Z</time>
      </trkpt>
      <trkpt lat="42.98657" lon="1.9761">
        <ele>541.8</ele>
        <time>2026-05-29T11:37:17Z</time>
      </trkpt>
      <trkpt lat="42.98649" lon="1.97616">
        <ele>541.3</ele>
        <time>2026-05-29T11:37:22Z</time>
      </trkpt>
      <trkpt lat="42.98643" lon="1.97621">
        <ele>540.9</ele>
        <time>2026-05-29T11:37:27Z</time>
      </trkpt>
      <trkpt lat="42.98637" lon="1.97624">
        <ele>540.3</ele>
        <time>2026-05-29T11:37:32Z</time>
      </trkpt>
      <trkpt lat="42.98631" lon="1.97627">
        <ele>539.6</ele>
        <time>2026-05-29T11:37:37Z</time>
      </trkpt>
      <trkpt lat="42.98624" lon="1.97631">
        <ele>538.8</ele>
        <time>2026-05-29T11:37:42Z</time>
      </trkpt>
      <trkpt lat="42.98616" lon="1.97636">
        <ele>537.7</ele>
        <time>2026-05-29T11:37:47Z</time>
      </trkpt>
      <trkpt lat="42.9861" lon="1.97641">
        <ele>536.8</ele>
        <time>2026-05-29T11:37:52Z</time>
      </trkpt>
      <trkpt lat="42.98603" lon="1.97644">
        <ele>535.7</ele>
        <time>2026-05-29T11:37:57Z</time>
      </trkpt>
      <trkpt lat="42.98596" lon="1.97645">
        <ele>534.6</ele>
        <time>2026-05-29T11:38:02Z</time>
      </trkpt>
      <trkpt lat="42.98591" lon="1.97647">
        <ele>533.8</ele>
        <time>2026-05-29T11:38:07Z</time>
      </trkpt>
      <trkpt lat="42.98586" lon="1.97649">
        <ele>532.9</ele>
        <time>2026-05-29T11:38:12Z</time>
      </trkpt>
      <trkpt lat="42.98581" lon="1.9765">
        <ele>532</ele>
        <time>2026-05-29T11:38:17Z</time>
      </trkpt>
      <trkpt lat="42.98575" lon="1.97653">
        <ele>530.8</ele>
        <time>2026-05-29T11:38:22Z</time>
      </trkpt>
      <trkpt lat="42.98569" lon="1.97656">
        <ele>529.5</ele>
        <time>2026-05-29T11:38:27Z</time>
      </trkpt>
      <trkpt lat="42.98562" lon="1.97657">
        <ele>528.2</ele>
        <time>2026-05-29T11:38:32Z</time>
      </trkpt>
      <trkpt lat="42.98556" lon="1.97658">
        <ele>527</ele>
        <time>2026-05-29T11:38:37Z</time>
      </trkpt>
      <trkpt lat="42.98552" lon="1.9766">
        <ele>526.1</ele>
        <time>2026-05-29T11:38:42Z</time>
      </trkpt>
      <trkpt lat="42.98549" lon="1.97663">
        <ele>525.3</ele>
        <time>2026-05-29T11:38:47Z</time>
      </trkpt>
      <trkpt lat="42.98544" lon="1.97665">
        <ele>524.1</ele>
        <time>2026-05-29T11:38:52Z</time>
      </trkpt>
      <trkpt lat="42.98537" lon="1.97667">
        <ele>522.6</ele>
        <time>2026-05-29T11:38:57Z</time>
      </trkpt>
      <trkpt lat="42.98531" lon="1.97668">
        <ele>521.4</ele>
        <time>2026-05-29T11:39:02Z</time>
      </trkpt>
      <trkpt lat="42.98526" lon="1.97666">
        <ele>520.8</ele>
        <time>2026-05-29T11:39:07Z</time>
      </trkpt>
      <trkpt lat="42.98523" lon="1.97662">
        <ele>520.8</ele>
        <time>2026-05-29T11:39:12Z</time>
      </trkpt>
      <trkpt lat="42.9852" lon="1.97659">
        <ele>520.7</ele>
        <time>2026-05-29T11:39:17Z</time>
      </trkpt>
      <trkpt lat="42.98517" lon="1.97657">
        <ele>520.5</ele>
        <time>2026-05-29T11:39:22Z</time>
      </trkpt>
      <trkpt lat="42.98517" lon="1.97657">
        <ele>520.5</ele>
        <time>2026-05-29T11:39:27Z</time>
      </trkpt>
      <trkpt lat="42.98517" lon="1.97657">
        <ele>520.5</ele>
        <time>2026-05-29T11:39:32Z</time>
      </trkpt>
      <trkpt lat="42.98517" lon="1.97657">
        <ele>520.5</ele>
        <time>2026-05-29T11:39:37Z</time>
      </trkpt>
      <trkpt lat="42.98517" lon="1.97653">
        <ele>521.1</ele>
        <time>2026-05-29T11:39:42Z</time>
      </trkpt>
      <trkpt lat="42.98512" lon="1.97649">
        <ele>520.9</ele>
        <time>2026-05-29T11:39:47Z</time>
      </trkpt>
      <trkpt lat="42.9851" lon="1.97644">
        <ele>521.4</ele>
        <time>2026-05-29T11:39:52Z</time>
      </trkpt>
      <trkpt lat="42.98508" lon="1.97641">
        <ele>521.5</ele>
        <time>2026-05-29T11:39:57Z</time>
      </trkpt>
      <trkpt lat="42.98505" lon="1.97639">
        <ele>521.4</ele>
        <time>2026-05-29T11:40:02Z</time>
      </trkpt>
      <trkpt lat="42.98504" lon="1.97635">
        <ele>521.9</ele>
        <time>2026-05-29T11:40:07Z</time>
      </trkpt>
      <trkpt lat="42.98501" lon="1.97633">
        <ele>521.8</ele>
        <time>2026-05-29T11:40:12Z</time>
      </trkpt>
      <trkpt lat="42.98501" lon="1.97633">
        <ele>521.8</ele>
        <time>2026-05-29T11:40:17Z</time>
      </trkpt>
      <trkpt lat="42.98501" lon="1.97633">
        <ele>521.8</ele>
        <time>2026-05-29T11:40:22Z</time>
      </trkpt>
      <trkpt lat="42.98502" lon="1.97629">
        <ele>522.6</ele>
        <time>2026-05-29T11:40:27Z</time>
      </trkpt>
      <trkpt lat="42.98499" lon="1.97623">
        <ele>523.3</ele>
        <time>2026-05-29T11:40:32Z</time>
      </trkpt>
      <trkpt lat="42.98497" lon="1.97617">
        <ele>524.1</ele>
        <time>2026-05-29T11:40:37Z</time>
      </trkpt>
      <trkpt lat="42.98493" lon="1.97614">
        <ele>524.3</ele>
        <time>2026-05-29T11:40:42Z</time>
      </trkpt>
      <trkpt lat="42.98489" lon="1.9761">
        <ele>524.7</ele>
        <time>2026-05-29T11:40:47Z</time>
      </trkpt>
      <trkpt lat="42.98485" lon="1.97607">
        <ele>524.9</ele>
        <time>2026-05-29T11:40:52Z</time>
      </trkpt>
      <trkpt lat="42.98483" lon="1.97603">
        <ele>525.4</ele>
        <time>2026-05-29T11:40:57Z</time>
      </trkpt>
      <trkpt lat="42.98483" lon="1.97603">
        <ele>525.4</ele>
        <time>2026-05-29T11:41:02Z</time>
      </trkpt>
      <trkpt lat="42.98483" lon="1.97603">
        <ele>525.4</ele>
        <time>2026-05-29T11:41:07Z</time>
      </trkpt>
      <trkpt lat="42.98483" lon="1.97603">
        <ele>525.4</ele>
        <time>2026-05-29T11:41:12Z</time>
      </trkpt>
      <trkpt lat="42.98475" lon="1.97601">
        <ele>525.1</ele>
        <time>2026-05-29T11:41:17Z</time>
      </trkpt>
      <trkpt lat="42.98471" lon="1.97596">
        <ele>525.5</ele>
        <time>2026-05-29T11:41:22Z</time>
      </trkpt>
      <trkpt lat="42.98465" lon="1.97592">
        <ele>525.7</ele>
        <time>2026-05-29T11:41:27Z</time>
      </trkpt>
      <trkpt lat="42.9846" lon="1.9759">
        <ele>525.6</ele>
        <time>2026-05-29T11:41:32Z</time>
      </trkpt>
      <trkpt lat="42.98453" lon="1.97588">
        <ele>525.3</ele>
        <time>2026-05-29T11:41:37Z</time>
      </trkpt>
      <trkpt lat="42.98447" lon="1.97588">
        <ele>524.8</ele>
        <time>2026-05-29T11:41:42Z</time>
      </trkpt>
      <trkpt lat="42.98443" lon="1.97588">
        <ele>524.5</ele>
        <time>2026-05-29T11:41:47Z</time>
      </trkpt>
      <trkpt lat="42.98438" lon="1.97587">
        <ele>524.2</ele>
        <time>2026-05-29T11:41:52Z</time>
      </trkpt>
      <trkpt lat="42.98434" lon="1.97585">
        <ele>524.2</ele>
        <time>2026-05-29T11:41:57Z</time>
      </trkpt>
      <trkpt lat="42.98426" lon="1.97581">
        <ele>523.9</ele>
        <time>2026-05-29T11:42:02Z</time>
      </trkpt>
      <trkpt lat="42.98417" lon="1.97575">
        <ele>523.3</ele>
        <time>2026-05-29T11:42:07Z</time>
      </trkpt>
      <trkpt lat="42.9841" lon="1.9757">
        <ele>521.5</ele>
        <time>2026-05-29T11:42:12Z</time>
      </trkpt>
      <trkpt lat="42.98405" lon="1.97567">
        <ele>520</ele>
        <time>2026-05-29T11:42:17Z</time>
      </trkpt>
      <trkpt lat="42.98398" lon="1.97565">
        <ele>518</ele>
        <time>2026-05-29T11:42:22Z</time>
      </trkpt>
      <trkpt lat="42.98392" lon="1.97565">
        <ele>516.1</ele>
        <time>2026-05-29T11:42:27Z</time>
      </trkpt>
      <trkpt lat="42.98387" lon="1.97565">
        <ele>514.6</ele>
        <time>2026-05-29T11:42:32Z</time>
      </trkpt>
      <trkpt lat="42.98382" lon="1.97566">
        <ele>513.1</ele>
        <time>2026-05-29T11:42:37Z</time>
      </trkpt>
      <trkpt lat="42.98376" lon="1.97568">
        <ele>511.2</ele>
        <time>2026-05-29T11:42:42Z</time>
      </trkpt>
      <trkpt lat="42.98371" lon="1.97571">
        <ele>509.6</ele>
        <time>2026-05-29T11:42:47Z</time>
      </trkpt>
      <trkpt lat="42.98366" lon="1.97574">
        <ele>508</ele>
        <time>2026-05-29T11:42:52Z</time>
      </trkpt>
      <trkpt lat="42.9836" lon="1.97578">
        <ele>506.1</ele>
        <time>2026-05-29T11:42:57Z</time>
      </trkpt>
      <trkpt lat="42.98354" lon="1.97583">
        <ele>504.2</ele>
        <time>2026-05-29T11:43:02Z</time>
      </trkpt>
      <trkpt lat="42.98349" lon="1.97587">
        <ele>502.6</ele>
        <time>2026-05-29T11:43:07Z</time>
      </trkpt>
      <trkpt lat="42.98345" lon="1.97589">
        <ele>501.3</ele>
        <time>2026-05-29T11:43:12Z</time>
      </trkpt>
      <trkpt lat="42.98341" lon="1.97593">
        <ele>500.1</ele>
        <time>2026-05-29T11:43:17Z</time>
      </trkpt>
      <trkpt lat="42.98336" lon="1.97596">
        <ele>498.6</ele>
        <time>2026-05-29T11:43:22Z</time>
      </trkpt>
      <trkpt lat="42.98331" lon="1.976">
        <ele>497.1</ele>
        <time>2026-05-29T11:43:27Z</time>
      </trkpt>
      <trkpt lat="42.98326" lon="1.97603">
        <ele>495.5</ele>
        <time>2026-05-29T11:43:32Z</time>
      </trkpt>
      <trkpt lat="42.98322" lon="1.97606">
        <ele>494.3</ele>
        <time>2026-05-29T11:43:37Z</time>
      </trkpt>
      <trkpt lat="42.9832" lon="1.97607">
        <ele>493.7</ele>
        <time>2026-05-29T11:43:42Z</time>
      </trkpt>
      <trkpt lat="42.9832" lon="1.97606">
        <ele>493.7</ele>
        <time>2026-05-29T11:43:47Z</time>
      </trkpt>
      <trkpt lat="42.9832" lon="1.97606">
        <ele>493.7</ele>
        <time>2026-05-29T11:43:52Z</time>
      </trkpt>
      <trkpt lat="42.98311" lon="1.97611">
        <ele>491.1</ele>
        <time>2026-05-29T11:43:57Z</time>
      </trkpt>
      <trkpt lat="42.98307" lon="1.97615">
        <ele>489.9</ele>
        <time>2026-05-29T11:44:02Z</time>
      </trkpt>
      <trkpt lat="42.98301" lon="1.9762">
        <ele>488.3</ele>
        <time>2026-05-29T11:44:07Z</time>
      </trkpt>
      <trkpt lat="42.98296" lon="1.97622">
        <ele>486.9</ele>
        <time>2026-05-29T11:44:12Z</time>
      </trkpt>
      <trkpt lat="42.9829" lon="1.97628">
        <ele>485.4</ele>
        <time>2026-05-29T11:44:17Z</time>
      </trkpt>
      <trkpt lat="42.98285" lon="1.97634">
        <ele>484.2</ele>
        <time>2026-05-29T11:44:22Z</time>
      </trkpt>
      <trkpt lat="42.9828" lon="1.9764">
        <ele>483.1</ele>
        <time>2026-05-29T11:44:27Z</time>
      </trkpt>
      <trkpt lat="42.98275" lon="1.97647">
        <ele>482.1</ele>
        <time>2026-05-29T11:44:32Z</time>
      </trkpt>
      <trkpt lat="42.98271" lon="1.97654">
        <ele>481.4</ele>
        <time>2026-05-29T11:44:37Z</time>
      </trkpt>
      <trkpt lat="42.98268" lon="1.9766">
        <ele>481</ele>
        <time>2026-05-29T11:44:42Z</time>
      </trkpt>
      <trkpt lat="42.98264" lon="1.97665">
        <ele>480.3</ele>
        <time>2026-05-29T11:44:47Z</time>
      </trkpt>
      <trkpt lat="42.98259" lon="1.9767">
        <ele>479.3</ele>
        <time>2026-05-29T11:44:52Z</time>
      </trkpt>
      <trkpt lat="42.98255" lon="1.97677">
        <ele>478.8</ele>
        <time>2026-05-29T11:44:57Z</time>
      </trkpt>
      <trkpt lat="42.9825" lon="1.97683">
        <ele>478</ele>
        <time>2026-05-29T11:45:02Z</time>
      </trkpt>
      <trkpt lat="42.98246" lon="1.97691">
        <ele>477.8</ele>
        <time>2026-05-29T11:45:07Z</time>
      </trkpt>
      <trkpt lat="42.98244" lon="1.97696">
        <ele>477.7</ele>
        <time>2026-05-29T11:45:12Z</time>
      </trkpt>
      <trkpt lat="42.98242" lon="1.97704">
        <ele>477.9</ele>
        <time>2026-05-29T11:45:17Z</time>
      </trkpt>
      <trkpt lat="42.98239" lon="1.97711">
        <ele>477.9</ele>
        <time>2026-05-29T11:45:22Z</time>
      </trkpt>
      <trkpt lat="42.98237" lon="1.97718">
        <ele>478.1</ele>
        <time>2026-05-29T11:45:27Z</time>
      </trkpt>
      <trkpt lat="42.98234" lon="1.97724">
        <ele>478</ele>
        <time>2026-05-29T11:45:32Z</time>
      </trkpt>
      <trkpt lat="42.98232" lon="1.97733">
        <ele>478.4</ele>
        <time>2026-05-29T11:45:37Z</time>
      </trkpt>
      <trkpt lat="42.98228" lon="1.97743">
        <ele>478.6</ele>
        <time>2026-05-29T11:45:42Z</time>
      </trkpt>
      <trkpt lat="42.98226" lon="1.97753">
        <ele>479.1</ele>
        <time>2026-05-29T11:45:47Z</time>
      </trkpt>
      <trkpt lat="42.98223" lon="1.97761">
        <ele>479.6</ele>
        <time>2026-05-29T11:45:52Z</time>
      </trkpt>
      <trkpt lat="42.9822" lon="1.9777">
        <ele>480.2</ele>
        <time>2026-05-29T11:45:57Z</time>
      </trkpt>
      <trkpt lat="42.98217" lon="1.97777">
        <ele>480.7</ele>
        <time>2026-05-29T11:46:02Z</time>
      </trkpt>
      <trkpt lat="42.98213" lon="1.97784">
        <ele>481.1</ele>
        <time>2026-05-29T11:46:07Z</time>
      </trkpt>
      <trkpt lat="42.9821" lon="1.97791">
        <ele>481.6</ele>
        <time>2026-05-29T11:46:12Z</time>
      </trkpt>
      <trkpt lat="42.98207" lon="1.97797">
        <ele>482</ele>
        <time>2026-05-29T11:46:17Z</time>
      </trkpt>
      <trkpt lat="42.98203" lon="1.97802">
        <ele>482.3</ele>
        <time>2026-05-29T11:46:22Z</time>
      </trkpt>
      <trkpt lat="42.98199" lon="1.97808">
        <ele>482.7</ele>
        <time>2026-05-29T11:46:27Z</time>
      </trkpt>
      <trkpt lat="42.98195" lon="1.97808">
        <ele>482.4</ele>
        <time>2026-05-29T11:46:32Z</time>
      </trkpt>
      <trkpt lat="42.98192" lon="1.97808">
        <ele>482.1</ele>
        <time>2026-05-29T11:46:37Z</time>
      </trkpt>
      <trkpt lat="42.98193" lon="1.97807">
        <ele>482.1</ele>
        <time>2026-05-29T11:46:42Z</time>
      </trkpt>
      <trkpt lat="42.98194" lon="1.978">
        <ele>481.2</ele>
        <time>2026-05-29T11:46:47Z</time>
      </trkpt>
      <trkpt lat="42.98193" lon="1.97793">
        <ele>480.2</ele>
        <time>2026-05-29T11:46:52Z</time>
      </trkpt>
      <trkpt lat="42.98193" lon="1.97786">
        <ele>479.3</ele>
        <time>2026-05-29T11:46:57Z</time>
      </trkpt>
      <trkpt lat="42.98192" lon="1.97779">
        <ele>478.2</ele>
        <time>2026-05-29T11:47:02Z</time>
      </trkpt>
      <trkpt lat="42.98191" lon="1.97772">
        <ele>477.2</ele>
        <time>2026-05-29T11:47:07Z</time>
      </trkpt>
      <trkpt lat="42.98189" lon="1.97765">
        <ele>476</ele>
        <time>2026-05-29T11:47:12Z</time>
      </trkpt>
      <trkpt lat="42.98187" lon="1.97753">
        <ele>474.1</ele>
        <time>2026-05-29T11:47:17Z</time>
      </trkpt>
      <trkpt lat="42.98185" lon="1.97745">
        <ele>472.9</ele>
        <time>2026-05-29T11:47:22Z</time>
      </trkpt>
      <trkpt lat="42.98183" lon="1.97737">
        <ele>471.7</ele>
        <time>2026-05-29T11:47:27Z</time>
      </trkpt>
      <trkpt lat="42.98181" lon="1.97729">
        <ele>470.6</ele>
        <time>2026-05-29T11:47:32Z</time>
      </trkpt>
      <trkpt lat="42.9818" lon="1.97721">
        <ele>469.6</ele>
        <time>2026-05-29T11:47:37Z</time>
      </trkpt>
      <trkpt lat="42.9818" lon="1.97716">
        <ele>469</ele>
        <time>2026-05-29T11:47:42Z</time>
      </trkpt>
      <trkpt lat="42.98178" lon="1.9771">
        <ele>468</ele>
        <time>2026-05-29T11:47:47Z</time>
      </trkpt>
      <trkpt lat="42.98178" lon="1.97699">
        <ele>466.8</ele>
        <time>2026-05-29T11:47:52Z</time>
      </trkpt>
      <trkpt lat="42.98179" lon="1.97691">
        <ele>466.1</ele>
        <time>2026-05-29T11:47:57Z</time>
      </trkpt>
      <trkpt lat="42.98181" lon="1.97682">
        <ele>465.4</ele>
        <time>2026-05-29T11:48:02Z</time>
      </trkpt>
      <trkpt lat="42.98182" lon="1.97673">
        <ele>464.6</ele>
        <time>2026-05-29T11:48:07Z</time>
      </trkpt>
      <trkpt lat="42.98183" lon="1.97666">
        <ele>464.1</ele>
        <time>2026-05-29T11:48:12Z</time>
      </trkpt>
      <trkpt lat="42.98186" lon="1.97659">
        <ele>463.9</ele>
        <time>2026-05-29T11:48:17Z</time>
      </trkpt>
      <trkpt lat="42.98188" lon="1.97652">
        <ele>463.5</ele>
        <time>2026-05-29T11:48:22Z</time>
      </trkpt>
      <trkpt lat="42.9819" lon="1.97644">
        <ele>463.1</ele>
        <time>2026-05-29T11:48:27Z</time>
      </trkpt>
      <trkpt lat="42.98191" lon="1.97636">
        <ele>462.4</ele>
        <time>2026-05-29T11:48:32Z</time>
      </trkpt>
      <trkpt lat="42.98192" lon="1.97629">
        <ele>461.9</ele>
        <time>2026-05-29T11:48:37Z</time>
      </trkpt>
      <trkpt lat="42.98193" lon="1.97622">
        <ele>461.4</ele>
        <time>2026-05-29T11:48:42Z</time>
      </trkpt>
      <trkpt lat="42.98194" lon="1.97612">
        <ele>460.5</ele>
        <time>2026-05-29T11:48:47Z</time>
      </trkpt>
      <trkpt lat="42.98193" lon="1.97602">
        <ele>459.3</ele>
        <time>2026-05-29T11:48:52Z</time>
      </trkpt>
      <trkpt lat="42.98192" lon="1.97593">
        <ele>458.1</ele>
        <time>2026-05-29T11:48:57Z</time>
      </trkpt>
      <trkpt lat="42.98192" lon="1.97586">
        <ele>457.4</ele>
        <time>2026-05-29T11:49:02Z</time>
      </trkpt>
      <trkpt lat="42.9819" lon="1.97578">
        <ele>456.6</ele>
        <time>2026-05-29T11:49:07Z</time>
      </trkpt>
      <trkpt lat="42.98191" lon="1.97574">
        <ele>456.9</ele>
        <time>2026-05-29T11:49:12Z</time>
      </trkpt>
      <trkpt lat="42.9819" lon="1.97571">
        <ele>456.6</ele>
        <time>2026-05-29T11:49:17Z</time>
      </trkpt>
      <trkpt lat="42.98188" lon="1.97569">
        <ele>456.2</ele>
        <time>2026-05-29T11:49:22Z</time>
      </trkpt>
      <trkpt lat="42.98188" lon="1.97569">
        <ele>456.2</ele>
        <time>2026-05-29T11:49:27Z</time>
      </trkpt>
      <trkpt lat="42.98188" lon="1.97569">
        <ele>456.2</ele>
        <time>2026-05-29T11:49:32Z</time>
      </trkpt>
      <trkpt lat="42.98188" lon="1.97569">
        <ele>456.2</ele>
        <time>2026-05-29T11:49:37Z</time>
      </trkpt>
      <trkpt lat="42.98188" lon="1.97569">
        <ele>456.2</ele>
        <time>2026-05-29T11:49:42Z</time>
      </trkpt>
      <trkpt lat="42.98188" lon="1.97569">
        <ele>456.2</ele>
        <time>2026-05-29T11:49:47Z</time>
      </trkpt>
      <trkpt lat="42.98188" lon="1.97569">
        <ele>456.2</ele>
        <time>2026-05-29T11:49:52Z</time>
      </trkpt>
      <trkpt lat="42.98188" lon="1.97569">
        <ele>456.2</ele>
        <time>2026-05-29T11:49:57Z</time>
      </trkpt>
      <trkpt lat="42.98188" lon="1.97569">
        <ele>456.2</ele>
        <time>2026-05-29T11:50:02Z</time>
      </trkpt>
      <trkpt lat="42.98188" lon="1.97569">
        <ele>456.2</ele>
        <time>2026-05-29T11:50:07Z</time>
      </trkpt>
      <trkpt lat="42.98189" lon="1.97562">
        <ele>456.4</ele>
        <time>2026-05-29T11:50:12Z</time>
      </trkpt>
      <trkpt lat="42.98188" lon="1.97556">
        <ele>456.2</ele>
        <time>2026-05-29T11:50:17Z</time>
      </trkpt>
      <trkpt lat="42.98188" lon="1.97549">
        <ele>456.2</ele>
        <time>2026-05-29T11:50:22Z</time>
      </trkpt>
      <trkpt lat="42.98186" lon="1.9754">
        <ele>455.8</ele>
        <time>2026-05-29T11:50:27Z</time>
      </trkpt>
      <trkpt lat="42.98184" lon="1.97533">
        <ele>455.3</ele>
        <time>2026-05-29T11:50:32Z</time>
      </trkpt>
      <trkpt lat="42.98185" lon="1.97524">
        <ele>455.6</ele>
        <time>2026-05-29T11:50:37Z</time>
      </trkpt>
      <trkpt lat="42.98185" lon="1.97518">
        <ele>455.6</ele>
        <time>2026-05-29T11:50:42Z</time>
      </trkpt>
      <trkpt lat="42.98186" lon="1.97509">
        <ele>455.8</ele>
        <time>2026-05-29T11:50:47Z</time>
      </trkpt>
      <trkpt lat="42.98186" lon="1.975">
        <ele>455.9</ele>
        <time>2026-05-29T11:50:52Z</time>
      </trkpt>
      <trkpt lat="42.98185" lon="1.9749">
        <ele>455.4</ele>
        <time>2026-05-29T11:50:57Z</time>
      </trkpt>
      <trkpt lat="42.98183" lon="1.97483">
        <ele>454.8</ele>
        <time>2026-05-29T11:51:02Z</time>
      </trkpt>
      <trkpt lat="42.98182" lon="1.97477">
        <ele>454.5</ele>
        <time>2026-05-29T11:51:07Z</time>
      </trkpt>
      <trkpt lat="42.9818" lon="1.97468">
        <ele>453.9</ele>
        <time>2026-05-29T11:51:12Z</time>
      </trkpt>
      <trkpt lat="42.98179" lon="1.97461">
        <ele>453.5</ele>
        <time>2026-05-29T11:51:17Z</time>
      </trkpt>
      <trkpt lat="42.9818" lon="1.97457">
        <ele>453.7</ele>
        <time>2026-05-29T11:51:22Z</time>
      </trkpt>
      <trkpt lat="42.98177" lon="1.97453">
        <ele>452.9</ele>
        <time>2026-05-29T11:51:27Z</time>
      </trkpt>
      <trkpt lat="42.98173" lon="1.97446">
        <ele>451.8</ele>
        <time>2026-05-29T11:51:32Z</time>
      </trkpt>
      <trkpt lat="42.9817" lon="1.97441">
        <ele>451.1</ele>
        <time>2026-05-29T11:51:37Z</time>
      </trkpt>
      <trkpt lat="42.98167" lon="1.97436">
        <ele>450.3</ele>
        <time>2026-05-29T11:51:42Z</time>
      </trkpt>
      <trkpt lat="42.98167" lon="1.97433">
        <ele>450.3</ele>
        <time>2026-05-29T11:51:47Z</time>
      </trkpt>
      <trkpt lat="42.98167" lon="1.97431">
        <ele>450.2</ele>
        <time>2026-05-29T11:51:52Z</time>
      </trkpt>
      <trkpt lat="42.98167" lon="1.97431">
        <ele>450.2</ele>
        <time>2026-05-29T11:51:57Z</time>
      </trkpt>
      <trkpt lat="42.98167" lon="1.97431">
        <ele>450.2</ele>
        <time>2026-05-29T11:52:02Z</time>
      </trkpt>
      <trkpt lat="42.98167" lon="1.97431">
        <ele>450.2</ele>
        <time>2026-05-29T11:52:07Z</time>
      </trkpt>
      <trkpt lat="42.98167" lon="1.97431">
        <ele>450.2</ele>
        <time>2026-05-29T11:52:12Z</time>
      </trkpt>
      <trkpt lat="42.98167" lon="1.97431">
        <ele>450.2</ele>
        <time>2026-05-29T11:52:17Z</time>
      </trkpt>
      <trkpt lat="42.98167" lon="1.97431">
        <ele>450.2</ele>
        <time>2026-05-29T11:52:22Z</time>
      </trkpt>
      <trkpt lat="42.98167" lon="1.97431">
        <ele>450.2</ele>
        <time>2026-05-29T11:52:27Z</time>
      </trkpt>
      <trkpt lat="42.98171" lon="1.97435">
        <ele>451.2</ele>
        <time>2026-05-29T11:52:32Z</time>
      </trkpt>
      <trkpt lat="42.98172" lon="1.97442">
        <ele>451.6</ele>
        <time>2026-05-29T11:52:37Z</time>
      </trkpt>
      <trkpt lat="42.98175" lon="1.97448">
        <ele>452.4</ele>
        <time>2026-05-29T11:52:42Z</time>
      </trkpt>
      <trkpt lat="42.98177" lon="1.97453">
        <ele>452.9</ele>
        <time>2026-05-29T11:52:47Z</time>
      </trkpt>
      <trkpt lat="42.98178" lon="1.97455">
        <ele>453.2</ele>
        <time>2026-05-29T11:52:52Z</time>
      </trkpt>
      <trkpt lat="42.98178" lon="1.97455">
        <ele>453.2</ele>
        <time>2026-05-29T11:52:57Z</time>
      </trkpt>
      <trkpt lat="42.98178" lon="1.97455">
        <ele>453.2</ele>
        <time>2026-05-29T11:53:02Z</time>
      </trkpt>
      <trkpt lat="42.98178" lon="1.97455">
        <ele>453.2</ele>
        <time>2026-05-29T11:53:07Z</time>
      </trkpt>
      <trkpt lat="42.98178" lon="1.97455">
        <ele>453.2</ele>
        <time>2026-05-29T11:53:12Z</time>
      </trkpt>
      <trkpt lat="42.98183" lon="1.97462">
        <ele>454.5</ele>
        <time>2026-05-29T11:53:17Z</time>
      </trkpt>
      <trkpt lat="42.98188" lon="1.97458">
        <ele>455.6</ele>
        <time>2026-05-29T11:53:22Z</time>
      </trkpt>
      <trkpt lat="42.98191" lon="1.97453">
        <ele>456.2</ele>
        <time>2026-05-29T11:53:27Z</time>
      </trkpt>
      <trkpt lat="42.98193" lon="1.97447">
        <ele>456.6</ele>
        <time>2026-05-29T11:53:32Z</time>
      </trkpt>
      <trkpt lat="42.98194" lon="1.97443">
        <ele>456.8</ele>
        <time>2026-05-29T11:53:37Z</time>
      </trkpt>
      <trkpt lat="42.98193" lon="1.97438">
        <ele>456.4</ele>
        <time>2026-05-29T11:53:42Z</time>
      </trkpt>
      <trkpt lat="42.98194" lon="1.97433">
        <ele>456.6</ele>
        <time>2026-05-29T11:53:47Z</time>
      </trkpt>
      <trkpt lat="42.98196" lon="1.97429">
        <ele>456.9</ele>
        <time>2026-05-29T11:53:52Z</time>
      </trkpt>
      <trkpt lat="42.98199" lon="1.97425">
        <ele>457.5</ele>
        <time>2026-05-29T11:53:57Z</time>
      </trkpt>
      <trkpt lat="42.982" lon="1.9742">
        <ele>457.7</ele>
        <time>2026-05-29T11:54:02Z</time>
      </trkpt>
      <trkpt lat="42.98201" lon="1.97414">
        <ele>457.5</ele>
        <time>2026-05-29T11:54:07Z</time>
      </trkpt>
      <trkpt lat="42.98201" lon="1.97409">
        <ele>457</ele>
        <time>2026-05-29T11:54:12Z</time>
      </trkpt>
      <trkpt lat="42.98203" lon="1.97404">
        <ele>456.9</ele>
        <time>2026-05-29T11:54:17Z</time>
      </trkpt>
      <trkpt lat="42.98205" lon="1.974">
        <ele>457</ele>
        <time>2026-05-29T11:54:22Z</time>
      </trkpt>
      <trkpt lat="42.98207" lon="1.97398">
        <ele>457.2</ele>
        <time>2026-05-29T11:54:27Z</time>
      </trkpt>
      <trkpt lat="42.98207" lon="1.97398">
        <ele>457.2</ele>
        <time>2026-05-29T11:54:32Z</time>
      </trkpt>
      <trkpt lat="42.9821" lon="1.97394">
        <ele>457.4</ele>
        <time>2026-05-29T11:54:37Z</time>
      </trkpt>
      <trkpt lat="42.98212" lon="1.97395">
        <ele>458</ele>
        <time>2026-05-29T11:54:42Z</time>
      </trkpt>
      <trkpt lat="42.98212" lon="1.97395">
        <ele>458</ele>
        <time>2026-05-29T11:54:47Z</time>
      </trkpt>
      <trkpt lat="42.98212" lon="1.97395">
        <ele>458</ele>
        <time>2026-05-29T11:54:52Z</time>
      </trkpt>
      <trkpt lat="42.98212" lon="1.97395">
        <ele>458</ele>
        <time>2026-05-29T11:54:57Z</time>
      </trkpt>
      <trkpt lat="42.98212" lon="1.97395">
        <ele>458</ele>
        <time>2026-05-29T11:55:02Z</time>
      </trkpt>
      <trkpt lat="42.98205" lon="1.97396">
        <ele>456.5</ele>
        <time>2026-05-29T11:55:07Z</time>
      </trkpt>
      <trkpt lat="42.98203" lon="1.97393">
        <ele>455.8</ele>
        <time>2026-05-29T11:55:12Z</time>
      </trkpt>
      <trkpt lat="42.98201" lon="1.97392">
        <ele>455.2</ele>
        <time>2026-05-29T11:55:17Z</time>
      </trkpt>
      <trkpt lat="42.98199" lon="1.97394">
        <ele>455</ele>
        <time>2026-05-29T11:55:22Z</time>
      </trkpt>
      <trkpt lat="42.98197" lon="1.97394">
        <ele>454.5</ele>
        <time>2026-05-29T11:55:27Z</time>
      </trkpt>
      <trkpt lat="42.98197" lon="1.97394">
        <ele>454.5</ele>
        <time>2026-05-29T11:55:32Z</time>
      </trkpt>
      <trkpt lat="42.98197" lon="1.97394">
        <ele>454.5</ele>
        <time>2026-05-29T11:55:37Z</time>
      </trkpt>
      <trkpt lat="42.98193" lon="1.9739">
        <ele>453.2</ele>
        <time>2026-05-29T11:55:42Z</time>
      </trkpt>
      <trkpt lat="42.98188" lon="1.97393">
        <ele>452.4</ele>
        <time>2026-05-29T11:55:47Z</time>
      </trkpt>
      <trkpt lat="42.98185" lon="1.97395">
        <ele>452</ele>
        <time>2026-05-29T11:55:52Z</time>
      </trkpt>
      <trkpt lat="42.98182" lon="1.97397">
        <ele>451.5</ele>
        <time>2026-05-29T11:55:57Z</time>
      </trkpt>
      <trkpt lat="42.98178" lon="1.97398">
        <ele>450.7</ele>
        <time>2026-05-29T11:56:02Z</time>
      </trkpt>
      <trkpt lat="42.98175" lon="1.97399">
        <ele>450.2</ele>
        <time>2026-05-29T11:56:07Z</time>
      </trkpt>
      <trkpt lat="42.98172" lon="1.974">
        <ele>449.6</ele>
        <time>2026-05-29T11:56:12Z</time>
      </trkpt>
      <trkpt lat="42.98169" lon="1.974">
        <ele>448.9</ele>
        <time>2026-05-29T11:56:17Z</time>
      </trkpt>
      <trkpt lat="42.98166" lon="1.97401">
        <ele>448.4</ele>
        <time>2026-05-29T11:56:22Z</time>
      </trkpt>
      <trkpt lat="42.98163" lon="1.97402">
        <ele>447.8</ele>
        <time>2026-05-29T11:56:27Z</time>
      </trkpt>
      <trkpt lat="42.9816" lon="1.97406">
        <ele>447.6</ele>
        <time>2026-05-29T11:56:32Z</time>
      </trkpt>
      <trkpt lat="42.98158" lon="1.97408">
        <ele>447.3</ele>
        <time>2026-05-29T11:56:37Z</time>
      </trkpt>
      <trkpt lat="42.98154" lon="1.9741">
        <ele>446.7</ele>
        <time>2026-05-29T11:56:42Z</time>
      </trkpt>
      <trkpt lat="42.9815" lon="1.97412">
        <ele>446</ele>
        <time>2026-05-29T11:56:47Z</time>
      </trkpt>
      <trkpt lat="42.98148" lon="1.97413">
        <ele>445.6</ele>
        <time>2026-05-29T11:56:52Z</time>
      </trkpt>
      <trkpt lat="42.98146" lon="1.97414">
        <ele>445.3</ele>
        <time>2026-05-29T11:56:57Z</time>
      </trkpt>
      <trkpt lat="42.98144" lon="1.97414">
        <ele>444.9</ele>
        <time>2026-05-29T11:57:02Z</time>
      </trkpt>
      <trkpt lat="42.98144" lon="1.97414">
        <ele>444.9</ele>
        <time>2026-05-29T11:57:07Z</time>
      </trkpt>
      <trkpt lat="42.98144" lon="1.97414">
        <ele>444.9</ele>
        <time>2026-05-29T11:57:12Z</time>
      </trkpt>
      <trkpt lat="42.98144" lon="1.97414">
        <ele>444.9</ele>
        <time>2026-05-29T11:57:17Z</time>
      </trkpt>
      <trkpt lat="42.98144" lon="1.97414">
        <ele>444.9</ele>
        <time>2026-05-29T11:57:22Z</time>
      </trkpt>
      <trkpt lat="42.98144" lon="1.97414">
        <ele>444.9</ele>
        <time>2026-05-29T11:57:27Z</time>
      </trkpt>
      <trkpt lat="42.98144" lon="1.97414">
        <ele>444.9</ele>
        <time>2026-05-29T11:57:32Z</time>
      </trkpt>
      <trkpt lat="42.98144" lon="1.97414">
        <ele>444.9</ele>
        <time>2026-05-29T11:57:37Z</time>
      </trkpt>
      <trkpt lat="42.98144" lon="1.97414">
        <ele>444.9</ele>
        <time>2026-05-29T11:57:42Z</time>
      </trkpt>
      <trkpt lat="42.98144" lon="1.97414">
        <ele>444.9</ele>
        <time>2026-05-29T11:57:47Z</time>
      </trkpt>
      <trkpt lat="42.98142" lon="1.9742">
        <ele>444.7</ele>
        <time>2026-05-29T11:57:52Z</time>
      </trkpt>
      <trkpt lat="42.98142" lon="1.9742">
        <ele>444.7</ele>
        <time>2026-05-29T11:57:57Z</time>
      </trkpt>
      <trkpt lat="42.98144" lon="1.97426">
        <ele>445.2</ele>
        <time>2026-05-29T11:58:02Z</time>
      </trkpt>
      <trkpt lat="42.98146" lon="1.97431">
        <ele>445.7</ele>
        <time>2026-05-29T11:58:07Z</time>
      </trkpt>
      <trkpt lat="42.98148" lon="1.97436">
        <ele>446.2</ele>
        <time>2026-05-29T11:58:12Z</time>
      </trkpt>
      <trkpt lat="42.98147" lon="1.9744">
        <ele>446</ele>
        <time>2026-05-29T11:58:17Z</time>
      </trkpt>
      <trkpt lat="42.98147" lon="1.97443">
        <ele>446.1</ele>
        <time>2026-05-29T11:58:22Z</time>
      </trkpt>
      <trkpt lat="42.98148" lon="1.97445">
        <ele>446.3</ele>
        <time>2026-05-29T11:58:27Z</time>
      </trkpt>
      <trkpt lat="42.9815" lon="1.97449">
        <ele>446.8</ele>
        <time>2026-05-29T11:58:32Z</time>
      </trkpt>
      <trkpt lat="42.98149" lon="1.97454">
        <ele>446.6</ele>
        <time>2026-05-29T11:58:37Z</time>
      </trkpt>
      <trkpt lat="42.98146" lon="1.9746">
        <ele>446.1</ele>
        <time>2026-05-29T11:58:42Z</time>
      </trkpt>
      <trkpt lat="42.98144" lon="1.97464">
        <ele>445.7</ele>
        <time>2026-05-29T11:58:47Z</time>
      </trkpt>
      <trkpt lat="42.98142" lon="1.97467">
        <ele>445.3</ele>
        <time>2026-05-29T11:58:52Z</time>
      </trkpt>
      <trkpt lat="42.98139" lon="1.97469">
        <ele>444.7</ele>
        <time>2026-05-29T11:58:57Z</time>
      </trkpt>
      <trkpt lat="42.98135" lon="1.97468">
        <ele>443.8</ele>
        <time>2026-05-29T11:59:02Z</time>
      </trkpt>
      <trkpt lat="42.98132" lon="1.97465">
        <ele>443.1</ele>
        <time>2026-05-29T11:59:07Z</time>
      </trkpt>
      <trkpt lat="42.98128" lon="1.97465">
        <ele>442.2</ele>
        <time>2026-05-29T11:59:12Z</time>
      </trkpt>
      <trkpt lat="42.98124" lon="1.97464">
        <ele>441.4</ele>
        <time>2026-05-29T11:59:17Z</time>
      </trkpt>
      <trkpt lat="42.9812" lon="1.97464">
        <ele>440.5</ele>
        <time>2026-05-29T11:59:22Z</time>
      </trkpt>
      <trkpt lat="42.98116" lon="1.97462">
        <ele>439.6</ele>
        <time>2026-05-29T11:59:27Z</time>
      </trkpt>
      <trkpt lat="42.98116" lon="1.97464">
        <ele>439.6</ele>
        <time>2026-05-29T11:59:32Z</time>
      </trkpt>
      <trkpt lat="42.98116" lon="1.97464">
        <ele>439.6</ele>
        <time>2026-05-29T11:59:37Z</time>
      </trkpt>
      <trkpt lat="42.98116" lon="1.97464">
        <ele>439.6</ele>
        <time>2026-05-29T11:59:42Z</time>
      </trkpt>
      <trkpt lat="42.98116" lon="1.97464">
        <ele>439.6</ele>
        <time>2026-05-29T11:59:47Z</time>
      </trkpt>
      <trkpt lat="42.98116" lon="1.97464">
        <ele>439.6</ele>
        <time>2026-05-29T11:59:52Z</time>
      </trkpt>
      <trkpt lat="42.98111" lon="1.97471">
        <ele>438.6</ele>
        <time>2026-05-29T11:59:57Z</time>
      </trkpt>
      <trkpt lat="42.98108" lon="1.97472">
        <ele>438</ele>
        <time>2026-05-29T12:00:02Z</time>
      </trkpt>
      <trkpt lat="42.98106" lon="1.97475">
        <ele>437.6</ele>
        <time>2026-05-29T12:00:07Z</time>
      </trkpt>
      <trkpt lat="42.98104" lon="1.97481">
        <ele>437.2</ele>
        <time>2026-05-29T12:00:12Z</time>
      </trkpt>
      <trkpt lat="42.98104" lon="1.97486">
        <ele>437.3</ele>
        <time>2026-05-29T12:00:17Z</time>
      </trkpt>
      <trkpt lat="42.98104" lon="1.97487">
        <ele>437.3</ele>
        <time>2026-05-29T12:00:22Z</time>
      </trkpt>
      <trkpt lat="42.98106" lon="1.9749">
        <ele>437.8</ele>
        <time>2026-05-29T12:00:27Z</time>
      </trkpt>
      <trkpt lat="42.98106" lon="1.97493">
        <ele>437.8</ele>
        <time>2026-05-29T12:00:32Z</time>
      </trkpt>
      <trkpt lat="42.98108" lon="1.97498">
        <ele>438.3</ele>
        <time>2026-05-29T12:00:37Z</time>
      </trkpt>
      <trkpt lat="42.9811" lon="1.97501">
        <ele>438.8</ele>
        <time>2026-05-29T12:00:42Z</time>
      </trkpt>
      <trkpt lat="42.98113" lon="1.97505">
        <ele>439.6</ele>
        <time>2026-05-29T12:00:47Z</time>
      </trkpt>
      <trkpt lat="42.98115" lon="1.97507">
        <ele>440</ele>
        <time>2026-05-29T12:00:52Z</time>
      </trkpt>
      <trkpt lat="42.98118" lon="1.97514">
        <ele>440.9</ele>
        <time>2026-05-29T12:00:57Z</time>
      </trkpt>
      <trkpt lat="42.98118" lon="1.97514">
        <ele>440.9</ele>
        <time>2026-05-29T12:01:02Z</time>
      </trkpt>
      <trkpt lat="42.98118" lon="1.97514">
        <ele>440.9</ele>
        <time>2026-05-29T12:01:07Z</time>
      </trkpt>
      <trkpt lat="42.98118" lon="1.97514">
        <ele>440.9</ele>
        <time>2026-05-29T12:01:12Z</time>
      </trkpt>
      <trkpt lat="42.98118" lon="1.97514">
        <ele>440.9</ele>
        <time>2026-05-29T12:01:17Z</time>
      </trkpt>
      <trkpt lat="42.98118" lon="1.97514">
        <ele>440.9</ele>
        <time>2026-05-29T12:01:22Z</time>
      </trkpt>
      <trkpt lat="42.98118" lon="1.97514">
        <ele>440.9</ele>
        <time>2026-05-29T12:01:27Z</time>
      </trkpt>
      <trkpt lat="42.98118" lon="1.97514">
        <ele>440.9</ele>
        <time>2026-05-29T12:01:32Z</time>
      </trkpt>
      <trkpt lat="42.98118" lon="1.97514">
        <ele>440.9</ele>
        <time>2026-05-29T12:01:37Z</time>
      </trkpt>
      <trkpt lat="42.98118" lon="1.97514">
        <ele>440.9</ele>
        <time>2026-05-29T12:01:42Z</time>
      </trkpt>
      <trkpt lat="42.98118" lon="1.97514">
        <ele>440.9</ele>
        <time>2026-05-29T12:01:47Z</time>
      </trkpt>
      <trkpt lat="42.98118" lon="1.97514">
        <ele>440.9</ele>
        <time>2026-05-29T12:01:52Z</time>
      </trkpt>
      <trkpt lat="42.98118" lon="1.97514">
        <ele>440.9</ele>
        <time>2026-05-29T12:01:57Z</time>
      </trkpt>
      <trkpt lat="42.9812" lon="1.97508">
        <ele>441.1</ele>
        <time>2026-05-29T12:02:02Z</time>
      </trkpt>
      <trkpt lat="42.98122" lon="1.97505">
        <ele>441.5</ele>
        <time>2026-05-29T12:02:07Z</time>
      </trkpt>
      <trkpt lat="42.98126" lon="1.97506">
        <ele>442.4</ele>
        <time>2026-05-29T12:02:12Z</time>
      </trkpt>
      <trkpt lat="42.98128" lon="1.9751">
        <ele>442.9</ele>
        <time>2026-05-29T12:02:17Z</time>
      </trkpt>
      <trkpt lat="42.98128" lon="1.97514">
        <ele>443</ele>
        <time>2026-05-29T12:02:22Z</time>
      </trkpt>
      <trkpt lat="42.98126" lon="1.97522">
        <ele>442.7</ele>
        <time>2026-05-29T12:02:27Z</time>
      </trkpt>
      <trkpt lat="42.98124" lon="1.97529">
        <ele>442.5</ele>
        <time>2026-05-29T12:02:32Z</time>
      </trkpt>
      <trkpt lat="42.98122" lon="1.97537">
        <ele>442.3</ele>
        <time>2026-05-29T12:02:37Z</time>
      </trkpt>
      <trkpt lat="42.98122" lon="1.97545">
        <ele>442.5</ele>
        <time>2026-05-29T12:02:42Z</time>
      </trkpt>
      <trkpt lat="42.98122" lon="1.97553">
        <ele>442.7</ele>
        <time>2026-05-29T12:02:47Z</time>
      </trkpt>
      <trkpt lat="42.98121" lon="1.97561">
        <ele>442.7</ele>
        <time>2026-05-29T12:02:52Z</time>
      </trkpt>
      <trkpt lat="42.98121" lon="1.97568">
        <ele>442.9</ele>
        <time>2026-05-29T12:02:57Z</time>
      </trkpt>
      <trkpt lat="42.98119" lon="1.97575">
        <ele>442.8</ele>
        <time>2026-05-29T12:03:02Z</time>
      </trkpt>
      <trkpt lat="42.9812" lon="1.97579">
        <ele>443</ele>
        <time>2026-05-29T12:03:07Z</time>
      </trkpt>
      <trkpt lat="42.98121" lon="1.97584">
        <ele>443.4</ele>
        <time>2026-05-29T12:03:12Z</time>
      </trkpt>
      <trkpt lat="42.98124" lon="1.97585">
        <ele>444</ele>
        <time>2026-05-29T12:03:17Z</time>
      </trkpt>
      <trkpt lat="42.98126" lon="1.97586">
        <ele>444.5</ele>
        <time>2026-05-29T12:03:22Z</time>
      </trkpt>
      <trkpt lat="42.98127" lon="1.97584">
        <ele>444.4</ele>
        <time>2026-05-29T12:03:27Z</time>
      </trkpt>
      <trkpt lat="42.9813" lon="1.97585">
        <ele>445</ele>
        <time>2026-05-29T12:03:32Z</time>
      </trkpt>
      <trkpt lat="42.98131" lon="1.97585">
        <ele>445.2</ele>
        <time>2026-05-29T12:03:37Z</time>
      </trkpt>
      <trkpt lat="42.98133" lon="1.97589">
        <ele>446</ele>
        <time>2026-05-29T12:03:42Z</time>
      </trkpt>
      <trkpt lat="42.98135" lon="1.97591">
        <ele>446.6</ele>
        <time>2026-05-29T12:03:47Z</time>
      </trkpt>
      <trkpt lat="42.98137" lon="1.97591">
        <ele>446.9</ele>
        <time>2026-05-29T12:03:52Z</time>
      </trkpt>
      <trkpt lat="42.98139" lon="1.9759">
        <ele>447.2</ele>
        <time>2026-05-29T12:03:57Z</time>
      </trkpt>
      <trkpt lat="42.9814" lon="1.97588">
        <ele>447.1</ele>
        <time>2026-05-29T12:04:02Z</time>
      </trkpt>
      <trkpt lat="42.9814" lon="1.97588">
        <ele>447.1</ele>
        <time>2026-05-29T12:04:07Z</time>
      </trkpt>
      <trkpt lat="42.9814" lon="1.97588">
        <ele>447.1</ele>
        <time>2026-05-29T12:04:12Z</time>
      </trkpt>
      <trkpt lat="42.98149" lon="1.97592">
        <ele>449.1</ele>
        <time>2026-05-29T12:04:17Z</time>
      </trkpt>
      <trkpt lat="42.98154" lon="1.97591">
        <ele>449.8</ele>
        <time>2026-05-29T12:04:22Z</time>
      </trkpt>
      <trkpt lat="42.98157" lon="1.9759">
        <ele>450.2</ele>
        <time>2026-05-29T12:04:27Z</time>
      </trkpt>
      <trkpt lat="42.98159" lon="1.97594">
        <ele>451</ele>
        <time>2026-05-29T12:04:32Z</time>
      </trkpt>
      <trkpt lat="42.98162" lon="1.97598">
        <ele>452</ele>
        <time>2026-05-29T12:04:37Z</time>
      </trkpt>
      <trkpt lat="42.98162" lon="1.97602">
        <ele>452.5</ele>
        <time>2026-05-29T12:04:42Z</time>
      </trkpt>
      <trkpt lat="42.98163" lon="1.97603">
        <ele>452.7</ele>
        <time>2026-05-29T12:04:47Z</time>
      </trkpt>
      <trkpt lat="42.98163" lon="1.97603">
        <ele>452.7</ele>
        <time>2026-05-29T12:04:52Z</time>
      </trkpt>
      <trkpt lat="42.98166" lon="1.97608">
        <ele>453.8</ele>
        <time>2026-05-29T12:04:57Z</time>
      </trkpt>
      <trkpt lat="42.98168" lon="1.9761">
        <ele>454.5</ele>
        <time>2026-05-29T12:05:02Z</time>
      </trkpt>
      <trkpt lat="42.9817" lon="1.97612">
        <ele>455.2</ele>
        <time>2026-05-29T12:05:07Z</time>
      </trkpt>
      <trkpt lat="42.98173" lon="1.97612">
        <ele>455.9</ele>
        <time>2026-05-29T12:05:12Z</time>
      </trkpt>
      <trkpt lat="42.98175" lon="1.97609">
        <ele>456</ele>
        <time>2026-05-29T12:05:17Z</time>
      </trkpt>
      <trkpt lat="42.98175" lon="1.97603">
        <ele>455.3</ele>
        <time>2026-05-29T12:05:22Z</time>
      </trkpt>
      <trkpt lat="42.98177" lon="1.97597">
        <ele>455</ele>
        <time>2026-05-29T12:05:27Z</time>
      </trkpt>
      <trkpt lat="42.98177" lon="1.9759">
        <ele>454.2</ele>
        <time>2026-05-29T12:05:32Z</time>
      </trkpt>
      <trkpt lat="42.98177" lon="1.97584">
        <ele>453.6</ele>
        <time>2026-05-29T12:05:37Z</time>
      </trkpt>
      <trkpt lat="42.98177" lon="1.97577">
        <ele>453.5</ele>
        <time>2026-05-29T12:05:42Z</time>
      </trkpt>
      <trkpt lat="42.98178" lon="1.97569">
        <ele>453.7</ele>
        <time>2026-05-29T12:05:47Z</time>
      </trkpt>
      <trkpt lat="42.98178" lon="1.97562">
        <ele>453.8</ele>
        <time>2026-05-29T12:05:52Z</time>
      </trkpt>
      <trkpt lat="42.98178" lon="1.97555">
        <ele>453.8</ele>
        <time>2026-05-29T12:05:57Z</time>
      </trkpt>
      <trkpt lat="42.98177" lon="1.97548">
        <ele>453.5</ele>
        <time>2026-05-29T12:06:02Z</time>
      </trkpt>
      <trkpt lat="42.9818" lon="1.97545">
        <ele>454.3</ele>
        <time>2026-05-29T12:06:07Z</time>
      </trkpt>
      <trkpt lat="42.98184" lon="1.97542">
        <ele>455.3</ele>
        <time>2026-05-29T12:06:12Z</time>
      </trkpt>
      <trkpt lat="42.98185" lon="1.97539">
        <ele>455.5</ele>
        <time>2026-05-29T12:06:17Z</time>
      </trkpt>
      <trkpt lat="42.98185" lon="1.97533">
        <ele>455.5</ele>
        <time>2026-05-29T12:06:22Z</time>
      </trkpt>
      <trkpt lat="42.98184" lon="1.97528">
        <ele>455.3</ele>
        <time>2026-05-29T12:06:27Z</time>
      </trkpt>
      <trkpt lat="42.98185" lon="1.97522">
        <ele>455.6</ele>
        <time>2026-05-29T12:06:32Z</time>
      </trkpt>
      <trkpt lat="42.98184" lon="1.97515">
        <ele>455.3</ele>
        <time>2026-05-29T12:06:37Z</time>
      </trkpt>
      <trkpt lat="42.98182" lon="1.97508">
        <ele>454.8</ele>
        <time>2026-05-29T12:06:42Z</time>
      </trkpt>
      <trkpt lat="42.98183" lon="1.975">
        <ele>455.1</ele>
        <time>2026-05-29T12:06:47Z</time>
      </trkpt>
      <trkpt lat="42.98182" lon="1.97492">
        <ele>454.7</ele>
        <time>2026-05-29T12:06:52Z</time>
      </trkpt>
      <trkpt lat="42.98182" lon="1.97484">
        <ele>454.6</ele>
        <time>2026-05-29T12:06:57Z</time>
      </trkpt>
      <trkpt lat="42.98181" lon="1.97476">
        <ele>454.2</ele>
        <time>2026-05-29T12:07:02Z</time>
      </trkpt>
      <trkpt lat="42.98181" lon="1.97468">
        <ele>454.1</ele>
        <time>2026-05-29T12:07:07Z</time>
      </trkpt>
      <trkpt lat="42.98179" lon="1.9746">
        <ele>453.5</ele>
        <time>2026-05-29T12:07:12Z</time>
      </trkpt>
      <trkpt lat="42.98177" lon="1.97453">
        <ele>452.9</ele>
        <time>2026-05-29T12:07:17Z</time>
      </trkpt>
      <trkpt lat="42.98177" lon="1.97448">
        <ele>452.8</ele>
        <time>2026-05-29T12:07:22Z</time>
      </trkpt>
      <trkpt lat="42.98177" lon="1.97444">
        <ele>452.8</ele>
        <time>2026-05-29T12:07:27Z</time>
      </trkpt>
      <trkpt lat="42.98176" lon="1.97441">
        <ele>452.5</ele>
        <time>2026-05-29T12:07:32Z</time>
      </trkpt>
      <trkpt lat="42.98176" lon="1.97441">
        <ele>452.5</ele>
        <time>2026-05-29T12:07:37Z</time>
      </trkpt>
      <trkpt lat="42.98176" lon="1.97441">
        <ele>452.5</ele>
        <time>2026-05-29T12:07:42Z</time>
      </trkpt>
      <trkpt lat="42.98176" lon="1.97441">
        <ele>452.5</ele>
        <time>2026-05-29T12:07:47Z</time>
      </trkpt>
      <trkpt lat="42.98176" lon="1.97441">
        <ele>452.5</ele>
        <time>2026-05-29T12:07:52Z</time>
      </trkpt>
      <trkpt lat="42.98176" lon="1.97441">
        <ele>452.5</ele>
        <time>2026-05-29T12:07:57Z</time>
      </trkpt>
      <trkpt lat="42.98178" lon="1.97429">
        <ele>452.8</ele>
        <time>2026-05-29T12:08:02Z</time>
      </trkpt>
      <trkpt lat="42.98178" lon="1.97427">
        <ele>452.7</ele>
        <time>2026-05-29T12:08:07Z</time>
      </trkpt>
      <trkpt lat="42.98178" lon="1.97427">
        <ele>452.7</ele>
        <time>2026-05-29T12:08:12Z</time>
      </trkpt>
      <trkpt lat="42.98178" lon="1.97427">
        <ele>452.7</ele>
        <time>2026-05-29T12:08:17Z</time>
      </trkpt>
      <trkpt lat="42.98178" lon="1.97427">
        <ele>452.7</ele>
        <time>2026-05-29T12:08:22Z</time>
      </trkpt>
      <trkpt lat="42.98178" lon="1.97427">
        <ele>452.7</ele>
        <time>2026-05-29T12:08:27Z</time>
      </trkpt>
      <trkpt lat="42.98178" lon="1.97427">
        <ele>452.7</ele>
        <time>2026-05-29T12:08:32Z</time>
      </trkpt>
      <trkpt lat="42.98178" lon="1.97427">
        <ele>452.7</ele>
        <time>2026-05-29T12:08:37Z</time>
      </trkpt>
      <trkpt lat="42.98178" lon="1.97427">
        <ele>452.7</ele>
        <time>2026-05-29T12:08:42Z</time>
      </trkpt>
      <trkpt lat="42.98178" lon="1.97427">
        <ele>452.7</ele>
        <time>2026-05-29T12:08:47Z</time>
      </trkpt>
      <trkpt lat="42.98178" lon="1.97427">
        <ele>452.7</ele>
        <time>2026-05-29T12:08:52Z</time>
      </trkpt>
      <trkpt lat="42.98178" lon="1.97427">
        <ele>452.7</ele>
        <time>2026-05-29T12:08:57Z</time>
      </trkpt>
      <trkpt lat="42.98178" lon="1.97427">
        <ele>452.7</ele>
        <time>2026-05-29T12:09:02Z</time>
      </trkpt>
      <trkpt lat="42.98178" lon="1.97427">
        <ele>452.7</ele>
        <time>2026-05-29T12:09:07Z</time>
      </trkpt>
      <trkpt lat="42.98178" lon="1.97427">
        <ele>452.7</ele>
        <time>2026-05-29T12:09:12Z</time>
      </trkpt>
      <trkpt lat="42.98178" lon="1.97427">
        <ele>452.7</ele>
        <time>2026-05-29T12:09:17Z</time>
      </trkpt>
      <trkpt lat="42.98178" lon="1.97427">
        <ele>452.7</ele>
        <time>2026-05-29T12:09:22Z</time>
      </trkpt>
      <trkpt lat="42.98178" lon="1.97441">
        <ele>453</ele>
        <time>2026-05-29T12:09:27Z</time>
      </trkpt>
      <trkpt lat="42.98179" lon="1.97441">
        <ele>453.2</ele>
        <time>2026-05-29T12:09:32Z</time>
      </trkpt>
      <trkpt lat="42.98179" lon="1.97441">
        <ele>453.2</ele>
        <time>2026-05-29T12:09:37Z</time>
      </trkpt>
      <trkpt lat="42.98179" lon="1.97441">
        <ele>453.2</ele>
        <time>2026-05-29T12:09:42Z</time>
      </trkpt>
      <trkpt lat="42.98179" lon="1.97441">
        <ele>453.2</ele>
        <time>2026-05-29T12:09:47Z</time>
      </trkpt>
      <trkpt lat="42.98179" lon="1.97441">
        <ele>453.2</ele>
        <time>2026-05-29T12:09:52Z</time>
      </trkpt>
      <trkpt lat="42.98182" lon="1.97451">
        <ele>454.1</ele>
        <time>2026-05-29T12:09:57Z</time>
      </trkpt>
      <trkpt lat="42.98182" lon="1.97455">
        <ele>454.1</ele>
        <time>2026-05-29T12:10:02Z</time>
      </trkpt>
      <trkpt lat="42.98182" lon="1.9746">
        <ele>454.2</ele>
        <time>2026-05-29T12:10:07Z</time>
      </trkpt>
      <trkpt lat="42.98183" lon="1.97466">
        <ele>454.5</ele>
        <time>2026-05-29T12:10:12Z</time>
      </trkpt>
      <trkpt lat="42.98184" lon="1.97472">
        <ele>454.9</ele>
        <time>2026-05-29T12:10:17Z</time>
      </trkpt>
      <trkpt lat="42.98185" lon="1.97478">
        <ele>455.2</ele>
        <time>2026-05-29T12:10:22Z</time>
      </trkpt>
      <trkpt lat="42.98186" lon="1.97485">
        <ele>455.6</ele>
        <time>2026-05-29T12:10:27Z</time>
      </trkpt>
      <trkpt lat="42.98185" lon="1.97487">
        <ele>455.4</ele>
        <time>2026-05-29T12:10:32Z</time>
      </trkpt>
      <trkpt lat="42.98185" lon="1.97487">
        <ele>455.4</ele>
        <time>2026-05-29T12:10:37Z</time>
      </trkpt>
      <trkpt lat="42.98185" lon="1.97487">
        <ele>455.4</ele>
        <time>2026-05-29T12:10:42Z</time>
      </trkpt>
      <trkpt lat="42.98185" lon="1.97487">
        <ele>455.4</ele>
        <time>2026-05-29T12:10:47Z</time>
      </trkpt>
      <trkpt lat="42.98185" lon="1.97487">
        <ele>455.4</ele>
        <time>2026-05-29T12:10:52Z</time>
      </trkpt>
      <trkpt lat="42.98185" lon="1.97487">
        <ele>455.4</ele>
        <time>2026-05-29T12:10:57Z</time>
      </trkpt>
      <trkpt lat="42.98185" lon="1.97487">
        <ele>455.4</ele>
        <time>2026-05-29T12:11:02Z</time>
      </trkpt>
      <trkpt lat="42.98185" lon="1.97487">
        <ele>455.4</ele>
        <time>2026-05-29T12:11:07Z</time>
      </trkpt>
      <trkpt lat="42.98185" lon="1.97487">
        <ele>455.4</ele>
        <time>2026-05-29T12:11:12Z</time>
      </trkpt>
      <trkpt lat="42.98185" lon="1.97487">
        <ele>455.4</ele>
        <time>2026-05-29T12:11:17Z</time>
      </trkpt>
      <trkpt lat="42.98185" lon="1.97487">
        <ele>455.4</ele>
        <time>2026-05-29T12:11:22Z</time>
      </trkpt>
      <trkpt lat="42.98185" lon="1.97487">
        <ele>455.4</ele>
        <time>2026-05-29T12:11:27Z</time>
      </trkpt>
      <trkpt lat="42.98185" lon="1.97487">
        <ele>455.4</ele>
        <time>2026-05-29T12:11:32Z</time>
      </trkpt>
      <trkpt lat="42.98185" lon="1.97487">
        <ele>455.4</ele>
        <time>2026-05-29T12:11:37Z</time>
      </trkpt>
      <trkpt lat="42.98185" lon="1.97487">
        <ele>455.4</ele>
        <time>2026-05-29T12:11:42Z</time>
      </trkpt>
      <trkpt lat="42.98189" lon="1.97499">
        <ele>456.6</ele>
        <time>2026-05-29T12:11:47Z</time>
      </trkpt>
      <trkpt lat="42.98189" lon="1.97504">
        <ele>456.6</ele>
        <time>2026-05-29T12:11:52Z</time>
      </trkpt>
      <trkpt lat="42.98189" lon="1.97504">
        <ele>456.6</ele>
        <time>2026-05-29T12:11:57Z</time>
      </trkpt>
      <trkpt lat="42.98189" lon="1.97504">
        <ele>456.6</ele>
        <time>2026-05-29T12:12:02Z</time>
      </trkpt>
      <trkpt lat="42.98189" lon="1.97504">
        <ele>456.6</ele>
        <time>2026-05-29T12:12:07Z</time>
      </trkpt>
      <trkpt lat="42.98189" lon="1.97504">
        <ele>456.6</ele>
        <time>2026-05-29T12:12:12Z</time>
      </trkpt>
      <trkpt lat="42.98189" lon="1.97504">
        <ele>456.6</ele>
        <time>2026-05-29T12:12:17Z</time>
      </trkpt>
      <trkpt lat="42.98187" lon="1.97511">
        <ele>456.1</ele>
        <time>2026-05-29T12:12:22Z</time>
      </trkpt>
      <trkpt lat="42.98188" lon="1.97518">
        <ele>456.3</ele>
        <time>2026-05-29T12:12:27Z</time>
      </trkpt>
      <trkpt lat="42.98189" lon="1.97524">
        <ele>456.6</ele>
        <time>2026-05-29T12:12:32Z</time>
      </trkpt>
      <trkpt lat="42.98188" lon="1.97532">
        <ele>456.3</ele>
        <time>2026-05-29T12:12:37Z</time>
      </trkpt>
      <trkpt lat="42.98187" lon="1.97539">
        <ele>456</ele>
        <time>2026-05-29T12:12:42Z</time>
      </trkpt>
      <trkpt lat="42.98188" lon="1.97546">
        <ele>456.2</ele>
        <time>2026-05-29T12:12:47Z</time>
      </trkpt>
      <trkpt lat="42.98188" lon="1.97552">
        <ele>456.2</ele>
        <time>2026-05-29T12:12:52Z</time>
      </trkpt>
      <trkpt lat="42.98187" lon="1.97558">
        <ele>456</ele>
        <time>2026-05-29T12:12:57Z</time>
      </trkpt>
      <trkpt lat="42.98186" lon="1.97567">
        <ele>455.7</ele>
        <time>2026-05-29T12:13:02Z</time>
      </trkpt>
      <trkpt lat="42.98186" lon="1.97567">
        <ele>455.7</ele>
        <time>2026-05-29T12:13:07Z</time>
      </trkpt>
      <trkpt lat="42.98186" lon="1.97567">
        <ele>455.7</ele>
        <time>2026-05-29T12:13:12Z</time>
      </trkpt>
      <trkpt lat="42.98186" lon="1.97567">
        <ele>455.7</ele>
        <time>2026-05-29T12:13:17Z</time>
      </trkpt>
      <trkpt lat="42.98186" lon="1.97567">
        <ele>455.7</ele>
        <time>2026-05-29T12:13:22Z</time>
      </trkpt>
      <trkpt lat="42.98186" lon="1.97567">
        <ele>455.7</ele>
        <time>2026-05-29T12:13:27Z</time>
      </trkpt>
      <trkpt lat="42.98186" lon="1.97567">
        <ele>455.7</ele>
        <time>2026-05-29T12:13:32Z</time>
      </trkpt>
      <trkpt lat="42.98185" lon="1.97569">
        <ele>455.4</ele>
        <time>2026-05-29T12:13:37Z</time>
      </trkpt>
      <trkpt lat="42.98185" lon="1.97572">
        <ele>455.4</ele>
        <time>2026-05-29T12:13:42Z</time>
      </trkpt>
      <trkpt lat="42.98185" lon="1.97572">
        <ele>455.4</ele>
        <time>2026-05-29T12:13:47Z</time>
      </trkpt>
      <trkpt lat="42.98185" lon="1.97572">
        <ele>455.4</ele>
        <time>2026-05-29T12:13:52Z</time>
      </trkpt>
      <trkpt lat="42.98185" lon="1.97572">
        <ele>455.4</ele>
        <time>2026-05-29T12:13:57Z</time>
      </trkpt>
      <trkpt lat="42.98185" lon="1.97572">
        <ele>455.4</ele>
        <time>2026-05-29T12:14:02Z</time>
      </trkpt>
      <trkpt lat="42.98185" lon="1.97572">
        <ele>455.4</ele>
        <time>2026-05-29T12:14:07Z</time>
      </trkpt>
      <trkpt lat="42.98185" lon="1.97572">
        <ele>455.4</ele>
        <time>2026-05-29T12:14:12Z</time>
      </trkpt>
      <trkpt lat="42.98185" lon="1.97572">
        <ele>455.4</ele>
        <time>2026-05-29T12:14:17Z</time>
      </trkpt>
      <trkpt lat="42.98189" lon="1.97575">
        <ele>456.4</ele>
        <time>2026-05-29T12:14:22Z</time>
      </trkpt>
      <trkpt lat="42.98192" lon="1.97579">
        <ele>457.1</ele>
        <time>2026-05-29T12:14:27Z</time>
      </trkpt>
      <trkpt lat="42.98192" lon="1.97585">
        <ele>457.3</ele>
        <time>2026-05-29T12:14:32Z</time>
      </trkpt>
      <trkpt lat="42.98194" lon="1.97589">
        <ele>458.2</ele>
        <time>2026-05-29T12:14:37Z</time>
      </trkpt>
      <trkpt lat="42.98195" lon="1.97593">
        <ele>458.8</ele>
        <time>2026-05-29T12:14:42Z</time>
      </trkpt>
      <trkpt lat="42.98196" lon="1.97601">
        <ele>459.9</ele>
        <time>2026-05-29T12:14:47Z</time>
      </trkpt>
      <trkpt lat="42.98198" lon="1.97606">
        <ele>460.8</ele>
        <time>2026-05-29T12:14:52Z</time>
      </trkpt>
      <trkpt lat="42.98197" lon="1.97601">
        <ele>460.1</ele>
        <time>2026-05-29T12:14:57Z</time>
      </trkpt>
      <trkpt lat="42.98198" lon="1.97592">
        <ele>459.4</ele>
        <time>2026-05-29T12:15:02Z</time>
      </trkpt>
      <trkpt lat="42.98202" lon="1.9759">
        <ele>460.1</ele>
        <time>2026-05-29T12:15:07Z</time>
      </trkpt>
      <trkpt lat="42.98206" lon="1.97589">
        <ele>461</ele>
        <time>2026-05-29T12:15:12Z</time>
      </trkpt>
      <trkpt lat="42.98211" lon="1.97589">
        <ele>462.2</ele>
        <time>2026-05-29T12:15:17Z</time>
      </trkpt>
      <trkpt lat="42.98214" lon="1.97593">
        <ele>463.3</ele>
        <time>2026-05-29T12:15:22Z</time>
      </trkpt>
      <trkpt lat="42.98216" lon="1.97601">
        <ele>464.5</ele>
        <time>2026-05-29T12:15:27Z</time>
      </trkpt>
      <trkpt lat="42.98216" lon="1.9761">
        <ele>465.3</ele>
        <time>2026-05-29T12:15:32Z</time>
      </trkpt>
      <trkpt lat="42.98215" lon="1.97617">
        <ele>465.7</ele>
        <time>2026-05-29T12:15:37Z</time>
      </trkpt>
      <trkpt lat="42.98215" lon="1.97627">
        <ele>466.6</ele>
        <time>2026-05-29T12:15:42Z</time>
      </trkpt>
      <trkpt lat="42.98214" lon="1.97633">
        <ele>467</ele>
        <time>2026-05-29T12:15:47Z</time>
      </trkpt>
      <trkpt lat="42.98211" lon="1.9764">
        <ele>467</ele>
        <time>2026-05-29T12:15:52Z</time>
      </trkpt>
      <trkpt lat="42.98207" lon="1.97648">
        <ele>466.9</ele>
        <time>2026-05-29T12:15:57Z</time>
      </trkpt>
      <trkpt lat="42.98206" lon="1.97657">
        <ele>467.6</ele>
        <time>2026-05-29T12:16:02Z</time>
      </trkpt>
      <trkpt lat="42.98205" lon="1.97664">
        <ele>468.1</ele>
        <time>2026-05-29T12:16:07Z</time>
      </trkpt>
      <trkpt lat="42.98203" lon="1.97671">
        <ele>468.4</ele>
        <time>2026-05-29T12:16:12Z</time>
      </trkpt>
      <trkpt lat="42.98201" lon="1.97679">
        <ele>468.8</ele>
        <time>2026-05-29T12:16:17Z</time>
      </trkpt>
      <trkpt lat="42.98199" lon="1.97686">
        <ele>469.1</ele>
        <time>2026-05-29T12:16:22Z</time>
      </trkpt>
      <trkpt lat="42.98196" lon="1.97695">
        <ele>469.4</ele>
        <time>2026-05-29T12:16:27Z</time>
      </trkpt>
      <trkpt lat="42.98194" lon="1.97702">
        <ele>469.8</ele>
        <time>2026-05-29T12:16:32Z</time>
      </trkpt>
      <trkpt lat="42.98193" lon="1.97709">
        <ele>470.3</ele>
        <time>2026-05-29T12:16:37Z</time>
      </trkpt>
      <trkpt lat="42.9819" lon="1.97715">
        <ele>470.5</ele>
        <time>2026-05-29T12:16:42Z</time>
      </trkpt>
      <trkpt lat="42.98188" lon="1.97722">
        <ele>470.9</ele>
        <time>2026-05-29T12:16:47Z</time>
      </trkpt>
      <trkpt lat="42.98186" lon="1.97732">
        <ele>471.6</ele>
        <time>2026-05-29T12:16:52Z</time>
      </trkpt>
      <trkpt lat="42.98185" lon="1.97744">
        <ele>472.8</ele>
        <time>2026-05-29T12:16:57Z</time>
      </trkpt>
      <trkpt lat="42.98185" lon="1.97752">
        <ele>473.7</ele>
        <time>2026-05-29T12:17:02Z</time>
      </trkpt>
      <trkpt lat="42.98187" lon="1.97761">
        <ele>475.2</ele>
        <time>2026-05-29T12:17:07Z</time>
      </trkpt>
      <trkpt lat="42.98189" lon="1.9777">
        <ele>476.7</ele>
        <time>2026-05-29T12:17:12Z</time>
      </trkpt>
      <trkpt lat="42.98191" lon="1.97776">
        <ele>477.7</ele>
        <time>2026-05-29T12:17:17Z</time>
      </trkpt>
      <trkpt lat="42.98192" lon="1.97783">
        <ele>478.8</ele>
        <time>2026-05-29T12:17:22Z</time>
      </trkpt>
      <trkpt lat="42.98193" lon="1.9779">
        <ele>479.8</ele>
        <time>2026-05-29T12:17:27Z</time>
      </trkpt>
      <trkpt lat="42.98194" lon="1.97797">
        <ele>480.8</ele>
        <time>2026-05-29T12:17:32Z</time>
      </trkpt>
      <trkpt lat="42.98195" lon="1.97802">
        <ele>481.6</ele>
        <time>2026-05-29T12:17:37Z</time>
      </trkpt>
      <trkpt lat="42.98194" lon="1.9781">
        <ele>482.6</ele>
        <time>2026-05-29T12:17:42Z</time>
      </trkpt>
      <trkpt lat="42.9819" lon="1.97817">
        <ele>483.2</ele>
        <time>2026-05-29T12:17:47Z</time>
      </trkpt>
      <trkpt lat="42.98183" lon="1.97823">
        <ele>483.5</ele>
        <time>2026-05-29T12:17:52Z</time>
      </trkpt>
      <trkpt lat="42.98177" lon="1.97826">
        <ele>483.5</ele>
        <time>2026-05-29T12:17:57Z</time>
      </trkpt>
      <trkpt lat="42.98172" lon="1.97828">
        <ele>483.5</ele>
        <time>2026-05-29T12:18:02Z</time>
      </trkpt>
      <trkpt lat="42.98169" lon="1.97828">
        <ele>483.3</ele>
        <time>2026-05-29T12:18:07Z</time>
      </trkpt>
      <trkpt lat="42.98167" lon="1.9783">
        <ele>483.5</ele>
        <time>2026-05-29T12:18:12Z</time>
      </trkpt>
      <trkpt lat="42.98162" lon="1.97834">
        <ele>483.5</ele>
        <time>2026-05-29T12:18:17Z</time>
      </trkpt>
      <trkpt lat="42.98157" lon="1.97836">
        <ele>483.3</ele>
        <time>2026-05-29T12:18:22Z</time>
      </trkpt>
      <trkpt lat="42.9815" lon="1.97835">
        <ele>482.1</ele>
        <time>2026-05-29T12:18:27Z</time>
      </trkpt>
      <trkpt lat="42.98144" lon="1.97832">
        <ele>480.8</ele>
        <time>2026-05-29T12:18:32Z</time>
      </trkpt>
      <trkpt lat="42.98138" lon="1.9783">
        <ele>479.7</ele>
        <time>2026-05-29T12:18:37Z</time>
      </trkpt>
      <trkpt lat="42.98132" lon="1.97827">
        <ele>478.4</ele>
        <time>2026-05-29T12:18:42Z</time>
      </trkpt>
      <trkpt lat="42.98127" lon="1.97825">
        <ele>477.4</ele>
        <time>2026-05-29T12:18:47Z</time>
      </trkpt>
      <trkpt lat="42.98122" lon="1.97823">
        <ele>476.4</ele>
        <time>2026-05-29T12:18:52Z</time>
      </trkpt>
      <trkpt lat="42.98117" lon="1.97821">
        <ele>475.4</ele>
        <time>2026-05-29T12:18:57Z</time>
      </trkpt>
      <trkpt lat="42.98111" lon="1.97816">
        <ele>473.8</ele>
        <time>2026-05-29T12:19:02Z</time>
      </trkpt>
      <trkpt lat="42.98105" lon="1.97813">
        <ele>472.5</ele>
        <time>2026-05-29T12:19:07Z</time>
      </trkpt>
      <trkpt lat="42.98099" lon="1.9781">
        <ele>471.2</ele>
        <time>2026-05-29T12:19:12Z</time>
      </trkpt>
      <trkpt lat="42.98094" lon="1.97809">
        <ele>470.4</ele>
        <time>2026-05-29T12:19:17Z</time>
      </trkpt>
      <trkpt lat="42.9809" lon="1.97809">
        <ele>469.8</ele>
        <time>2026-05-29T12:19:22Z</time>
      </trkpt>
      <trkpt lat="42.98083" lon="1.97808">
        <ele>468.7</ele>
        <time>2026-05-29T12:19:27Z</time>
      </trkpt>
      <trkpt lat="42.98078" lon="1.97807">
        <ele>467.8</ele>
        <time>2026-05-29T12:19:32Z</time>
      </trkpt>
      <trkpt lat="42.98072" lon="1.97807">
        <ele>466.9</ele>
        <time>2026-05-29T12:19:37Z</time>
      </trkpt>
      <trkpt lat="42.98066" lon="1.97806">
        <ele>465.9</ele>
        <time>2026-05-29T12:19:42Z</time>
      </trkpt>
      <trkpt lat="42.9806" lon="1.97806">
        <ele>465</ele>
        <time>2026-05-29T12:19:47Z</time>
      </trkpt>
      <trkpt lat="42.98054" lon="1.97806">
        <ele>464.2</ele>
        <time>2026-05-29T12:19:52Z</time>
      </trkpt>
      <trkpt lat="42.98048" lon="1.97806">
        <ele>463.3</ele>
        <time>2026-05-29T12:19:57Z</time>
      </trkpt>
      <trkpt lat="42.98042" lon="1.97808">
        <ele>462.7</ele>
        <time>2026-05-29T12:20:02Z</time>
      </trkpt>
      <trkpt lat="42.98037" lon="1.9781">
        <ele>462.3</ele>
        <time>2026-05-29T12:20:07Z</time>
      </trkpt>
      <trkpt lat="42.98031" lon="1.97812">
        <ele>461.7</ele>
        <time>2026-05-29T12:20:12Z</time>
      </trkpt>
      <trkpt lat="42.98026" lon="1.97813">
        <ele>461.1</ele>
        <time>2026-05-29T12:20:17Z</time>
      </trkpt>
      <trkpt lat="42.98021" lon="1.97815">
        <ele>460.7</ele>
        <time>2026-05-29T12:20:22Z</time>
      </trkpt>
      <trkpt lat="42.98015" lon="1.97815">
        <ele>459.8</ele>
        <time>2026-05-29T12:20:27Z</time>
      </trkpt>
      <trkpt lat="42.98008" lon="1.97817">
        <ele>459</ele>
        <time>2026-05-29T12:20:32Z</time>
      </trkpt>
      <trkpt lat="42.98003" lon="1.97818">
        <ele>458.4</ele>
        <time>2026-05-29T12:20:37Z</time>
      </trkpt>
      <trkpt lat="42.97997" lon="1.9782">
        <ele>457.9</ele>
        <time>2026-05-29T12:20:42Z</time>
      </trkpt>
      <trkpt lat="42.97992" lon="1.9782">
        <ele>457.3</ele>
        <time>2026-05-29T12:20:47Z</time>
      </trkpt>
      <trkpt lat="42.97985" lon="1.97822">
        <ele>456.8</ele>
        <time>2026-05-29T12:20:52Z</time>
      </trkpt>
      <trkpt lat="42.9798" lon="1.97824">
        <ele>456.5</ele>
        <time>2026-05-29T12:20:57Z</time>
      </trkpt>
      <trkpt lat="42.97973" lon="1.97826">
        <ele>456</ele>
        <time>2026-05-29T12:21:02Z</time>
      </trkpt>
      <trkpt lat="42.97968" lon="1.97829">
        <ele>455.9</ele>
        <time>2026-05-29T12:21:07Z</time>
      </trkpt>
      <trkpt lat="42.9796" lon="1.97832">
        <ele>455.5</ele>
        <time>2026-05-29T12:21:12Z</time>
      </trkpt>
      <trkpt lat="42.97952" lon="1.97836">
        <ele>455.2</ele>
        <time>2026-05-29T12:21:17Z</time>
      </trkpt>
      <trkpt lat="42.97948" lon="1.9784">
        <ele>455.3</ele>
        <time>2026-05-29T12:21:22Z</time>
      </trkpt>
      <trkpt lat="42.97944" lon="1.97841">
        <ele>455</ele>
        <time>2026-05-29T12:21:27Z</time>
      </trkpt>
      <trkpt lat="42.97939" lon="1.97846">
        <ele>455.2</ele>
        <time>2026-05-29T12:21:32Z</time>
      </trkpt>
      <trkpt lat="42.97933" lon="1.9785">
        <ele>455.1</ele>
        <time>2026-05-29T12:21:37Z</time>
      </trkpt>
      <trkpt lat="42.97927" lon="1.97854">
        <ele>455</ele>
        <time>2026-05-29T12:21:42Z</time>
      </trkpt>
      <trkpt lat="42.9792" lon="1.97857">
        <ele>454.7</ele>
        <time>2026-05-29T12:21:47Z</time>
      </trkpt>
      <trkpt lat="42.97914" lon="1.97862">
        <ele>455</ele>
        <time>2026-05-29T12:21:52Z</time>
      </trkpt>
      <trkpt lat="42.97908" lon="1.97868">
        <ele>455.5</ele>
        <time>2026-05-29T12:21:57Z</time>
      </trkpt>
      <trkpt lat="42.97902" lon="1.97871">
        <ele>455.5</ele>
        <time>2026-05-29T12:22:02Z</time>
      </trkpt>
      <trkpt lat="42.97897" lon="1.97867">
        <ele>454.6</ele>
        <time>2026-05-29T12:22:07Z</time>
      </trkpt>
      <trkpt lat="42.97897" lon="1.97858">
        <ele>453.3</ele>
        <time>2026-05-29T12:22:12Z</time>
      </trkpt>
      <trkpt lat="42.979" lon="1.97851">
        <ele>452.4</ele>
        <time>2026-05-29T12:22:17Z</time>
      </trkpt>
      <trkpt lat="42.97901" lon="1.97843">
        <ele>451.3</ele>
        <time>2026-05-29T12:22:22Z</time>
      </trkpt>
      <trkpt lat="42.97904" lon="1.97836">
        <ele>450.5</ele>
        <time>2026-05-29T12:22:27Z</time>
      </trkpt>
      <trkpt lat="42.97907" lon="1.97829">
        <ele>449.6</ele>
        <time>2026-05-29T12:22:32Z</time>
      </trkpt>
      <trkpt lat="42.97909" lon="1.97823">
        <ele>448.7</ele>
        <time>2026-05-29T12:22:37Z</time>
      </trkpt>
      <trkpt lat="42.97911" lon="1.97816">
        <ele>447.6</ele>
        <time>2026-05-29T12:22:42Z</time>
      </trkpt>
      <trkpt lat="42.97916" lon="1.97806">
        <ele>446.4</ele>
        <time>2026-05-29T12:22:47Z</time>
      </trkpt>
      <trkpt lat="42.97919" lon="1.97798">
        <ele>445.4</ele>
        <time>2026-05-29T12:22:52Z</time>
      </trkpt>
      <trkpt lat="42.97921" lon="1.97792">
        <ele>444.6</ele>
        <time>2026-05-29T12:22:57Z</time>
      </trkpt>
      <trkpt lat="42.97924" lon="1.97786">
        <ele>444</ele>
        <time>2026-05-29T12:23:02Z</time>
      </trkpt>
      <trkpt lat="42.97926" lon="1.9778">
        <ele>443.3</ele>
        <time>2026-05-29T12:23:07Z</time>
      </trkpt>
      <trkpt lat="42.97926" lon="1.97781">
        <ele>443.4</ele>
        <time>2026-05-29T12:23:12Z</time>
      </trkpt>
      <trkpt lat="42.97923" lon="1.97779">
        <ele>442.7</ele>
        <time>2026-05-29T12:23:17Z</time>
      </trkpt>
      <trkpt lat="42.97916" lon="1.97777">
        <ele>441.5</ele>
        <time>2026-05-29T12:23:22Z</time>
      </trkpt>
      <trkpt lat="42.97911" lon="1.97776">
        <ele>440.8</ele>
        <time>2026-05-29T12:23:27Z</time>
      </trkpt>
      <trkpt lat="42.97907" lon="1.97776">
        <ele>440.4</ele>
        <time>2026-05-29T12:23:32Z</time>
      </trkpt>
      <trkpt lat="42.97905" lon="1.97774">
        <ele>439.9</ele>
        <time>2026-05-29T12:23:37Z</time>
      </trkpt>
      <trkpt lat="42.97903" lon="1.97769">
        <ele>438.8</ele>
        <time>2026-05-29T12:23:42Z</time>
      </trkpt>
      <trkpt lat="42.979" lon="1.97766">
        <ele>438</ele>
        <time>2026-05-29T12:23:47Z</time>
      </trkpt>
      <trkpt lat="42.97897" lon="1.97763">
        <ele>437.2</ele>
        <time>2026-05-29T12:23:52Z</time>
      </trkpt>
      <trkpt lat="42.97895" lon="1.97762">
        <ele>436.8</ele>
        <time>2026-05-29T12:23:57Z</time>
      </trkpt>
      <trkpt lat="42.97893" lon="1.97759">
        <ele>436</ele>
        <time>2026-05-29T12:24:02Z</time>
      </trkpt>
      <trkpt lat="42.9789" lon="1.97755">
        <ele>435</ele>
        <time>2026-05-29T12:24:07Z</time>
      </trkpt>
      <trkpt lat="42.9789" lon="1.9775">
        <ele>434.1</ele>
        <time>2026-05-29T12:24:12Z</time>
      </trkpt>
      <trkpt lat="42.97889" lon="1.97747">
        <ele>433.7</ele>
        <time>2026-05-29T12:24:17Z</time>
      </trkpt>
      <trkpt lat="42.97889" lon="1.97747">
        <ele>433.7</ele>
        <time>2026-05-29T12:24:22Z</time>
      </trkpt>
      <trkpt lat="42.97879" lon="1.97745">
        <ele>432.4</ele>
        <time>2026-05-29T12:24:27Z</time>
      </trkpt>
      <trkpt lat="42.97876" lon="1.97741">
        <ele>431.6</ele>
        <time>2026-05-29T12:24:32Z</time>
      </trkpt>
      <trkpt lat="42.97873" lon="1.97738">
        <ele>431</ele>
        <time>2026-05-29T12:24:37Z</time>
      </trkpt>
      <trkpt lat="42.9787" lon="1.97736">
        <ele>430.4</ele>
        <time>2026-05-29T12:24:42Z</time>
      </trkpt>
      <trkpt lat="42.97867" lon="1.97735">
        <ele>430</ele>
        <time>2026-05-29T12:24:47Z</time>
      </trkpt>
      <trkpt lat="42.97863" lon="1.97732">
        <ele>429.3</ele>
        <time>2026-05-29T12:24:52Z</time>
      </trkpt>
      <trkpt lat="42.97861" lon="1.9773">
        <ele>428.8</ele>
        <time>2026-05-29T12:24:57Z</time>
      </trkpt>
      <trkpt lat="42.97858" lon="1.97725">
        <ele>428</ele>
        <time>2026-05-29T12:25:02Z</time>
      </trkpt>
      <trkpt lat="42.97854" lon="1.97717">
        <ele>426.7</ele>
        <time>2026-05-29T12:25:07Z</time>
      </trkpt>
      <trkpt lat="42.97849" lon="1.97709">
        <ele>425.3</ele>
        <time>2026-05-29T12:25:12Z</time>
      </trkpt>
      <trkpt lat="42.97845" lon="1.97706">
        <ele>424.5</ele>
        <time>2026-05-29T12:25:17Z</time>
      </trkpt>
      <trkpt lat="42.97841" lon="1.97704">
        <ele>423.9</ele>
        <time>2026-05-29T12:25:22Z</time>
      </trkpt>
      <trkpt lat="42.97836" lon="1.97704">
        <ele>423.3</ele>
        <time>2026-05-29T12:25:27Z</time>
      </trkpt>
      <trkpt lat="42.97832" lon="1.97708">
        <ele>423.4</ele>
        <time>2026-05-29T12:25:32Z</time>
      </trkpt>
      <trkpt lat="42.97827" lon="1.9771">
        <ele>423.6</ele>
        <time>2026-05-29T12:25:37Z</time>
      </trkpt>
      <trkpt lat="42.97821" lon="1.97705">
        <ele>423</ele>
        <time>2026-05-29T12:25:42Z</time>
      </trkpt>
      <trkpt lat="42.97817" lon="1.97699">
        <ele>422.3</ele>
        <time>2026-05-29T12:25:47Z</time>
      </trkpt>
      <trkpt lat="42.97813" lon="1.97693">
        <ele>421.7</ele>
        <time>2026-05-29T12:25:52Z</time>
      </trkpt>
      <trkpt lat="42.97809" lon="1.97687">
        <ele>421.1</ele>
        <time>2026-05-29T12:25:57Z</time>
      </trkpt>
      <trkpt lat="42.97803" lon="1.97686">
        <ele>420.9</ele>
        <time>2026-05-29T12:26:02Z</time>
      </trkpt>
      <trkpt lat="42.97797" lon="1.97687">
        <ele>421</ele>
        <time>2026-05-29T12:26:07Z</time>
      </trkpt>
      <trkpt lat="42.97791" lon="1.97688">
        <ele>421</ele>
        <time>2026-05-29T12:26:12Z</time>
      </trkpt>
      <trkpt lat="42.97785" lon="1.97691">
        <ele>421.3</ele>
        <time>2026-05-29T12:26:17Z</time>
      </trkpt>
      <trkpt lat="42.9778" lon="1.97695">
        <ele>421.6</ele>
        <time>2026-05-29T12:26:22Z</time>
      </trkpt>
      <trkpt lat="42.97773" lon="1.97697">
        <ele>421.7</ele>
        <time>2026-05-29T12:26:27Z</time>
      </trkpt>
      <trkpt lat="42.97768" lon="1.97699">
        <ele>421.9</ele>
        <time>2026-05-29T12:26:32Z</time>
      </trkpt>
      <trkpt lat="42.97762" lon="1.977">
        <ele>421.9</ele>
        <time>2026-05-29T12:26:37Z</time>
      </trkpt>
      <trkpt lat="42.97756" lon="1.977">
        <ele>421.9</ele>
        <time>2026-05-29T12:26:42Z</time>
      </trkpt>
      <trkpt lat="42.9775" lon="1.977">
        <ele>421.8</ele>
        <time>2026-05-29T12:26:47Z</time>
      </trkpt>
      <trkpt lat="42.97743" lon="1.97698">
        <ele>421.8</ele>
        <time>2026-05-29T12:26:52Z</time>
      </trkpt>
      <trkpt lat="42.97738" lon="1.97697">
        <ele>421.9</ele>
        <time>2026-05-29T12:26:57Z</time>
      </trkpt>
      <trkpt lat="42.97733" lon="1.97696">
        <ele>421.9</ele>
        <time>2026-05-29T12:27:02Z</time>
      </trkpt>
      <trkpt lat="42.97728" lon="1.97693">
        <ele>421.9</ele>
        <time>2026-05-29T12:27:07Z</time>
      </trkpt>
      <trkpt lat="42.97722" lon="1.97691">
        <ele>421.9</ele>
        <time>2026-05-29T12:27:12Z</time>
      </trkpt>
      <trkpt lat="42.97717" lon="1.97688">
        <ele>421.9</ele>
        <time>2026-05-29T12:27:17Z</time>
      </trkpt>
      <trkpt lat="42.97711" lon="1.97687">
        <ele>422</ele>
        <time>2026-05-29T12:27:22Z</time>
      </trkpt>
      <trkpt lat="42.97704" lon="1.97685">
        <ele>422.1</ele>
        <time>2026-05-29T12:27:27Z</time>
      </trkpt>
      <trkpt lat="42.97698" lon="1.97685">
        <ele>422.3</ele>
        <time>2026-05-29T12:27:32Z</time>
      </trkpt>
      <trkpt lat="42.97692" lon="1.97684">
        <ele>422.5</ele>
        <time>2026-05-29T12:27:37Z</time>
      </trkpt>
      <trkpt lat="42.97686" lon="1.97681">
        <ele>422.6</ele>
        <time>2026-05-29T12:27:42Z</time>
      </trkpt>
      <trkpt lat="42.97679" lon="1.97679">
        <ele>422.8</ele>
        <time>2026-05-29T12:27:47Z</time>
      </trkpt>
      <trkpt lat="42.97672" lon="1.97679">
        <ele>423.1</ele>
        <time>2026-05-29T12:27:52Z</time>
      </trkpt>
      <trkpt lat="42.97668" lon="1.97678">
        <ele>423.2</ele>
        <time>2026-05-29T12:27:57Z</time>
      </trkpt>
      <trkpt lat="42.97661" lon="1.97675">
        <ele>422.6</ele>
        <time>2026-05-29T12:28:02Z</time>
      </trkpt>
      <trkpt lat="42.97653" lon="1.97674">
        <ele>421.7</ele>
        <time>2026-05-29T12:28:07Z</time>
      </trkpt>
      <trkpt lat="42.97645" lon="1.97672">
        <ele>420.8</ele>
        <time>2026-05-29T12:28:12Z</time>
      </trkpt>
      <trkpt lat="42.97639" lon="1.97673">
        <ele>420.2</ele>
        <time>2026-05-29T12:28:17Z</time>
      </trkpt>
      <trkpt lat="42.97633" lon="1.9767">
        <ele>419.5</ele>
        <time>2026-05-29T12:28:22Z</time>
      </trkpt>
      <trkpt lat="42.97628" lon="1.97669">
        <ele>418.9</ele>
        <time>2026-05-29T12:28:27Z</time>
      </trkpt>
      <trkpt lat="42.97624" lon="1.97666">
        <ele>418.4</ele>
        <time>2026-05-29T12:28:32Z</time>
      </trkpt>
      <trkpt lat="42.97617" lon="1.97665">
        <ele>417.6</ele>
        <time>2026-05-29T12:28:37Z</time>
      </trkpt>
      <trkpt lat="42.97612" lon="1.97662">
        <ele>416.9</ele>
        <time>2026-05-29T12:28:42Z</time>
      </trkpt>
      <trkpt lat="42.97606" lon="1.97658">
        <ele>416</ele>
        <time>2026-05-29T12:28:47Z</time>
      </trkpt>
      <trkpt lat="42.97604" lon="1.97654">
        <ele>415.6</ele>
        <time>2026-05-29T12:28:52Z</time>
      </trkpt>
      <trkpt lat="42.97605" lon="1.97647">
        <ele>415.4</ele>
        <time>2026-05-29T12:28:57Z</time>
      </trkpt>
      <trkpt lat="42.97606" lon="1.9764">
        <ele>415.2</ele>
        <time>2026-05-29T12:29:02Z</time>
      </trkpt>
      <trkpt lat="42.97608" lon="1.97629">
        <ele>414.9</ele>
        <time>2026-05-29T12:29:07Z</time>
      </trkpt>
      <trkpt lat="42.9761" lon="1.97619">
        <ele>414.6</ele>
        <time>2026-05-29T12:29:12Z</time>
      </trkpt>
      <trkpt lat="42.9761" lon="1.9761">
        <ele>414.2</ele>
        <time>2026-05-29T12:29:17Z</time>
      </trkpt>
      <trkpt lat="42.97611" lon="1.97602">
        <ele>413.9</ele>
        <time>2026-05-29T12:29:22Z</time>
      </trkpt>
      <trkpt lat="42.97613" lon="1.97593">
        <ele>413.7</ele>
        <time>2026-05-29T12:29:27Z</time>
      </trkpt>
      <trkpt lat="42.97616" lon="1.97584">
        <ele>413.6</ele>
        <time>2026-05-29T12:29:32Z</time>
      </trkpt>
      <trkpt lat="42.97617" lon="1.97576">
        <ele>413.2</ele>
        <time>2026-05-29T12:29:37Z</time>
      </trkpt>
      <trkpt lat="42.97618" lon="1.97568">
        <ele>412.8</ele>
        <time>2026-05-29T12:29:42Z</time>
      </trkpt>
      <trkpt lat="42.97618" lon="1.97564">
        <ele>412.5</ele>
        <time>2026-05-29T12:29:47Z</time>
      </trkpt>
      <trkpt lat="42.97618" lon="1.97562">
        <ele>412.4</ele>
        <time>2026-05-29T12:29:52Z</time>
      </trkpt>
      <trkpt lat="42.9762" lon="1.97555">
        <ele>412.2</ele>
        <time>2026-05-29T12:29:57Z</time>
      </trkpt>
      <trkpt lat="42.97622" lon="1.97548">
        <ele>411.9</ele>
        <time>2026-05-29T12:30:02Z</time>
      </trkpt>
      <trkpt lat="42.97624" lon="1.9754">
        <ele>411.6</ele>
        <time>2026-05-29T12:30:07Z</time>
      </trkpt>
      <trkpt lat="42.97624" lon="1.97532">
        <ele>411</ele>
        <time>2026-05-29T12:30:12Z</time>
      </trkpt>
      <trkpt lat="42.97625" lon="1.97524">
        <ele>410.6</ele>
        <time>2026-05-29T12:30:17Z</time>
      </trkpt>
      <trkpt lat="42.97626" lon="1.97516">
        <ele>410.1</ele>
        <time>2026-05-29T12:30:22Z</time>
      </trkpt>
      <trkpt lat="42.97627" lon="1.97506">
        <ele>409.5</ele>
        <time>2026-05-29T12:30:27Z</time>
      </trkpt>
      <trkpt lat="42.97629" lon="1.97497">
        <ele>409.1</ele>
        <time>2026-05-29T12:30:32Z</time>
      </trkpt>
      <trkpt lat="42.97629" lon="1.97488">
        <ele>408.6</ele>
        <time>2026-05-29T12:30:37Z</time>
      </trkpt>
      <trkpt lat="42.97631" lon="1.9748">
        <ele>408.3</ele>
        <time>2026-05-29T12:30:42Z</time>
      </trkpt>
      <trkpt lat="42.97632" lon="1.97472">
        <ele>407.9</ele>
        <time>2026-05-29T12:30:47Z</time>
      </trkpt>
      <trkpt lat="42.97632" lon="1.97461">
        <ele>407.3</ele>
        <time>2026-05-29T12:30:52Z</time>
      </trkpt>
      <trkpt lat="42.97633" lon="1.97456">
        <ele>407</ele>
        <time>2026-05-29T12:30:57Z</time>
      </trkpt>
      <trkpt lat="42.97633" lon="1.97456">
        <ele>407</ele>
        <time>2026-05-29T12:31:02Z</time>
      </trkpt>
      <trkpt lat="42.97633" lon="1.97456">
        <ele>407</ele>
        <time>2026-05-29T12:31:07Z</time>
      </trkpt>
      <trkpt lat="42.97633" lon="1.97455">
        <ele>407</ele>
        <time>2026-05-29T12:31:12Z</time>
      </trkpt>
      <trkpt lat="42.97635" lon="1.97447">
        <ele>406.6</ele>
        <time>2026-05-29T12:31:17Z</time>
      </trkpt>
      <trkpt lat="42.97636" lon="1.97438">
        <ele>406.1</ele>
        <time>2026-05-29T12:31:22Z</time>
      </trkpt>
      <trkpt lat="42.97636" lon="1.97428">
        <ele>405.6</ele>
        <time>2026-05-29T12:31:27Z</time>
      </trkpt>
      <trkpt lat="42.97638" lon="1.97418">
        <ele>405</ele>
        <time>2026-05-29T12:31:32Z</time>
      </trkpt>
      <trkpt lat="42.97638" lon="1.97408">
        <ele>404.8</ele>
        <time>2026-05-29T12:31:37Z</time>
      </trkpt>
      <trkpt lat="42.97637" lon="1.97398">
        <ele>404.5</ele>
        <time>2026-05-29T12:31:42Z</time>
      </trkpt>
      <trkpt lat="42.97637" lon="1.97389">
        <ele>404.3</ele>
        <time>2026-05-29T12:31:47Z</time>
      </trkpt>
      <trkpt lat="42.97638" lon="1.9738">
        <ele>404.1</ele>
        <time>2026-05-29T12:31:52Z</time>
      </trkpt>
      <trkpt lat="42.97637" lon="1.97373">
        <ele>403.9</ele>
        <time>2026-05-29T12:31:57Z</time>
      </trkpt>
      <trkpt lat="42.97637" lon="1.97365">
        <ele>403.7</ele>
        <time>2026-05-29T12:32:02Z</time>
      </trkpt>
      <trkpt lat="42.97637" lon="1.97357">
        <ele>403.5</ele>
        <time>2026-05-29T12:32:07Z</time>
      </trkpt>
      <trkpt lat="42.97637" lon="1.97349">
        <ele>403.3</ele>
        <time>2026-05-29T12:32:12Z</time>
      </trkpt>
      <trkpt lat="42.97637" lon="1.9734">
        <ele>403.1</ele>
        <time>2026-05-29T12:32:17Z</time>
      </trkpt>
      <trkpt lat="42.97639" lon="1.9733">
        <ele>402.9</ele>
        <time>2026-05-29T12:32:22Z</time>
      </trkpt>
      <trkpt lat="42.97639" lon="1.97322">
        <ele>402.7</ele>
        <time>2026-05-29T12:32:27Z</time>
      </trkpt>
      <trkpt lat="42.97641" lon="1.97314">
        <ele>402.5</ele>
        <time>2026-05-29T12:32:32Z</time>
      </trkpt>
      <trkpt lat="42.97641" lon="1.97306">
        <ele>402.3</ele>
        <time>2026-05-29T12:32:37Z</time>
      </trkpt>
      <trkpt lat="42.97643" lon="1.97298">
        <ele>402.2</ele>
        <time>2026-05-29T12:32:42Z</time>
      </trkpt>
      <trkpt lat="42.97644" lon="1.97288">
        <ele>401.9</ele>
        <time>2026-05-29T12:32:47Z</time>
      </trkpt>
      <trkpt lat="42.97644" lon="1.97281">
        <ele>401.8</ele>
        <time>2026-05-29T12:32:52Z</time>
      </trkpt>
      <trkpt lat="42.97645" lon="1.97272">
        <ele>401.6</ele>
        <time>2026-05-29T12:32:57Z</time>
      </trkpt>
      <trkpt lat="42.97647" lon="1.97265">
        <ele>401.5</ele>
        <time>2026-05-29T12:33:02Z</time>
      </trkpt>
      <trkpt lat="42.97648" lon="1.97256">
        <ele>401.3</ele>
        <time>2026-05-29T12:33:07Z</time>
      </trkpt>
      <trkpt lat="42.9765" lon="1.97247">
        <ele>401.2</ele>
        <time>2026-05-29T12:33:12Z</time>
      </trkpt>
      <trkpt lat="42.9765" lon="1.9724">
        <ele>401.3</ele>
        <time>2026-05-29T12:33:17Z</time>
      </trkpt>
      <trkpt lat="42.97652" lon="1.97231">
        <ele>401.4</ele>
        <time>2026-05-29T12:33:22Z</time>
      </trkpt>
      <trkpt lat="42.97652" lon="1.97223">
        <ele>401.5</ele>
        <time>2026-05-29T12:33:27Z</time>
      </trkpt>
      <trkpt lat="42.97653" lon="1.97215">
        <ele>401.6</ele>
        <time>2026-05-29T12:33:32Z</time>
      </trkpt>
      <trkpt lat="42.97654" lon="1.97206">
        <ele>401.6</ele>
        <time>2026-05-29T12:33:37Z</time>
      </trkpt>
      <trkpt lat="42.97655" lon="1.97197">
        <ele>401.7</ele>
        <time>2026-05-29T12:33:42Z</time>
      </trkpt>
      <trkpt lat="42.97655" lon="1.9719">
        <ele>401.7</ele>
        <time>2026-05-29T12:33:47Z</time>
      </trkpt>
      <trkpt lat="42.97657" lon="1.97183">
        <ele>401.8</ele>
        <time>2026-05-29T12:33:52Z</time>
      </trkpt>
      <trkpt lat="42.97659" lon="1.97182">
        <ele>401.9</ele>
        <time>2026-05-29T12:33:57Z</time>
      </trkpt>
      <trkpt lat="42.97662" lon="1.97182">
        <ele>401.9</ele>
        <time>2026-05-29T12:34:02Z</time>
      </trkpt>
      <trkpt lat="42.97662" lon="1.97182">
        <ele>401.9</ele>
        <time>2026-05-29T12:34:02Z</time>
      </trkpt>
      <trkpt lat="42.97663" lon="1.97176">
        <ele>401.9</ele>
        <time>2026-05-29T12:55:43Z</time>
      </trkpt>
      <trkpt lat="42.97661" lon="1.9718">
        <ele>401.9</ele>
        <time>2026-05-29T12:55:49Z</time>
      </trkpt>
      <trkpt lat="42.97662" lon="1.97181">
        <ele>401.9</ele>
        <time>2026-05-29T12:55:54Z</time>
      </trkpt>
      <trkpt lat="42.97662" lon="1.97181">
        <ele>401.9</ele>
        <time>2026-05-29T12:55:59Z</time>
      </trkpt>
      <trkpt lat="42.97659" lon="1.9718">
        <ele>401.9</ele>
        <time>2026-05-29T12:56:04Z</time>
      </trkpt>
      <trkpt lat="42.97656" lon="1.97179">
        <ele>401.8</ele>
        <time>2026-05-29T12:56:09Z</time>
      </trkpt>
      <trkpt lat="42.97655" lon="1.97175">
        <ele>401.8</ele>
        <time>2026-05-29T12:56:14Z</time>
      </trkpt>
      <trkpt lat="42.97656" lon="1.97167">
        <ele>401.9</ele>
        <time>2026-05-29T12:56:19Z</time>
      </trkpt>
      <trkpt lat="42.97656" lon="1.97159">
        <ele>401.6</ele>
        <time>2026-05-29T12:56:24Z</time>
      </trkpt>
      <trkpt lat="42.97658" lon="1.97151">
        <ele>401.4</ele>
        <time>2026-05-29T12:56:29Z</time>
      </trkpt>
      <trkpt lat="42.97661" lon="1.97143">
        <ele>401.1</ele>
        <time>2026-05-29T12:56:34Z</time>
      </trkpt>
      <trkpt lat="42.97665" lon="1.97138">
        <ele>401</ele>
        <time>2026-05-29T12:56:39Z</time>
      </trkpt>
      <trkpt lat="42.9767" lon="1.97134">
        <ele>400.9</ele>
        <time>2026-05-29T12:56:44Z</time>
      </trkpt>
      <trkpt lat="42.97676" lon="1.9713">
        <ele>400.8</ele>
        <time>2026-05-29T12:56:49Z</time>
      </trkpt>
      <trkpt lat="42.97682" lon="1.97129">
        <ele>400.9</ele>
        <time>2026-05-29T12:56:54Z</time>
      </trkpt>
      <trkpt lat="42.97689" lon="1.97128">
        <ele>401</ele>
        <time>2026-05-29T12:56:59Z</time>
      </trkpt>
      <trkpt lat="42.97694" lon="1.97128">
        <ele>401.1</ele>
        <time>2026-05-29T12:57:04Z</time>
      </trkpt>
      <trkpt lat="42.97699" lon="1.97128">
        <ele>401.2</ele>
        <time>2026-05-29T12:57:09Z</time>
      </trkpt>
      <trkpt lat="42.97704" lon="1.97128">
        <ele>401.3</ele>
        <time>2026-05-29T12:57:14Z</time>
      </trkpt>
      <trkpt lat="42.97711" lon="1.97128">
        <ele>401.4</ele>
        <time>2026-05-29T12:57:19Z</time>
      </trkpt>
      <trkpt lat="42.97717" lon="1.97125">
        <ele>401.4</ele>
        <time>2026-05-29T12:57:24Z</time>
      </trkpt>
      <trkpt lat="42.97723" lon="1.97126">
        <ele>401.5</ele>
        <time>2026-05-29T12:57:29Z</time>
      </trkpt>
      <trkpt lat="42.97729" lon="1.97126">
        <ele>401.6</ele>
        <time>2026-05-29T12:57:34Z</time>
      </trkpt>
      <trkpt lat="42.97737" lon="1.97126">
        <ele>401.8</ele>
        <time>2026-05-29T12:57:39Z</time>
      </trkpt>
      <trkpt lat="42.97743" lon="1.97126">
        <ele>401.9</ele>
        <time>2026-05-29T12:57:44Z</time>
      </trkpt>
      <trkpt lat="42.9775" lon="1.97128">
        <ele>402.1</ele>
        <time>2026-05-29T12:57:49Z</time>
      </trkpt>
      <trkpt lat="42.97755" lon="1.97128">
        <ele>401.9</ele>
        <time>2026-05-29T12:57:54Z</time>
      </trkpt>
      <trkpt lat="42.97762" lon="1.97127">
        <ele>401.6</ele>
        <time>2026-05-29T12:57:59Z</time>
      </trkpt>
      <trkpt lat="42.97768" lon="1.97125">
        <ele>401.4</ele>
        <time>2026-05-29T12:58:04Z</time>
      </trkpt>
      <trkpt lat="42.97774" lon="1.97126">
        <ele>401.2</ele>
        <time>2026-05-29T12:58:09Z</time>
      </trkpt>
      <trkpt lat="42.97776" lon="1.97125">
        <ele>401.1</ele>
        <time>2026-05-29T12:58:14Z</time>
      </trkpt>
      <trkpt lat="42.97779" lon="1.97124">
        <ele>400.9</ele>
        <time>2026-05-29T12:58:19Z</time>
      </trkpt>
      <trkpt lat="42.97786" lon="1.97124">
        <ele>400.7</ele>
        <time>2026-05-29T12:58:24Z</time>
      </trkpt>
      <trkpt lat="42.97792" lon="1.97126">
        <ele>400.5</ele>
        <time>2026-05-29T12:58:29Z</time>
      </trkpt>
      <trkpt lat="42.97798" lon="1.97127">
        <ele>400.3</ele>
        <time>2026-05-29T12:58:34Z</time>
      </trkpt>
      <trkpt lat="42.97804" lon="1.97128">
        <ele>400.2</ele>
        <time>2026-05-29T12:58:39Z</time>
      </trkpt>
      <trkpt lat="42.97809" lon="1.9713">
        <ele>400.1</ele>
        <time>2026-05-29T12:58:44Z</time>
      </trkpt>
      <trkpt lat="42.97815" lon="1.97132">
        <ele>400</ele>
        <time>2026-05-29T12:58:49Z</time>
      </trkpt>
      <trkpt lat="42.97822" lon="1.97131">
        <ele>399.7</ele>
        <time>2026-05-29T12:58:54Z</time>
      </trkpt>
      <trkpt lat="42.97829" lon="1.97131">
        <ele>399.4</ele>
        <time>2026-05-29T12:58:59Z</time>
      </trkpt>
      <trkpt lat="42.97835" lon="1.97129">
        <ele>399.2</ele>
        <time>2026-05-29T12:59:04Z</time>
      </trkpt>
      <trkpt lat="42.97842" lon="1.97128">
        <ele>399.4</ele>
        <time>2026-05-29T12:59:09Z</time>
      </trkpt>
      <trkpt lat="42.97848" lon="1.97122">
        <ele>399.3</ele>
        <time>2026-05-29T12:59:14Z</time>
      </trkpt>
      <trkpt lat="42.97852" lon="1.97116">
        <ele>399.1</ele>
        <time>2026-05-29T12:59:19Z</time>
      </trkpt>
      <trkpt lat="42.97856" lon="1.97108">
        <ele>398.8</ele>
        <time>2026-05-29T12:59:24Z</time>
      </trkpt>
      <trkpt lat="42.9786" lon="1.97101">
        <ele>398.6</ele>
        <time>2026-05-29T12:59:29Z</time>
      </trkpt>
      <trkpt lat="42.9786" lon="1.97098">
        <ele>398.4</ele>
        <time>2026-05-29T12:59:34Z</time>
      </trkpt>
      <trkpt lat="42.97861" lon="1.97095">
        <ele>398.3</ele>
        <time>2026-05-29T12:59:39Z</time>
      </trkpt>
      <trkpt lat="42.97863" lon="1.9709">
        <ele>398.1</ele>
        <time>2026-05-29T12:59:44Z</time>
      </trkpt>
      <trkpt lat="42.97863" lon="1.97089">
        <ele>398</ele>
        <time>2026-05-29T12:59:49Z</time>
      </trkpt>
      <trkpt lat="42.97865" lon="1.97086">
        <ele>397.9</ele>
        <time>2026-05-29T12:59:54Z</time>
      </trkpt>
      <trkpt lat="42.97867" lon="1.97079">
        <ele>397.6</ele>
        <time>2026-05-29T12:59:59Z</time>
      </trkpt>
      <trkpt lat="42.97869" lon="1.97073">
        <ele>397.5</ele>
        <time>2026-05-29T13:00:04Z</time>
      </trkpt>
      <trkpt lat="42.97869" lon="1.97064">
        <ele>397.1</ele>
        <time>2026-05-29T13:00:09Z</time>
      </trkpt>
      <trkpt lat="42.97869" lon="1.97055">
        <ele>396.8</ele>
        <time>2026-05-29T13:00:14Z</time>
      </trkpt>
      <trkpt lat="42.97869" lon="1.97047">
        <ele>396.5</ele>
        <time>2026-05-29T13:00:19Z</time>
      </trkpt>
      <trkpt lat="42.97869" lon="1.97038">
        <ele>396.1</ele>
        <time>2026-05-29T13:00:24Z</time>
      </trkpt>
      <trkpt lat="42.97872" lon="1.97031">
        <ele>396</ele>
        <time>2026-05-29T13:00:29Z</time>
      </trkpt>
      <trkpt lat="42.97873" lon="1.97023">
        <ele>395.7</ele>
        <time>2026-05-29T13:00:34Z</time>
      </trkpt>
      <trkpt lat="42.97872" lon="1.97014">
        <ele>395.4</ele>
        <time>2026-05-29T13:00:39Z</time>
      </trkpt>
      <trkpt lat="42.97872" lon="1.97006">
        <ele>395.1</ele>
        <time>2026-05-29T13:00:44Z</time>
      </trkpt>
      <trkpt lat="42.97873" lon="1.96999">
        <ele>394.9</ele>
        <time>2026-05-29T13:00:49Z</time>
      </trkpt>
      <trkpt lat="42.97875" lon="1.96992">
        <ele>395</ele>
        <time>2026-05-29T13:00:54Z</time>
      </trkpt>
      <trkpt lat="42.97879" lon="1.96984">
        <ele>395.2</ele>
        <time>2026-05-29T13:00:59Z</time>
      </trkpt>
      <trkpt lat="42.97882" lon="1.96977">
        <ele>395.2</ele>
        <time>2026-05-29T13:01:04Z</time>
      </trkpt>
      <trkpt lat="42.97884" lon="1.96973">
        <ele>395.3</ele>
        <time>2026-05-29T13:01:09Z</time>
      </trkpt>
      <trkpt lat="42.97888" lon="1.96967">
        <ele>395.4</ele>
        <time>2026-05-29T13:01:14Z</time>
      </trkpt>
      <trkpt lat="42.97892" lon="1.9696">
        <ele>395.4</ele>
        <time>2026-05-29T13:01:19Z</time>
      </trkpt>
      <trkpt lat="42.97898" lon="1.96956">
        <ele>395.5</ele>
        <time>2026-05-29T13:01:24Z</time>
      </trkpt>
      <trkpt lat="42.97903" lon="1.96954">
        <ele>395.6</ele>
        <time>2026-05-29T13:01:29Z</time>
      </trkpt>
      <trkpt lat="42.97908" lon="1.9695">
        <ele>395.6</ele>
        <time>2026-05-29T13:01:34Z</time>
      </trkpt>
      <trkpt lat="42.97913" lon="1.96945">
        <ele>395.6</ele>
        <time>2026-05-29T13:01:39Z</time>
      </trkpt>
      <trkpt lat="42.97919" lon="1.96943">
        <ele>395.7</ele>
        <time>2026-05-29T13:01:44Z</time>
      </trkpt>
      <trkpt lat="42.97924" lon="1.96941">
        <ele>395.9</ele>
        <time>2026-05-29T13:01:49Z</time>
      </trkpt>
      <trkpt lat="42.97929" lon="1.96941">
        <ele>396.2</ele>
        <time>2026-05-29T13:01:54Z</time>
      </trkpt>
      <trkpt lat="42.97933" lon="1.96942">
        <ele>396.4</ele>
        <time>2026-05-29T13:01:59Z</time>
      </trkpt>
      <trkpt lat="42.97939" lon="1.96942">
        <ele>396.7</ele>
        <time>2026-05-29T13:02:04Z</time>
      </trkpt>
      <trkpt lat="42.97945" lon="1.96944">
        <ele>397</ele>
        <time>2026-05-29T13:02:09Z</time>
      </trkpt>
      <trkpt lat="42.9795" lon="1.96945">
        <ele>397.3</ele>
        <time>2026-05-29T13:02:14Z</time>
      </trkpt>
      <trkpt lat="42.97956" lon="1.96945">
        <ele>397.6</ele>
        <time>2026-05-29T13:02:19Z</time>
      </trkpt>
      <trkpt lat="42.97963" lon="1.96946">
        <ele>398</ele>
        <time>2026-05-29T13:02:24Z</time>
      </trkpt>
      <trkpt lat="42.97968" lon="1.96947">
        <ele>398.2</ele>
        <time>2026-05-29T13:02:29Z</time>
      </trkpt>
      <trkpt lat="42.97974" lon="1.9695">
        <ele>398.7</ele>
        <time>2026-05-29T13:02:34Z</time>
      </trkpt>
      <trkpt lat="42.9798" lon="1.96952">
        <ele>399.1</ele>
        <time>2026-05-29T13:02:39Z</time>
      </trkpt>
      <trkpt lat="42.97986" lon="1.96953">
        <ele>399.5</ele>
        <time>2026-05-29T13:02:44Z</time>
      </trkpt>
      <trkpt lat="42.97992" lon="1.96953">
        <ele>399.8</ele>
        <time>2026-05-29T13:02:49Z</time>
      </trkpt>
      <trkpt lat="42.97998" lon="1.96954">
        <ele>400.1</ele>
        <time>2026-05-29T13:02:54Z</time>
      </trkpt>
      <trkpt lat="42.98" lon="1.96954">
        <ele>400.2</ele>
        <time>2026-05-29T13:02:59Z</time>
      </trkpt>
      <trkpt lat="42.98003" lon="1.96952">
        <ele>400.3</ele>
        <time>2026-05-29T13:03:04Z</time>
      </trkpt>
      <trkpt lat="42.98009" lon="1.96952">
        <ele>400.7</ele>
        <time>2026-05-29T13:03:09Z</time>
      </trkpt>
      <trkpt lat="42.98015" lon="1.96954">
        <ele>401.2</ele>
        <time>2026-05-29T13:03:14Z</time>
      </trkpt>
      <trkpt lat="42.98021" lon="1.96956">
        <ele>401.7</ele>
        <time>2026-05-29T13:03:19Z</time>
      </trkpt>
      <trkpt lat="42.98025" lon="1.96957">
        <ele>402.1</ele>
        <time>2026-05-29T13:03:24Z</time>
      </trkpt>
      <trkpt lat="42.98028" lon="1.96959">
        <ele>402.4</ele>
        <time>2026-05-29T13:03:29Z</time>
      </trkpt>
      <trkpt lat="42.98028" lon="1.9696">
        <ele>402.5</ele>
        <time>2026-05-29T13:03:34Z</time>
      </trkpt>
      <trkpt lat="42.98028" lon="1.9696">
        <ele>402.5</ele>
        <time>2026-05-29T13:03:39Z</time>
      </trkpt>
      <trkpt lat="42.98028" lon="1.9696">
        <ele>402.5</ele>
        <time>2026-05-29T13:03:44Z</time>
      </trkpt>
      <trkpt lat="42.98028" lon="1.9696">
        <ele>402.5</ele>
        <time>2026-05-29T13:03:49Z</time>
      </trkpt>
      <trkpt lat="42.98028" lon="1.9696">
        <ele>402.5</ele>
        <time>2026-05-29T13:03:54Z</time>
      </trkpt>
      <trkpt lat="42.98028" lon="1.9696">
        <ele>402.5</ele>
        <time>2026-05-29T13:03:59Z</time>
      </trkpt>
      <trkpt lat="42.98028" lon="1.9696">
        <ele>402.5</ele>
        <time>2026-05-29T13:04:04Z</time>
      </trkpt>
      <trkpt lat="42.98028" lon="1.9696">
        <ele>402.5</ele>
        <time>2026-05-29T13:04:09Z</time>
      </trkpt>
      <trkpt lat="42.98028" lon="1.9696">
        <ele>402.5</ele>
        <time>2026-05-29T13:04:14Z</time>
      </trkpt>
      <trkpt lat="42.98028" lon="1.9696">
        <ele>402.5</ele>
        <time>2026-05-29T13:04:19Z</time>
      </trkpt>
      <trkpt lat="42.98034" lon="1.96959">
        <ele>402.8</ele>
        <time>2026-05-29T13:04:24Z</time>
      </trkpt>
      <trkpt lat="42.98039" lon="1.96962">
        <ele>403.3</ele>
        <time>2026-05-29T13:04:29Z</time>
      </trkpt>
      <trkpt lat="42.98044" lon="1.96964">
        <ele>403.8</ele>
        <time>2026-05-29T13:04:34Z</time>
      </trkpt>
      <trkpt lat="42.98049" lon="1.96966">
        <ele>404.2</ele>
        <time>2026-05-29T13:04:39Z</time>
      </trkpt>
      <trkpt lat="42.98054" lon="1.96969">
        <ele>404.8</ele>
        <time>2026-05-29T13:04:44Z</time>
      </trkpt>
      <trkpt lat="42.98058" lon="1.96974">
        <ele>405.4</ele>
        <time>2026-05-29T13:04:49Z</time>
      </trkpt>
      <trkpt lat="42.98061" lon="1.96979">
        <ele>405.9</ele>
        <time>2026-05-29T13:04:54Z</time>
      </trkpt>
      <trkpt lat="42.98063" lon="1.96987">
        <ele>406.6</ele>
        <time>2026-05-29T13:04:59Z</time>
      </trkpt>
      <trkpt lat="42.98061" lon="1.96995">
        <ele>407</ele>
        <time>2026-05-29T13:05:04Z</time>
      </trkpt>
      <trkpt lat="42.98059" lon="1.97002">
        <ele>407.3</ele>
        <time>2026-05-29T13:05:09Z</time>
      </trkpt>
      <trkpt lat="42.98058" lon="1.97009">
        <ele>407.5</ele>
        <time>2026-05-29T13:05:14Z</time>
      </trkpt>
      <trkpt lat="42.98061" lon="1.97015">
        <ele>407.9</ele>
        <time>2026-05-29T13:05:19Z</time>
      </trkpt>
      <trkpt lat="42.98063" lon="1.9702">
        <ele>408.2</ele>
        <time>2026-05-29T13:05:24Z</time>
      </trkpt>
      <trkpt lat="42.98062" lon="1.97027">
        <ele>408.4</ele>
        <time>2026-05-29T13:05:29Z</time>
      </trkpt>
      <trkpt lat="42.98063" lon="1.97033">
        <ele>408.6</ele>
        <time>2026-05-29T13:05:34Z</time>
      </trkpt>
      <trkpt lat="42.98064" lon="1.97039">
        <ele>408.9</ele>
        <time>2026-05-29T13:05:39Z</time>
      </trkpt>
      <trkpt lat="42.98065" lon="1.97045">
        <ele>409.2</ele>
        <time>2026-05-29T13:05:44Z</time>
      </trkpt>
      <trkpt lat="42.98066" lon="1.97051">
        <ele>409.5</ele>
        <time>2026-05-29T13:05:49Z</time>
      </trkpt>
      <trkpt lat="42.98065" lon="1.97057">
        <ele>409.6</ele>
        <time>2026-05-29T13:05:54Z</time>
      </trkpt>
      <trkpt lat="42.98063" lon="1.97064">
        <ele>409.7</ele>
        <time>2026-05-29T13:05:59Z</time>
      </trkpt>
      <trkpt lat="42.98059" lon="1.97065">
        <ele>409.4</ele>
        <time>2026-05-29T13:06:04Z</time>
      </trkpt>
      <trkpt lat="42.98055" lon="1.97063">
        <ele>409</ele>
        <time>2026-05-29T13:06:09Z</time>
      </trkpt>
      <trkpt lat="42.98053" lon="1.97063">
        <ele>408.8</ele>
        <time>2026-05-29T13:06:14Z</time>
      </trkpt>
      <trkpt lat="42.98051" lon="1.97064">
        <ele>408.7</ele>
        <time>2026-05-29T13:06:19Z</time>
      </trkpt>
      <trkpt lat="42.98051" lon="1.97056">
        <ele>408.4</ele>
        <time>2026-05-29T13:06:24Z</time>
      </trkpt>
      <trkpt lat="42.98052" lon="1.9705">
        <ele>408.3</ele>
        <time>2026-05-29T13:06:29Z</time>
      </trkpt>
      <trkpt lat="42.98055" lon="1.97051">
        <ele>408.6</ele>
        <time>2026-05-29T13:06:34Z</time>
      </trkpt>
      <trkpt lat="42.9806" lon="1.97047">
        <ele>408.9</ele>
        <time>2026-05-29T13:06:39Z</time>
      </trkpt>
      <trkpt lat="42.98062" lon="1.9705">
        <ele>409.1</ele>
        <time>2026-05-29T13:06:44Z</time>
      </trkpt>
      <trkpt lat="42.98064" lon="1.9705">
        <ele>409.3</ele>
        <time>2026-05-29T13:06:49Z</time>
      </trkpt>
      <trkpt lat="42.98065" lon="1.9705">
        <ele>409.3</ele>
        <time>2026-05-29T13:06:54Z</time>
      </trkpt>
      <trkpt lat="42.98065" lon="1.97051">
        <ele>409.4</ele>
        <time>2026-05-29T13:06:59Z</time>
      </trkpt>
      <trkpt lat="42.98065" lon="1.97051">
        <ele>409.4</ele>
        <time>2026-05-29T13:07:04Z</time>
      </trkpt>
      <trkpt lat="42.98065" lon="1.97051">
        <ele>409.4</ele>
        <time>2026-05-29T13:07:09Z</time>
      </trkpt>
      <trkpt lat="42.98065" lon="1.97051">
        <ele>409.4</ele>
        <time>2026-05-29T13:07:14Z</time>
      </trkpt>
      <trkpt lat="42.98065" lon="1.97051">
        <ele>409.4</ele>
        <time>2026-05-29T13:07:19Z</time>
      </trkpt>
      <trkpt lat="42.98065" lon="1.97051">
        <ele>409.4</ele>
        <time>2026-05-29T13:07:24Z</time>
      </trkpt>
      <trkpt lat="42.98065" lon="1.97051">
        <ele>409.4</ele>
        <time>2026-05-29T13:07:29Z</time>
      </trkpt>
      <trkpt lat="42.98065" lon="1.97051">
        <ele>409.4</ele>
        <time>2026-05-29T13:07:34Z</time>
      </trkpt>
      <trkpt lat="42.98065" lon="1.97051">
        <ele>409.4</ele>
        <time>2026-05-29T13:07:39Z</time>
      </trkpt>
      <trkpt lat="42.98065" lon="1.97051">
        <ele>409.4</ele>
        <time>2026-05-29T13:07:44Z</time>
      </trkpt>
      <trkpt lat="42.98065" lon="1.97051">
        <ele>409.4</ele>
        <time>2026-05-29T13:07:49Z</time>
      </trkpt>
      <trkpt lat="42.98065" lon="1.97051">
        <ele>409.4</ele>
        <time>2026-05-29T13:07:54Z</time>
      </trkpt>
      <trkpt lat="42.98065" lon="1.97051">
        <ele>409.4</ele>
        <time>2026-05-29T13:07:59Z</time>
      </trkpt>
      <trkpt lat="42.98065" lon="1.97051">
        <ele>409.4</ele>
        <time>2026-05-29T13:08:04Z</time>
      </trkpt>
      <trkpt lat="42.98065" lon="1.97051">
        <ele>409.4</ele>
        <time>2026-05-29T13:08:09Z</time>
      </trkpt>
      <trkpt lat="42.98065" lon="1.97051">
        <ele>409.4</ele>
        <time>2026-05-29T13:08:14Z</time>
      </trkpt>
      <trkpt lat="42.98065" lon="1.97051">
        <ele>409.4</ele>
        <time>2026-05-29T13:08:19Z</time>
      </trkpt>
      <trkpt lat="42.98065" lon="1.97051">
        <ele>409.4</ele>
        <time>2026-05-29T13:08:24Z</time>
      </trkpt>
      <trkpt lat="42.98065" lon="1.97051">
        <ele>409.4</ele>
        <time>2026-05-29T13:08:29Z</time>
      </trkpt>
      <trkpt lat="42.98065" lon="1.97051">
        <ele>409.4</ele>
        <time>2026-05-29T13:08:34Z</time>
      </trkpt>
      <trkpt lat="42.98065" lon="1.97051">
        <ele>409.4</ele>
        <time>2026-05-29T13:08:39Z</time>
      </trkpt>
      <trkpt lat="42.98065" lon="1.97051">
        <ele>409.4</ele>
        <time>2026-05-29T13:08:44Z</time>
      </trkpt>
      <trkpt lat="42.98065" lon="1.97051">
        <ele>409.4</ele>
        <time>2026-05-29T13:08:49Z</time>
      </trkpt>
      <trkpt lat="42.98065" lon="1.97051">
        <ele>409.4</ele>
        <time>2026-05-29T13:08:54Z</time>
      </trkpt>
      <trkpt lat="42.98065" lon="1.97051">
        <ele>409.4</ele>
        <time>2026-05-29T13:08:59Z</time>
      </trkpt>
      <trkpt lat="42.98065" lon="1.97051">
        <ele>409.4</ele>
        <time>2026-05-29T13:09:04Z</time>
      </trkpt>
      <trkpt lat="42.98065" lon="1.97051">
        <ele>409.4</ele>
        <time>2026-05-29T13:09:09Z</time>
      </trkpt>
      <trkpt lat="42.98065" lon="1.97051">
        <ele>409.4</ele>
        <time>2026-05-29T13:09:14Z</time>
      </trkpt>
      <trkpt lat="42.98065" lon="1.97051">
        <ele>409.4</ele>
        <time>2026-05-29T13:09:19Z</time>
      </trkpt>
      <trkpt lat="42.98065" lon="1.97051">
        <ele>409.4</ele>
        <time>2026-05-29T13:09:24Z</time>
      </trkpt>
      <trkpt lat="42.98065" lon="1.97051">
        <ele>409.4</ele>
        <time>2026-05-29T13:09:29Z</time>
      </trkpt>
      <trkpt lat="42.98065" lon="1.97051">
        <ele>409.4</ele>
        <time>2026-05-29T13:09:34Z</time>
      </trkpt>
      <trkpt lat="42.98065" lon="1.97051">
        <ele>409.4</ele>
        <time>2026-05-29T13:09:39Z</time>
      </trkpt>
      <trkpt lat="42.98065" lon="1.97051">
        <ele>409.4</ele>
        <time>2026-05-29T13:09:44Z</time>
      </trkpt>
      <trkpt lat="42.98065" lon="1.97051">
        <ele>409.4</ele>
        <time>2026-05-29T13:09:49Z</time>
      </trkpt>
      <trkpt lat="42.98065" lon="1.97051">
        <ele>409.4</ele>
        <time>2026-05-29T13:09:54Z</time>
      </trkpt>
      <trkpt lat="42.98064" lon="1.97044">
        <ele>409.1</ele>
        <time>2026-05-29T13:09:59Z</time>
      </trkpt>
      <trkpt lat="42.98063" lon="1.97043">
        <ele>409</ele>
        <time>2026-05-29T13:10:04Z</time>
      </trkpt>
      <trkpt lat="42.98064" lon="1.97038">
        <ele>408.9</ele>
        <time>2026-05-29T13:10:09Z</time>
      </trkpt>
      <trkpt lat="42.98063" lon="1.97033">
        <ele>408.6</ele>
        <time>2026-05-29T13:10:14Z</time>
      </trkpt>
      <trkpt lat="42.98063" lon="1.97031">
        <ele>408.6</ele>
        <time>2026-05-29T13:10:19Z</time>
      </trkpt>
      <trkpt lat="42.98064" lon="1.97026">
        <ele>408.5</ele>
        <time>2026-05-29T13:10:24Z</time>
      </trkpt>
      <trkpt lat="42.98063" lon="1.9702">
        <ele>408.2</ele>
        <time>2026-05-29T13:10:29Z</time>
      </trkpt>
      <trkpt lat="42.98061" lon="1.97014">
        <ele>407.9</ele>
        <time>2026-05-29T13:10:34Z</time>
      </trkpt>
      <trkpt lat="42.98058" lon="1.97007">
        <ele>407.4</ele>
        <time>2026-05-29T13:10:39Z</time>
      </trkpt>
      <trkpt lat="42.98057" lon="1.97001">
        <ele>407.1</ele>
        <time>2026-05-29T13:10:44Z</time>
      </trkpt>
      <trkpt lat="42.9806" lon="1.96995">
        <ele>407</ele>
        <time>2026-05-29T13:10:49Z</time>
      </trkpt>
      <trkpt lat="42.98062" lon="1.9699">
        <ele>406.8</ele>
        <time>2026-05-29T13:10:54Z</time>
      </trkpt>
      <trkpt lat="42.98063" lon="1.96988">
        <ele>406.7</ele>
        <time>2026-05-29T13:10:59Z</time>
      </trkpt>
      <trkpt lat="42.98062" lon="1.96981">
        <ele>406.2</ele>
        <time>2026-05-29T13:11:04Z</time>
      </trkpt>
      <trkpt lat="42.98059" lon="1.96975">
        <ele>405.5</ele>
        <time>2026-05-29T13:11:09Z</time>
      </trkpt>
      <trkpt lat="42.98055" lon="1.9697">
        <ele>404.9</ele>
        <time>2026-05-29T13:11:14Z</time>
      </trkpt>
      <trkpt lat="42.98051" lon="1.96966">
        <ele>404.4</ele>
        <time>2026-05-29T13:11:19Z</time>
      </trkpt>
      <trkpt lat="42.98046" lon="1.96964">
        <ele>403.9</ele>
        <time>2026-05-29T13:11:24Z</time>
      </trkpt>
      <trkpt lat="42.98042" lon="1.9696">
        <ele>403.4</ele>
        <time>2026-05-29T13:11:29Z</time>
      </trkpt>
      <trkpt lat="42.98037" lon="1.96957">
        <ele>402.9</ele>
        <time>2026-05-29T13:11:34Z</time>
      </trkpt>
      <trkpt lat="42.98032" lon="1.96955">
        <ele>402.4</ele>
        <time>2026-05-29T13:11:39Z</time>
      </trkpt>
      <trkpt lat="42.98025" lon="1.96953">
        <ele>401.8</ele>
        <time>2026-05-29T13:11:44Z</time>
      </trkpt>
      <trkpt lat="42.98023" lon="1.96953">
        <ele>401.7</ele>
        <time>2026-05-29T13:11:49Z</time>
      </trkpt>
      <trkpt lat="42.98023" lon="1.96953">
        <ele>401.7</ele>
        <time>2026-05-29T13:11:54Z</time>
      </trkpt>
      <trkpt lat="42.98023" lon="1.96953">
        <ele>401.7</ele>
        <time>2026-05-29T13:11:59Z</time>
      </trkpt>
      <trkpt lat="42.98023" lon="1.96953">
        <ele>401.7</ele>
        <time>2026-05-29T13:12:04Z</time>
      </trkpt>
      <trkpt lat="42.98021" lon="1.96949">
        <ele>401.3</ele>
        <time>2026-05-29T13:12:09Z</time>
      </trkpt>
      <trkpt lat="42.98023" lon="1.96941">
        <ele>400.9</ele>
        <time>2026-05-29T13:12:14Z</time>
      </trkpt>
      <trkpt lat="42.98027" lon="1.96936">
        <ele>400.9</ele>
        <time>2026-05-29T13:12:19Z</time>
      </trkpt>
      <trkpt lat="42.9803" lon="1.96929">
        <ele>400.6</ele>
        <time>2026-05-29T13:12:24Z</time>
      </trkpt>
      <trkpt lat="42.98034" lon="1.96924">
        <ele>400.5</ele>
        <time>2026-05-29T13:12:29Z</time>
      </trkpt>
      <trkpt lat="42.98037" lon="1.96917">
        <ele>400.2</ele>
        <time>2026-05-29T13:12:34Z</time>
      </trkpt>
      <trkpt lat="42.98041" lon="1.96912">
        <ele>400.3</ele>
        <time>2026-05-29T13:12:39Z</time>
      </trkpt>
      <trkpt lat="42.98043" lon="1.96911">
        <ele>400.4</ele>
        <time>2026-05-29T13:12:44Z</time>
      </trkpt>
      <trkpt lat="42.98043" lon="1.96911">
        <ele>400.4</ele>
        <time>2026-05-29T13:12:49Z</time>
      </trkpt>
      <trkpt lat="42.98044" lon="1.96911">
        <ele>400.5</ele>
        <time>2026-05-29T13:12:54Z</time>
      </trkpt>
      <trkpt lat="42.98045" lon="1.9691">
        <ele>400.5</ele>
        <time>2026-05-29T13:12:59Z</time>
      </trkpt>
      <trkpt lat="42.98046" lon="1.96905">
        <ele>400.4</ele>
        <time>2026-05-29T13:13:04Z</time>
      </trkpt>
      <trkpt lat="42.98049" lon="1.96899">
        <ele>400.4</ele>
        <time>2026-05-29T13:13:09Z</time>
      </trkpt>
      <trkpt lat="42.98054" lon="1.96893">
        <ele>400.5</ele>
        <time>2026-05-29T13:13:14Z</time>
      </trkpt>
      <trkpt lat="42.98058" lon="1.96888">
        <ele>400.6</ele>
        <time>2026-05-29T13:13:19Z</time>
      </trkpt>
      <trkpt lat="42.98062" lon="1.96881">
        <ele>400.5</ele>
        <time>2026-05-29T13:13:24Z</time>
      </trkpt>
      <trkpt lat="42.98068" lon="1.96874">
        <ele>400.6</ele>
        <time>2026-05-29T13:13:29Z</time>
      </trkpt>
      <trkpt lat="42.98071" lon="1.96868">
        <ele>400.6</ele>
        <time>2026-05-29T13:13:34Z</time>
      </trkpt>
      <trkpt lat="42.98076" lon="1.96861">
        <ele>400.6</ele>
        <time>2026-05-29T13:13:39Z</time>
      </trkpt>
      <trkpt lat="42.9808" lon="1.96856">
        <ele>400.6</ele>
        <time>2026-05-29T13:13:44Z</time>
      </trkpt>
      <trkpt lat="42.98083" lon="1.96851">
        <ele>400.6</ele>
        <time>2026-05-29T13:13:49Z</time>
      </trkpt>
      <trkpt lat="42.98087" lon="1.96844">
        <ele>400.9</ele>
        <time>2026-05-29T13:13:54Z</time>
      </trkpt>
      <trkpt lat="42.98093" lon="1.96838">
        <ele>401.5</ele>
        <time>2026-05-29T13:13:59Z</time>
      </trkpt>
      <trkpt lat="42.98098" lon="1.96831">
        <ele>401.9</ele>
        <time>2026-05-29T13:14:04Z</time>
      </trkpt>
      <trkpt lat="42.98102" lon="1.96824">
        <ele>402.4</ele>
        <time>2026-05-29T13:14:09Z</time>
      </trkpt>
      <trkpt lat="42.98107" lon="1.96819">
        <ele>403</ele>
        <time>2026-05-29T13:14:14Z</time>
      </trkpt>
      <trkpt lat="42.98111" lon="1.96813">
        <ele>403.4</ele>
        <time>2026-05-29T13:14:19Z</time>
      </trkpt>
      <trkpt lat="42.98116" lon="1.96807">
        <ele>404</ele>
        <time>2026-05-29T13:14:24Z</time>
      </trkpt>
      <trkpt lat="42.98119" lon="1.96802">
        <ele>404.3</ele>
        <time>2026-05-29T13:14:29Z</time>
      </trkpt>
      <trkpt lat="42.98123" lon="1.96796">
        <ele>404.8</ele>
        <time>2026-05-29T13:14:34Z</time>
      </trkpt>
      <trkpt lat="42.98128" lon="1.9679">
        <ele>405.4</ele>
        <time>2026-05-29T13:14:39Z</time>
      </trkpt>
      <trkpt lat="42.98132" lon="1.96782">
        <ele>405.8</ele>
        <time>2026-05-29T13:14:44Z</time>
      </trkpt>
      <trkpt lat="42.98135" lon="1.96777">
        <ele>406.1</ele>
        <time>2026-05-29T13:14:49Z</time>
      </trkpt>
      <trkpt lat="42.98138" lon="1.96772">
        <ele>406.5</ele>
        <time>2026-05-29T13:14:54Z</time>
      </trkpt>
      <trkpt lat="42.98141" lon="1.96766">
        <ele>406.8</ele>
        <time>2026-05-29T13:14:59Z</time>
      </trkpt>
      <trkpt lat="42.98145" lon="1.96761">
        <ele>407.3</ele>
        <time>2026-05-29T13:15:04Z</time>
      </trkpt>
      <trkpt lat="42.98148" lon="1.96758">
        <ele>407.6</ele>
        <time>2026-05-29T13:15:09Z</time>
      </trkpt>
      <trkpt lat="42.98151" lon="1.96757">
        <ele>408</ele>
        <time>2026-05-29T13:15:14Z</time>
      </trkpt>
      <trkpt lat="42.98156" lon="1.9676">
        <ele>408.7</ele>
        <time>2026-05-29T13:15:19Z</time>
      </trkpt>
      <trkpt lat="42.98157" lon="1.9676">
        <ele>408.8</ele>
        <time>2026-05-29T13:15:24Z</time>
      </trkpt>
      <trkpt lat="42.98158" lon="1.9676">
        <ele>409</ele>
        <time>2026-05-29T13:15:29Z</time>
      </trkpt>
      <trkpt lat="42.98158" lon="1.9676">
        <ele>409</ele>
        <time>2026-05-29T13:15:34Z</time>
      </trkpt>
      <trkpt lat="42.98158" lon="1.9676">
        <ele>409</ele>
        <time>2026-05-29T13:15:39Z</time>
      </trkpt>
      <trkpt lat="42.98158" lon="1.9676">
        <ele>409</ele>
        <time>2026-05-29T13:15:44Z</time>
      </trkpt>
      <trkpt lat="42.98158" lon="1.9676">
        <ele>409</ele>
        <time>2026-05-29T13:15:49Z</time>
      </trkpt>
      <trkpt lat="42.98158" lon="1.9676">
        <ele>409</ele>
        <time>2026-05-29T13:15:54Z</time>
      </trkpt>
      <trkpt lat="42.98158" lon="1.9676">
        <ele>409</ele>
        <time>2026-05-29T13:15:59Z</time>
      </trkpt>
      <trkpt lat="42.98158" lon="1.9676">
        <ele>409</ele>
        <time>2026-05-29T13:16:04Z</time>
      </trkpt>
      <trkpt lat="42.98158" lon="1.9676">
        <ele>409</ele>
        <time>2026-05-29T13:16:09Z</time>
      </trkpt>
      <trkpt lat="42.98158" lon="1.9676">
        <ele>409</ele>
        <time>2026-05-29T13:16:14Z</time>
      </trkpt>
      <trkpt lat="42.98158" lon="1.9676">
        <ele>409</ele>
        <time>2026-05-29T13:16:19Z</time>
      </trkpt>
      <trkpt lat="42.98158" lon="1.9676">
        <ele>409</ele>
        <time>2026-05-29T13:16:24Z</time>
      </trkpt>
      <trkpt lat="42.98158" lon="1.96752">
        <ele>408.9</ele>
        <time>2026-05-29T13:16:29Z</time>
      </trkpt>
      <trkpt lat="42.98155" lon="1.9675">
        <ele>408.5</ele>
        <time>2026-05-29T13:16:34Z</time>
      </trkpt>
      <trkpt lat="42.98155" lon="1.9675">
        <ele>408.5</ele>
        <time>2026-05-29T13:16:39Z</time>
      </trkpt>
      <trkpt lat="42.98155" lon="1.9675">
        <ele>408.5</ele>
        <time>2026-05-29T13:16:44Z</time>
      </trkpt>
      <trkpt lat="42.98151" lon="1.96753">
        <ele>408</ele>
        <time>2026-05-29T13:16:49Z</time>
      </trkpt>
      <trkpt lat="42.98148" lon="1.96755">
        <ele>407.6</ele>
        <time>2026-05-29T13:16:54Z</time>
      </trkpt>
      <trkpt lat="42.98147" lon="1.96761">
        <ele>407.5</ele>
        <time>2026-05-29T13:16:59Z</time>
      </trkpt>
      <trkpt lat="42.98145" lon="1.96767">
        <ele>407.3</ele>
        <time>2026-05-29T13:17:04Z</time>
      </trkpt>
      <trkpt lat="42.98141" lon="1.96772">
        <ele>406.9</ele>
        <time>2026-05-29T13:17:09Z</time>
      </trkpt>
      <trkpt lat="42.98135" lon="1.96775">
        <ele>406.1</ele>
        <time>2026-05-29T13:17:14Z</time>
      </trkpt>
      <trkpt lat="42.98133" lon="1.96781">
        <ele>405.9</ele>
        <time>2026-05-29T13:17:19Z</time>
      </trkpt>
      <trkpt lat="42.98127" lon="1.96789">
        <ele>405.2</ele>
        <time>2026-05-29T13:17:24Z</time>
      </trkpt>
      <trkpt lat="42.98123" lon="1.96796">
        <ele>404.8</ele>
        <time>2026-05-29T13:17:29Z</time>
      </trkpt>
      <trkpt lat="42.9812" lon="1.96801">
        <ele>404.5</ele>
        <time>2026-05-29T13:17:34Z</time>
      </trkpt>
      <trkpt lat="42.98116" lon="1.96806">
        <ele>404</ele>
        <time>2026-05-29T13:17:39Z</time>
      </trkpt>
      <trkpt lat="42.98114" lon="1.96808">
        <ele>403.7</ele>
        <time>2026-05-29T13:17:44Z</time>
      </trkpt>
      <trkpt lat="42.98113" lon="1.96808">
        <ele>403.6</ele>
        <time>2026-05-29T13:17:49Z</time>
      </trkpt>
      <trkpt lat="42.98113" lon="1.96809">
        <ele>403.6</ele>
        <time>2026-05-29T13:17:54Z</time>
      </trkpt>
      <trkpt lat="42.98113" lon="1.96809">
        <ele>403.6</ele>
        <time>2026-05-29T13:17:59Z</time>
      </trkpt>
      <trkpt lat="42.98113" lon="1.96809">
        <ele>403.6</ele>
        <time>2026-05-29T13:18:04Z</time>
      </trkpt>
      <trkpt lat="42.98113" lon="1.96809">
        <ele>403.6</ele>
        <time>2026-05-29T13:18:09Z</time>
      </trkpt>
      <trkpt lat="42.98113" lon="1.96809">
        <ele>403.6</ele>
        <time>2026-05-29T13:18:14Z</time>
      </trkpt>
      <trkpt lat="42.98113" lon="1.96809">
        <ele>403.6</ele>
        <time>2026-05-29T13:18:19Z</time>
      </trkpt>
      <trkpt lat="42.98113" lon="1.96809">
        <ele>403.6</ele>
        <time>2026-05-29T13:18:24Z</time>
      </trkpt>
      <trkpt lat="42.98109" lon="1.96819">
        <ele>403.2</ele>
        <time>2026-05-29T13:18:29Z</time>
      </trkpt>
      <trkpt lat="42.98105" lon="1.96826">
        <ele>402.8</ele>
        <time>2026-05-29T13:18:34Z</time>
      </trkpt>
      <trkpt lat="42.98101" lon="1.96832">
        <ele>402.3</ele>
        <time>2026-05-29T13:18:39Z</time>
      </trkpt>
      <trkpt lat="42.98097" lon="1.96837">
        <ele>402</ele>
        <time>2026-05-29T13:18:44Z</time>
      </trkpt>
      <trkpt lat="42.98093" lon="1.96841">
        <ele>401.6</ele>
        <time>2026-05-29T13:18:49Z</time>
      </trkpt>
      <trkpt lat="42.9809" lon="1.96845">
        <ele>401.3</ele>
        <time>2026-05-29T13:18:54Z</time>
      </trkpt>
      <trkpt lat="42.98085" lon="1.9685">
        <ele>400.8</ele>
        <time>2026-05-29T13:18:59Z</time>
      </trkpt>
      <trkpt lat="42.98082" lon="1.96857">
        <ele>400.8</ele>
        <time>2026-05-29T13:19:04Z</time>
      </trkpt>
      <trkpt lat="42.98078" lon="1.96862">
        <ele>400.8</ele>
        <time>2026-05-29T13:19:09Z</time>
      </trkpt>
      <trkpt lat="42.98074" lon="1.96867">
        <ele>400.7</ele>
        <time>2026-05-29T13:19:14Z</time>
      </trkpt>
      <trkpt lat="42.98071" lon="1.96874">
        <ele>400.8</ele>
        <time>2026-05-29T13:19:19Z</time>
      </trkpt>
      <trkpt lat="42.98068" lon="1.9688">
        <ele>400.8</ele>
        <time>2026-05-29T13:19:24Z</time>
      </trkpt>
      <trkpt lat="42.98063" lon="1.96887">
        <ele>400.8</ele>
        <time>2026-05-29T13:19:29Z</time>
      </trkpt>
      <trkpt lat="42.98059" lon="1.96893">
        <ele>400.8</ele>
        <time>2026-05-29T13:19:34Z</time>
      </trkpt>
      <trkpt lat="42.98056" lon="1.96898">
        <ele>400.8</ele>
        <time>2026-05-29T13:19:39Z</time>
      </trkpt>
      <trkpt lat="42.98053" lon="1.96903">
        <ele>400.7</ele>
        <time>2026-05-29T13:19:44Z</time>
      </trkpt>
      <trkpt lat="42.98049" lon="1.96908">
        <ele>400.7</ele>
        <time>2026-05-29T13:19:49Z</time>
      </trkpt>
      <trkpt lat="42.98045" lon="1.96913">
        <ele>400.6</ele>
        <time>2026-05-29T13:19:54Z</time>
      </trkpt>
      <trkpt lat="42.98041" lon="1.9692">
        <ele>400.7</ele>
        <time>2026-05-29T13:19:59Z</time>
      </trkpt>
      <trkpt lat="42.98037" lon="1.96925">
        <ele>400.8</ele>
        <time>2026-05-29T13:20:04Z</time>
      </trkpt>
      <trkpt lat="42.98033" lon="1.96931">
        <ele>400.9</ele>
        <time>2026-05-29T13:20:09Z</time>
      </trkpt>
      <trkpt lat="42.98028" lon="1.96936">
        <ele>400.9</ele>
        <time>2026-05-29T13:20:14Z</time>
      </trkpt>
      <trkpt lat="42.98026" lon="1.96942">
        <ele>401.2</ele>
        <time>2026-05-29T13:20:19Z</time>
      </trkpt>
      <trkpt lat="42.98025" lon="1.96949">
        <ele>401.6</ele>
        <time>2026-05-29T13:20:24Z</time>
      </trkpt>
      <trkpt lat="42.98026" lon="1.96955">
        <ele>402</ele>
        <time>2026-05-29T13:20:29Z</time>
      </trkpt>
      <trkpt lat="42.98029" lon="1.96956">
        <ele>402.3</ele>
        <time>2026-05-29T13:20:34Z</time>
      </trkpt>
      <trkpt lat="42.98032" lon="1.96955">
        <ele>402.4</ele>
        <time>2026-05-29T13:20:39Z</time>
      </trkpt>
      <trkpt lat="42.98037" lon="1.96957">
        <ele>402.9</ele>
        <time>2026-05-29T13:20:44Z</time>
      </trkpt>
      <trkpt lat="42.98042" lon="1.96959">
        <ele>403.3</ele>
        <time>2026-05-29T13:20:49Z</time>
      </trkpt>
      <trkpt lat="42.98046" lon="1.96962">
        <ele>403.8</ele>
        <time>2026-05-29T13:20:54Z</time>
      </trkpt>
      <trkpt lat="42.98051" lon="1.96964">
        <ele>404.2</ele>
        <time>2026-05-29T13:20:59Z</time>
      </trkpt>
      <trkpt lat="42.98054" lon="1.96966">
        <ele>404.6</ele>
        <time>2026-05-29T13:21:04Z</time>
      </trkpt>
      <trkpt lat="42.98058" lon="1.96969">
        <ele>405.1</ele>
        <time>2026-05-29T13:21:09Z</time>
      </trkpt>
      <trkpt lat="42.98061" lon="1.96974">
        <ele>405.6</ele>
        <time>2026-05-29T13:21:14Z</time>
      </trkpt>
      <trkpt lat="42.98062" lon="1.9698">
        <ele>406.1</ele>
        <time>2026-05-29T13:21:19Z</time>
      </trkpt>
      <trkpt lat="42.98062" lon="1.96987">
        <ele>406.6</ele>
        <time>2026-05-29T13:21:24Z</time>
      </trkpt>
      <trkpt lat="42.98061" lon="1.96992">
        <ele>406.8</ele>
        <time>2026-05-29T13:21:29Z</time>
      </trkpt>
      <trkpt lat="42.98059" lon="1.96996">
        <ele>407</ele>
        <time>2026-05-29T13:21:34Z</time>
      </trkpt>
      <trkpt lat="42.98059" lon="1.97001">
        <ele>407.3</ele>
        <time>2026-05-29T13:21:39Z</time>
      </trkpt>
      <trkpt lat="42.9806" lon="1.97008">
        <ele>407.6</ele>
        <time>2026-05-29T13:21:44Z</time>
      </trkpt>
      <trkpt lat="42.9806" lon="1.97013">
        <ele>407.7</ele>
        <time>2026-05-29T13:21:49Z</time>
      </trkpt>
      <trkpt lat="42.98062" lon="1.97016">
        <ele>408</ele>
        <time>2026-05-29T13:21:54Z</time>
      </trkpt>
      <trkpt lat="42.98065" lon="1.97015">
        <ele>408.2</ele>
        <time>2026-05-29T13:21:59Z</time>
      </trkpt>
      <trkpt lat="42.98068" lon="1.97013">
        <ele>408.3</ele>
        <time>2026-05-29T13:22:04Z</time>
      </trkpt>
      <trkpt lat="42.9807" lon="1.97011">
        <ele>408.4</ele>
        <time>2026-05-29T13:22:09Z</time>
      </trkpt>
      <trkpt lat="42.9807" lon="1.97011">
        <ele>408.4</ele>
        <time>2026-05-29T13:22:14Z</time>
      </trkpt>
      <trkpt lat="42.9807" lon="1.97011">
        <ele>408.4</ele>
        <time>2026-05-29T13:22:19Z</time>
      </trkpt>
      <trkpt lat="42.98066" lon="1.97018">
        <ele>408.4</ele>
        <time>2026-05-29T13:22:24Z</time>
      </trkpt>
      <trkpt lat="42.98063" lon="1.97022">
        <ele>408.3</ele>
        <time>2026-05-29T13:22:29Z</time>
      </trkpt>
      <trkpt lat="42.98058" lon="1.97025">
        <ele>408</ele>
        <time>2026-05-29T13:22:34Z</time>
      </trkpt>
      <trkpt lat="42.98054" lon="1.97027">
        <ele>407.7</ele>
        <time>2026-05-29T13:22:39Z</time>
      </trkpt>
      <trkpt lat="42.98054" lon="1.97027">
        <ele>407.7</ele>
        <time>2026-05-29T13:22:44Z</time>
      </trkpt>
      <trkpt lat="42.98054" lon="1.97027">
        <ele>407.7</ele>
        <time>2026-05-29T13:22:49Z</time>
      </trkpt>
      <trkpt lat="42.98054" lon="1.97027">
        <ele>407.7</ele>
        <time>2026-05-29T13:22:54Z</time>
      </trkpt>
      <trkpt lat="42.98054" lon="1.97027">
        <ele>407.7</ele>
        <time>2026-05-29T13:22:59Z</time>
      </trkpt>
      <trkpt lat="42.98054" lon="1.97027">
        <ele>407.7</ele>
        <time>2026-05-29T13:23:04Z</time>
      </trkpt>
      <trkpt lat="42.98054" lon="1.97027">
        <ele>407.7</ele>
        <time>2026-05-29T13:23:09Z</time>
      </trkpt>
      <trkpt lat="42.98054" lon="1.97027">
        <ele>407.7</ele>
        <time>2026-05-29T13:23:14Z</time>
      </trkpt>
      <trkpt lat="42.98054" lon="1.97027">
        <ele>407.7</ele>
        <time>2026-05-29T13:23:19Z</time>
      </trkpt>
      <trkpt lat="42.98054" lon="1.97027">
        <ele>407.7</ele>
        <time>2026-05-29T13:23:24Z</time>
      </trkpt>
      <trkpt lat="42.98054" lon="1.97027">
        <ele>407.7</ele>
        <time>2026-05-29T13:23:30Z</time>
      </trkpt>
      <trkpt lat="42.98054" lon="1.97027">
        <ele>407.7</ele>
        <time>2026-05-29T13:23:35Z</time>
      </trkpt>
      <trkpt lat="42.98061" lon="1.97031">
        <ele>408.4</ele>
        <time>2026-05-29T13:23:40Z</time>
      </trkpt>
      <trkpt lat="42.98065" lon="1.97032">
        <ele>408.7</ele>
        <time>2026-05-29T13:23:45Z</time>
      </trkpt>
      <trkpt lat="42.98066" lon="1.97038">
        <ele>409</ele>
        <time>2026-05-29T13:23:50Z</time>
      </trkpt>
      <trkpt lat="42.98067" lon="1.97044">
        <ele>409.3</ele>
        <time>2026-05-29T13:23:55Z</time>
      </trkpt>
      <trkpt lat="42.98069" lon="1.97049">
        <ele>409.6</ele>
        <time>2026-05-29T13:24:00Z</time>
      </trkpt>
      <trkpt lat="42.98069" lon="1.97049">
        <ele>409.6</ele>
        <time>2026-05-29T13:24:05Z</time>
      </trkpt>
      <trkpt lat="42.98069" lon="1.97049">
        <ele>409.6</ele>
        <time>2026-05-29T13:24:10Z</time>
      </trkpt>
      <trkpt lat="42.98069" lon="1.97049">
        <ele>409.6</ele>
        <time>2026-05-29T13:24:15Z</time>
      </trkpt>
      <trkpt lat="42.98069" lon="1.97049">
        <ele>409.6</ele>
        <time>2026-05-29T13:24:20Z</time>
      </trkpt>
      <trkpt lat="42.98069" lon="1.97049">
        <ele>409.6</ele>
        <time>2026-05-29T13:24:25Z</time>
      </trkpt>
      <trkpt lat="42.98069" lon="1.97049">
        <ele>409.6</ele>
        <time>2026-05-29T13:24:30Z</time>
      </trkpt>
      <trkpt lat="42.98075" lon="1.97041">
        <ele>409.8</ele>
        <time>2026-05-29T13:24:35Z</time>
      </trkpt>
    </trkseg>
  </trk>
</gpx>